<?xml version="1.0" encoding="UTF-8" standalone="no" ?>
<gpx xmlns="http://www.topografix.com/GPX/1/1" xmlns:xsi="http://www.w3.org/2001/XMLSchema-instance" xsi:schemaLocation="http://www.topografix.com/GPX/1/1 http://www.topografix.com/GPX/1/1/gpx.xsd" version="1.1" creator="VisuGPX - https://www.visugpx.com">
  <metadata>
    <name>[09/12/2018] L'hivernale VTT à Gravigny</name>
    <desc><![CDATA[Parcours de 42 km. Une organisation de l'UV Gravigny.]]></desc>
  </metadata>
  <trk>
    <name><![CDATA[[09/12/2018] L'hivernale VTT à Gravigny_1]]></name>
    <trkseg>
      <trkpt lat="49.04484" lon="1.15673">
        <ele>55.416767</ele>
        <time>2018-12-09T07:13:05Z</time>
      </trkpt>
      <trkpt lat="49.04484" lon="1.15673">
        <ele>55.416767</ele>
        <time>2018-12-09T07:13:06Z</time>
      </trkpt>
      <trkpt lat="49.04484" lon="1.15673">
        <ele>55.5</ele>
        <time>2018-12-09T07:13:10Z</time>
      </trkpt>
      <trkpt lat="49.04488" lon="1.15691">
        <ele>55.9</ele>
        <time>2018-12-09T07:13:21Z</time>
      </trkpt>
      <trkpt lat="49.04494" lon="1.15706">
        <ele>56.1</ele>
        <time>2018-12-09T07:13:24Z</time>
      </trkpt>
      <trkpt lat="49.045" lon="1.15721">
        <ele>56.1</ele>
        <time>2018-12-09T07:13:27Z</time>
      </trkpt>
      <trkpt lat="49.04509" lon="1.1573">
        <ele>55.9</ele>
        <time>2018-12-09T07:13:30Z</time>
      </trkpt>
      <trkpt lat="49.04521" lon="1.15727">
        <ele>55.6</ele>
        <time>2018-12-09T07:13:33Z</time>
      </trkpt>
      <trkpt lat="49.04531" lon="1.1572">
        <ele>55.3</ele>
        <time>2018-12-09T07:13:36Z</time>
      </trkpt>
      <trkpt lat="49.04536" lon="1.15708">
        <ele>55</ele>
        <time>2018-12-09T07:13:39Z</time>
      </trkpt>
      <trkpt lat="49.04537" lon="1.15693">
        <ele>55.1</ele>
        <time>2018-12-09T07:13:42Z</time>
      </trkpt>
      <trkpt lat="49.04537" lon="1.15677">
        <ele>55.5</ele>
        <time>2018-12-09T07:13:45Z</time>
      </trkpt>
      <trkpt lat="49.04537" lon="1.15662">
        <ele>55.5</ele>
        <time>2018-12-09T07:13:48Z</time>
      </trkpt>
      <trkpt lat="49.04537" lon="1.15646">
        <ele>55.9</ele>
        <time>2018-12-09T07:13:51Z</time>
      </trkpt>
      <trkpt lat="49.04537" lon="1.15631">
        <ele>56.2</ele>
        <time>2018-12-09T07:13:54Z</time>
      </trkpt>
      <trkpt lat="49.04537" lon="1.15616">
        <ele>56.6</ele>
        <time>2018-12-09T07:13:57Z</time>
      </trkpt>
      <trkpt lat="49.04538" lon="1.15598">
        <ele>57.1</ele>
        <time>2018-12-09T07:14:01Z</time>
      </trkpt>
      <trkpt lat="49.04537" lon="1.1558">
        <ele>57.6</ele>
        <time>2018-12-09T07:14:05Z</time>
      </trkpt>
      <trkpt lat="49.04537" lon="1.15566">
        <ele>57.9</ele>
        <time>2018-12-09T07:14:08Z</time>
      </trkpt>
      <trkpt lat="49.04537" lon="1.15552">
        <ele>58.3</ele>
        <time>2018-12-09T07:14:11Z</time>
      </trkpt>
      <trkpt lat="49.04539" lon="1.15535">
        <ele>58.9</ele>
        <time>2018-12-09T07:14:15Z</time>
      </trkpt>
      <trkpt lat="49.04549" lon="1.15525">
        <ele>59.3</ele>
        <time>2018-12-09T07:14:19Z</time>
      </trkpt>
      <trkpt lat="49.04558" lon="1.15524">
        <ele>59.4</ele>
        <time>2018-12-09T07:14:22Z</time>
      </trkpt>
      <trkpt lat="49.04567" lon="1.15523">
        <ele>59.4</ele>
        <time>2018-12-09T07:14:25Z</time>
      </trkpt>
      <trkpt lat="49.04577" lon="1.1552">
        <ele>59.4</ele>
        <time>2018-12-09T07:14:28Z</time>
      </trkpt>
      <trkpt lat="49.04587" lon="1.15518">
        <ele>59.5</ele>
        <time>2018-12-09T07:14:31Z</time>
      </trkpt>
      <trkpt lat="49.04597" lon="1.15515">
        <ele>59.7</ele>
        <time>2018-12-09T07:14:34Z</time>
      </trkpt>
      <trkpt lat="49.04609" lon="1.15514">
        <ele>59.9</ele>
        <time>2018-12-09T07:14:37Z</time>
      </trkpt>
      <trkpt lat="49.0462" lon="1.15513">
        <ele>59.9</ele>
        <time>2018-12-09T07:14:40Z</time>
      </trkpt>
      <trkpt lat="49.04632" lon="1.15511">
        <ele>59.9</ele>
        <time>2018-12-09T07:14:43Z</time>
      </trkpt>
      <trkpt lat="49.04643" lon="1.1551">
        <ele>60.2</ele>
        <time>2018-12-09T07:14:46Z</time>
      </trkpt>
      <trkpt lat="49.04654" lon="1.1551">
        <ele>60.4</ele>
        <time>2018-12-09T07:14:49Z</time>
      </trkpt>
      <trkpt lat="49.04665" lon="1.15509">
        <ele>60.5</ele>
        <time>2018-12-09T07:14:52Z</time>
      </trkpt>
      <trkpt lat="49.04676" lon="1.15508">
        <ele>60.6</ele>
        <time>2018-12-09T07:14:55Z</time>
      </trkpt>
      <trkpt lat="49.04687" lon="1.15508">
        <ele>60.7</ele>
        <time>2018-12-09T07:14:58Z</time>
      </trkpt>
      <trkpt lat="49.04698" lon="1.15508">
        <ele>60.9</ele>
        <time>2018-12-09T07:15:01Z</time>
      </trkpt>
      <trkpt lat="49.04709" lon="1.15507">
        <ele>61</ele>
        <time>2018-12-09T07:15:04Z</time>
      </trkpt>
      <trkpt lat="49.04719" lon="1.15508">
        <ele>61.5</ele>
        <time>2018-12-09T07:15:07Z</time>
      </trkpt>
      <trkpt lat="49.0473" lon="1.15508">
        <ele>61.8</ele>
        <time>2018-12-09T07:15:10Z</time>
      </trkpt>
      <trkpt lat="49.04739" lon="1.15507">
        <ele>62.2</ele>
        <time>2018-12-09T07:15:13Z</time>
      </trkpt>
      <trkpt lat="49.0475" lon="1.15503">
        <ele>62.6</ele>
        <time>2018-12-09T07:15:17Z</time>
      </trkpt>
      <trkpt lat="49.04754" lon="1.15488">
        <ele>62.9</ele>
        <time>2018-12-09T07:15:21Z</time>
      </trkpt>
      <trkpt lat="49.04755" lon="1.15472">
        <ele>63.5</ele>
        <time>2018-12-09T07:15:25Z</time>
      </trkpt>
      <trkpt lat="49.04755" lon="1.15457">
        <ele>64.1</ele>
        <time>2018-12-09T07:15:29Z</time>
      </trkpt>
      <trkpt lat="49.04747" lon="1.15444">
        <ele>64.4</ele>
        <time>2018-12-09T07:15:34Z</time>
      </trkpt>
      <trkpt lat="49.04736" lon="1.15444">
        <ele>64.5</ele>
        <time>2018-12-09T07:15:38Z</time>
      </trkpt>
      <trkpt lat="49.04727" lon="1.15444">
        <ele>64.1</ele>
        <time>2018-12-09T07:15:41Z</time>
      </trkpt>
      <trkpt lat="49.04715" lon="1.15443">
        <ele>63.9</ele>
        <time>2018-12-09T07:15:45Z</time>
      </trkpt>
      <trkpt lat="49.04706" lon="1.15442">
        <ele>63.7</ele>
        <time>2018-12-09T07:15:48Z</time>
      </trkpt>
      <trkpt lat="49.04695" lon="1.15444">
        <ele>63.7</ele>
        <time>2018-12-09T07:15:51Z</time>
      </trkpt>
      <trkpt lat="49.04685" lon="1.15444">
        <ele>63.4</ele>
        <time>2018-12-09T07:15:54Z</time>
      </trkpt>
      <trkpt lat="49.04676" lon="1.15445">
        <ele>63.3</ele>
        <time>2018-12-09T07:15:57Z</time>
      </trkpt>
      <trkpt lat="49.04666" lon="1.15446">
        <ele>63.2</ele>
        <time>2018-12-09T07:16:00Z</time>
      </trkpt>
      <trkpt lat="49.04657" lon="1.15448">
        <ele>63.2</ele>
        <time>2018-12-09T07:16:03Z</time>
      </trkpt>
      <trkpt lat="49.04648" lon="1.1545">
        <ele>63.3</ele>
        <time>2018-12-09T07:16:06Z</time>
      </trkpt>
      <trkpt lat="49.04638" lon="1.15451">
        <ele>63.3</ele>
        <time>2018-12-09T07:16:09Z</time>
      </trkpt>
      <trkpt lat="49.04628" lon="1.15451">
        <ele>63.1</ele>
        <time>2018-12-09T07:16:12Z</time>
      </trkpt>
      <trkpt lat="49.04619" lon="1.15452">
        <ele>62.9</ele>
        <time>2018-12-09T07:16:15Z</time>
      </trkpt>
      <trkpt lat="49.04609" lon="1.15453">
        <ele>62.7</ele>
        <time>2018-12-09T07:16:18Z</time>
      </trkpt>
      <trkpt lat="49.04599" lon="1.15453">
        <ele>62.7</ele>
        <time>2018-12-09T07:16:21Z</time>
      </trkpt>
      <trkpt lat="49.0459" lon="1.15454">
        <ele>62.5</ele>
        <time>2018-12-09T07:16:24Z</time>
      </trkpt>
      <trkpt lat="49.0458" lon="1.15456">
        <ele>62.3</ele>
        <time>2018-12-09T07:16:27Z</time>
      </trkpt>
      <trkpt lat="49.0457" lon="1.15457">
        <ele>62.4</ele>
        <time>2018-12-09T07:16:30Z</time>
      </trkpt>
      <trkpt lat="49.0456" lon="1.15459">
        <ele>62.3</ele>
        <time>2018-12-09T07:16:33Z</time>
      </trkpt>
      <trkpt lat="49.04551" lon="1.15461">
        <ele>62.4</ele>
        <time>2018-12-09T07:16:36Z</time>
      </trkpt>
      <trkpt lat="49.04541" lon="1.15464">
        <ele>62.5</ele>
        <time>2018-12-09T07:16:39Z</time>
      </trkpt>
      <trkpt lat="49.04531" lon="1.15466">
        <ele>62.5</ele>
        <time>2018-12-09T07:16:42Z</time>
      </trkpt>
      <trkpt lat="49.04521" lon="1.15466">
        <ele>62.5</ele>
        <time>2018-12-09T07:16:45Z</time>
      </trkpt>
      <trkpt lat="49.04512" lon="1.15467">
        <ele>62.5</ele>
        <time>2018-12-09T07:16:48Z</time>
      </trkpt>
      <trkpt lat="49.04502" lon="1.15468">
        <ele>62.5</ele>
        <time>2018-12-09T07:16:51Z</time>
      </trkpt>
      <trkpt lat="49.04493" lon="1.15468">
        <ele>62.5</ele>
        <time>2018-12-09T07:16:54Z</time>
      </trkpt>
      <trkpt lat="49.04483" lon="1.15468">
        <ele>62.9</ele>
        <time>2018-12-09T07:16:57Z</time>
      </trkpt>
      <trkpt lat="49.04473" lon="1.15468">
        <ele>62.9</ele>
        <time>2018-12-09T07:17:00Z</time>
      </trkpt>
      <trkpt lat="49.04463" lon="1.15469">
        <ele>63.1</ele>
        <time>2018-12-09T07:17:03Z</time>
      </trkpt>
      <trkpt lat="49.04454" lon="1.15469">
        <ele>63.2</ele>
        <time>2018-12-09T07:17:06Z</time>
      </trkpt>
      <trkpt lat="49.04444" lon="1.15469">
        <ele>63.2</ele>
        <time>2018-12-09T07:17:09Z</time>
      </trkpt>
      <trkpt lat="49.04433" lon="1.15469">
        <ele>62.8</ele>
        <time>2018-12-09T07:17:12Z</time>
      </trkpt>
      <trkpt lat="49.04422" lon="1.1547">
        <ele>62.6</ele>
        <time>2018-12-09T07:17:15Z</time>
      </trkpt>
      <trkpt lat="49.04411" lon="1.15471">
        <ele>62.4</ele>
        <time>2018-12-09T07:17:18Z</time>
      </trkpt>
      <trkpt lat="49.04401" lon="1.15471">
        <ele>62.4</ele>
        <time>2018-12-09T07:17:21Z</time>
      </trkpt>
      <trkpt lat="49.04391" lon="1.15472">
        <ele>62.4</ele>
        <time>2018-12-09T07:17:24Z</time>
      </trkpt>
      <trkpt lat="49.0438" lon="1.15472">
        <ele>62.1</ele>
        <time>2018-12-09T07:17:27Z</time>
      </trkpt>
      <trkpt lat="49.0437" lon="1.15473">
        <ele>62.3</ele>
        <time>2018-12-09T07:17:30Z</time>
      </trkpt>
      <trkpt lat="49.0436" lon="1.15474">
        <ele>62.4</ele>
        <time>2018-12-09T07:17:33Z</time>
      </trkpt>
      <trkpt lat="49.04351" lon="1.15474">
        <ele>62.7</ele>
        <time>2018-12-09T07:17:36Z</time>
      </trkpt>
      <trkpt lat="49.0434" lon="1.15475">
        <ele>62.9</ele>
        <time>2018-12-09T07:17:39Z</time>
      </trkpt>
      <trkpt lat="49.0433" lon="1.15476">
        <ele>63</ele>
        <time>2018-12-09T07:17:42Z</time>
      </trkpt>
      <trkpt lat="49.0432" lon="1.15476">
        <ele>62.9</ele>
        <time>2018-12-09T07:17:45Z</time>
      </trkpt>
      <trkpt lat="49.0431" lon="1.15477">
        <ele>62.8</ele>
        <time>2018-12-09T07:17:48Z</time>
      </trkpt>
      <trkpt lat="49.04299" lon="1.15477">
        <ele>62.6</ele>
        <time>2018-12-09T07:17:51Z</time>
      </trkpt>
      <trkpt lat="49.04288" lon="1.15478">
        <ele>62.4</ele>
        <time>2018-12-09T07:17:54Z</time>
      </trkpt>
      <trkpt lat="49.04278" lon="1.15478">
        <ele>62.4</ele>
        <time>2018-12-09T07:17:57Z</time>
      </trkpt>
      <trkpt lat="49.04267" lon="1.15479">
        <ele>62.1</ele>
        <time>2018-12-09T07:18:00Z</time>
      </trkpt>
      <trkpt lat="49.04257" lon="1.1548">
        <ele>62.3</ele>
        <time>2018-12-09T07:18:03Z</time>
      </trkpt>
      <trkpt lat="49.04247" lon="1.1548">
        <ele>62.6</ele>
        <time>2018-12-09T07:18:06Z</time>
      </trkpt>
      <trkpt lat="49.04237" lon="1.15481">
        <ele>63</ele>
        <time>2018-12-09T07:18:09Z</time>
      </trkpt>
      <trkpt lat="49.04227" lon="1.15481">
        <ele>63.2</ele>
        <time>2018-12-09T07:18:12Z</time>
      </trkpt>
      <trkpt lat="49.04218" lon="1.15482">
        <ele>63.6</ele>
        <time>2018-12-09T07:18:15Z</time>
      </trkpt>
      <trkpt lat="49.04206" lon="1.15482">
        <ele>63.8</ele>
        <time>2018-12-09T07:18:19Z</time>
      </trkpt>
      <trkpt lat="49.04197" lon="1.15483">
        <ele>64</ele>
        <time>2018-12-09T07:18:22Z</time>
      </trkpt>
      <trkpt lat="49.04185" lon="1.15485">
        <ele>64.1</ele>
        <time>2018-12-09T07:18:26Z</time>
      </trkpt>
      <trkpt lat="49.04176" lon="1.15485">
        <ele>64.6</ele>
        <time>2018-12-09T07:18:29Z</time>
      </trkpt>
      <trkpt lat="49.04166" lon="1.15485">
        <ele>64.9</ele>
        <time>2018-12-09T07:18:32Z</time>
      </trkpt>
      <trkpt lat="49.04157" lon="1.15486">
        <ele>65</ele>
        <time>2018-12-09T07:18:35Z</time>
      </trkpt>
      <trkpt lat="49.04148" lon="1.15487">
        <ele>65</ele>
        <time>2018-12-09T07:18:38Z</time>
      </trkpt>
      <trkpt lat="49.04136" lon="1.15488">
        <ele>65.3</ele>
        <time>2018-12-09T07:18:42Z</time>
      </trkpt>
      <trkpt lat="49.04124" lon="1.15488">
        <ele>65.5</ele>
        <time>2018-12-09T07:18:46Z</time>
      </trkpt>
      <trkpt lat="49.04113" lon="1.15489">
        <ele>65.4</ele>
        <time>2018-12-09T07:18:50Z</time>
      </trkpt>
      <trkpt lat="49.04101" lon="1.1549">
        <ele>65.4</ele>
        <time>2018-12-09T07:18:54Z</time>
      </trkpt>
      <trkpt lat="49.0409" lon="1.1549">
        <ele>65.5</ele>
        <time>2018-12-09T07:18:58Z</time>
      </trkpt>
      <trkpt lat="49.04078" lon="1.1549">
        <ele>65.7</ele>
        <time>2018-12-09T07:19:02Z</time>
      </trkpt>
      <trkpt lat="49.04069" lon="1.1549">
        <ele>66</ele>
        <time>2018-12-09T07:19:05Z</time>
      </trkpt>
      <trkpt lat="49.04058" lon="1.15487">
        <ele>66.5</ele>
        <time>2018-12-09T07:19:09Z</time>
      </trkpt>
      <trkpt lat="49.04048" lon="1.15485">
        <ele>66.4</ele>
        <time>2018-12-09T07:19:12Z</time>
      </trkpt>
      <trkpt lat="49.04038" lon="1.15483">
        <ele>66</ele>
        <time>2018-12-09T07:19:15Z</time>
      </trkpt>
      <trkpt lat="49.04028" lon="1.15482">
        <ele>66.1</ele>
        <time>2018-12-09T07:19:18Z</time>
      </trkpt>
      <trkpt lat="49.04018" lon="1.15481">
        <ele>66</ele>
        <time>2018-12-09T07:19:21Z</time>
      </trkpt>
      <trkpt lat="49.04008" lon="1.15479">
        <ele>65.7</ele>
        <time>2018-12-09T07:19:24Z</time>
      </trkpt>
      <trkpt lat="49.03998" lon="1.15477">
        <ele>65.3</ele>
        <time>2018-12-09T07:19:27Z</time>
      </trkpt>
      <trkpt lat="49.03988" lon="1.15475">
        <ele>65.1</ele>
        <time>2018-12-09T07:19:30Z</time>
      </trkpt>
      <trkpt lat="49.03978" lon="1.15474">
        <ele>65.2</ele>
        <time>2018-12-09T07:19:33Z</time>
      </trkpt>
      <trkpt lat="49.03968" lon="1.15473">
        <ele>65.1</ele>
        <time>2018-12-09T07:19:36Z</time>
      </trkpt>
      <trkpt lat="49.03959" lon="1.15472">
        <ele>65.1</ele>
        <time>2018-12-09T07:19:39Z</time>
      </trkpt>
      <trkpt lat="49.03949" lon="1.15471">
        <ele>65.2</ele>
        <time>2018-12-09T07:19:42Z</time>
      </trkpt>
      <trkpt lat="49.03939" lon="1.1547">
        <ele>65.2</ele>
        <time>2018-12-09T07:19:45Z</time>
      </trkpt>
      <trkpt lat="49.03929" lon="1.15469">
        <ele>65.5</ele>
        <time>2018-12-09T07:19:48Z</time>
      </trkpt>
      <trkpt lat="49.0392" lon="1.15468">
        <ele>65.3</ele>
        <time>2018-12-09T07:19:51Z</time>
      </trkpt>
      <trkpt lat="49.0391" lon="1.15467">
        <ele>65.2</ele>
        <time>2018-12-09T07:19:54Z</time>
      </trkpt>
      <trkpt lat="49.03898" lon="1.15465">
        <ele>65.7</ele>
        <time>2018-12-09T07:19:58Z</time>
      </trkpt>
      <trkpt lat="49.03889" lon="1.15465">
        <ele>65.9</ele>
        <time>2018-12-09T07:20:01Z</time>
      </trkpt>
      <trkpt lat="49.0388" lon="1.15464">
        <ele>66.2</ele>
        <time>2018-12-09T07:20:04Z</time>
      </trkpt>
      <trkpt lat="49.03868" lon="1.15463">
        <ele>66.7</ele>
        <time>2018-12-09T07:20:08Z</time>
      </trkpt>
      <trkpt lat="49.03857" lon="1.15463">
        <ele>67.5</ele>
        <time>2018-12-09T07:20:12Z</time>
      </trkpt>
      <trkpt lat="49.03845" lon="1.15461">
        <ele>67.8</ele>
        <time>2018-12-09T07:20:16Z</time>
      </trkpt>
      <trkpt lat="49.03834" lon="1.1546">
        <ele>68.3</ele>
        <time>2018-12-09T07:20:20Z</time>
      </trkpt>
      <trkpt lat="49.03824" lon="1.1546">
        <ele>69.1</ele>
        <time>2018-12-09T07:20:24Z</time>
      </trkpt>
      <trkpt lat="49.03813" lon="1.1546">
        <ele>69.7</ele>
        <time>2018-12-09T07:20:28Z</time>
      </trkpt>
      <trkpt lat="49.03801" lon="1.1546">
        <ele>70</ele>
        <time>2018-12-09T07:20:32Z</time>
      </trkpt>
      <trkpt lat="49.0379" lon="1.15461">
        <ele>70.1</ele>
        <time>2018-12-09T07:20:36Z</time>
      </trkpt>
      <trkpt lat="49.03781" lon="1.15464">
        <ele>70.4</ele>
        <time>2018-12-09T07:20:40Z</time>
      </trkpt>
      <trkpt lat="49.03774" lon="1.15476">
        <ele>70.9</ele>
        <time>2018-12-09T07:20:46Z</time>
      </trkpt>
      <trkpt lat="49.03772" lon="1.15496">
        <ele>70.2</ele>
        <time>2018-12-09T07:20:50Z</time>
      </trkpt>
      <trkpt lat="49.03771" lon="1.15514">
        <ele>69.2</ele>
        <time>2018-12-09T07:20:53Z</time>
      </trkpt>
      <trkpt lat="49.0377" lon="1.15528">
        <ele>68.5</ele>
        <time>2018-12-09T07:20:55Z</time>
      </trkpt>
      <trkpt lat="49.03768" lon="1.15542">
        <ele>68</ele>
        <time>2018-12-09T07:20:57Z</time>
      </trkpt>
      <trkpt lat="49.03767" lon="1.15557">
        <ele>67.6</ele>
        <time>2018-12-09T07:20:59Z</time>
      </trkpt>
      <trkpt lat="49.03765" lon="1.15574">
        <ele>67</ele>
        <time>2018-12-09T07:21:01Z</time>
      </trkpt>
      <trkpt lat="49.03764" lon="1.15591">
        <ele>66.5</ele>
        <time>2018-12-09T07:21:03Z</time>
      </trkpt>
      <trkpt lat="49.03763" lon="1.15607">
        <ele>66</ele>
        <time>2018-12-09T07:21:05Z</time>
      </trkpt>
      <trkpt lat="49.03762" lon="1.15622">
        <ele>65.5</ele>
        <time>2018-12-09T07:21:07Z</time>
      </trkpt>
      <trkpt lat="49.03755" lon="1.15637">
        <ele>64.7</ele>
        <time>2018-12-09T07:21:10Z</time>
      </trkpt>
      <trkpt lat="49.03742" lon="1.15636">
        <ele>63.9</ele>
        <time>2018-12-09T07:21:13Z</time>
      </trkpt>
      <trkpt lat="49.0373" lon="1.1563">
        <ele>63.5</ele>
        <time>2018-12-09T07:21:16Z</time>
      </trkpt>
      <trkpt lat="49.03718" lon="1.15624">
        <ele>63.4</ele>
        <time>2018-12-09T07:21:19Z</time>
      </trkpt>
      <trkpt lat="49.03706" lon="1.15618">
        <ele>63.2</ele>
        <time>2018-12-09T07:21:22Z</time>
      </trkpt>
      <trkpt lat="49.03694" lon="1.15612">
        <ele>63.2</ele>
        <time>2018-12-09T07:21:25Z</time>
      </trkpt>
      <trkpt lat="49.03683" lon="1.15608">
        <ele>63.2</ele>
        <time>2018-12-09T07:21:28Z</time>
      </trkpt>
      <trkpt lat="49.03672" lon="1.15605">
        <ele>63.1</ele>
        <time>2018-12-09T07:21:31Z</time>
      </trkpt>
      <trkpt lat="49.03661" lon="1.15603">
        <ele>63.2</ele>
        <time>2018-12-09T07:21:34Z</time>
      </trkpt>
      <trkpt lat="49.0365" lon="1.15601">
        <ele>63.3</ele>
        <time>2018-12-09T07:21:37Z</time>
      </trkpt>
      <trkpt lat="49.0364" lon="1.156">
        <ele>63.5</ele>
        <time>2018-12-09T07:21:40Z</time>
      </trkpt>
      <trkpt lat="49.0363" lon="1.15599">
        <ele>63.8</ele>
        <time>2018-12-09T07:21:43Z</time>
      </trkpt>
      <trkpt lat="49.03621" lon="1.156">
        <ele>64</ele>
        <time>2018-12-09T07:21:46Z</time>
      </trkpt>
      <trkpt lat="49.0361" lon="1.15601">
        <ele>64.2</ele>
        <time>2018-12-09T07:21:49Z</time>
      </trkpt>
      <trkpt lat="49.03598" lon="1.156">
        <ele>64</ele>
        <time>2018-12-09T07:21:52Z</time>
      </trkpt>
      <trkpt lat="49.03588" lon="1.15598">
        <ele>63.7</ele>
        <time>2018-12-09T07:21:54Z</time>
      </trkpt>
      <trkpt lat="49.03579" lon="1.15596">
        <ele>63.4</ele>
        <time>2018-12-09T07:21:56Z</time>
      </trkpt>
      <trkpt lat="49.03566" lon="1.1559">
        <ele>62.9</ele>
        <time>2018-12-09T07:21:59Z</time>
      </trkpt>
      <trkpt lat="49.03554" lon="1.15582">
        <ele>62.5</ele>
        <time>2018-12-09T07:22:02Z</time>
      </trkpt>
      <trkpt lat="49.03542" lon="1.15573">
        <ele>61.8</ele>
        <time>2018-12-09T07:22:05Z</time>
      </trkpt>
      <trkpt lat="49.03533" lon="1.1557">
        <ele>61.5</ele>
        <time>2018-12-09T07:22:07Z</time>
      </trkpt>
      <trkpt lat="49.03522" lon="1.15566">
        <ele>61.1</ele>
        <time>2018-12-09T07:22:09Z</time>
      </trkpt>
      <trkpt lat="49.03511" lon="1.15562">
        <ele>60.7</ele>
        <time>2018-12-09T07:22:11Z</time>
      </trkpt>
      <trkpt lat="49.035" lon="1.15558">
        <ele>60.3</ele>
        <time>2018-12-09T07:22:13Z</time>
      </trkpt>
      <trkpt lat="49.0349" lon="1.15554">
        <ele>60.1</ele>
        <time>2018-12-09T07:22:15Z</time>
      </trkpt>
      <trkpt lat="49.03481" lon="1.15552">
        <ele>59.6</ele>
        <time>2018-12-09T07:22:17Z</time>
      </trkpt>
      <trkpt lat="49.03471" lon="1.15545">
        <ele>59.1</ele>
        <time>2018-12-09T07:22:20Z</time>
      </trkpt>
      <trkpt lat="49.03469" lon="1.15531">
        <ele>58.7</ele>
        <time>2018-12-09T07:22:23Z</time>
      </trkpt>
      <trkpt lat="49.03472" lon="1.15515">
        <ele>58.7</ele>
        <time>2018-12-09T07:22:27Z</time>
      </trkpt>
      <trkpt lat="49.03473" lon="1.15497">
        <ele>58.6</ele>
        <time>2018-12-09T07:22:31Z</time>
      </trkpt>
      <trkpt lat="49.03471" lon="1.15479">
        <ele>59.1</ele>
        <time>2018-12-09T07:22:35Z</time>
      </trkpt>
      <trkpt lat="49.03466" lon="1.15466">
        <ele>59.7</ele>
        <time>2018-12-09T07:22:38Z</time>
      </trkpt>
      <trkpt lat="49.03462" lon="1.15454">
        <ele>60.2</ele>
        <time>2018-12-09T07:22:41Z</time>
      </trkpt>
      <trkpt lat="49.03457" lon="1.15441">
        <ele>60.6</ele>
        <time>2018-12-09T07:22:44Z</time>
      </trkpt>
      <trkpt lat="49.03452" lon="1.15425">
        <ele>61.1</ele>
        <time>2018-12-09T07:22:48Z</time>
      </trkpt>
      <trkpt lat="49.03447" lon="1.1541">
        <ele>61.8</ele>
        <time>2018-12-09T07:22:52Z</time>
      </trkpt>
      <trkpt lat="49.03441" lon="1.15395">
        <ele>62.6</ele>
        <time>2018-12-09T07:22:56Z</time>
      </trkpt>
      <trkpt lat="49.03435" lon="1.1538">
        <ele>63.4</ele>
        <time>2018-12-09T07:23:00Z</time>
      </trkpt>
      <trkpt lat="49.0343" lon="1.15365">
        <ele>64.5</ele>
        <time>2018-12-09T07:23:04Z</time>
      </trkpt>
      <trkpt lat="49.03424" lon="1.1535">
        <ele>65.4</ele>
        <time>2018-12-09T07:23:08Z</time>
      </trkpt>
      <trkpt lat="49.0342" lon="1.15334">
        <ele>65.9</ele>
        <time>2018-12-09T07:23:12Z</time>
      </trkpt>
      <trkpt lat="49.03417" lon="1.15319">
        <ele>66.7</ele>
        <time>2018-12-09T07:23:16Z</time>
      </trkpt>
      <trkpt lat="49.03414" lon="1.15303">
        <ele>67.5</ele>
        <time>2018-12-09T07:23:20Z</time>
      </trkpt>
      <trkpt lat="49.03411" lon="1.15288">
        <ele>68.3</ele>
        <time>2018-12-09T07:23:24Z</time>
      </trkpt>
      <trkpt lat="49.03409" lon="1.15274">
        <ele>68.8</ele>
        <time>2018-12-09T07:23:28Z</time>
      </trkpt>
      <trkpt lat="49.03411" lon="1.15258">
        <ele>69.7</ele>
        <time>2018-12-09T07:23:33Z</time>
      </trkpt>
      <trkpt lat="49.03422" lon="1.15258">
        <ele>70.7</ele>
        <time>2018-12-09T07:23:38Z</time>
      </trkpt>
      <trkpt lat="49.03432" lon="1.1526">
        <ele>72.4</ele>
        <time>2018-12-09T07:23:44Z</time>
      </trkpt>
      <trkpt lat="49.03441" lon="1.15252">
        <ele>75.1</ele>
        <time>2018-12-09T07:23:51Z</time>
      </trkpt>
      <trkpt lat="49.03449" lon="1.15244">
        <ele>78.7</ele>
        <time>2018-12-09T07:23:59Z</time>
      </trkpt>
      <trkpt lat="49.03458" lon="1.15248">
        <ele>80.7</ele>
        <time>2018-12-09T07:24:06Z</time>
      </trkpt>
      <trkpt lat="49.03468" lon="1.15249">
        <ele>82.2</ele>
        <time>2018-12-09T07:24:13Z</time>
      </trkpt>
      <trkpt lat="49.03474" lon="1.15238">
        <ele>83.1</ele>
        <time>2018-12-09T07:24:19Z</time>
      </trkpt>
      <trkpt lat="49.03479" lon="1.15225">
        <ele>84</ele>
        <time>2018-12-09T07:24:25Z</time>
      </trkpt>
      <trkpt lat="49.03484" lon="1.15211">
        <ele>84.9</ele>
        <time>2018-12-09T07:24:31Z</time>
      </trkpt>
      <trkpt lat="49.0349" lon="1.15199">
        <ele>85.6</ele>
        <time>2018-12-09T07:24:36Z</time>
      </trkpt>
      <trkpt lat="49.03495" lon="1.15186">
        <ele>86.1</ele>
        <time>2018-12-09T07:24:41Z</time>
      </trkpt>
      <trkpt lat="49.035" lon="1.15172">
        <ele>86.6</ele>
        <time>2018-12-09T07:24:46Z</time>
      </trkpt>
      <trkpt lat="49.03506" lon="1.15158">
        <ele>87.5</ele>
        <time>2018-12-09T07:24:51Z</time>
      </trkpt>
      <trkpt lat="49.03512" lon="1.15144">
        <ele>88.3</ele>
        <time>2018-12-09T07:24:56Z</time>
      </trkpt>
      <trkpt lat="49.03517" lon="1.15132">
        <ele>88.9</ele>
        <time>2018-12-09T07:25:00Z</time>
      </trkpt>
      <trkpt lat="49.03522" lon="1.1512">
        <ele>89.6</ele>
        <time>2018-12-09T07:25:04Z</time>
      </trkpt>
      <trkpt lat="49.03527" lon="1.15108">
        <ele>90.4</ele>
        <time>2018-12-09T07:25:08Z</time>
      </trkpt>
      <trkpt lat="49.03532" lon="1.15093">
        <ele>91.5</ele>
        <time>2018-12-09T07:25:13Z</time>
      </trkpt>
      <trkpt lat="49.03538" lon="1.15079">
        <ele>93</ele>
        <time>2018-12-09T07:25:18Z</time>
      </trkpt>
      <trkpt lat="49.03544" lon="1.15065">
        <ele>94</ele>
        <time>2018-12-09T07:25:23Z</time>
      </trkpt>
      <trkpt lat="49.0355" lon="1.15051">
        <ele>95.2</ele>
        <time>2018-12-09T07:25:28Z</time>
      </trkpt>
      <trkpt lat="49.03554" lon="1.15039">
        <ele>96.2</ele>
        <time>2018-12-09T07:25:32Z</time>
      </trkpt>
      <trkpt lat="49.03562" lon="1.15027">
        <ele>97.5</ele>
        <time>2018-12-09T07:25:37Z</time>
      </trkpt>
      <trkpt lat="49.0357" lon="1.15016">
        <ele>99.7</ele>
        <time>2018-12-09T07:25:42Z</time>
      </trkpt>
      <trkpt lat="49.03575" lon="1.15003">
        <ele>101.7</ele>
        <time>2018-12-09T07:25:47Z</time>
      </trkpt>
      <trkpt lat="49.03579" lon="1.14987">
        <ele>103.1</ele>
        <time>2018-12-09T07:25:52Z</time>
      </trkpt>
      <trkpt lat="49.03582" lon="1.14971">
        <ele>104.7</ele>
        <time>2018-12-09T07:25:57Z</time>
      </trkpt>
      <trkpt lat="49.03579" lon="1.14954">
        <ele>105.4</ele>
        <time>2018-12-09T07:26:01Z</time>
      </trkpt>
      <trkpt lat="49.03579" lon="1.14938">
        <ele>105.3</ele>
        <time>2018-12-09T07:26:04Z</time>
      </trkpt>
      <trkpt lat="49.03577" lon="1.14922">
        <ele>105.1</ele>
        <time>2018-12-09T07:26:07Z</time>
      </trkpt>
      <trkpt lat="49.03577" lon="1.14908">
        <ele>104.8</ele>
        <time>2018-12-09T07:26:10Z</time>
      </trkpt>
      <trkpt lat="49.03578" lon="1.1489">
        <ele>104.6</ele>
        <time>2018-12-09T07:26:14Z</time>
      </trkpt>
      <trkpt lat="49.03581" lon="1.14876">
        <ele>107.5</ele>
        <time>2018-12-09T07:26:18Z</time>
      </trkpt>
      <trkpt lat="49.03586" lon="1.14865">
        <ele>110.6</ele>
        <time>2018-12-09T07:26:24Z</time>
      </trkpt>
      <trkpt lat="49.03594" lon="1.14854">
        <ele>112.9</ele>
        <time>2018-12-09T07:26:32Z</time>
      </trkpt>
      <trkpt lat="49.03598" lon="1.14839">
        <ele>114.4</ele>
        <time>2018-12-09T07:26:39Z</time>
      </trkpt>
      <trkpt lat="49.03603" lon="1.14826">
        <ele>115.3</ele>
        <time>2018-12-09T07:26:46Z</time>
      </trkpt>
      <trkpt lat="49.03607" lon="1.14812">
        <ele>116.4</ele>
        <time>2018-12-09T07:26:54Z</time>
      </trkpt>
      <trkpt lat="49.03611" lon="1.1481">
        <ele>117.4</ele>
        <time>2018-12-09T07:27:04Z</time>
      </trkpt>
      <trkpt lat="49.0362" lon="1.14811">
        <ele>117.4</ele>
        <time>2018-12-09T07:28:14Z</time>
      </trkpt>
      <trkpt lat="49.0363" lon="1.14809">
        <ele>117.9</ele>
        <time>2018-12-09T07:28:21Z</time>
      </trkpt>
      <trkpt lat="49.03639" lon="1.14807">
        <ele>118.3</ele>
        <time>2018-12-09T07:28:27Z</time>
      </trkpt>
      <trkpt lat="49.03649" lon="1.14804">
        <ele>118.9</ele>
        <time>2018-12-09T07:28:33Z</time>
      </trkpt>
      <trkpt lat="49.03659" lon="1.14803">
        <ele>119.3</ele>
        <time>2018-12-09T07:28:39Z</time>
      </trkpt>
      <trkpt lat="49.03668" lon="1.14792">
        <ele>119.9</ele>
        <time>2018-12-09T07:28:43Z</time>
      </trkpt>
      <trkpt lat="49.03677" lon="1.1479">
        <ele>120.5</ele>
        <time>2018-12-09T07:28:49Z</time>
      </trkpt>
      <trkpt lat="49.03686" lon="1.14789">
        <ele>120.8</ele>
        <time>2018-12-09T07:28:53Z</time>
      </trkpt>
      <trkpt lat="49.03695" lon="1.14779">
        <ele>121.2</ele>
        <time>2018-12-09T07:28:58Z</time>
      </trkpt>
      <trkpt lat="49.03704" lon="1.14772">
        <ele>121.6</ele>
        <time>2018-12-09T07:29:03Z</time>
      </trkpt>
      <trkpt lat="49.03714" lon="1.14769">
        <ele>122.2</ele>
        <time>2018-12-09T07:29:07Z</time>
      </trkpt>
      <trkpt lat="49.03725" lon="1.14763">
        <ele>122.7</ele>
        <time>2018-12-09T07:29:11Z</time>
      </trkpt>
      <trkpt lat="49.03734" lon="1.14757">
        <ele>123</ele>
        <time>2018-12-09T07:29:14Z</time>
      </trkpt>
      <trkpt lat="49.03744" lon="1.14756">
        <ele>123.2</ele>
        <time>2018-12-09T07:29:18Z</time>
      </trkpt>
      <trkpt lat="49.03753" lon="1.1475">
        <ele>123.5</ele>
        <time>2018-12-09T07:29:22Z</time>
      </trkpt>
      <trkpt lat="49.03762" lon="1.14745">
        <ele>123.7</ele>
        <time>2018-12-09T07:29:26Z</time>
      </trkpt>
      <trkpt lat="49.03773" lon="1.14735">
        <ele>123.9</ele>
        <time>2018-12-09T07:29:30Z</time>
      </trkpt>
      <trkpt lat="49.03778" lon="1.14722">
        <ele>124.4</ele>
        <time>2018-12-09T07:29:34Z</time>
      </trkpt>
      <trkpt lat="49.03781" lon="1.14707">
        <ele>124.8</ele>
        <time>2018-12-09T07:29:38Z</time>
      </trkpt>
      <trkpt lat="49.03788" lon="1.14693">
        <ele>125</ele>
        <time>2018-12-09T07:29:42Z</time>
      </trkpt>
      <trkpt lat="49.03793" lon="1.14681">
        <ele>125.2</ele>
        <time>2018-12-09T07:29:45Z</time>
      </trkpt>
      <trkpt lat="49.03799" lon="1.1467">
        <ele>125</ele>
        <time>2018-12-09T07:29:48Z</time>
      </trkpt>
      <trkpt lat="49.03807" lon="1.14659">
        <ele>124.7</ele>
        <time>2018-12-09T07:29:51Z</time>
      </trkpt>
      <trkpt lat="49.03812" lon="1.14645">
        <ele>124.6</ele>
        <time>2018-12-09T07:29:54Z</time>
      </trkpt>
      <trkpt lat="49.03817" lon="1.14632">
        <ele>124.9</ele>
        <time>2018-12-09T07:29:57Z</time>
      </trkpt>
      <trkpt lat="49.03819" lon="1.14617">
        <ele>125.2</ele>
        <time>2018-12-09T07:30:00Z</time>
      </trkpt>
      <trkpt lat="49.03818" lon="1.14602">
        <ele>125.5</ele>
        <time>2018-12-09T07:30:03Z</time>
      </trkpt>
      <trkpt lat="49.03819" lon="1.14588">
        <ele>125.9</ele>
        <time>2018-12-09T07:30:06Z</time>
      </trkpt>
      <trkpt lat="49.03824" lon="1.14576">
        <ele>125.7</ele>
        <time>2018-12-09T07:30:09Z</time>
      </trkpt>
      <trkpt lat="49.03829" lon="1.14563">
        <ele>125.3</ele>
        <time>2018-12-09T07:30:12Z</time>
      </trkpt>
      <trkpt lat="49.03831" lon="1.14547">
        <ele>125.5</ele>
        <time>2018-12-09T07:30:15Z</time>
      </trkpt>
      <trkpt lat="49.03833" lon="1.14534">
        <ele>125.6</ele>
        <time>2018-12-09T07:30:18Z</time>
      </trkpt>
      <trkpt lat="49.03838" lon="1.14522">
        <ele>126</ele>
        <time>2018-12-09T07:30:21Z</time>
      </trkpt>
      <trkpt lat="49.03845" lon="1.14511">
        <ele>126.4</ele>
        <time>2018-12-09T07:30:24Z</time>
      </trkpt>
      <trkpt lat="49.03849" lon="1.14498">
        <ele>126.3</ele>
        <time>2018-12-09T07:30:27Z</time>
      </trkpt>
      <trkpt lat="49.03846" lon="1.14484">
        <ele>126.5</ele>
        <time>2018-12-09T07:30:30Z</time>
      </trkpt>
      <trkpt lat="49.03845" lon="1.1447">
        <ele>126.7</ele>
        <time>2018-12-09T07:30:33Z</time>
      </trkpt>
      <trkpt lat="49.03847" lon="1.14453">
        <ele>127.2</ele>
        <time>2018-12-09T07:30:37Z</time>
      </trkpt>
      <trkpt lat="49.03855" lon="1.14443">
        <ele>127.1</ele>
        <time>2018-12-09T07:30:40Z</time>
      </trkpt>
      <trkpt lat="49.03864" lon="1.14435">
        <ele>127.2</ele>
        <time>2018-12-09T07:30:43Z</time>
      </trkpt>
      <trkpt lat="49.03868" lon="1.1442">
        <ele>127.1</ele>
        <time>2018-12-09T07:30:46Z</time>
      </trkpt>
      <trkpt lat="49.03872" lon="1.14405">
        <ele>126.7</ele>
        <time>2018-12-09T07:30:49Z</time>
      </trkpt>
      <trkpt lat="49.03878" lon="1.14392">
        <ele>126.8</ele>
        <time>2018-12-09T07:30:52Z</time>
      </trkpt>
      <trkpt lat="49.03881" lon="1.14378">
        <ele>126.8</ele>
        <time>2018-12-09T07:30:55Z</time>
      </trkpt>
      <trkpt lat="49.0388" lon="1.14362">
        <ele>127</ele>
        <time>2018-12-09T07:30:58Z</time>
      </trkpt>
      <trkpt lat="49.03879" lon="1.14347">
        <ele>127</ele>
        <time>2018-12-09T07:31:01Z</time>
      </trkpt>
      <trkpt lat="49.0388" lon="1.14333">
        <ele>127.1</ele>
        <time>2018-12-09T07:31:04Z</time>
      </trkpt>
      <trkpt lat="49.03882" lon="1.14319">
        <ele>127</ele>
        <time>2018-12-09T07:31:07Z</time>
      </trkpt>
      <trkpt lat="49.03882" lon="1.14302">
        <ele>126.9</ele>
        <time>2018-12-09T07:31:11Z</time>
      </trkpt>
      <trkpt lat="49.03879" lon="1.14288">
        <ele>126.6</ele>
        <time>2018-12-09T07:31:14Z</time>
      </trkpt>
      <trkpt lat="49.03875" lon="1.14275">
        <ele>126.7</ele>
        <time>2018-12-09T07:31:17Z</time>
      </trkpt>
      <trkpt lat="49.03874" lon="1.14259">
        <ele>126.7</ele>
        <time>2018-12-09T07:31:20Z</time>
      </trkpt>
      <trkpt lat="49.03877" lon="1.14242">
        <ele>127</ele>
        <time>2018-12-09T07:31:24Z</time>
      </trkpt>
      <trkpt lat="49.0388" lon="1.14229">
        <ele>126.9</ele>
        <time>2018-12-09T07:31:27Z</time>
      </trkpt>
      <trkpt lat="49.03888" lon="1.14218">
        <ele>127.3</ele>
        <time>2018-12-09T07:31:31Z</time>
      </trkpt>
      <trkpt lat="49.03894" lon="1.14207">
        <ele>127.9</ele>
        <time>2018-12-09T07:31:34Z</time>
      </trkpt>
      <trkpt lat="49.03901" lon="1.14198">
        <ele>128.4</ele>
        <time>2018-12-09T07:31:37Z</time>
      </trkpt>
      <trkpt lat="49.03911" lon="1.14189">
        <ele>128.6</ele>
        <time>2018-12-09T07:31:41Z</time>
      </trkpt>
      <trkpt lat="49.0392" lon="1.14185">
        <ele>128.7</ele>
        <time>2018-12-09T07:31:44Z</time>
      </trkpt>
      <trkpt lat="49.03929" lon="1.14178">
        <ele>128.8</ele>
        <time>2018-12-09T07:31:47Z</time>
      </trkpt>
      <trkpt lat="49.0394" lon="1.14177">
        <ele>128.8</ele>
        <time>2018-12-09T07:31:51Z</time>
      </trkpt>
      <trkpt lat="49.03948" lon="1.14165">
        <ele>128.7</ele>
        <time>2018-12-09T07:31:55Z</time>
      </trkpt>
      <trkpt lat="49.03954" lon="1.14154">
        <ele>128.8</ele>
        <time>2018-12-09T07:31:58Z</time>
      </trkpt>
      <trkpt lat="49.0396" lon="1.14143">
        <ele>128.7</ele>
        <time>2018-12-09T07:32:01Z</time>
      </trkpt>
      <trkpt lat="49.03966" lon="1.14131">
        <ele>128.9</ele>
        <time>2018-12-09T07:32:05Z</time>
      </trkpt>
      <trkpt lat="49.03968" lon="1.14117">
        <ele>128.9</ele>
        <time>2018-12-09T07:32:08Z</time>
      </trkpt>
      <trkpt lat="49.03974" lon="1.14103">
        <ele>128.8</ele>
        <time>2018-12-09T07:32:12Z</time>
      </trkpt>
      <trkpt lat="49.03982" lon="1.14094">
        <ele>128.8</ele>
        <time>2018-12-09T07:32:16Z</time>
      </trkpt>
      <trkpt lat="49.03985" lon="1.14079">
        <ele>128.7</ele>
        <time>2018-12-09T07:32:19Z</time>
      </trkpt>
      <trkpt lat="49.03986" lon="1.14063">
        <ele>128.6</ele>
        <time>2018-12-09T07:32:22Z</time>
      </trkpt>
      <trkpt lat="49.03984" lon="1.14047">
        <ele>128.3</ele>
        <time>2018-12-09T07:32:25Z</time>
      </trkpt>
      <trkpt lat="49.03985" lon="1.14032">
        <ele>128.2</ele>
        <time>2018-12-09T07:32:28Z</time>
      </trkpt>
      <trkpt lat="49.03992" lon="1.1402">
        <ele>128.5</ele>
        <time>2018-12-09T07:32:31Z</time>
      </trkpt>
      <trkpt lat="49.03997" lon="1.14007">
        <ele>128.6</ele>
        <time>2018-12-09T07:32:34Z</time>
      </trkpt>
      <trkpt lat="49.04" lon="1.13992">
        <ele>128.8</ele>
        <time>2018-12-09T07:32:37Z</time>
      </trkpt>
      <trkpt lat="49.04003" lon="1.13978">
        <ele>128.5</ele>
        <time>2018-12-09T07:32:40Z</time>
      </trkpt>
      <trkpt lat="49.04008" lon="1.13964">
        <ele>128.4</ele>
        <time>2018-12-09T07:32:43Z</time>
      </trkpt>
      <trkpt lat="49.04008" lon="1.13947">
        <ele>128.7</ele>
        <time>2018-12-09T07:32:46Z</time>
      </trkpt>
      <trkpt lat="49.04003" lon="1.13934">
        <ele>129</ele>
        <time>2018-12-09T07:32:49Z</time>
      </trkpt>
      <trkpt lat="49.03996" lon="1.13921">
        <ele>129.1</ele>
        <time>2018-12-09T07:32:52Z</time>
      </trkpt>
      <trkpt lat="49.03984" lon="1.13909">
        <ele>129.1</ele>
        <time>2018-12-09T07:32:55Z</time>
      </trkpt>
      <trkpt lat="49.03974" lon="1.13899">
        <ele>129.2</ele>
        <time>2018-12-09T07:32:58Z</time>
      </trkpt>
      <trkpt lat="49.03964" lon="1.1389">
        <ele>129.4</ele>
        <time>2018-12-09T07:33:01Z</time>
      </trkpt>
      <trkpt lat="49.03953" lon="1.1388">
        <ele>129.3</ele>
        <time>2018-12-09T07:33:04Z</time>
      </trkpt>
      <trkpt lat="49.03942" lon="1.1387">
        <ele>129.6</ele>
        <time>2018-12-09T07:33:07Z</time>
      </trkpt>
      <trkpt lat="49.03931" lon="1.1386">
        <ele>129.6</ele>
        <time>2018-12-09T07:33:10Z</time>
      </trkpt>
      <trkpt lat="49.03921" lon="1.13849">
        <ele>129.7</ele>
        <time>2018-12-09T07:33:13Z</time>
      </trkpt>
      <trkpt lat="49.0391" lon="1.1384">
        <ele>129.7</ele>
        <time>2018-12-09T07:33:16Z</time>
      </trkpt>
      <trkpt lat="49.03898" lon="1.1383">
        <ele>129.9</ele>
        <time>2018-12-09T07:33:19Z</time>
      </trkpt>
      <trkpt lat="49.03887" lon="1.13821">
        <ele>129.8</ele>
        <time>2018-12-09T07:33:22Z</time>
      </trkpt>
      <trkpt lat="49.03877" lon="1.13811">
        <ele>129.7</ele>
        <time>2018-12-09T07:33:25Z</time>
      </trkpt>
      <trkpt lat="49.03866" lon="1.13801">
        <ele>129.3</ele>
        <time>2018-12-09T07:33:28Z</time>
      </trkpt>
      <trkpt lat="49.03854" lon="1.13791">
        <ele>128.7</ele>
        <time>2018-12-09T07:33:31Z</time>
      </trkpt>
      <trkpt lat="49.03842" lon="1.13781">
        <ele>128.5</ele>
        <time>2018-12-09T07:33:34Z</time>
      </trkpt>
      <trkpt lat="49.0383" lon="1.13772">
        <ele>128.5</ele>
        <time>2018-12-09T07:33:37Z</time>
      </trkpt>
      <trkpt lat="49.03818" lon="1.13762">
        <ele>128.4</ele>
        <time>2018-12-09T07:33:40Z</time>
      </trkpt>
      <trkpt lat="49.03809" lon="1.13755">
        <ele>128.3</ele>
        <time>2018-12-09T07:33:42Z</time>
      </trkpt>
      <trkpt lat="49.03801" lon="1.13749">
        <ele>128.2</ele>
        <time>2018-12-09T07:33:44Z</time>
      </trkpt>
      <trkpt lat="49.03792" lon="1.13742">
        <ele>128.2</ele>
        <time>2018-12-09T07:33:46Z</time>
      </trkpt>
      <trkpt lat="49.0378" lon="1.13732">
        <ele>128</ele>
        <time>2018-12-09T07:33:49Z</time>
      </trkpt>
      <trkpt lat="49.0377" lon="1.13725">
        <ele>128.1</ele>
        <time>2018-12-09T07:33:51Z</time>
      </trkpt>
      <trkpt lat="49.03761" lon="1.13717">
        <ele>127.9</ele>
        <time>2018-12-09T07:33:53Z</time>
      </trkpt>
      <trkpt lat="49.03749" lon="1.13707">
        <ele>127.5</ele>
        <time>2018-12-09T07:33:56Z</time>
      </trkpt>
      <trkpt lat="49.03738" lon="1.13698">
        <ele>127.1</ele>
        <time>2018-12-09T07:33:59Z</time>
      </trkpt>
      <trkpt lat="49.0373" lon="1.13692">
        <ele>126.6</ele>
        <time>2018-12-09T07:34:01Z</time>
      </trkpt>
      <trkpt lat="49.03718" lon="1.13685">
        <ele>126.1</ele>
        <time>2018-12-09T07:34:04Z</time>
      </trkpt>
      <trkpt lat="49.03707" lon="1.13691">
        <ele>125.9</ele>
        <time>2018-12-09T07:34:08Z</time>
      </trkpt>
      <trkpt lat="49.03703" lon="1.13708">
        <ele>126</ele>
        <time>2018-12-09T07:34:12Z</time>
      </trkpt>
      <trkpt lat="49.037" lon="1.13726">
        <ele>126.2</ele>
        <time>2018-12-09T07:34:15Z</time>
      </trkpt>
      <trkpt lat="49.03697" lon="1.13743">
        <ele>126.5</ele>
        <time>2018-12-09T07:34:18Z</time>
      </trkpt>
      <trkpt lat="49.03693" lon="1.13757">
        <ele>126.7</ele>
        <time>2018-12-09T07:34:21Z</time>
      </trkpt>
      <trkpt lat="49.0369" lon="1.13773">
        <ele>126.8</ele>
        <time>2018-12-09T07:34:24Z</time>
      </trkpt>
      <trkpt lat="49.03687" lon="1.13786">
        <ele>127.5</ele>
        <time>2018-12-09T07:34:27Z</time>
      </trkpt>
      <trkpt lat="49.03677" lon="1.13794">
        <ele>127.8</ele>
        <time>2018-12-09T07:34:30Z</time>
      </trkpt>
      <trkpt lat="49.03666" lon="1.13801">
        <ele>128</ele>
        <time>2018-12-09T07:34:32Z</time>
      </trkpt>
      <trkpt lat="49.03654" lon="1.13807">
        <ele>128.2</ele>
        <time>2018-12-09T07:34:35Z</time>
      </trkpt>
      <trkpt lat="49.03645" lon="1.13812">
        <ele>128.3</ele>
        <time>2018-12-09T07:34:37Z</time>
      </trkpt>
      <trkpt lat="49.03637" lon="1.13817">
        <ele>128.4</ele>
        <time>2018-12-09T07:34:39Z</time>
      </trkpt>
      <trkpt lat="49.03625" lon="1.13826">
        <ele>128.3</ele>
        <time>2018-12-09T07:34:42Z</time>
      </trkpt>
      <trkpt lat="49.03614" lon="1.13835">
        <ele>128.2</ele>
        <time>2018-12-09T07:34:45Z</time>
      </trkpt>
      <trkpt lat="49.03603" lon="1.13844">
        <ele>128</ele>
        <time>2018-12-09T07:34:48Z</time>
      </trkpt>
      <trkpt lat="49.03593" lon="1.13852">
        <ele>128.1</ele>
        <time>2018-12-09T07:34:51Z</time>
      </trkpt>
      <trkpt lat="49.03582" lon="1.13862">
        <ele>128.1</ele>
        <time>2018-12-09T07:34:54Z</time>
      </trkpt>
      <trkpt lat="49.0357" lon="1.13873">
        <ele>128</ele>
        <time>2018-12-09T07:34:57Z</time>
      </trkpt>
      <trkpt lat="49.03562" lon="1.1388">
        <ele>128</ele>
        <time>2018-12-09T07:34:59Z</time>
      </trkpt>
      <trkpt lat="49.03551" lon="1.13891">
        <ele>127.9</ele>
        <time>2018-12-09T07:35:02Z</time>
      </trkpt>
      <trkpt lat="49.0354" lon="1.13904">
        <ele>127.8</ele>
        <time>2018-12-09T07:35:05Z</time>
      </trkpt>
      <trkpt lat="49.03533" lon="1.13913">
        <ele>127.5</ele>
        <time>2018-12-09T07:35:07Z</time>
      </trkpt>
      <trkpt lat="49.03527" lon="1.13923">
        <ele>127.4</ele>
        <time>2018-12-09T07:35:09Z</time>
      </trkpt>
      <trkpt lat="49.03519" lon="1.13938">
        <ele>127.5</ele>
        <time>2018-12-09T07:35:12Z</time>
      </trkpt>
      <trkpt lat="49.03511" lon="1.13955">
        <ele>127.6</ele>
        <time>2018-12-09T07:35:15Z</time>
      </trkpt>
      <trkpt lat="49.03506" lon="1.13967">
        <ele>127.7</ele>
        <time>2018-12-09T07:35:17Z</time>
      </trkpt>
      <trkpt lat="49.035" lon="1.13983">
        <ele>127.7</ele>
        <time>2018-12-09T07:35:20Z</time>
      </trkpt>
      <trkpt lat="49.0349" lon="1.13989">
        <ele>127.4</ele>
        <time>2018-12-09T07:35:24Z</time>
      </trkpt>
      <trkpt lat="49.03481" lon="1.1398">
        <ele>127</ele>
        <time>2018-12-09T07:35:27Z</time>
      </trkpt>
      <trkpt lat="49.03472" lon="1.13974">
        <ele>126.6</ele>
        <time>2018-12-09T07:35:29Z</time>
      </trkpt>
      <trkpt lat="49.03464" lon="1.13968">
        <ele>126.1</ele>
        <time>2018-12-09T07:35:31Z</time>
      </trkpt>
      <trkpt lat="49.03451" lon="1.13962">
        <ele>125.7</ele>
        <time>2018-12-09T07:35:34Z</time>
      </trkpt>
      <trkpt lat="49.03438" lon="1.13955">
        <ele>124.9</ele>
        <time>2018-12-09T07:35:37Z</time>
      </trkpt>
      <trkpt lat="49.03429" lon="1.13947">
        <ele>124.3</ele>
        <time>2018-12-09T07:35:39Z</time>
      </trkpt>
      <trkpt lat="49.03419" lon="1.13939">
        <ele>123.8</ele>
        <time>2018-12-09T07:35:41Z</time>
      </trkpt>
      <trkpt lat="49.03409" lon="1.13934">
        <ele>123.2</ele>
        <time>2018-12-09T07:35:43Z</time>
      </trkpt>
      <trkpt lat="49.03398" lon="1.13931">
        <ele>122.7</ele>
        <time>2018-12-09T07:35:45Z</time>
      </trkpt>
      <trkpt lat="49.03389" lon="1.13923">
        <ele>122.4</ele>
        <time>2018-12-09T07:35:47Z</time>
      </trkpt>
      <trkpt lat="49.03379" lon="1.13914">
        <ele>121.9</ele>
        <time>2018-12-09T07:35:49Z</time>
      </trkpt>
      <trkpt lat="49.03369" lon="1.13905">
        <ele>120.9</ele>
        <time>2018-12-09T07:35:52Z</time>
      </trkpt>
      <trkpt lat="49.03358" lon="1.13906">
        <ele>119.9</ele>
        <time>2018-12-09T07:35:55Z</time>
      </trkpt>
      <trkpt lat="49.03348" lon="1.1391">
        <ele>118.8</ele>
        <time>2018-12-09T07:35:58Z</time>
      </trkpt>
      <trkpt lat="49.03339" lon="1.13912">
        <ele>117.7</ele>
        <time>2018-12-09T07:36:02Z</time>
      </trkpt>
      <trkpt lat="49.03337" lon="1.13913">
        <ele>117</ele>
        <time>2018-12-09T07:36:07Z</time>
      </trkpt>
      <trkpt lat="49.03335" lon="1.13928">
        <ele>116.3</ele>
        <time>2018-12-09T07:36:19Z</time>
      </trkpt>
      <trkpt lat="49.03332" lon="1.13944">
        <ele>116.1</ele>
        <time>2018-12-09T07:36:24Z</time>
      </trkpt>
      <trkpt lat="49.03327" lon="1.13957">
        <ele>116.2</ele>
        <time>2018-12-09T07:36:28Z</time>
      </trkpt>
      <trkpt lat="49.03324" lon="1.1397">
        <ele>116.3</ele>
        <time>2018-12-09T07:36:33Z</time>
      </trkpt>
      <trkpt lat="49.03324" lon="1.13984">
        <ele>116.7</ele>
        <time>2018-12-09T07:36:37Z</time>
      </trkpt>
      <trkpt lat="49.03323" lon="1.13999">
        <ele>117.2</ele>
        <time>2018-12-09T07:36:41Z</time>
      </trkpt>
      <trkpt lat="49.03323" lon="1.14014">
        <ele>117.5</ele>
        <time>2018-12-09T07:36:46Z</time>
      </trkpt>
      <trkpt lat="49.03326" lon="1.14028">
        <ele>117.8</ele>
        <time>2018-12-09T07:36:50Z</time>
      </trkpt>
      <trkpt lat="49.03331" lon="1.14042">
        <ele>118.2</ele>
        <time>2018-12-09T07:36:53Z</time>
      </trkpt>
      <trkpt lat="49.03336" lon="1.14057">
        <ele>118.7</ele>
        <time>2018-12-09T07:36:57Z</time>
      </trkpt>
      <trkpt lat="49.03338" lon="1.14071">
        <ele>119.2</ele>
        <time>2018-12-09T07:37:01Z</time>
      </trkpt>
      <trkpt lat="49.03331" lon="1.14084">
        <ele>119.4</ele>
        <time>2018-12-09T07:37:06Z</time>
      </trkpt>
      <trkpt lat="49.03329" lon="1.14101">
        <ele>119.1</ele>
        <time>2018-12-09T07:37:10Z</time>
      </trkpt>
      <trkpt lat="49.03326" lon="1.14117">
        <ele>118.6</ele>
        <time>2018-12-09T07:37:13Z</time>
      </trkpt>
      <trkpt lat="49.03329" lon="1.14132">
        <ele>118.4</ele>
        <time>2018-12-09T07:37:16Z</time>
      </trkpt>
      <trkpt lat="49.03327" lon="1.14145">
        <ele>118</ele>
        <time>2018-12-09T07:37:19Z</time>
      </trkpt>
      <trkpt lat="49.03324" lon="1.14163">
        <ele>117.4</ele>
        <time>2018-12-09T07:37:23Z</time>
      </trkpt>
      <trkpt lat="49.03325" lon="1.14179">
        <ele>117</ele>
        <time>2018-12-09T07:37:26Z</time>
      </trkpt>
      <trkpt lat="49.0333" lon="1.14192">
        <ele>116.7</ele>
        <time>2018-12-09T07:37:29Z</time>
      </trkpt>
      <trkpt lat="49.03329" lon="1.14209">
        <ele>116.6</ele>
        <time>2018-12-09T07:37:33Z</time>
      </trkpt>
      <trkpt lat="49.03331" lon="1.14223">
        <ele>116.7</ele>
        <time>2018-12-09T07:37:36Z</time>
      </trkpt>
      <trkpt lat="49.03337" lon="1.14234">
        <ele>116.6</ele>
        <time>2018-12-09T07:37:39Z</time>
      </trkpt>
      <trkpt lat="49.03344" lon="1.14244">
        <ele>117</ele>
        <time>2018-12-09T07:37:42Z</time>
      </trkpt>
      <trkpt lat="49.03353" lon="1.14254">
        <ele>117.5</ele>
        <time>2018-12-09T07:37:45Z</time>
      </trkpt>
      <trkpt lat="49.0336" lon="1.14261">
        <ele>118.1</ele>
        <time>2018-12-09T07:37:48Z</time>
      </trkpt>
      <trkpt lat="49.03369" lon="1.14271">
        <ele>119.5</ele>
        <time>2018-12-09T07:37:52Z</time>
      </trkpt>
      <trkpt lat="49.03379" lon="1.14281">
        <ele>120.5</ele>
        <time>2018-12-09T07:37:56Z</time>
      </trkpt>
      <trkpt lat="49.0338" lon="1.14298">
        <ele>121.3</ele>
        <time>2018-12-09T07:38:00Z</time>
      </trkpt>
      <trkpt lat="49.03375" lon="1.1431">
        <ele>121.4</ele>
        <time>2018-12-09T07:38:04Z</time>
      </trkpt>
      <trkpt lat="49.03368" lon="1.14323">
        <ele>121.4</ele>
        <time>2018-12-09T07:38:08Z</time>
      </trkpt>
      <trkpt lat="49.03362" lon="1.14338">
        <ele>120.3</ele>
        <time>2018-12-09T07:38:12Z</time>
      </trkpt>
      <trkpt lat="49.03357" lon="1.14352">
        <ele>119.8</ele>
        <time>2018-12-09T07:38:15Z</time>
      </trkpt>
      <trkpt lat="49.03351" lon="1.14368">
        <ele>118.6</ele>
        <time>2018-12-09T07:38:18Z</time>
      </trkpt>
      <trkpt lat="49.03345" lon="1.14384">
        <ele>117.4</ele>
        <time>2018-12-09T07:38:21Z</time>
      </trkpt>
      <trkpt lat="49.03347" lon="1.14399">
        <ele>116</ele>
        <time>2018-12-09T07:38:25Z</time>
      </trkpt>
      <trkpt lat="49.03345" lon="1.14415">
        <ele>115.2</ele>
        <time>2018-12-09T07:38:29Z</time>
      </trkpt>
      <trkpt lat="49.03337" lon="1.14427">
        <ele>112.8</ele>
        <time>2018-12-09T07:38:37Z</time>
      </trkpt>
      <trkpt lat="49.03326" lon="1.14436">
        <ele>111.1</ele>
        <time>2018-12-09T07:38:40Z</time>
      </trkpt>
      <trkpt lat="49.03318" lon="1.14446">
        <ele>110</ele>
        <time>2018-12-09T07:38:42Z</time>
      </trkpt>
      <trkpt lat="49.0331" lon="1.14457">
        <ele>109.2</ele>
        <time>2018-12-09T07:38:44Z</time>
      </trkpt>
      <trkpt lat="49.03301" lon="1.14466">
        <ele>108.5</ele>
        <time>2018-12-09T07:38:46Z</time>
      </trkpt>
      <trkpt lat="49.03291" lon="1.14469">
        <ele>107.7</ele>
        <time>2018-12-09T07:38:48Z</time>
      </trkpt>
      <trkpt lat="49.0328" lon="1.14474">
        <ele>107</ele>
        <time>2018-12-09T07:38:51Z</time>
      </trkpt>
      <trkpt lat="49.03275" lon="1.1449">
        <ele>105.9</ele>
        <time>2018-12-09T07:38:55Z</time>
      </trkpt>
      <trkpt lat="49.0328" lon="1.14508">
        <ele>105.1</ele>
        <time>2018-12-09T07:38:58Z</time>
      </trkpt>
      <trkpt lat="49.03284" lon="1.14521">
        <ele>104.8</ele>
        <time>2018-12-09T07:39:00Z</time>
      </trkpt>
      <trkpt lat="49.03291" lon="1.14534">
        <ele>104.4</ele>
        <time>2018-12-09T07:39:02Z</time>
      </trkpt>
      <trkpt lat="49.03299" lon="1.14548">
        <ele>103.9</ele>
        <time>2018-12-09T07:39:04Z</time>
      </trkpt>
      <trkpt lat="49.03306" lon="1.14564">
        <ele>103.3</ele>
        <time>2018-12-09T07:39:06Z</time>
      </trkpt>
      <trkpt lat="49.03314" lon="1.14581">
        <ele>102.8</ele>
        <time>2018-12-09T07:39:08Z</time>
      </trkpt>
      <trkpt lat="49.03323" lon="1.146">
        <ele>102</ele>
        <time>2018-12-09T07:39:10Z</time>
      </trkpt>
      <trkpt lat="49.03333" lon="1.14618">
        <ele>101.4</ele>
        <time>2018-12-09T07:39:12Z</time>
      </trkpt>
      <trkpt lat="49.03344" lon="1.14636">
        <ele>100.8</ele>
        <time>2018-12-09T07:39:14Z</time>
      </trkpt>
      <trkpt lat="49.03356" lon="1.14653">
        <ele>100.3</ele>
        <time>2018-12-09T07:39:16Z</time>
      </trkpt>
      <trkpt lat="49.03366" lon="1.14668">
        <ele>99.6</ele>
        <time>2018-12-09T07:39:18Z</time>
      </trkpt>
      <trkpt lat="49.03374" lon="1.1468">
        <ele>98.9</ele>
        <time>2018-12-09T07:39:20Z</time>
      </trkpt>
      <trkpt lat="49.03383" lon="1.14693">
        <ele>98.1</ele>
        <time>2018-12-09T07:39:22Z</time>
      </trkpt>
      <trkpt lat="49.03392" lon="1.14706">
        <ele>97.3</ele>
        <time>2018-12-09T07:39:24Z</time>
      </trkpt>
      <trkpt lat="49.03402" lon="1.14721">
        <ele>96.6</ele>
        <time>2018-12-09T07:39:26Z</time>
      </trkpt>
      <trkpt lat="49.03411" lon="1.14735">
        <ele>95.8</ele>
        <time>2018-12-09T07:39:28Z</time>
      </trkpt>
      <trkpt lat="49.03419" lon="1.14751">
        <ele>95</ele>
        <time>2018-12-09T07:39:30Z</time>
      </trkpt>
      <trkpt lat="49.03426" lon="1.14768">
        <ele>94.1</ele>
        <time>2018-12-09T07:39:32Z</time>
      </trkpt>
      <trkpt lat="49.03433" lon="1.14785">
        <ele>93.1</ele>
        <time>2018-12-09T07:39:34Z</time>
      </trkpt>
      <trkpt lat="49.03437" lon="1.14805">
        <ele>92.4</ele>
        <time>2018-12-09T07:39:36Z</time>
      </trkpt>
      <trkpt lat="49.03441" lon="1.14826">
        <ele>91.7</ele>
        <time>2018-12-09T07:39:38Z</time>
      </trkpt>
      <trkpt lat="49.03443" lon="1.14846">
        <ele>90.9</ele>
        <time>2018-12-09T07:39:40Z</time>
      </trkpt>
      <trkpt lat="49.03444" lon="1.14866">
        <ele>90</ele>
        <time>2018-12-09T07:39:42Z</time>
      </trkpt>
      <trkpt lat="49.03443" lon="1.14885">
        <ele>89.2</ele>
        <time>2018-12-09T07:39:44Z</time>
      </trkpt>
      <trkpt lat="49.0344" lon="1.14907">
        <ele>88.3</ele>
        <time>2018-12-09T07:39:46Z</time>
      </trkpt>
      <trkpt lat="49.03436" lon="1.14926">
        <ele>87.4</ele>
        <time>2018-12-09T07:39:48Z</time>
      </trkpt>
      <trkpt lat="49.03432" lon="1.14946">
        <ele>86.4</ele>
        <time>2018-12-09T07:39:50Z</time>
      </trkpt>
      <trkpt lat="49.03428" lon="1.1497">
        <ele>85.4</ele>
        <time>2018-12-09T07:39:52Z</time>
      </trkpt>
      <trkpt lat="49.03424" lon="1.14993">
        <ele>84.3</ele>
        <time>2018-12-09T07:39:54Z</time>
      </trkpt>
      <trkpt lat="49.03421" lon="1.15015">
        <ele>83.3</ele>
        <time>2018-12-09T07:39:56Z</time>
      </trkpt>
      <trkpt lat="49.03417" lon="1.15027">
        <ele>82.4</ele>
        <time>2018-12-09T07:39:58Z</time>
      </trkpt>
      <trkpt lat="49.03407" lon="1.15033">
        <ele>81.3</ele>
        <time>2018-12-09T07:40:01Z</time>
      </trkpt>
      <trkpt lat="49.03398" lon="1.15038">
        <ele>81.1</ele>
        <time>2018-12-09T07:40:04Z</time>
      </trkpt>
      <trkpt lat="49.03389" lon="1.15044">
        <ele>81.3</ele>
        <time>2018-12-09T07:40:08Z</time>
      </trkpt>
      <trkpt lat="49.03381" lon="1.15052">
        <ele>81.9</ele>
        <time>2018-12-09T07:40:11Z</time>
      </trkpt>
      <trkpt lat="49.03372" lon="1.1506">
        <ele>82.5</ele>
        <time>2018-12-09T07:40:15Z</time>
      </trkpt>
      <trkpt lat="49.03365" lon="1.15069">
        <ele>83.5</ele>
        <time>2018-12-09T07:40:19Z</time>
      </trkpt>
      <trkpt lat="49.03359" lon="1.15081">
        <ele>84.6</ele>
        <time>2018-12-09T07:40:23Z</time>
      </trkpt>
      <trkpt lat="49.03354" lon="1.15096">
        <ele>85.4</ele>
        <time>2018-12-09T07:40:27Z</time>
      </trkpt>
      <trkpt lat="49.03351" lon="1.15111">
        <ele>86.3</ele>
        <time>2018-12-09T07:40:32Z</time>
      </trkpt>
      <trkpt lat="49.03349" lon="1.15128">
        <ele>87.2</ele>
        <time>2018-12-09T07:40:36Z</time>
      </trkpt>
      <trkpt lat="49.03347" lon="1.15142">
        <ele>88.1</ele>
        <time>2018-12-09T07:40:39Z</time>
      </trkpt>
      <trkpt lat="49.03346" lon="1.15159">
        <ele>88.5</ele>
        <time>2018-12-09T07:40:42Z</time>
      </trkpt>
      <trkpt lat="49.03346" lon="1.15176">
        <ele>88.5</ele>
        <time>2018-12-09T07:40:45Z</time>
      </trkpt>
      <trkpt lat="49.03345" lon="1.15193">
        <ele>88.3</ele>
        <time>2018-12-09T07:40:48Z</time>
      </trkpt>
      <trkpt lat="49.03338" lon="1.15204">
        <ele>88.3</ele>
        <time>2018-12-09T07:40:51Z</time>
      </trkpt>
      <trkpt lat="49.03326" lon="1.15207">
        <ele>88.2</ele>
        <time>2018-12-09T07:40:54Z</time>
      </trkpt>
      <trkpt lat="49.03316" lon="1.15201">
        <ele>87.6</ele>
        <time>2018-12-09T07:40:57Z</time>
      </trkpt>
      <trkpt lat="49.03308" lon="1.1519">
        <ele>87.4</ele>
        <time>2018-12-09T07:41:00Z</time>
      </trkpt>
      <trkpt lat="49.03303" lon="1.15179">
        <ele>87.5</ele>
        <time>2018-12-09T07:41:03Z</time>
      </trkpt>
      <trkpt lat="49.033" lon="1.15163">
        <ele>87.9</ele>
        <time>2018-12-09T07:41:07Z</time>
      </trkpt>
      <trkpt lat="49.03295" lon="1.15149">
        <ele>88.5</ele>
        <time>2018-12-09T07:41:11Z</time>
      </trkpt>
      <trkpt lat="49.03291" lon="1.15136">
        <ele>89.3</ele>
        <time>2018-12-09T07:41:15Z</time>
      </trkpt>
      <trkpt lat="49.03287" lon="1.15122">
        <ele>90.8</ele>
        <time>2018-12-09T07:41:20Z</time>
      </trkpt>
      <trkpt lat="49.03282" lon="1.15109">
        <ele>92.5</ele>
        <time>2018-12-09T07:41:25Z</time>
      </trkpt>
      <trkpt lat="49.03278" lon="1.15095">
        <ele>93.9</ele>
        <time>2018-12-09T07:41:30Z</time>
      </trkpt>
      <trkpt lat="49.03273" lon="1.15084">
        <ele>95</ele>
        <time>2018-12-09T07:41:35Z</time>
      </trkpt>
      <trkpt lat="49.03267" lon="1.1507">
        <ele>95.6</ele>
        <time>2018-12-09T07:41:40Z</time>
      </trkpt>
      <trkpt lat="49.03262" lon="1.15057">
        <ele>95.8</ele>
        <time>2018-12-09T07:41:44Z</time>
      </trkpt>
      <trkpt lat="49.03257" lon="1.15044">
        <ele>95.9</ele>
        <time>2018-12-09T07:41:47Z</time>
      </trkpt>
      <trkpt lat="49.03252" lon="1.15032">
        <ele>95.8</ele>
        <time>2018-12-09T07:41:50Z</time>
      </trkpt>
      <trkpt lat="49.03247" lon="1.15017">
        <ele>96.2</ele>
        <time>2018-12-09T07:41:54Z</time>
      </trkpt>
      <trkpt lat="49.03242" lon="1.15004">
        <ele>96.7</ele>
        <time>2018-12-09T07:41:58Z</time>
      </trkpt>
      <trkpt lat="49.03238" lon="1.14991">
        <ele>97.2</ele>
        <time>2018-12-09T07:42:02Z</time>
      </trkpt>
      <trkpt lat="49.03232" lon="1.14977">
        <ele>97.5</ele>
        <time>2018-12-09T07:42:06Z</time>
      </trkpt>
      <trkpt lat="49.03227" lon="1.14961">
        <ele>97.9</ele>
        <time>2018-12-09T07:42:10Z</time>
      </trkpt>
      <trkpt lat="49.03222" lon="1.14946">
        <ele>98.7</ele>
        <time>2018-12-09T07:42:14Z</time>
      </trkpt>
      <trkpt lat="49.03216" lon="1.14934">
        <ele>100</ele>
        <time>2018-12-09T07:42:18Z</time>
      </trkpt>
      <trkpt lat="49.03211" lon="1.14922">
        <ele>101.3</ele>
        <time>2018-12-09T07:42:22Z</time>
      </trkpt>
      <trkpt lat="49.03205" lon="1.1491">
        <ele>102.1</ele>
        <time>2018-12-09T07:42:26Z</time>
      </trkpt>
      <trkpt lat="49.03201" lon="1.14897">
        <ele>102.8</ele>
        <time>2018-12-09T07:42:30Z</time>
      </trkpt>
      <trkpt lat="49.03196" lon="1.14883">
        <ele>103.5</ele>
        <time>2018-12-09T07:42:34Z</time>
      </trkpt>
      <trkpt lat="49.03192" lon="1.1487">
        <ele>104.1</ele>
        <time>2018-12-09T07:42:38Z</time>
      </trkpt>
      <trkpt lat="49.03187" lon="1.14856">
        <ele>104.8</ele>
        <time>2018-12-09T07:42:42Z</time>
      </trkpt>
      <trkpt lat="49.03184" lon="1.14841">
        <ele>105.6</ele>
        <time>2018-12-09T07:42:46Z</time>
      </trkpt>
      <trkpt lat="49.03181" lon="1.14827">
        <ele>106.4</ele>
        <time>2018-12-09T07:42:50Z</time>
      </trkpt>
      <trkpt lat="49.03179" lon="1.14813">
        <ele>107.2</ele>
        <time>2018-12-09T07:42:54Z</time>
      </trkpt>
      <trkpt lat="49.03176" lon="1.14799">
        <ele>107.8</ele>
        <time>2018-12-09T07:42:58Z</time>
      </trkpt>
      <trkpt lat="49.03172" lon="1.14783">
        <ele>108.2</ele>
        <time>2018-12-09T07:43:03Z</time>
      </trkpt>
      <trkpt lat="49.03169" lon="1.14769">
        <ele>108.9</ele>
        <time>2018-12-09T07:43:08Z</time>
      </trkpt>
      <trkpt lat="49.03166" lon="1.14756">
        <ele>109.4</ele>
        <time>2018-12-09T07:43:16Z</time>
      </trkpt>
      <trkpt lat="49.03165" lon="1.14752">
        <ele>109.3</ele>
        <time>2018-12-09T07:43:24Z</time>
      </trkpt>
      <trkpt lat="49.03159" lon="1.1474">
        <ele>109.1</ele>
        <time>2018-12-09T07:43:41Z</time>
      </trkpt>
      <trkpt lat="49.03151" lon="1.14727">
        <ele>108.4</ele>
        <time>2018-12-09T07:43:44Z</time>
      </trkpt>
      <trkpt lat="49.03145" lon="1.14717">
        <ele>107.8</ele>
        <time>2018-12-09T07:43:46Z</time>
      </trkpt>
      <trkpt lat="49.03139" lon="1.14706">
        <ele>106.5</ele>
        <time>2018-12-09T07:43:48Z</time>
      </trkpt>
      <trkpt lat="49.03132" lon="1.14693">
        <ele>105.2</ele>
        <time>2018-12-09T07:43:50Z</time>
      </trkpt>
      <trkpt lat="49.03125" lon="1.14681">
        <ele>104.4</ele>
        <time>2018-12-09T07:43:52Z</time>
      </trkpt>
      <trkpt lat="49.03119" lon="1.14669">
        <ele>103.2</ele>
        <time>2018-12-09T07:43:54Z</time>
      </trkpt>
      <trkpt lat="49.03113" lon="1.14659">
        <ele>102.1</ele>
        <time>2018-12-09T07:43:56Z</time>
      </trkpt>
      <trkpt lat="49.03104" lon="1.14644">
        <ele>100.1</ele>
        <time>2018-12-09T07:43:59Z</time>
      </trkpt>
      <trkpt lat="49.03098" lon="1.14634">
        <ele>98.3</ele>
        <time>2018-12-09T07:44:03Z</time>
      </trkpt>
      <trkpt lat="49.03093" lon="1.14623">
        <ele>96.3</ele>
        <time>2018-12-09T07:44:12Z</time>
      </trkpt>
      <trkpt lat="49.03086" lon="1.14613">
        <ele>94.3</ele>
        <time>2018-12-09T07:44:23Z</time>
      </trkpt>
      <trkpt lat="49.03081" lon="1.14599">
        <ele>93.7</ele>
        <time>2018-12-09T07:44:29Z</time>
      </trkpt>
      <trkpt lat="49.03079" lon="1.14584">
        <ele>94.3</ele>
        <time>2018-12-09T07:44:36Z</time>
      </trkpt>
      <trkpt lat="49.03078" lon="1.14569">
        <ele>96.2</ele>
        <time>2018-12-09T07:44:44Z</time>
      </trkpt>
      <trkpt lat="49.03079" lon="1.14554">
        <ele>99.4</ele>
        <time>2018-12-09T07:44:54Z</time>
      </trkpt>
      <trkpt lat="49.03082" lon="1.14541">
        <ele>101.8</ele>
        <time>2018-12-09T07:45:04Z</time>
      </trkpt>
      <trkpt lat="49.03089" lon="1.1453">
        <ele>104.5</ele>
        <time>2018-12-09T07:45:15Z</time>
      </trkpt>
      <trkpt lat="49.03094" lon="1.14519">
        <ele>106.5</ele>
        <time>2018-12-09T07:45:28Z</time>
      </trkpt>
      <trkpt lat="49.03101" lon="1.14509">
        <ele>108.6</ele>
        <time>2018-12-09T07:45:40Z</time>
      </trkpt>
      <trkpt lat="49.03101" lon="1.14501">
        <ele>109.9</ele>
        <time>2018-12-09T07:45:50Z</time>
      </trkpt>
      <trkpt lat="49.03095" lon="1.14488">
        <ele>109.6</ele>
        <time>2018-12-09T07:45:57Z</time>
      </trkpt>
      <trkpt lat="49.03087" lon="1.14471">
        <ele>108.7</ele>
        <time>2018-12-09T07:46:00Z</time>
      </trkpt>
      <trkpt lat="49.0308" lon="1.14456">
        <ele>108.1</ele>
        <time>2018-12-09T07:46:02Z</time>
      </trkpt>
      <trkpt lat="49.03075" lon="1.14439">
        <ele>107.3</ele>
        <time>2018-12-09T07:46:04Z</time>
      </trkpt>
      <trkpt lat="49.0307" lon="1.14422">
        <ele>106.1</ele>
        <time>2018-12-09T07:46:06Z</time>
      </trkpt>
      <trkpt lat="49.03067" lon="1.14407">
        <ele>105.7</ele>
        <time>2018-12-09T07:46:08Z</time>
      </trkpt>
      <trkpt lat="49.03064" lon="1.14392">
        <ele>105.4</ele>
        <time>2018-12-09T07:46:10Z</time>
      </trkpt>
      <trkpt lat="49.0306" lon="1.14376">
        <ele>105.5</ele>
        <time>2018-12-09T07:46:13Z</time>
      </trkpt>
      <trkpt lat="49.03056" lon="1.14358">
        <ele>105.1</ele>
        <time>2018-12-09T07:46:17Z</time>
      </trkpt>
      <trkpt lat="49.03052" lon="1.14341">
        <ele>105.1</ele>
        <time>2018-12-09T07:46:20Z</time>
      </trkpt>
      <trkpt lat="49.03048" lon="1.14323">
        <ele>105.6</ele>
        <time>2018-12-09T07:46:23Z</time>
      </trkpt>
      <trkpt lat="49.03044" lon="1.14305">
        <ele>106.4</ele>
        <time>2018-12-09T07:46:26Z</time>
      </trkpt>
      <trkpt lat="49.03039" lon="1.14288">
        <ele>107</ele>
        <time>2018-12-09T07:46:29Z</time>
      </trkpt>
      <trkpt lat="49.03034" lon="1.14272">
        <ele>108.1</ele>
        <time>2018-12-09T07:46:32Z</time>
      </trkpt>
      <trkpt lat="49.03031" lon="1.14259">
        <ele>108.6</ele>
        <time>2018-12-09T07:46:35Z</time>
      </trkpt>
      <trkpt lat="49.03028" lon="1.14246">
        <ele>109.8</ele>
        <time>2018-12-09T07:46:38Z</time>
      </trkpt>
      <trkpt lat="49.03024" lon="1.14231">
        <ele>110.7</ele>
        <time>2018-12-09T07:46:42Z</time>
      </trkpt>
      <trkpt lat="49.03021" lon="1.14217">
        <ele>111.4</ele>
        <time>2018-12-09T07:46:46Z</time>
      </trkpt>
      <trkpt lat="49.03016" lon="1.14202">
        <ele>111.8</ele>
        <time>2018-12-09T07:46:50Z</time>
      </trkpt>
      <trkpt lat="49.03013" lon="1.14187">
        <ele>112.2</ele>
        <time>2018-12-09T07:46:54Z</time>
      </trkpt>
      <trkpt lat="49.0301" lon="1.14171">
        <ele>112.6</ele>
        <time>2018-12-09T07:46:58Z</time>
      </trkpt>
      <trkpt lat="49.03006" lon="1.14156">
        <ele>113</ele>
        <time>2018-12-09T07:47:02Z</time>
      </trkpt>
      <trkpt lat="49.03003" lon="1.14142">
        <ele>113.6</ele>
        <time>2018-12-09T07:47:06Z</time>
      </trkpt>
      <trkpt lat="49.02999" lon="1.14126">
        <ele>113.9</ele>
        <time>2018-12-09T07:47:10Z</time>
      </trkpt>
      <trkpt lat="49.02995" lon="1.1411">
        <ele>114.3</ele>
        <time>2018-12-09T07:47:14Z</time>
      </trkpt>
      <trkpt lat="49.0299" lon="1.14095">
        <ele>113.9</ele>
        <time>2018-12-09T07:47:18Z</time>
      </trkpt>
      <trkpt lat="49.02986" lon="1.14081">
        <ele>114.2</ele>
        <time>2018-12-09T07:47:22Z</time>
      </trkpt>
      <trkpt lat="49.02982" lon="1.14068">
        <ele>114.6</ele>
        <time>2018-12-09T07:47:27Z</time>
      </trkpt>
      <trkpt lat="49.02978" lon="1.14051">
        <ele>115.1</ele>
        <time>2018-12-09T07:47:32Z</time>
      </trkpt>
      <trkpt lat="49.0298" lon="1.14037">
        <ele>116.5</ele>
        <time>2018-12-09T07:47:37Z</time>
      </trkpt>
      <trkpt lat="49.02976" lon="1.14023">
        <ele>117.3</ele>
        <time>2018-12-09T07:47:43Z</time>
      </trkpt>
      <trkpt lat="49.02969" lon="1.1401">
        <ele>117.5</ele>
        <time>2018-12-09T07:47:46Z</time>
      </trkpt>
      <trkpt lat="49.02964" lon="1.13998">
        <ele>117.7</ele>
        <time>2018-12-09T07:47:49Z</time>
      </trkpt>
      <trkpt lat="49.02958" lon="1.13986">
        <ele>117.7</ele>
        <time>2018-12-09T07:47:52Z</time>
      </trkpt>
      <trkpt lat="49.02954" lon="1.13972">
        <ele>117.5</ele>
        <time>2018-12-09T07:47:55Z</time>
      </trkpt>
      <trkpt lat="49.0295" lon="1.13955">
        <ele>118.1</ele>
        <time>2018-12-09T07:47:59Z</time>
      </trkpt>
      <trkpt lat="49.02947" lon="1.13942">
        <ele>118.6</ele>
        <time>2018-12-09T07:48:02Z</time>
      </trkpt>
      <trkpt lat="49.02943" lon="1.13929">
        <ele>118.6</ele>
        <time>2018-12-09T07:48:05Z</time>
      </trkpt>
      <trkpt lat="49.0294" lon="1.13913">
        <ele>118.4</ele>
        <time>2018-12-09T07:48:08Z</time>
      </trkpt>
      <trkpt lat="49.02937" lon="1.13897">
        <ele>118.1</ele>
        <time>2018-12-09T07:48:11Z</time>
      </trkpt>
      <trkpt lat="49.02936" lon="1.13882">
        <ele>117.8</ele>
        <time>2018-12-09T07:48:14Z</time>
      </trkpt>
      <trkpt lat="49.02934" lon="1.13866">
        <ele>117.4</ele>
        <time>2018-12-09T07:48:18Z</time>
      </trkpt>
      <trkpt lat="49.02936" lon="1.13864">
        <ele>117.1</ele>
        <time>2018-12-09T07:48:24Z</time>
      </trkpt>
      <trkpt lat="49.02933" lon="1.13851">
        <ele>117.3</ele>
        <time>2018-12-09T07:48:40Z</time>
      </trkpt>
      <trkpt lat="49.02932" lon="1.13836">
        <ele>117.1</ele>
        <time>2018-12-09T07:48:43Z</time>
      </trkpt>
      <trkpt lat="49.02933" lon="1.13817">
        <ele>117.2</ele>
        <time>2018-12-09T07:48:46Z</time>
      </trkpt>
      <trkpt lat="49.02936" lon="1.13797">
        <ele>117.1</ele>
        <time>2018-12-09T07:48:49Z</time>
      </trkpt>
      <trkpt lat="49.02938" lon="1.13783">
        <ele>116.8</ele>
        <time>2018-12-09T07:48:51Z</time>
      </trkpt>
      <trkpt lat="49.0294" lon="1.13769">
        <ele>116.7</ele>
        <time>2018-12-09T07:48:53Z</time>
      </trkpt>
      <trkpt lat="49.02942" lon="1.13755">
        <ele>116.7</ele>
        <time>2018-12-09T07:48:55Z</time>
      </trkpt>
      <trkpt lat="49.02946" lon="1.13742">
        <ele>116.6</ele>
        <time>2018-12-09T07:48:57Z</time>
      </trkpt>
      <trkpt lat="49.02951" lon="1.13729">
        <ele>116.5</ele>
        <time>2018-12-09T07:48:59Z</time>
      </trkpt>
      <trkpt lat="49.02957" lon="1.13717">
        <ele>116.7</ele>
        <time>2018-12-09T07:49:01Z</time>
      </trkpt>
      <trkpt lat="49.02964" lon="1.13705">
        <ele>116.5</ele>
        <time>2018-12-09T07:49:03Z</time>
      </trkpt>
      <trkpt lat="49.02972" lon="1.13693">
        <ele>116.3</ele>
        <time>2018-12-09T07:49:05Z</time>
      </trkpt>
      <trkpt lat="49.0298" lon="1.13683">
        <ele>116.2</ele>
        <time>2018-12-09T07:49:07Z</time>
      </trkpt>
      <trkpt lat="49.02988" lon="1.13674">
        <ele>116.4</ele>
        <time>2018-12-09T07:49:09Z</time>
      </trkpt>
      <trkpt lat="49.02996" lon="1.13666">
        <ele>116.7</ele>
        <time>2018-12-09T07:49:11Z</time>
      </trkpt>
      <trkpt lat="49.03004" lon="1.13659">
        <ele>117.3</ele>
        <time>2018-12-09T07:49:13Z</time>
      </trkpt>
      <trkpt lat="49.03012" lon="1.13652">
        <ele>118</ele>
        <time>2018-12-09T07:49:15Z</time>
      </trkpt>
      <trkpt lat="49.0302" lon="1.13645">
        <ele>119</ele>
        <time>2018-12-09T07:49:17Z</time>
      </trkpt>
      <trkpt lat="49.03031" lon="1.13634">
        <ele>119.9</ele>
        <time>2018-12-09T07:49:20Z</time>
      </trkpt>
      <trkpt lat="49.03034" lon="1.13615">
        <ele>120.8</ele>
        <time>2018-12-09T07:49:23Z</time>
      </trkpt>
      <trkpt lat="49.03033" lon="1.13601">
        <ele>121.1</ele>
        <time>2018-12-09T07:49:25Z</time>
      </trkpt>
      <trkpt lat="49.03031" lon="1.13587">
        <ele>121.4</ele>
        <time>2018-12-09T07:49:27Z</time>
      </trkpt>
      <trkpt lat="49.0303" lon="1.13573">
        <ele>121.7</ele>
        <time>2018-12-09T07:49:29Z</time>
      </trkpt>
      <trkpt lat="49.03028" lon="1.13554">
        <ele>122.1</ele>
        <time>2018-12-09T07:49:32Z</time>
      </trkpt>
      <trkpt lat="49.0302" lon="1.13538">
        <ele>122.5</ele>
        <time>2018-12-09T07:49:35Z</time>
      </trkpt>
      <trkpt lat="49.03009" lon="1.13532">
        <ele>122.6</ele>
        <time>2018-12-09T07:49:38Z</time>
      </trkpt>
      <trkpt lat="49.02997" lon="1.13529">
        <ele>123.1</ele>
        <time>2018-12-09T07:49:41Z</time>
      </trkpt>
      <trkpt lat="49.02986" lon="1.13529">
        <ele>123.5</ele>
        <time>2018-12-09T07:49:44Z</time>
      </trkpt>
      <trkpt lat="49.02975" lon="1.13532">
        <ele>123.5</ele>
        <time>2018-12-09T07:49:47Z</time>
      </trkpt>
      <trkpt lat="49.02962" lon="1.13537">
        <ele>123.1</ele>
        <time>2018-12-09T07:49:50Z</time>
      </trkpt>
      <trkpt lat="49.02949" lon="1.1354">
        <ele>123</ele>
        <time>2018-12-09T07:49:53Z</time>
      </trkpt>
      <trkpt lat="49.0294" lon="1.13544">
        <ele>122.7</ele>
        <time>2018-12-09T07:49:55Z</time>
      </trkpt>
      <trkpt lat="49.0293" lon="1.13548">
        <ele>122.5</ele>
        <time>2018-12-09T07:49:57Z</time>
      </trkpt>
      <trkpt lat="49.02921" lon="1.13554">
        <ele>122.4</ele>
        <time>2018-12-09T07:49:59Z</time>
      </trkpt>
      <trkpt lat="49.02912" lon="1.13564">
        <ele>121.8</ele>
        <time>2018-12-09T07:50:01Z</time>
      </trkpt>
      <trkpt lat="49.02903" lon="1.13577">
        <ele>121.1</ele>
        <time>2018-12-09T07:50:03Z</time>
      </trkpt>
      <trkpt lat="49.02894" lon="1.13591">
        <ele>120.4</ele>
        <time>2018-12-09T07:50:05Z</time>
      </trkpt>
      <trkpt lat="49.02885" lon="1.13607">
        <ele>119.6</ele>
        <time>2018-12-09T07:50:07Z</time>
      </trkpt>
      <trkpt lat="49.02874" lon="1.13623">
        <ele>118.7</ele>
        <time>2018-12-09T07:50:09Z</time>
      </trkpt>
      <trkpt lat="49.02863" lon="1.1364">
        <ele>117.9</ele>
        <time>2018-12-09T07:50:11Z</time>
      </trkpt>
      <trkpt lat="49.02852" lon="1.13659">
        <ele>116.9</ele>
        <time>2018-12-09T07:50:13Z</time>
      </trkpt>
      <trkpt lat="49.02842" lon="1.13678">
        <ele>115.9</ele>
        <time>2018-12-09T07:50:15Z</time>
      </trkpt>
      <trkpt lat="49.02832" lon="1.13698">
        <ele>114.7</ele>
        <time>2018-12-09T07:50:17Z</time>
      </trkpt>
      <trkpt lat="49.02822" lon="1.13717">
        <ele>113.4</ele>
        <time>2018-12-09T07:50:19Z</time>
      </trkpt>
      <trkpt lat="49.02815" lon="1.13735">
        <ele>112</ele>
        <time>2018-12-09T07:50:21Z</time>
      </trkpt>
      <trkpt lat="49.02815" lon="1.13759">
        <ele>110.5</ele>
        <time>2018-12-09T07:50:23Z</time>
      </trkpt>
      <trkpt lat="49.02819" lon="1.13786">
        <ele>108.8</ele>
        <time>2018-12-09T07:50:25Z</time>
      </trkpt>
      <trkpt lat="49.02821" lon="1.13801">
        <ele>107.6</ele>
        <time>2018-12-09T07:50:26Z</time>
      </trkpt>
      <trkpt lat="49.02823" lon="1.13815">
        <ele>106.4</ele>
        <time>2018-12-09T07:50:27Z</time>
      </trkpt>
      <trkpt lat="49.02827" lon="1.13839">
        <ele>104.1</ele>
        <time>2018-12-09T07:50:29Z</time>
      </trkpt>
      <trkpt lat="49.02829" lon="1.13855">
        <ele>102</ele>
        <time>2018-12-09T07:50:31Z</time>
      </trkpt>
      <trkpt lat="49.02825" lon="1.13868">
        <ele>99.2</ele>
        <time>2018-12-09T07:50:35Z</time>
      </trkpt>
      <trkpt lat="49.02816" lon="1.13865">
        <ele>97.8</ele>
        <time>2018-12-09T07:50:38Z</time>
      </trkpt>
      <trkpt lat="49.02803" lon="1.13858">
        <ele>96.8</ele>
        <time>2018-12-09T07:50:41Z</time>
      </trkpt>
      <trkpt lat="49.02791" lon="1.1385">
        <ele>95.1</ele>
        <time>2018-12-09T07:50:43Z</time>
      </trkpt>
      <trkpt lat="49.0278" lon="1.13841">
        <ele>92.8</ele>
        <time>2018-12-09T07:50:45Z</time>
      </trkpt>
      <trkpt lat="49.02768" lon="1.13833">
        <ele>90.8</ele>
        <time>2018-12-09T07:50:47Z</time>
      </trkpt>
      <trkpt lat="49.02755" lon="1.13823">
        <ele>88.6</ele>
        <time>2018-12-09T07:50:49Z</time>
      </trkpt>
      <trkpt lat="49.02743" lon="1.1381">
        <ele>86.7</ele>
        <time>2018-12-09T07:50:51Z</time>
      </trkpt>
      <trkpt lat="49.02732" lon="1.13799">
        <ele>85.1</ele>
        <time>2018-12-09T07:50:53Z</time>
      </trkpt>
      <trkpt lat="49.02721" lon="1.13784">
        <ele>83.6</ele>
        <time>2018-12-09T07:50:55Z</time>
      </trkpt>
      <trkpt lat="49.02712" lon="1.13771">
        <ele>82.2</ele>
        <time>2018-12-09T07:50:57Z</time>
      </trkpt>
      <trkpt lat="49.02705" lon="1.13758">
        <ele>80.4</ele>
        <time>2018-12-09T07:51:00Z</time>
      </trkpt>
      <trkpt lat="49.02699" lon="1.13746">
        <ele>78.4</ele>
        <time>2018-12-09T07:51:03Z</time>
      </trkpt>
      <trkpt lat="49.02694" lon="1.13729">
        <ele>77.4</ele>
        <time>2018-12-09T07:51:06Z</time>
      </trkpt>
      <trkpt lat="49.02694" lon="1.13712">
        <ele>78</ele>
        <time>2018-12-09T07:51:10Z</time>
      </trkpt>
      <trkpt lat="49.02692" lon="1.13694">
        <ele>78.4</ele>
        <time>2018-12-09T07:51:14Z</time>
      </trkpt>
      <trkpt lat="49.0269" lon="1.13679">
        <ele>79</ele>
        <time>2018-12-09T07:51:18Z</time>
      </trkpt>
      <trkpt lat="49.02688" lon="1.13666">
        <ele>80.6</ele>
        <time>2018-12-09T07:51:23Z</time>
      </trkpt>
      <trkpt lat="49.02695" lon="1.13658">
        <ele>83.6</ele>
        <time>2018-12-09T07:51:34Z</time>
      </trkpt>
      <trkpt lat="49.02705" lon="1.13655">
        <ele>85.4</ele>
        <time>2018-12-09T07:51:41Z</time>
      </trkpt>
      <trkpt lat="49.02706" lon="1.13641">
        <ele>88.5</ele>
        <time>2018-12-09T07:51:48Z</time>
      </trkpt>
      <trkpt lat="49.02703" lon="1.13628">
        <ele>90.7</ele>
        <time>2018-12-09T07:51:55Z</time>
      </trkpt>
      <trkpt lat="49.02697" lon="1.13616">
        <ele>93.8</ele>
        <time>2018-12-09T07:52:03Z</time>
      </trkpt>
      <trkpt lat="49.0269" lon="1.13605">
        <ele>95.9</ele>
        <time>2018-12-09T07:52:10Z</time>
      </trkpt>
      <trkpt lat="49.02684" lon="1.13591">
        <ele>96.7</ele>
        <time>2018-12-09T07:52:15Z</time>
      </trkpt>
      <trkpt lat="49.0268" lon="1.13575">
        <ele>97</ele>
        <time>2018-12-09T07:52:19Z</time>
      </trkpt>
      <trkpt lat="49.02677" lon="1.13559">
        <ele>97.1</ele>
        <time>2018-12-09T07:52:23Z</time>
      </trkpt>
      <trkpt lat="49.02675" lon="1.13543">
        <ele>97.4</ele>
        <time>2018-12-09T07:52:27Z</time>
      </trkpt>
      <trkpt lat="49.02673" lon="1.13527">
        <ele>98.3</ele>
        <time>2018-12-09T07:52:33Z</time>
      </trkpt>
      <trkpt lat="49.02674" lon="1.13512">
        <ele>99.4</ele>
        <time>2018-12-09T07:52:39Z</time>
      </trkpt>
      <trkpt lat="49.02673" lon="1.13496">
        <ele>100.7</ele>
        <time>2018-12-09T07:52:44Z</time>
      </trkpt>
      <trkpt lat="49.02671" lon="1.13479">
        <ele>101.4</ele>
        <time>2018-12-09T07:52:49Z</time>
      </trkpt>
      <trkpt lat="49.02668" lon="1.13465">
        <ele>101.6</ele>
        <time>2018-12-09T07:52:53Z</time>
      </trkpt>
      <trkpt lat="49.02665" lon="1.13447">
        <ele>101.5</ele>
        <time>2018-12-09T07:52:57Z</time>
      </trkpt>
      <trkpt lat="49.02664" lon="1.13433">
        <ele>101.9</ele>
        <time>2018-12-09T07:53:00Z</time>
      </trkpt>
      <trkpt lat="49.02663" lon="1.13416">
        <ele>102.3</ele>
        <time>2018-12-09T07:53:04Z</time>
      </trkpt>
      <trkpt lat="49.02661" lon="1.13399">
        <ele>102.7</ele>
        <time>2018-12-09T07:53:08Z</time>
      </trkpt>
      <trkpt lat="49.02659" lon="1.13381">
        <ele>103.6</ele>
        <time>2018-12-09T07:53:12Z</time>
      </trkpt>
      <trkpt lat="49.02657" lon="1.13364">
        <ele>104.9</ele>
        <time>2018-12-09T07:53:16Z</time>
      </trkpt>
      <trkpt lat="49.02656" lon="1.13347">
        <ele>105.3</ele>
        <time>2018-12-09T07:53:20Z</time>
      </trkpt>
      <trkpt lat="49.02655" lon="1.1333">
        <ele>105.8</ele>
        <time>2018-12-09T07:53:24Z</time>
      </trkpt>
      <trkpt lat="49.02657" lon="1.13316">
        <ele>106.5</ele>
        <time>2018-12-09T07:53:28Z</time>
      </trkpt>
      <trkpt lat="49.02658" lon="1.13302">
        <ele>108</ele>
        <time>2018-12-09T07:53:32Z</time>
      </trkpt>
      <trkpt lat="49.02658" lon="1.13288">
        <ele>109.6</ele>
        <time>2018-12-09T07:53:36Z</time>
      </trkpt>
      <trkpt lat="49.02659" lon="1.13271">
        <ele>110.3</ele>
        <time>2018-12-09T07:53:40Z</time>
      </trkpt>
      <trkpt lat="49.02661" lon="1.13254">
        <ele>111.7</ele>
        <time>2018-12-09T07:53:44Z</time>
      </trkpt>
      <trkpt lat="49.02662" lon="1.1324">
        <ele>112.3</ele>
        <time>2018-12-09T07:53:47Z</time>
      </trkpt>
      <trkpt lat="49.0266" lon="1.13226">
        <ele>112.6</ele>
        <time>2018-12-09T07:53:50Z</time>
      </trkpt>
      <trkpt lat="49.02657" lon="1.13212">
        <ele>112.5</ele>
        <time>2018-12-09T07:53:53Z</time>
      </trkpt>
      <trkpt lat="49.02652" lon="1.13197">
        <ele>111.7</ele>
        <time>2018-12-09T07:53:56Z</time>
      </trkpt>
      <trkpt lat="49.02646" lon="1.13179">
        <ele>110.9</ele>
        <time>2018-12-09T07:53:59Z</time>
      </trkpt>
      <trkpt lat="49.0264" lon="1.13162">
        <ele>110.4</ele>
        <time>2018-12-09T07:54:02Z</time>
      </trkpt>
      <trkpt lat="49.02632" lon="1.13149">
        <ele>109.2</ele>
        <time>2018-12-09T07:54:05Z</time>
      </trkpt>
      <trkpt lat="49.02627" lon="1.13137">
        <ele>108.5</ele>
        <time>2018-12-09T07:54:07Z</time>
      </trkpt>
      <trkpt lat="49.02618" lon="1.13124">
        <ele>107.4</ele>
        <time>2018-12-09T07:54:09Z</time>
      </trkpt>
      <trkpt lat="49.0261" lon="1.13108">
        <ele>106.1</ele>
        <time>2018-12-09T07:54:11Z</time>
      </trkpt>
      <trkpt lat="49.02603" lon="1.13089">
        <ele>104.7</ele>
        <time>2018-12-09T07:54:13Z</time>
      </trkpt>
      <trkpt lat="49.02598" lon="1.13077">
        <ele>103.3</ele>
        <time>2018-12-09T07:54:15Z</time>
      </trkpt>
      <trkpt lat="49.0259" lon="1.13069">
        <ele>101.4</ele>
        <time>2018-12-09T07:54:17Z</time>
      </trkpt>
      <trkpt lat="49.02583" lon="1.13054">
        <ele>99.2</ele>
        <time>2018-12-09T07:54:19Z</time>
      </trkpt>
      <trkpt lat="49.02579" lon="1.13035">
        <ele>97.1</ele>
        <time>2018-12-09T07:54:21Z</time>
      </trkpt>
      <trkpt lat="49.02577" lon="1.13015">
        <ele>95.3</ele>
        <time>2018-12-09T07:54:23Z</time>
      </trkpt>
      <trkpt lat="49.02576" lon="1.12997">
        <ele>94.3</ele>
        <time>2018-12-09T07:54:25Z</time>
      </trkpt>
      <trkpt lat="49.02577" lon="1.12982">
        <ele>93.7</ele>
        <time>2018-12-09T07:54:27Z</time>
      </trkpt>
      <trkpt lat="49.02579" lon="1.12966">
        <ele>93.4</ele>
        <time>2018-12-09T07:54:30Z</time>
      </trkpt>
      <trkpt lat="49.02578" lon="1.12947">
        <ele>93.3</ele>
        <time>2018-12-09T07:54:33Z</time>
      </trkpt>
      <trkpt lat="49.02576" lon="1.12932">
        <ele>92.8</ele>
        <time>2018-12-09T07:54:35Z</time>
      </trkpt>
      <trkpt lat="49.02573" lon="1.12917">
        <ele>92.3</ele>
        <time>2018-12-09T07:54:37Z</time>
      </trkpt>
      <trkpt lat="49.02569" lon="1.129">
        <ele>91.8</ele>
        <time>2018-12-09T07:54:39Z</time>
      </trkpt>
      <trkpt lat="49.02566" lon="1.12885">
        <ele>91.1</ele>
        <time>2018-12-09T07:54:41Z</time>
      </trkpt>
      <trkpt lat="49.02563" lon="1.12866">
        <ele>91.4</ele>
        <time>2018-12-09T07:54:44Z</time>
      </trkpt>
      <trkpt lat="49.02559" lon="1.12847">
        <ele>91.7</ele>
        <time>2018-12-09T07:54:47Z</time>
      </trkpt>
      <trkpt lat="49.02556" lon="1.12828">
        <ele>92</ele>
        <time>2018-12-09T07:54:50Z</time>
      </trkpt>
      <trkpt lat="49.02554" lon="1.12814">
        <ele>92</ele>
        <time>2018-12-09T07:54:52Z</time>
      </trkpt>
      <trkpt lat="49.02553" lon="1.128">
        <ele>91.9</ele>
        <time>2018-12-09T07:54:54Z</time>
      </trkpt>
      <trkpt lat="49.02552" lon="1.12787">
        <ele>91.9</ele>
        <time>2018-12-09T07:54:56Z</time>
      </trkpt>
      <trkpt lat="49.0255" lon="1.12773">
        <ele>91.9</ele>
        <time>2018-12-09T07:54:58Z</time>
      </trkpt>
      <trkpt lat="49.02548" lon="1.12759">
        <ele>91.7</ele>
        <time>2018-12-09T07:55:00Z</time>
      </trkpt>
      <trkpt lat="49.02548" lon="1.12745">
        <ele>91.9</ele>
        <time>2018-12-09T07:55:02Z</time>
      </trkpt>
      <trkpt lat="49.02547" lon="1.12725">
        <ele>92.3</ele>
        <time>2018-12-09T07:55:05Z</time>
      </trkpt>
      <trkpt lat="49.02546" lon="1.12706">
        <ele>92.9</ele>
        <time>2018-12-09T07:55:08Z</time>
      </trkpt>
      <trkpt lat="49.02546" lon="1.12689">
        <ele>93.7</ele>
        <time>2018-12-09T07:55:11Z</time>
      </trkpt>
      <trkpt lat="49.02547" lon="1.12672">
        <ele>95.2</ele>
        <time>2018-12-09T07:55:15Z</time>
      </trkpt>
      <trkpt lat="49.02547" lon="1.12657">
        <ele>96.7</ele>
        <time>2018-12-09T07:55:19Z</time>
      </trkpt>
      <trkpt lat="49.02548" lon="1.1264">
        <ele>98.4</ele>
        <time>2018-12-09T07:55:24Z</time>
      </trkpt>
      <trkpt lat="49.02549" lon="1.12624">
        <ele>100</ele>
        <time>2018-12-09T07:55:29Z</time>
      </trkpt>
      <trkpt lat="49.02552" lon="1.1261">
        <ele>101.3</ele>
        <time>2018-12-09T07:55:34Z</time>
      </trkpt>
      <trkpt lat="49.02556" lon="1.12597">
        <ele>103.3</ele>
        <time>2018-12-09T07:55:40Z</time>
      </trkpt>
      <trkpt lat="49.02562" lon="1.12586">
        <ele>105.1</ele>
        <time>2018-12-09T07:55:47Z</time>
      </trkpt>
      <trkpt lat="49.02567" lon="1.12573">
        <ele>106.6</ele>
        <time>2018-12-09T07:55:53Z</time>
      </trkpt>
      <trkpt lat="49.02573" lon="1.1256">
        <ele>108.3</ele>
        <time>2018-12-09T07:55:59Z</time>
      </trkpt>
      <trkpt lat="49.02581" lon="1.12551">
        <ele>109.9</ele>
        <time>2018-12-09T07:56:06Z</time>
      </trkpt>
      <trkpt lat="49.02591" lon="1.12552">
        <ele>110.8</ele>
        <time>2018-12-09T07:56:12Z</time>
      </trkpt>
      <trkpt lat="49.02602" lon="1.12551">
        <ele>110.1</ele>
        <time>2018-12-09T07:56:16Z</time>
      </trkpt>
      <trkpt lat="49.02614" lon="1.12552">
        <ele>108.5</ele>
        <time>2018-12-09T07:56:19Z</time>
      </trkpt>
      <trkpt lat="49.02625" lon="1.12553">
        <ele>107.1</ele>
        <time>2018-12-09T07:56:23Z</time>
      </trkpt>
      <trkpt lat="49.02635" lon="1.12557">
        <ele>106.2</ele>
        <time>2018-12-09T07:56:27Z</time>
      </trkpt>
      <trkpt lat="49.02645" lon="1.12557">
        <ele>106</ele>
        <time>2018-12-09T07:56:31Z</time>
      </trkpt>
      <trkpt lat="49.02656" lon="1.12559">
        <ele>105.5</ele>
        <time>2018-12-09T07:56:35Z</time>
      </trkpt>
      <trkpt lat="49.02665" lon="1.12565">
        <ele>105.9</ele>
        <time>2018-12-09T07:56:39Z</time>
      </trkpt>
      <trkpt lat="49.0267" lon="1.12579">
        <ele>106.2</ele>
        <time>2018-12-09T07:56:44Z</time>
      </trkpt>
      <trkpt lat="49.02677" lon="1.1259">
        <ele>106.5</ele>
        <time>2018-12-09T07:56:51Z</time>
      </trkpt>
      <trkpt lat="49.0268" lon="1.12576">
        <ele>104.7</ele>
        <time>2018-12-09T07:57:00Z</time>
      </trkpt>
      <trkpt lat="49.02684" lon="1.12559">
        <ele>103.6</ele>
        <time>2018-12-09T07:57:06Z</time>
      </trkpt>
      <trkpt lat="49.02685" lon="1.12545">
        <ele>102</ele>
        <time>2018-12-09T07:57:10Z</time>
      </trkpt>
      <trkpt lat="49.02681" lon="1.1253">
        <ele>100.3</ele>
        <time>2018-12-09T07:57:16Z</time>
      </trkpt>
      <trkpt lat="49.02673" lon="1.12523">
        <ele>98</ele>
        <time>2018-12-09T07:57:21Z</time>
      </trkpt>
      <trkpt lat="49.02664" lon="1.12515">
        <ele>94.1</ele>
        <time>2018-12-09T07:57:27Z</time>
      </trkpt>
      <trkpt lat="49.02656" lon="1.12509">
        <ele>89.8</ele>
        <time>2018-12-09T07:57:33Z</time>
      </trkpt>
      <trkpt lat="49.02646" lon="1.12504">
        <ele>86.7</ele>
        <time>2018-12-09T07:57:38Z</time>
      </trkpt>
      <trkpt lat="49.02635" lon="1.12496">
        <ele>83.8</ele>
        <time>2018-12-09T07:57:43Z</time>
      </trkpt>
      <trkpt lat="49.02623" lon="1.12486">
        <ele>82.1</ele>
        <time>2018-12-09T07:57:46Z</time>
      </trkpt>
      <trkpt lat="49.02615" lon="1.12479">
        <ele>80.8</ele>
        <time>2018-12-09T07:57:48Z</time>
      </trkpt>
      <trkpt lat="49.02606" lon="1.12471">
        <ele>79.3</ele>
        <time>2018-12-09T07:57:50Z</time>
      </trkpt>
      <trkpt lat="49.02597" lon="1.12464">
        <ele>77.6</ele>
        <time>2018-12-09T07:57:52Z</time>
      </trkpt>
      <trkpt lat="49.02588" lon="1.12456">
        <ele>75.6</ele>
        <time>2018-12-09T07:57:54Z</time>
      </trkpt>
      <trkpt lat="49.02577" lon="1.12447">
        <ele>73.4</ele>
        <time>2018-12-09T07:57:56Z</time>
      </trkpt>
      <trkpt lat="49.02568" lon="1.12439">
        <ele>70.9</ele>
        <time>2018-12-09T07:57:58Z</time>
      </trkpt>
      <trkpt lat="49.02558" lon="1.12432">
        <ele>68.4</ele>
        <time>2018-12-09T07:58:00Z</time>
      </trkpt>
      <trkpt lat="49.02551" lon="1.12422">
        <ele>65.1</ele>
        <time>2018-12-09T07:58:03Z</time>
      </trkpt>
      <trkpt lat="49.02546" lon="1.12407">
        <ele>62</ele>
        <time>2018-12-09T07:58:08Z</time>
      </trkpt>
      <trkpt lat="49.02555" lon="1.12411">
        <ele>60.5</ele>
        <time>2018-12-09T07:58:13Z</time>
      </trkpt>
      <trkpt lat="49.02564" lon="1.12415">
        <ele>59.9</ele>
        <time>2018-12-09T07:58:18Z</time>
      </trkpt>
      <trkpt lat="49.02575" lon="1.12415">
        <ele>59.3</ele>
        <time>2018-12-09T07:58:23Z</time>
      </trkpt>
      <trkpt lat="49.02584" lon="1.12416">
        <ele>59.3</ele>
        <time>2018-12-09T07:58:27Z</time>
      </trkpt>
      <trkpt lat="49.02596" lon="1.12416">
        <ele>59.6</ele>
        <time>2018-12-09T07:58:31Z</time>
      </trkpt>
      <trkpt lat="49.02605" lon="1.12417">
        <ele>60.1</ele>
        <time>2018-12-09T07:58:34Z</time>
      </trkpt>
      <trkpt lat="49.02617" lon="1.1242">
        <ele>60.2</ele>
        <time>2018-12-09T07:58:38Z</time>
      </trkpt>
      <trkpt lat="49.02627" lon="1.12421">
        <ele>60.5</ele>
        <time>2018-12-09T07:58:42Z</time>
      </trkpt>
      <trkpt lat="49.02637" lon="1.12424">
        <ele>60.8</ele>
        <time>2018-12-09T07:58:47Z</time>
      </trkpt>
      <trkpt lat="49.02649" lon="1.12426">
        <ele>61.5</ele>
        <time>2018-12-09T07:58:52Z</time>
      </trkpt>
      <trkpt lat="49.02661" lon="1.12429">
        <ele>61.9</ele>
        <time>2018-12-09T07:58:56Z</time>
      </trkpt>
      <trkpt lat="49.02671" lon="1.12434">
        <ele>62.7</ele>
        <time>2018-12-09T07:59:00Z</time>
      </trkpt>
      <trkpt lat="49.02681" lon="1.12439">
        <ele>63.3</ele>
        <time>2018-12-09T07:59:04Z</time>
      </trkpt>
      <trkpt lat="49.02692" lon="1.12444">
        <ele>63.9</ele>
        <time>2018-12-09T07:59:08Z</time>
      </trkpt>
      <trkpt lat="49.02703" lon="1.12452">
        <ele>64.4</ele>
        <time>2018-12-09T07:59:12Z</time>
      </trkpt>
      <trkpt lat="49.02712" lon="1.12461">
        <ele>65</ele>
        <time>2018-12-09T07:59:15Z</time>
      </trkpt>
      <trkpt lat="49.02721" lon="1.12471">
        <ele>65.5</ele>
        <time>2018-12-09T07:59:18Z</time>
      </trkpt>
      <trkpt lat="49.02731" lon="1.12483">
        <ele>65.5</ele>
        <time>2018-12-09T07:59:21Z</time>
      </trkpt>
      <trkpt lat="49.02739" lon="1.12498">
        <ele>65.5</ele>
        <time>2018-12-09T07:59:24Z</time>
      </trkpt>
      <trkpt lat="49.02745" lon="1.12509">
        <ele>65.3</ele>
        <time>2018-12-09T07:59:26Z</time>
      </trkpt>
      <trkpt lat="49.0275" lon="1.1252">
        <ele>65.2</ele>
        <time>2018-12-09T07:59:28Z</time>
      </trkpt>
      <trkpt lat="49.02758" lon="1.12536">
        <ele>65</ele>
        <time>2018-12-09T07:59:31Z</time>
      </trkpt>
      <trkpt lat="49.02767" lon="1.12551">
        <ele>64.8</ele>
        <time>2018-12-09T07:59:34Z</time>
      </trkpt>
      <trkpt lat="49.02777" lon="1.12563">
        <ele>64.8</ele>
        <time>2018-12-09T07:59:37Z</time>
      </trkpt>
      <trkpt lat="49.02785" lon="1.1257">
        <ele>64.7</ele>
        <time>2018-12-09T07:59:39Z</time>
      </trkpt>
      <trkpt lat="49.02793" lon="1.12576">
        <ele>64.5</ele>
        <time>2018-12-09T07:59:41Z</time>
      </trkpt>
      <trkpt lat="49.02805" lon="1.12581">
        <ele>64.3</ele>
        <time>2018-12-09T07:59:44Z</time>
      </trkpt>
      <trkpt lat="49.02816" lon="1.12586">
        <ele>64.3</ele>
        <time>2018-12-09T07:59:47Z</time>
      </trkpt>
      <trkpt lat="49.02827" lon="1.1259">
        <ele>64.2</ele>
        <time>2018-12-09T07:59:50Z</time>
      </trkpt>
      <trkpt lat="49.02839" lon="1.12593">
        <ele>64.6</ele>
        <time>2018-12-09T07:59:53Z</time>
      </trkpt>
      <trkpt lat="49.02851" lon="1.12593">
        <ele>64.9</ele>
        <time>2018-12-09T07:59:56Z</time>
      </trkpt>
      <trkpt lat="49.02863" lon="1.12591">
        <ele>65.4</ele>
        <time>2018-12-09T07:59:59Z</time>
      </trkpt>
      <trkpt lat="49.02874" lon="1.12588">
        <ele>65.5</ele>
        <time>2018-12-09T08:00:02Z</time>
      </trkpt>
      <trkpt lat="49.02885" lon="1.12584">
        <ele>65.8</ele>
        <time>2018-12-09T08:00:05Z</time>
      </trkpt>
      <trkpt lat="49.02896" lon="1.12579">
        <ele>66.3</ele>
        <time>2018-12-09T08:00:08Z</time>
      </trkpt>
      <trkpt lat="49.02909" lon="1.12576">
        <ele>66.6</ele>
        <time>2018-12-09T08:00:11Z</time>
      </trkpt>
      <trkpt lat="49.02918" lon="1.12575">
        <ele>66.6</ele>
        <time>2018-12-09T08:00:13Z</time>
      </trkpt>
      <trkpt lat="49.02931" lon="1.12574">
        <ele>66.4</ele>
        <time>2018-12-09T08:00:16Z</time>
      </trkpt>
      <trkpt lat="49.02945" lon="1.12573">
        <ele>66.2</ele>
        <time>2018-12-09T08:00:19Z</time>
      </trkpt>
      <trkpt lat="49.02955" lon="1.12574">
        <ele>66.3</ele>
        <time>2018-12-09T08:00:21Z</time>
      </trkpt>
      <trkpt lat="49.02964" lon="1.12576">
        <ele>66.4</ele>
        <time>2018-12-09T08:00:23Z</time>
      </trkpt>
      <trkpt lat="49.02974" lon="1.12579">
        <ele>66.2</ele>
        <time>2018-12-09T08:00:25Z</time>
      </trkpt>
      <trkpt lat="49.02987" lon="1.12583">
        <ele>66</ele>
        <time>2018-12-09T08:00:28Z</time>
      </trkpt>
      <trkpt lat="49.02996" lon="1.12585">
        <ele>65.9</ele>
        <time>2018-12-09T08:00:30Z</time>
      </trkpt>
      <trkpt lat="49.03005" lon="1.12587">
        <ele>66</ele>
        <time>2018-12-09T08:00:32Z</time>
      </trkpt>
      <trkpt lat="49.03014" lon="1.12589">
        <ele>65.9</ele>
        <time>2018-12-09T08:00:34Z</time>
      </trkpt>
      <trkpt lat="49.03027" lon="1.12589">
        <ele>66.2</ele>
        <time>2018-12-09T08:00:37Z</time>
      </trkpt>
      <trkpt lat="49.0304" lon="1.12587">
        <ele>66.4</ele>
        <time>2018-12-09T08:00:40Z</time>
      </trkpt>
      <trkpt lat="49.03049" lon="1.12585">
        <ele>66.7</ele>
        <time>2018-12-09T08:00:42Z</time>
      </trkpt>
      <trkpt lat="49.03061" lon="1.12577">
        <ele>66.9</ele>
        <time>2018-12-09T08:00:45Z</time>
      </trkpt>
      <trkpt lat="49.03072" lon="1.12569">
        <ele>66.8</ele>
        <time>2018-12-09T08:00:48Z</time>
      </trkpt>
      <trkpt lat="49.03083" lon="1.12561">
        <ele>66.9</ele>
        <time>2018-12-09T08:00:51Z</time>
      </trkpt>
      <trkpt lat="49.03094" lon="1.12552">
        <ele>66.8</ele>
        <time>2018-12-09T08:00:54Z</time>
      </trkpt>
      <trkpt lat="49.03106" lon="1.12545">
        <ele>67.2</ele>
        <time>2018-12-09T08:00:57Z</time>
      </trkpt>
      <trkpt lat="49.03117" lon="1.12541">
        <ele>67.5</ele>
        <time>2018-12-09T08:01:00Z</time>
      </trkpt>
      <trkpt lat="49.0313" lon="1.12538">
        <ele>67.6</ele>
        <time>2018-12-09T08:01:03Z</time>
      </trkpt>
      <trkpt lat="49.03142" lon="1.12534">
        <ele>68</ele>
        <time>2018-12-09T08:01:06Z</time>
      </trkpt>
      <trkpt lat="49.03153" lon="1.12529">
        <ele>68.1</ele>
        <time>2018-12-09T08:01:09Z</time>
      </trkpt>
      <trkpt lat="49.03165" lon="1.12522">
        <ele>68.3</ele>
        <time>2018-12-09T08:01:12Z</time>
      </trkpt>
      <trkpt lat="49.03174" lon="1.12517">
        <ele>68.4</ele>
        <time>2018-12-09T08:01:14Z</time>
      </trkpt>
      <trkpt lat="49.03182" lon="1.12512">
        <ele>68.4</ele>
        <time>2018-12-09T08:01:16Z</time>
      </trkpt>
      <trkpt lat="49.03191" lon="1.12508">
        <ele>68.4</ele>
        <time>2018-12-09T08:01:18Z</time>
      </trkpt>
      <trkpt lat="49.03203" lon="1.12502">
        <ele>68.5</ele>
        <time>2018-12-09T08:01:21Z</time>
      </trkpt>
      <trkpt lat="49.03216" lon="1.12498">
        <ele>69.1</ele>
        <time>2018-12-09T08:01:24Z</time>
      </trkpt>
      <trkpt lat="49.03228" lon="1.12495">
        <ele>69.9</ele>
        <time>2018-12-09T08:01:27Z</time>
      </trkpt>
      <trkpt lat="49.0324" lon="1.12494">
        <ele>70.1</ele>
        <time>2018-12-09T08:01:30Z</time>
      </trkpt>
      <trkpt lat="49.03253" lon="1.12494">
        <ele>69.8</ele>
        <time>2018-12-09T08:01:33Z</time>
      </trkpt>
      <trkpt lat="49.03266" lon="1.12493">
        <ele>69.7</ele>
        <time>2018-12-09T08:01:36Z</time>
      </trkpt>
      <trkpt lat="49.03275" lon="1.12493">
        <ele>70</ele>
        <time>2018-12-09T08:01:38Z</time>
      </trkpt>
      <trkpt lat="49.03285" lon="1.12491">
        <ele>70.3</ele>
        <time>2018-12-09T08:01:40Z</time>
      </trkpt>
      <trkpt lat="49.03295" lon="1.12488">
        <ele>70.5</ele>
        <time>2018-12-09T08:01:42Z</time>
      </trkpt>
      <trkpt lat="49.03303" lon="1.12482">
        <ele>70.8</ele>
        <time>2018-12-09T08:01:44Z</time>
      </trkpt>
      <trkpt lat="49.03311" lon="1.12474">
        <ele>71</ele>
        <time>2018-12-09T08:01:46Z</time>
      </trkpt>
      <trkpt lat="49.03318" lon="1.12465">
        <ele>70.7</ele>
        <time>2018-12-09T08:01:48Z</time>
      </trkpt>
      <trkpt lat="49.03322" lon="1.12451">
        <ele>70.4</ele>
        <time>2018-12-09T08:01:50Z</time>
      </trkpt>
      <trkpt lat="49.03324" lon="1.12437">
        <ele>70.3</ele>
        <time>2018-12-09T08:01:52Z</time>
      </trkpt>
      <trkpt lat="49.03325" lon="1.12418">
        <ele>70.1</ele>
        <time>2018-12-09T08:01:55Z</time>
      </trkpt>
      <trkpt lat="49.03325" lon="1.12404">
        <ele>70</ele>
        <time>2018-12-09T08:01:59Z</time>
      </trkpt>
      <trkpt lat="49.03326" lon="1.12389">
        <ele>70.1</ele>
        <time>2018-12-09T08:02:06Z</time>
      </trkpt>
      <trkpt lat="49.03324" lon="1.1238">
        <ele>69.8</ele>
        <time>2018-12-09T08:02:16Z</time>
      </trkpt>
      <trkpt lat="49.03325" lon="1.12361">
        <ele>69.8</ele>
        <time>2018-12-09T08:02:55Z</time>
      </trkpt>
      <trkpt lat="49.03325" lon="1.12346">
        <ele>70</ele>
        <time>2018-12-09T08:02:59Z</time>
      </trkpt>
      <trkpt lat="49.03326" lon="1.12329">
        <ele>70.1</ele>
        <time>2018-12-09T08:03:04Z</time>
      </trkpt>
      <trkpt lat="49.03329" lon="1.12312">
        <ele>70.5</ele>
        <time>2018-12-09T08:03:08Z</time>
      </trkpt>
      <trkpt lat="49.03333" lon="1.12298">
        <ele>70.3</ele>
        <time>2018-12-09T08:03:11Z</time>
      </trkpt>
      <trkpt lat="49.03338" lon="1.12284">
        <ele>70.5</ele>
        <time>2018-12-09T08:03:14Z</time>
      </trkpt>
      <trkpt lat="49.03345" lon="1.12272">
        <ele>70.8</ele>
        <time>2018-12-09T08:03:17Z</time>
      </trkpt>
      <trkpt lat="49.03354" lon="1.12261">
        <ele>71</ele>
        <time>2018-12-09T08:03:20Z</time>
      </trkpt>
      <trkpt lat="49.03363" lon="1.12249">
        <ele>71.6</ele>
        <time>2018-12-09T08:03:23Z</time>
      </trkpt>
      <trkpt lat="49.03372" lon="1.12237">
        <ele>71.8</ele>
        <time>2018-12-09T08:03:26Z</time>
      </trkpt>
      <trkpt lat="49.0338" lon="1.12227">
        <ele>72</ele>
        <time>2018-12-09T08:03:29Z</time>
      </trkpt>
      <trkpt lat="49.03389" lon="1.12227">
        <ele>72.6</ele>
        <time>2018-12-09T08:03:33Z</time>
      </trkpt>
      <trkpt lat="49.03399" lon="1.12232">
        <ele>73.5</ele>
        <time>2018-12-09T08:03:37Z</time>
      </trkpt>
      <trkpt lat="49.03389" lon="1.12234">
        <ele>74.3</ele>
        <time>2018-12-09T08:03:44Z</time>
      </trkpt>
      <trkpt lat="49.0338" lon="1.12239">
        <ele>74.6</ele>
        <time>2018-12-09T08:03:48Z</time>
      </trkpt>
      <trkpt lat="49.03372" lon="1.12251">
        <ele>75.8</ele>
        <time>2018-12-09T08:03:53Z</time>
      </trkpt>
      <trkpt lat="49.03369" lon="1.12264">
        <ele>76.6</ele>
        <time>2018-12-09T08:03:57Z</time>
      </trkpt>
      <trkpt lat="49.03364" lon="1.12277">
        <ele>77.1</ele>
        <time>2018-12-09T08:04:00Z</time>
      </trkpt>
      <trkpt lat="49.03362" lon="1.1229">
        <ele>78</ele>
        <time>2018-12-09T08:04:04Z</time>
      </trkpt>
      <trkpt lat="49.03358" lon="1.12303">
        <ele>79.4</ele>
        <time>2018-12-09T08:04:09Z</time>
      </trkpt>
      <trkpt lat="49.03356" lon="1.1232">
        <ele>81.2</ele>
        <time>2018-12-09T08:04:15Z</time>
      </trkpt>
      <trkpt lat="49.03357" lon="1.12334">
        <ele>82.6</ele>
        <time>2018-12-09T08:04:22Z</time>
      </trkpt>
      <trkpt lat="49.0336" lon="1.12349">
        <ele>84.3</ele>
        <time>2018-12-09T08:04:30Z</time>
      </trkpt>
      <trkpt lat="49.03362" lon="1.12363">
        <ele>86.1</ele>
        <time>2018-12-09T08:04:37Z</time>
      </trkpt>
      <trkpt lat="49.03364" lon="1.12377">
        <ele>87.8</ele>
        <time>2018-12-09T08:04:44Z</time>
      </trkpt>
      <trkpt lat="49.03366" lon="1.12391">
        <ele>89.1</ele>
        <time>2018-12-09T08:04:51Z</time>
      </trkpt>
      <trkpt lat="49.03372" lon="1.12403">
        <ele>90.5</ele>
        <time>2018-12-09T08:04:57Z</time>
      </trkpt>
      <trkpt lat="49.03377" lon="1.12416">
        <ele>92.2</ele>
        <time>2018-12-09T08:05:04Z</time>
      </trkpt>
      <trkpt lat="49.03383" lon="1.12426">
        <ele>93.8</ele>
        <time>2018-12-09T08:05:10Z</time>
      </trkpt>
      <trkpt lat="49.03389" lon="1.12437">
        <ele>95.2</ele>
        <time>2018-12-09T08:05:16Z</time>
      </trkpt>
      <trkpt lat="49.03395" lon="1.12447">
        <ele>96.5</ele>
        <time>2018-12-09T08:05:23Z</time>
      </trkpt>
      <trkpt lat="49.03401" lon="1.1246">
        <ele>98</ele>
        <time>2018-12-09T08:05:30Z</time>
      </trkpt>
      <trkpt lat="49.03408" lon="1.12471">
        <ele>98.9</ele>
        <time>2018-12-09T08:05:36Z</time>
      </trkpt>
      <trkpt lat="49.03414" lon="1.12482">
        <ele>100.2</ele>
        <time>2018-12-09T08:05:42Z</time>
      </trkpt>
      <trkpt lat="49.0342" lon="1.12495">
        <ele>101.8</ele>
        <time>2018-12-09T08:05:49Z</time>
      </trkpt>
      <trkpt lat="49.03423" lon="1.12508">
        <ele>103.1</ele>
        <time>2018-12-09T08:05:55Z</time>
      </trkpt>
      <trkpt lat="49.03426" lon="1.12522">
        <ele>104.7</ele>
        <time>2018-12-09T08:06:02Z</time>
      </trkpt>
      <trkpt lat="49.03429" lon="1.12537">
        <ele>106.7</ele>
        <time>2018-12-09T08:06:09Z</time>
      </trkpt>
      <trkpt lat="49.03431" lon="1.12552">
        <ele>108.4</ele>
        <time>2018-12-09T08:06:16Z</time>
      </trkpt>
      <trkpt lat="49.03437" lon="1.12566">
        <ele>110</ele>
        <time>2018-12-09T08:06:23Z</time>
      </trkpt>
      <trkpt lat="49.03443" lon="1.12578">
        <ele>112.2</ele>
        <time>2018-12-09T08:06:30Z</time>
      </trkpt>
      <trkpt lat="49.03451" lon="1.12587">
        <ele>113.5</ele>
        <time>2018-12-09T08:06:35Z</time>
      </trkpt>
      <trkpt lat="49.0346" lon="1.12595">
        <ele>115.2</ele>
        <time>2018-12-09T08:06:41Z</time>
      </trkpt>
      <trkpt lat="49.03469" lon="1.12598">
        <ele>116.4</ele>
        <time>2018-12-09T08:06:48Z</time>
      </trkpt>
      <trkpt lat="49.03477" lon="1.12589">
        <ele>117.3</ele>
        <time>2018-12-09T08:06:52Z</time>
      </trkpt>
      <trkpt lat="49.0348" lon="1.12574">
        <ele>118</ele>
        <time>2018-12-09T08:06:57Z</time>
      </trkpt>
      <trkpt lat="49.0349" lon="1.12566">
        <ele>117.9</ele>
        <time>2018-12-09T08:07:02Z</time>
      </trkpt>
      <trkpt lat="49.03499" lon="1.1256">
        <ele>117.6</ele>
        <time>2018-12-09T08:07:05Z</time>
      </trkpt>
      <trkpt lat="49.03509" lon="1.12554">
        <ele>117.5</ele>
        <time>2018-12-09T08:07:08Z</time>
      </trkpt>
      <trkpt lat="49.0352" lon="1.12554">
        <ele>117.7</ele>
        <time>2018-12-09T08:07:12Z</time>
      </trkpt>
      <trkpt lat="49.0353" lon="1.12551">
        <ele>118.2</ele>
        <time>2018-12-09T08:07:16Z</time>
      </trkpt>
      <trkpt lat="49.03538" lon="1.12539">
        <ele>118.2</ele>
        <time>2018-12-09T08:07:20Z</time>
      </trkpt>
      <trkpt lat="49.03548" lon="1.12534">
        <ele>118.9</ele>
        <time>2018-12-09T08:07:23Z</time>
      </trkpt>
      <trkpt lat="49.03559" lon="1.12523">
        <ele>119.2</ele>
        <time>2018-12-09T08:07:26Z</time>
      </trkpt>
      <trkpt lat="49.03566" lon="1.12514">
        <ele>118.9</ele>
        <time>2018-12-09T08:07:28Z</time>
      </trkpt>
      <trkpt lat="49.03577" lon="1.12505">
        <ele>117.8</ele>
        <time>2018-12-09T08:07:31Z</time>
      </trkpt>
      <trkpt lat="49.03585" lon="1.12496">
        <ele>116.9</ele>
        <time>2018-12-09T08:07:33Z</time>
      </trkpt>
      <trkpt lat="49.03594" lon="1.12484">
        <ele>115.4</ele>
        <time>2018-12-09T08:07:36Z</time>
      </trkpt>
      <trkpt lat="49.03603" lon="1.12478">
        <ele>114.5</ele>
        <time>2018-12-09T08:07:38Z</time>
      </trkpt>
      <trkpt lat="49.03616" lon="1.12467">
        <ele>113.3</ele>
        <time>2018-12-09T08:07:41Z</time>
      </trkpt>
      <trkpt lat="49.03625" lon="1.12455">
        <ele>113</ele>
        <time>2018-12-09T08:07:44Z</time>
      </trkpt>
      <trkpt lat="49.03626" lon="1.12439">
        <ele>112.9</ele>
        <time>2018-12-09T08:07:47Z</time>
      </trkpt>
      <trkpt lat="49.03631" lon="1.12425">
        <ele>112.9</ele>
        <time>2018-12-09T08:07:50Z</time>
      </trkpt>
      <trkpt lat="49.03637" lon="1.12413">
        <ele>113.7</ele>
        <time>2018-12-09T08:07:53Z</time>
      </trkpt>
      <trkpt lat="49.03645" lon="1.12401">
        <ele>115</ele>
        <time>2018-12-09T08:07:57Z</time>
      </trkpt>
      <trkpt lat="49.0365" lon="1.12387">
        <ele>115.6</ele>
        <time>2018-12-09T08:08:00Z</time>
      </trkpt>
      <trkpt lat="49.03655" lon="1.12375">
        <ele>116.2</ele>
        <time>2018-12-09T08:08:03Z</time>
      </trkpt>
      <trkpt lat="49.0366" lon="1.12361">
        <ele>116.7</ele>
        <time>2018-12-09T08:08:06Z</time>
      </trkpt>
      <trkpt lat="49.03664" lon="1.12346">
        <ele>117</ele>
        <time>2018-12-09T08:08:09Z</time>
      </trkpt>
      <trkpt lat="49.03669" lon="1.12332">
        <ele>117.5</ele>
        <time>2018-12-09T08:08:13Z</time>
      </trkpt>
      <trkpt lat="49.03674" lon="1.12318">
        <ele>118.3</ele>
        <time>2018-12-09T08:08:17Z</time>
      </trkpt>
      <trkpt lat="49.03669" lon="1.12304">
        <ele>117.8</ele>
        <time>2018-12-09T08:08:25Z</time>
      </trkpt>
      <trkpt lat="49.03663" lon="1.12293">
        <ele>115.4</ele>
        <time>2018-12-09T08:08:31Z</time>
      </trkpt>
      <trkpt lat="49.03655" lon="1.12282">
        <ele>111.9</ele>
        <time>2018-12-09T08:08:36Z</time>
      </trkpt>
      <trkpt lat="49.03649" lon="1.1227">
        <ele>107.9</ele>
        <time>2018-12-09T08:08:40Z</time>
      </trkpt>
      <trkpt lat="49.03643" lon="1.12259">
        <ele>103.8</ele>
        <time>2018-12-09T08:08:44Z</time>
      </trkpt>
      <trkpt lat="49.03637" lon="1.12248">
        <ele>100.3</ele>
        <time>2018-12-09T08:08:48Z</time>
      </trkpt>
      <trkpt lat="49.03628" lon="1.12236">
        <ele>97.7</ele>
        <time>2018-12-09T08:08:51Z</time>
      </trkpt>
      <trkpt lat="49.0362" lon="1.12225">
        <ele>94.6</ele>
        <time>2018-12-09T08:08:54Z</time>
      </trkpt>
      <trkpt lat="49.03614" lon="1.12215">
        <ele>91.8</ele>
        <time>2018-12-09T08:08:57Z</time>
      </trkpt>
      <trkpt lat="49.03606" lon="1.12206">
        <ele>88.8</ele>
        <time>2018-12-09T08:09:00Z</time>
      </trkpt>
      <trkpt lat="49.03598" lon="1.12195">
        <ele>85.6</ele>
        <time>2018-12-09T08:09:03Z</time>
      </trkpt>
      <trkpt lat="49.03592" lon="1.12183">
        <ele>82.9</ele>
        <time>2018-12-09T08:09:06Z</time>
      </trkpt>
      <trkpt lat="49.03587" lon="1.12165">
        <ele>80.4</ele>
        <time>2018-12-09T08:09:09Z</time>
      </trkpt>
      <trkpt lat="49.03585" lon="1.12145">
        <ele>78.8</ele>
        <time>2018-12-09T08:09:12Z</time>
      </trkpt>
      <trkpt lat="49.03582" lon="1.12127">
        <ele>78.1</ele>
        <time>2018-12-09T08:09:15Z</time>
      </trkpt>
      <trkpt lat="49.03581" lon="1.1211">
        <ele>77.9</ele>
        <time>2018-12-09T08:09:18Z</time>
      </trkpt>
      <trkpt lat="49.03581" lon="1.12094">
        <ele>77.9</ele>
        <time>2018-12-09T08:09:21Z</time>
      </trkpt>
      <trkpt lat="49.03582" lon="1.1208">
        <ele>78.4</ele>
        <time>2018-12-09T08:09:24Z</time>
      </trkpt>
      <trkpt lat="49.03583" lon="1.12066">
        <ele>79.6</ele>
        <time>2018-12-09T08:09:28Z</time>
      </trkpt>
      <trkpt lat="49.03583" lon="1.12049">
        <ele>81</ele>
        <time>2018-12-09T08:09:33Z</time>
      </trkpt>
      <trkpt lat="49.03584" lon="1.12035">
        <ele>82</ele>
        <time>2018-12-09T08:09:37Z</time>
      </trkpt>
      <trkpt lat="49.03585" lon="1.1202">
        <ele>82.9</ele>
        <time>2018-12-09T08:09:41Z</time>
      </trkpt>
      <trkpt lat="49.03585" lon="1.12004">
        <ele>84.4</ele>
        <time>2018-12-09T08:09:46Z</time>
      </trkpt>
      <trkpt lat="49.03586" lon="1.11989">
        <ele>85.1</ele>
        <time>2018-12-09T08:09:51Z</time>
      </trkpt>
      <trkpt lat="49.03588" lon="1.11973">
        <ele>86.9</ele>
        <time>2018-12-09T08:09:56Z</time>
      </trkpt>
      <trkpt lat="49.03591" lon="1.11959">
        <ele>89.1</ele>
        <time>2018-12-09T08:10:02Z</time>
      </trkpt>
      <trkpt lat="49.03598" lon="1.11948">
        <ele>90</ele>
        <time>2018-12-09T08:10:09Z</time>
      </trkpt>
      <trkpt lat="49.03604" lon="1.11936">
        <ele>93.5</ele>
        <time>2018-12-09T08:10:16Z</time>
      </trkpt>
      <trkpt lat="49.03604" lon="1.11918">
        <ele>95</ele>
        <time>2018-12-09T08:10:22Z</time>
      </trkpt>
      <trkpt lat="49.03599" lon="1.11898">
        <ele>94.3</ele>
        <time>2018-12-09T08:10:25Z</time>
      </trkpt>
      <trkpt lat="49.03596" lon="1.11879">
        <ele>93.3</ele>
        <time>2018-12-09T08:10:28Z</time>
      </trkpt>
      <trkpt lat="49.03597" lon="1.1186">
        <ele>91.4</ele>
        <time>2018-12-09T08:10:30Z</time>
      </trkpt>
      <trkpt lat="49.036" lon="1.11841">
        <ele>89.7</ele>
        <time>2018-12-09T08:10:32Z</time>
      </trkpt>
      <trkpt lat="49.03604" lon="1.11825">
        <ele>88.5</ele>
        <time>2018-12-09T08:10:34Z</time>
      </trkpt>
      <trkpt lat="49.0361" lon="1.1181">
        <ele>87.3</ele>
        <time>2018-12-09T08:10:36Z</time>
      </trkpt>
      <trkpt lat="49.03619" lon="1.118">
        <ele>85.7</ele>
        <time>2018-12-09T08:10:38Z</time>
      </trkpt>
      <trkpt lat="49.03631" lon="1.11795">
        <ele>84.3</ele>
        <time>2018-12-09T08:10:40Z</time>
      </trkpt>
      <trkpt lat="49.03643" lon="1.11795">
        <ele>83.3</ele>
        <time>2018-12-09T08:10:42Z</time>
      </trkpt>
      <trkpt lat="49.03657" lon="1.11798">
        <ele>82.6</ele>
        <time>2018-12-09T08:10:44Z</time>
      </trkpt>
      <trkpt lat="49.03671" lon="1.11804">
        <ele>82.3</ele>
        <time>2018-12-09T08:10:46Z</time>
      </trkpt>
      <trkpt lat="49.03682" lon="1.11809">
        <ele>81.8</ele>
        <time>2018-12-09T08:10:48Z</time>
      </trkpt>
      <trkpt lat="49.03693" lon="1.11817">
        <ele>81.3</ele>
        <time>2018-12-09T08:10:52Z</time>
      </trkpt>
      <trkpt lat="49.03704" lon="1.11822">
        <ele>80.9</ele>
        <time>2018-12-09T08:10:55Z</time>
      </trkpt>
      <trkpt lat="49.03716" lon="1.11825">
        <ele>80.6</ele>
        <time>2018-12-09T08:10:58Z</time>
      </trkpt>
      <trkpt lat="49.03726" lon="1.11826">
        <ele>80.8</ele>
        <time>2018-12-09T08:11:00Z</time>
      </trkpt>
      <trkpt lat="49.03737" lon="1.11828">
        <ele>80.9</ele>
        <time>2018-12-09T08:11:02Z</time>
      </trkpt>
      <trkpt lat="49.03747" lon="1.11827">
        <ele>81</ele>
        <time>2018-12-09T08:11:04Z</time>
      </trkpt>
      <trkpt lat="49.03758" lon="1.11828">
        <ele>81.2</ele>
        <time>2018-12-09T08:11:07Z</time>
      </trkpt>
      <trkpt lat="49.03769" lon="1.11827">
        <ele>81.4</ele>
        <time>2018-12-09T08:11:09Z</time>
      </trkpt>
      <trkpt lat="49.0378" lon="1.11826">
        <ele>81.7</ele>
        <time>2018-12-09T08:11:11Z</time>
      </trkpt>
      <trkpt lat="49.03791" lon="1.11826">
        <ele>81.8</ele>
        <time>2018-12-09T08:11:14Z</time>
      </trkpt>
      <trkpt lat="49.038" lon="1.11826">
        <ele>81.9</ele>
        <time>2018-12-09T08:11:16Z</time>
      </trkpt>
      <trkpt lat="49.0381" lon="1.11824">
        <ele>81.9</ele>
        <time>2018-12-09T08:11:18Z</time>
      </trkpt>
      <trkpt lat="49.03819" lon="1.11819">
        <ele>81.9</ele>
        <time>2018-12-09T08:11:21Z</time>
      </trkpt>
      <trkpt lat="49.03831" lon="1.11811">
        <ele>82.5</ele>
        <time>2018-12-09T08:11:25Z</time>
      </trkpt>
      <trkpt lat="49.03838" lon="1.11802">
        <ele>82.9</ele>
        <time>2018-12-09T08:11:27Z</time>
      </trkpt>
      <trkpt lat="49.03844" lon="1.11793">
        <ele>83.6</ele>
        <time>2018-12-09T08:11:29Z</time>
      </trkpt>
      <trkpt lat="49.03852" lon="1.11776">
        <ele>84.4</ele>
        <time>2018-12-09T08:11:32Z</time>
      </trkpt>
      <trkpt lat="49.03857" lon="1.11758">
        <ele>84.9</ele>
        <time>2018-12-09T08:11:35Z</time>
      </trkpt>
      <trkpt lat="49.03857" lon="1.11744">
        <ele>85.2</ele>
        <time>2018-12-09T08:11:37Z</time>
      </trkpt>
      <trkpt lat="49.03857" lon="1.11723">
        <ele>85.4</ele>
        <time>2018-12-09T08:11:40Z</time>
      </trkpt>
      <trkpt lat="49.03859" lon="1.1171">
        <ele>85.5</ele>
        <time>2018-12-09T08:11:42Z</time>
      </trkpt>
      <trkpt lat="49.0386" lon="1.11695">
        <ele>85.6</ele>
        <time>2018-12-09T08:11:44Z</time>
      </trkpt>
      <trkpt lat="49.0386" lon="1.11676">
        <ele>85.7</ele>
        <time>2018-12-09T08:11:47Z</time>
      </trkpt>
      <trkpt lat="49.03858" lon="1.11657">
        <ele>85.9</ele>
        <time>2018-12-09T08:11:50Z</time>
      </trkpt>
      <trkpt lat="49.03855" lon="1.11638">
        <ele>86.6</ele>
        <time>2018-12-09T08:11:53Z</time>
      </trkpt>
      <trkpt lat="49.03852" lon="1.11622">
        <ele>86.8</ele>
        <time>2018-12-09T08:11:55Z</time>
      </trkpt>
      <trkpt lat="49.03849" lon="1.11603">
        <ele>87.2</ele>
        <time>2018-12-09T08:11:58Z</time>
      </trkpt>
      <trkpt lat="49.03845" lon="1.11589">
        <ele>87.2</ele>
        <time>2018-12-09T08:12:00Z</time>
      </trkpt>
      <trkpt lat="49.03841" lon="1.11575">
        <ele>87.2</ele>
        <time>2018-12-09T08:12:02Z</time>
      </trkpt>
      <trkpt lat="49.03838" lon="1.11561">
        <ele>87.2</ele>
        <time>2018-12-09T08:12:04Z</time>
      </trkpt>
      <trkpt lat="49.03834" lon="1.11548">
        <ele>87.4</ele>
        <time>2018-12-09T08:12:06Z</time>
      </trkpt>
      <trkpt lat="49.03829" lon="1.11531">
        <ele>87.4</ele>
        <time>2018-12-09T08:12:09Z</time>
      </trkpt>
      <trkpt lat="49.03826" lon="1.11517">
        <ele>87.2</ele>
        <time>2018-12-09T08:12:11Z</time>
      </trkpt>
      <trkpt lat="49.03822" lon="1.11504">
        <ele>87.5</ele>
        <time>2018-12-09T08:12:13Z</time>
      </trkpt>
      <trkpt lat="49.03816" lon="1.11485">
        <ele>88.3</ele>
        <time>2018-12-09T08:12:16Z</time>
      </trkpt>
      <trkpt lat="49.03813" lon="1.11472">
        <ele>88.6</ele>
        <time>2018-12-09T08:12:18Z</time>
      </trkpt>
      <trkpt lat="49.03809" lon="1.11459">
        <ele>88.5</ele>
        <time>2018-12-09T08:12:20Z</time>
      </trkpt>
      <trkpt lat="49.03804" lon="1.1144">
        <ele>88.8</ele>
        <time>2018-12-09T08:12:23Z</time>
      </trkpt>
      <trkpt lat="49.038" lon="1.11422">
        <ele>88.9</ele>
        <time>2018-12-09T08:12:26Z</time>
      </trkpt>
      <trkpt lat="49.03796" lon="1.1141">
        <ele>88.7</ele>
        <time>2018-12-09T08:12:28Z</time>
      </trkpt>
      <trkpt lat="49.03791" lon="1.11397">
        <ele>88.7</ele>
        <time>2018-12-09T08:12:30Z</time>
      </trkpt>
      <trkpt lat="49.03786" lon="1.11378">
        <ele>88.9</ele>
        <time>2018-12-09T08:12:33Z</time>
      </trkpt>
      <trkpt lat="49.03784" lon="1.11362">
        <ele>89</ele>
        <time>2018-12-09T08:12:36Z</time>
      </trkpt>
      <trkpt lat="49.03792" lon="1.11367">
        <ele>90.5</ele>
        <time>2018-12-09T08:12:44Z</time>
      </trkpt>
      <trkpt lat="49.03798" lon="1.11379">
        <ele>92.9</ele>
        <time>2018-12-09T08:12:50Z</time>
      </trkpt>
      <trkpt lat="49.03805" lon="1.11392">
        <ele>94.3</ele>
        <time>2018-12-09T08:12:56Z</time>
      </trkpt>
      <trkpt lat="49.03812" lon="1.11403">
        <ele>95.2</ele>
        <time>2018-12-09T08:13:01Z</time>
      </trkpt>
      <trkpt lat="49.03818" lon="1.11414">
        <ele>95.5</ele>
        <time>2018-12-09T08:13:05Z</time>
      </trkpt>
      <trkpt lat="49.03824" lon="1.11426">
        <ele>96.1</ele>
        <time>2018-12-09T08:13:09Z</time>
      </trkpt>
      <trkpt lat="49.03829" lon="1.11438">
        <ele>96.5</ele>
        <time>2018-12-09T08:13:13Z</time>
      </trkpt>
      <trkpt lat="49.03834" lon="1.1145">
        <ele>96.9</ele>
        <time>2018-12-09T08:13:17Z</time>
      </trkpt>
      <trkpt lat="49.0384" lon="1.1146">
        <ele>97</ele>
        <time>2018-12-09T08:13:20Z</time>
      </trkpt>
      <trkpt lat="49.03847" lon="1.11472">
        <ele>97.4</ele>
        <time>2018-12-09T08:13:24Z</time>
      </trkpt>
      <trkpt lat="49.03853" lon="1.11484">
        <ele>98.2</ele>
        <time>2018-12-09T08:13:29Z</time>
      </trkpt>
      <trkpt lat="49.03858" lon="1.11496">
        <ele>98.7</ele>
        <time>2018-12-09T08:13:33Z</time>
      </trkpt>
      <trkpt lat="49.03863" lon="1.11507">
        <ele>99</ele>
        <time>2018-12-09T08:13:37Z</time>
      </trkpt>
      <trkpt lat="49.03869" lon="1.11518">
        <ele>99.4</ele>
        <time>2018-12-09T08:13:41Z</time>
      </trkpt>
      <trkpt lat="49.03873" lon="1.1153">
        <ele>100.2</ele>
        <time>2018-12-09T08:13:45Z</time>
      </trkpt>
      <trkpt lat="49.03879" lon="1.11544">
        <ele>100.8</ele>
        <time>2018-12-09T08:13:50Z</time>
      </trkpt>
      <trkpt lat="49.03885" lon="1.11555">
        <ele>101.2</ele>
        <time>2018-12-09T08:13:54Z</time>
      </trkpt>
      <trkpt lat="49.03891" lon="1.11569">
        <ele>102.1</ele>
        <time>2018-12-09T08:13:59Z</time>
      </trkpt>
      <trkpt lat="49.03896" lon="1.11583">
        <ele>103.7</ele>
        <time>2018-12-09T08:14:04Z</time>
      </trkpt>
      <trkpt lat="49.03902" lon="1.11597">
        <ele>105.4</ele>
        <time>2018-12-09T08:14:09Z</time>
      </trkpt>
      <trkpt lat="49.03906" lon="1.1161">
        <ele>106.4</ele>
        <time>2018-12-09T08:14:14Z</time>
      </trkpt>
      <trkpt lat="49.03911" lon="1.11625">
        <ele>107.2</ele>
        <time>2018-12-09T08:14:19Z</time>
      </trkpt>
      <trkpt lat="49.03914" lon="1.11639">
        <ele>108.3</ele>
        <time>2018-12-09T08:14:24Z</time>
      </trkpt>
      <trkpt lat="49.03918" lon="1.11651">
        <ele>109.3</ele>
        <time>2018-12-09T08:14:29Z</time>
      </trkpt>
      <trkpt lat="49.03922" lon="1.11663">
        <ele>110.5</ele>
        <time>2018-12-09T08:14:34Z</time>
      </trkpt>
      <trkpt lat="49.03927" lon="1.11676">
        <ele>112</ele>
        <time>2018-12-09T08:14:39Z</time>
      </trkpt>
      <trkpt lat="49.03933" lon="1.11689">
        <ele>113.6</ele>
        <time>2018-12-09T08:14:45Z</time>
      </trkpt>
      <trkpt lat="49.03942" lon="1.11695">
        <ele>114.8</ele>
        <time>2018-12-09T08:14:50Z</time>
      </trkpt>
      <trkpt lat="49.03951" lon="1.11701">
        <ele>116.6</ele>
        <time>2018-12-09T08:14:55Z</time>
      </trkpt>
      <trkpt lat="49.03949" lon="1.11714">
        <ele>118</ele>
        <time>2018-12-09T08:15:00Z</time>
      </trkpt>
      <trkpt lat="49.03946" lon="1.11727">
        <ele>118.3</ele>
        <time>2018-12-09T08:15:04Z</time>
      </trkpt>
      <trkpt lat="49.03945" lon="1.11741">
        <ele>118.5</ele>
        <time>2018-12-09T08:15:08Z</time>
      </trkpt>
      <trkpt lat="49.03942" lon="1.11755">
        <ele>118.9</ele>
        <time>2018-12-09T08:15:12Z</time>
      </trkpt>
      <trkpt lat="49.03942" lon="1.1177">
        <ele>119.6</ele>
        <time>2018-12-09T08:15:16Z</time>
      </trkpt>
      <trkpt lat="49.03941" lon="1.11785">
        <ele>120.8</ele>
        <time>2018-12-09T08:15:22Z</time>
      </trkpt>
      <trkpt lat="49.03937" lon="1.11801">
        <ele>120.8</ele>
        <time>2018-12-09T08:15:26Z</time>
      </trkpt>
      <trkpt lat="49.03938" lon="1.11815">
        <ele>120.7</ele>
        <time>2018-12-09T08:15:30Z</time>
      </trkpt>
      <trkpt lat="49.03938" lon="1.1183">
        <ele>121.4</ele>
        <time>2018-12-09T08:15:34Z</time>
      </trkpt>
      <trkpt lat="49.03942" lon="1.11842">
        <ele>122.9</ele>
        <time>2018-12-09T08:15:38Z</time>
      </trkpt>
      <trkpt lat="49.03939" lon="1.11856">
        <ele>123.7</ele>
        <time>2018-12-09T08:15:42Z</time>
      </trkpt>
      <trkpt lat="49.03934" lon="1.11871">
        <ele>123.9</ele>
        <time>2018-12-09T08:15:46Z</time>
      </trkpt>
      <trkpt lat="49.03929" lon="1.11883">
        <ele>124</ele>
        <time>2018-12-09T08:15:49Z</time>
      </trkpt>
      <trkpt lat="49.03923" lon="1.119">
        <ele>123.7</ele>
        <time>2018-12-09T08:15:52Z</time>
      </trkpt>
      <trkpt lat="49.03918" lon="1.11915">
        <ele>123.3</ele>
        <time>2018-12-09T08:15:54Z</time>
      </trkpt>
      <trkpt lat="49.03914" lon="1.11928">
        <ele>123.3</ele>
        <time>2018-12-09T08:15:56Z</time>
      </trkpt>
      <trkpt lat="49.03904" lon="1.11942">
        <ele>122.9</ele>
        <time>2018-12-09T08:15:59Z</time>
      </trkpt>
      <trkpt lat="49.03894" lon="1.11953">
        <ele>122.6</ele>
        <time>2018-12-09T08:16:02Z</time>
      </trkpt>
      <trkpt lat="49.03886" lon="1.11963">
        <ele>122.6</ele>
        <time>2018-12-09T08:16:05Z</time>
      </trkpt>
      <trkpt lat="49.03878" lon="1.11974">
        <ele>122.8</ele>
        <time>2018-12-09T08:16:08Z</time>
      </trkpt>
      <trkpt lat="49.03867" lon="1.11979">
        <ele>123.2</ele>
        <time>2018-12-09T08:16:12Z</time>
      </trkpt>
      <trkpt lat="49.03858" lon="1.11979">
        <ele>123</ele>
        <time>2018-12-09T08:16:15Z</time>
      </trkpt>
      <trkpt lat="49.03847" lon="1.11976">
        <ele>122.6</ele>
        <time>2018-12-09T08:16:18Z</time>
      </trkpt>
      <trkpt lat="49.03838" lon="1.11972">
        <ele>121.7</ele>
        <time>2018-12-09T08:16:20Z</time>
      </trkpt>
      <trkpt lat="49.03827" lon="1.11971">
        <ele>121</ele>
        <time>2018-12-09T08:16:23Z</time>
      </trkpt>
      <trkpt lat="49.03813" lon="1.11974">
        <ele>120.9</ele>
        <time>2018-12-09T08:16:26Z</time>
      </trkpt>
      <trkpt lat="49.03801" lon="1.1197">
        <ele>121</ele>
        <time>2018-12-09T08:16:29Z</time>
      </trkpt>
      <trkpt lat="49.0379" lon="1.11967">
        <ele>121.4</ele>
        <time>2018-12-09T08:16:32Z</time>
      </trkpt>
      <trkpt lat="49.03778" lon="1.11968">
        <ele>121.4</ele>
        <time>2018-12-09T08:16:35Z</time>
      </trkpt>
      <trkpt lat="49.03767" lon="1.11972">
        <ele>121.7</ele>
        <time>2018-12-09T08:16:38Z</time>
      </trkpt>
      <trkpt lat="49.03757" lon="1.11967">
        <ele>121.8</ele>
        <time>2018-12-09T08:16:41Z</time>
      </trkpt>
      <trkpt lat="49.03744" lon="1.1196">
        <ele>121.5</ele>
        <time>2018-12-09T08:16:44Z</time>
      </trkpt>
      <trkpt lat="49.03736" lon="1.11953">
        <ele>121.2</ele>
        <time>2018-12-09T08:16:46Z</time>
      </trkpt>
      <trkpt lat="49.03723" lon="1.11948">
        <ele>120.7</ele>
        <time>2018-12-09T08:16:49Z</time>
      </trkpt>
      <trkpt lat="49.03714" lon="1.11946">
        <ele>120.3</ele>
        <time>2018-12-09T08:16:51Z</time>
      </trkpt>
      <trkpt lat="49.03705" lon="1.11953">
        <ele>119.2</ele>
        <time>2018-12-09T08:16:55Z</time>
      </trkpt>
      <trkpt lat="49.03706" lon="1.11971">
        <ele>119.3</ele>
        <time>2018-12-09T08:17:00Z</time>
      </trkpt>
      <trkpt lat="49.03704" lon="1.11987">
        <ele>120</ele>
        <time>2018-12-09T08:17:05Z</time>
      </trkpt>
      <trkpt lat="49.03698" lon="1.12001">
        <ele>120.4</ele>
        <time>2018-12-09T08:17:09Z</time>
      </trkpt>
      <trkpt lat="49.03698" lon="1.12018">
        <ele>119.7</ele>
        <time>2018-12-09T08:17:13Z</time>
      </trkpt>
      <trkpt lat="49.03705" lon="1.12029">
        <ele>120.3</ele>
        <time>2018-12-09T08:17:18Z</time>
      </trkpt>
      <trkpt lat="49.03712" lon="1.12038">
        <ele>120.9</ele>
        <time>2018-12-09T08:17:22Z</time>
      </trkpt>
      <trkpt lat="49.03721" lon="1.12044">
        <ele>122.2</ele>
        <time>2018-12-09T08:17:27Z</time>
      </trkpt>
      <trkpt lat="49.03726" lon="1.12057">
        <ele>123.1</ele>
        <time>2018-12-09T08:17:32Z</time>
      </trkpt>
      <trkpt lat="49.03724" lon="1.12074">
        <ele>123.5</ele>
        <time>2018-12-09T08:17:37Z</time>
      </trkpt>
      <trkpt lat="49.03729" lon="1.12089">
        <ele>124</ele>
        <time>2018-12-09T08:17:41Z</time>
      </trkpt>
      <trkpt lat="49.03727" lon="1.12106">
        <ele>123.8</ele>
        <time>2018-12-09T08:17:45Z</time>
      </trkpt>
      <trkpt lat="49.03723" lon="1.12119">
        <ele>123.7</ele>
        <time>2018-12-09T08:17:48Z</time>
      </trkpt>
      <trkpt lat="49.03722" lon="1.12134">
        <ele>123.6</ele>
        <time>2018-12-09T08:17:51Z</time>
      </trkpt>
      <trkpt lat="49.03729" lon="1.12144">
        <ele>124.1</ele>
        <time>2018-12-09T08:17:55Z</time>
      </trkpt>
      <trkpt lat="49.03731" lon="1.12161">
        <ele>125</ele>
        <time>2018-12-09T08:18:00Z</time>
      </trkpt>
      <trkpt lat="49.03727" lon="1.12177">
        <ele>124.9</ele>
        <time>2018-12-09T08:18:04Z</time>
      </trkpt>
      <trkpt lat="49.03725" lon="1.12194">
        <ele>124.8</ele>
        <time>2018-12-09T08:18:07Z</time>
      </trkpt>
      <trkpt lat="49.03723" lon="1.12211">
        <ele>124.8</ele>
        <time>2018-12-09T08:18:10Z</time>
      </trkpt>
      <trkpt lat="49.03722" lon="1.1223">
        <ele>125</ele>
        <time>2018-12-09T08:18:13Z</time>
      </trkpt>
      <trkpt lat="49.03722" lon="1.12249">
        <ele>125.2</ele>
        <time>2018-12-09T08:18:16Z</time>
      </trkpt>
      <trkpt lat="49.0372" lon="1.12268">
        <ele>125</ele>
        <time>2018-12-09T08:18:19Z</time>
      </trkpt>
      <trkpt lat="49.03717" lon="1.12285">
        <ele>124.9</ele>
        <time>2018-12-09T08:18:22Z</time>
      </trkpt>
      <trkpt lat="49.03715" lon="1.12299">
        <ele>124.6</ele>
        <time>2018-12-09T08:18:25Z</time>
      </trkpt>
      <trkpt lat="49.03725" lon="1.12298">
        <ele>124.4</ele>
        <time>2018-12-09T08:18:31Z</time>
      </trkpt>
      <trkpt lat="49.03735" lon="1.12292">
        <ele>124.8</ele>
        <time>2018-12-09T08:18:34Z</time>
      </trkpt>
      <trkpt lat="49.03745" lon="1.12289">
        <ele>125</ele>
        <time>2018-12-09T08:18:37Z</time>
      </trkpt>
      <trkpt lat="49.03757" lon="1.12288">
        <ele>125.5</ele>
        <time>2018-12-09T08:18:40Z</time>
      </trkpt>
      <trkpt lat="49.03769" lon="1.12292">
        <ele>126</ele>
        <time>2018-12-09T08:18:43Z</time>
      </trkpt>
      <trkpt lat="49.03777" lon="1.12284">
        <ele>126.1</ele>
        <time>2018-12-09T08:18:46Z</time>
      </trkpt>
      <trkpt lat="49.03784" lon="1.12271">
        <ele>126.1</ele>
        <time>2018-12-09T08:18:49Z</time>
      </trkpt>
      <trkpt lat="49.03788" lon="1.12254">
        <ele>125.9</ele>
        <time>2018-12-09T08:18:52Z</time>
      </trkpt>
      <trkpt lat="49.03794" lon="1.12237">
        <ele>125.9</ele>
        <time>2018-12-09T08:18:55Z</time>
      </trkpt>
      <trkpt lat="49.038" lon="1.1222">
        <ele>126</ele>
        <time>2018-12-09T08:18:58Z</time>
      </trkpt>
      <trkpt lat="49.03812" lon="1.12212">
        <ele>126</ele>
        <time>2018-12-09T08:19:01Z</time>
      </trkpt>
      <trkpt lat="49.03822" lon="1.12211">
        <ele>125.9</ele>
        <time>2018-12-09T08:19:04Z</time>
      </trkpt>
      <trkpt lat="49.03833" lon="1.12199">
        <ele>125.7</ele>
        <time>2018-12-09T08:19:07Z</time>
      </trkpt>
      <trkpt lat="49.0384" lon="1.1219">
        <ele>125.8</ele>
        <time>2018-12-09T08:19:09Z</time>
      </trkpt>
      <trkpt lat="49.03848" lon="1.12173">
        <ele>125.8</ele>
        <time>2018-12-09T08:19:12Z</time>
      </trkpt>
      <trkpt lat="49.03858" lon="1.12161">
        <ele>126.1</ele>
        <time>2018-12-09T08:19:15Z</time>
      </trkpt>
      <trkpt lat="49.03865" lon="1.12152">
        <ele>126.4</ele>
        <time>2018-12-09T08:19:17Z</time>
      </trkpt>
      <trkpt lat="49.03876" lon="1.12141">
        <ele>126.7</ele>
        <time>2018-12-09T08:19:20Z</time>
      </trkpt>
      <trkpt lat="49.03887" lon="1.1214">
        <ele>126.6</ele>
        <time>2018-12-09T08:19:23Z</time>
      </trkpt>
      <trkpt lat="49.03899" lon="1.12141">
        <ele>126.9</ele>
        <time>2018-12-09T08:19:26Z</time>
      </trkpt>
      <trkpt lat="49.03909" lon="1.12136">
        <ele>127.3</ele>
        <time>2018-12-09T08:19:29Z</time>
      </trkpt>
      <trkpt lat="49.0392" lon="1.12129">
        <ele>127.5</ele>
        <time>2018-12-09T08:19:33Z</time>
      </trkpt>
      <trkpt lat="49.03928" lon="1.12117">
        <ele>127.5</ele>
        <time>2018-12-09T08:19:36Z</time>
      </trkpt>
      <trkpt lat="49.03932" lon="1.12099">
        <ele>128</ele>
        <time>2018-12-09T08:19:39Z</time>
      </trkpt>
      <trkpt lat="49.03936" lon="1.12081">
        <ele>128</ele>
        <time>2018-12-09T08:19:42Z</time>
      </trkpt>
      <trkpt lat="49.03939" lon="1.12068">
        <ele>127.9</ele>
        <time>2018-12-09T08:19:44Z</time>
      </trkpt>
      <trkpt lat="49.03941" lon="1.12054">
        <ele>127.8</ele>
        <time>2018-12-09T08:19:46Z</time>
      </trkpt>
      <trkpt lat="49.03945" lon="1.12034">
        <ele>127.7</ele>
        <time>2018-12-09T08:19:49Z</time>
      </trkpt>
      <trkpt lat="49.03948" lon="1.12019">
        <ele>127.6</ele>
        <time>2018-12-09T08:19:51Z</time>
      </trkpt>
      <trkpt lat="49.0395" lon="1.12003">
        <ele>127.3</ele>
        <time>2018-12-09T08:19:53Z</time>
      </trkpt>
      <trkpt lat="49.03953" lon="1.11988">
        <ele>126.8</ele>
        <time>2018-12-09T08:19:55Z</time>
      </trkpt>
      <trkpt lat="49.03956" lon="1.11972">
        <ele>126.4</ele>
        <time>2018-12-09T08:19:57Z</time>
      </trkpt>
      <trkpt lat="49.03959" lon="1.11952">
        <ele>125.8</ele>
        <time>2018-12-09T08:20:00Z</time>
      </trkpt>
      <trkpt lat="49.03961" lon="1.11938">
        <ele>125.5</ele>
        <time>2018-12-09T08:20:02Z</time>
      </trkpt>
      <trkpt lat="49.03962" lon="1.11923">
        <ele>125.2</ele>
        <time>2018-12-09T08:20:04Z</time>
      </trkpt>
      <trkpt lat="49.03964" lon="1.11906">
        <ele>124.6</ele>
        <time>2018-12-09T08:20:06Z</time>
      </trkpt>
      <trkpt lat="49.03965" lon="1.11891">
        <ele>124.3</ele>
        <time>2018-12-09T08:20:08Z</time>
      </trkpt>
      <trkpt lat="49.03969" lon="1.11878">
        <ele>123.9</ele>
        <time>2018-12-09T08:20:10Z</time>
      </trkpt>
      <trkpt lat="49.03975" lon="1.11863">
        <ele>123.5</ele>
        <time>2018-12-09T08:20:13Z</time>
      </trkpt>
      <trkpt lat="49.03986" lon="1.11858">
        <ele>123.5</ele>
        <time>2018-12-09T08:20:16Z</time>
      </trkpt>
      <trkpt lat="49.03999" lon="1.11856">
        <ele>123.8</ele>
        <time>2018-12-09T08:20:19Z</time>
      </trkpt>
      <trkpt lat="49.04011" lon="1.1186">
        <ele>123.9</ele>
        <time>2018-12-09T08:20:22Z</time>
      </trkpt>
      <trkpt lat="49.0402" lon="1.11869">
        <ele>124.6</ele>
        <time>2018-12-09T08:20:25Z</time>
      </trkpt>
      <trkpt lat="49.04032" lon="1.11874">
        <ele>125.2</ele>
        <time>2018-12-09T08:20:28Z</time>
      </trkpt>
      <trkpt lat="49.04043" lon="1.11876">
        <ele>125.9</ele>
        <time>2018-12-09T08:20:31Z</time>
      </trkpt>
      <trkpt lat="49.04052" lon="1.11873">
        <ele>126.4</ele>
        <time>2018-12-09T08:20:34Z</time>
      </trkpt>
      <trkpt lat="49.04062" lon="1.11878">
        <ele>126.8</ele>
        <time>2018-12-09T08:20:37Z</time>
      </trkpt>
      <trkpt lat="49.04073" lon="1.11886">
        <ele>127</ele>
        <time>2018-12-09T08:20:41Z</time>
      </trkpt>
      <trkpt lat="49.04081" lon="1.11893">
        <ele>127.2</ele>
        <time>2018-12-09T08:20:44Z</time>
      </trkpt>
      <trkpt lat="49.04079" lon="1.11906">
        <ele>127.4</ele>
        <time>2018-12-09T08:20:51Z</time>
      </trkpt>
      <trkpt lat="49.04081" lon="1.11908">
        <ele>127.6</ele>
        <time>2018-12-09T08:21:00Z</time>
      </trkpt>
      <trkpt lat="49.0409" lon="1.11914">
        <ele>126.9</ele>
        <time>2018-12-09T08:24:53Z</time>
      </trkpt>
      <trkpt lat="49.04089" lon="1.11912">
        <ele>127</ele>
        <time>2018-12-09T08:24:59Z</time>
      </trkpt>
      <trkpt lat="49.04081" lon="1.11908">
        <ele>127.1</ele>
        <time>2018-12-09T08:25:57Z</time>
      </trkpt>
      <trkpt lat="49.04091" lon="1.11906">
        <ele>126.9</ele>
        <time>2018-12-09T08:27:06Z</time>
      </trkpt>
      <trkpt lat="49.041" lon="1.11907">
        <ele>126.9</ele>
        <time>2018-12-09T08:27:11Z</time>
      </trkpt>
      <trkpt lat="49.04105" lon="1.1192">
        <ele>127</ele>
        <time>2018-12-09T08:27:15Z</time>
      </trkpt>
      <trkpt lat="49.04106" lon="1.11934">
        <ele>127.4</ele>
        <time>2018-12-09T08:27:18Z</time>
      </trkpt>
      <trkpt lat="49.04106" lon="1.1195">
        <ele>127.7</ele>
        <time>2018-12-09T08:27:21Z</time>
      </trkpt>
      <trkpt lat="49.04107" lon="1.11965">
        <ele>128.3</ele>
        <time>2018-12-09T08:27:24Z</time>
      </trkpt>
      <trkpt lat="49.04108" lon="1.11981">
        <ele>128.7</ele>
        <time>2018-12-09T08:27:27Z</time>
      </trkpt>
      <trkpt lat="49.0411" lon="1.11997">
        <ele>128.8</ele>
        <time>2018-12-09T08:27:30Z</time>
      </trkpt>
      <trkpt lat="49.04118" lon="1.12008">
        <ele>128.9</ele>
        <time>2018-12-09T08:27:33Z</time>
      </trkpt>
      <trkpt lat="49.04123" lon="1.12022">
        <ele>129.2</ele>
        <time>2018-12-09T08:27:36Z</time>
      </trkpt>
      <trkpt lat="49.04126" lon="1.12039">
        <ele>129.4</ele>
        <time>2018-12-09T08:27:39Z</time>
      </trkpt>
      <trkpt lat="49.04128" lon="1.12055">
        <ele>129.7</ele>
        <time>2018-12-09T08:27:42Z</time>
      </trkpt>
      <trkpt lat="49.04133" lon="1.12067">
        <ele>129.9</ele>
        <time>2018-12-09T08:27:45Z</time>
      </trkpt>
      <trkpt lat="49.04139" lon="1.12078">
        <ele>130.3</ele>
        <time>2018-12-09T08:27:48Z</time>
      </trkpt>
      <trkpt lat="49.04145" lon="1.12093">
        <ele>131</ele>
        <time>2018-12-09T08:27:52Z</time>
      </trkpt>
      <trkpt lat="49.0415" lon="1.12105">
        <ele>131.1</ele>
        <time>2018-12-09T08:27:55Z</time>
      </trkpt>
      <trkpt lat="49.04154" lon="1.1212">
        <ele>131.3</ele>
        <time>2018-12-09T08:27:58Z</time>
      </trkpt>
      <trkpt lat="49.04158" lon="1.12135">
        <ele>131.3</ele>
        <time>2018-12-09T08:28:01Z</time>
      </trkpt>
      <trkpt lat="49.04164" lon="1.1215">
        <ele>131.5</ele>
        <time>2018-12-09T08:28:04Z</time>
      </trkpt>
      <trkpt lat="49.0417" lon="1.1216">
        <ele>131.5</ele>
        <time>2018-12-09T08:28:07Z</time>
      </trkpt>
      <trkpt lat="49.04181" lon="1.12152">
        <ele>131.5</ele>
        <time>2018-12-09T08:28:11Z</time>
      </trkpt>
      <trkpt lat="49.04191" lon="1.12153">
        <ele>131.2</ele>
        <time>2018-12-09T08:28:14Z</time>
      </trkpt>
      <trkpt lat="49.04198" lon="1.12166">
        <ele>131</ele>
        <time>2018-12-09T08:28:17Z</time>
      </trkpt>
      <trkpt lat="49.04203" lon="1.12179">
        <ele>131.1</ele>
        <time>2018-12-09T08:28:20Z</time>
      </trkpt>
      <trkpt lat="49.04212" lon="1.12193">
        <ele>131.3</ele>
        <time>2018-12-09T08:28:23Z</time>
      </trkpt>
      <trkpt lat="49.04219" lon="1.12208">
        <ele>130.9</ele>
        <time>2018-12-09T08:28:26Z</time>
      </trkpt>
      <trkpt lat="49.04226" lon="1.12227">
        <ele>130.9</ele>
        <time>2018-12-09T08:28:29Z</time>
      </trkpt>
      <trkpt lat="49.04229" lon="1.12243">
        <ele>131.1</ele>
        <time>2018-12-09T08:28:32Z</time>
      </trkpt>
      <trkpt lat="49.04231" lon="1.12257">
        <ele>131.6</ele>
        <time>2018-12-09T08:28:35Z</time>
      </trkpt>
      <trkpt lat="49.04233" lon="1.12274">
        <ele>131.8</ele>
        <time>2018-12-09T08:28:38Z</time>
      </trkpt>
      <trkpt lat="49.04238" lon="1.12289">
        <ele>132</ele>
        <time>2018-12-09T08:28:41Z</time>
      </trkpt>
      <trkpt lat="49.04242" lon="1.12305">
        <ele>132.1</ele>
        <time>2018-12-09T08:28:44Z</time>
      </trkpt>
      <trkpt lat="49.04245" lon="1.1232">
        <ele>132.1</ele>
        <time>2018-12-09T08:28:47Z</time>
      </trkpt>
      <trkpt lat="49.04248" lon="1.12337">
        <ele>132.2</ele>
        <time>2018-12-09T08:28:50Z</time>
      </trkpt>
      <trkpt lat="49.04251" lon="1.12354">
        <ele>132.1</ele>
        <time>2018-12-09T08:28:52Z</time>
      </trkpt>
      <trkpt lat="49.04253" lon="1.12373">
        <ele>132.1</ele>
        <time>2018-12-09T08:28:55Z</time>
      </trkpt>
      <trkpt lat="49.04264" lon="1.12374">
        <ele>131.9</ele>
        <time>2018-12-09T08:29:01Z</time>
      </trkpt>
      <trkpt lat="49.04276" lon="1.1237">
        <ele>131.4</ele>
        <time>2018-12-09T08:29:04Z</time>
      </trkpt>
      <trkpt lat="49.04284" lon="1.12362">
        <ele>131.5</ele>
        <time>2018-12-09T08:29:07Z</time>
      </trkpt>
      <trkpt lat="49.04295" lon="1.12354">
        <ele>131.6</ele>
        <time>2018-12-09T08:29:10Z</time>
      </trkpt>
      <trkpt lat="49.04303" lon="1.12345">
        <ele>131.2</ele>
        <time>2018-12-09T08:29:13Z</time>
      </trkpt>
      <trkpt lat="49.04311" lon="1.12333">
        <ele>130.9</ele>
        <time>2018-12-09T08:29:16Z</time>
      </trkpt>
      <trkpt lat="49.04315" lon="1.12319">
        <ele>131</ele>
        <time>2018-12-09T08:29:19Z</time>
      </trkpt>
      <trkpt lat="49.04321" lon="1.12305">
        <ele>131</ele>
        <time>2018-12-09T08:29:22Z</time>
      </trkpt>
      <trkpt lat="49.04323" lon="1.12289">
        <ele>130.9</ele>
        <time>2018-12-09T08:29:25Z</time>
      </trkpt>
      <trkpt lat="49.04325" lon="1.1227">
        <ele>131</ele>
        <time>2018-12-09T08:29:28Z</time>
      </trkpt>
      <trkpt lat="49.04328" lon="1.12256">
        <ele>131</ele>
        <time>2018-12-09T08:29:30Z</time>
      </trkpt>
      <trkpt lat="49.04332" lon="1.12239">
        <ele>131.1</ele>
        <time>2018-12-09T08:29:33Z</time>
      </trkpt>
      <trkpt lat="49.04337" lon="1.1222">
        <ele>130.5</ele>
        <time>2018-12-09T08:29:36Z</time>
      </trkpt>
      <trkpt lat="49.04339" lon="1.12203">
        <ele>130.2</ele>
        <time>2018-12-09T08:29:39Z</time>
      </trkpt>
      <trkpt lat="49.04341" lon="1.12187">
        <ele>129.6</ele>
        <time>2018-12-09T08:29:42Z</time>
      </trkpt>
      <trkpt lat="49.04345" lon="1.12171">
        <ele>129</ele>
        <time>2018-12-09T08:29:45Z</time>
      </trkpt>
      <trkpt lat="49.04349" lon="1.12154">
        <ele>128.7</ele>
        <time>2018-12-09T08:29:48Z</time>
      </trkpt>
      <trkpt lat="49.04352" lon="1.12136">
        <ele>128.2</ele>
        <time>2018-12-09T08:29:51Z</time>
      </trkpt>
      <trkpt lat="49.04353" lon="1.12118">
        <ele>127.4</ele>
        <time>2018-12-09T08:29:54Z</time>
      </trkpt>
      <trkpt lat="49.04353" lon="1.12099">
        <ele>126.5</ele>
        <time>2018-12-09T08:29:57Z</time>
      </trkpt>
      <trkpt lat="49.04349" lon="1.12083">
        <ele>125.8</ele>
        <time>2018-12-09T08:30:00Z</time>
      </trkpt>
      <trkpt lat="49.04344" lon="1.12067">
        <ele>125.4</ele>
        <time>2018-12-09T08:30:03Z</time>
      </trkpt>
      <trkpt lat="49.04339" lon="1.12051">
        <ele>125.2</ele>
        <time>2018-12-09T08:30:06Z</time>
      </trkpt>
      <trkpt lat="49.04334" lon="1.12036">
        <ele>124.9</ele>
        <time>2018-12-09T08:30:09Z</time>
      </trkpt>
      <trkpt lat="49.04329" lon="1.12023">
        <ele>124.9</ele>
        <time>2018-12-09T08:30:12Z</time>
      </trkpt>
      <trkpt lat="49.04322" lon="1.12012">
        <ele>125</ele>
        <time>2018-12-09T08:30:15Z</time>
      </trkpt>
      <trkpt lat="49.04313" lon="1.1202">
        <ele>125.3</ele>
        <time>2018-12-09T08:30:20Z</time>
      </trkpt>
      <trkpt lat="49.04305" lon="1.12029">
        <ele>125.6</ele>
        <time>2018-12-09T08:30:23Z</time>
      </trkpt>
      <trkpt lat="49.04296" lon="1.12038">
        <ele>126.3</ele>
        <time>2018-12-09T08:30:26Z</time>
      </trkpt>
      <trkpt lat="49.04289" lon="1.12048">
        <ele>126.8</ele>
        <time>2018-12-09T08:30:29Z</time>
      </trkpt>
      <trkpt lat="49.04279" lon="1.12057">
        <ele>127.5</ele>
        <time>2018-12-09T08:30:32Z</time>
      </trkpt>
      <trkpt lat="49.0427" lon="1.12067">
        <ele>127.9</ele>
        <time>2018-12-09T08:30:35Z</time>
      </trkpt>
      <trkpt lat="49.0426" lon="1.12077">
        <ele>128.4</ele>
        <time>2018-12-09T08:30:38Z</time>
      </trkpt>
      <trkpt lat="49.0425" lon="1.12088">
        <ele>128.8</ele>
        <time>2018-12-09T08:30:41Z</time>
      </trkpt>
      <trkpt lat="49.04239" lon="1.12097">
        <ele>128.9</ele>
        <time>2018-12-09T08:30:44Z</time>
      </trkpt>
      <trkpt lat="49.04228" lon="1.12101">
        <ele>128.9</ele>
        <time>2018-12-09T08:30:47Z</time>
      </trkpt>
      <trkpt lat="49.0422" lon="1.12092">
        <ele>128.7</ele>
        <time>2018-12-09T08:30:50Z</time>
      </trkpt>
      <trkpt lat="49.04212" lon="1.1208">
        <ele>128.7</ele>
        <time>2018-12-09T08:30:53Z</time>
      </trkpt>
      <trkpt lat="49.04204" lon="1.12067">
        <ele>129.2</ele>
        <time>2018-12-09T08:30:56Z</time>
      </trkpt>
      <trkpt lat="49.04197" lon="1.12058">
        <ele>129.4</ele>
        <time>2018-12-09T08:30:58Z</time>
      </trkpt>
      <trkpt lat="49.04191" lon="1.12048">
        <ele>129.4</ele>
        <time>2018-12-09T08:31:00Z</time>
      </trkpt>
      <trkpt lat="49.04184" lon="1.12038">
        <ele>129.2</ele>
        <time>2018-12-09T08:31:02Z</time>
      </trkpt>
      <trkpt lat="49.04178" lon="1.12028">
        <ele>128.8</ele>
        <time>2018-12-09T08:31:04Z</time>
      </trkpt>
      <trkpt lat="49.04172" lon="1.12016">
        <ele>128.7</ele>
        <time>2018-12-09T08:31:06Z</time>
      </trkpt>
      <trkpt lat="49.04164" lon="1.12005">
        <ele>128.6</ele>
        <time>2018-12-09T08:31:08Z</time>
      </trkpt>
      <trkpt lat="49.04155" lon="1.11992">
        <ele>128.6</ele>
        <time>2018-12-09T08:31:10Z</time>
      </trkpt>
      <trkpt lat="49.04151" lon="1.11978">
        <ele>128.1</ele>
        <time>2018-12-09T08:31:13Z</time>
      </trkpt>
      <trkpt lat="49.04161" lon="1.11977">
        <ele>127.4</ele>
        <time>2018-12-09T08:31:18Z</time>
      </trkpt>
      <trkpt lat="49.04171" lon="1.11975">
        <ele>127.5</ele>
        <time>2018-12-09T08:31:22Z</time>
      </trkpt>
      <trkpt lat="49.04181" lon="1.11964">
        <ele>127.7</ele>
        <time>2018-12-09T08:31:26Z</time>
      </trkpt>
      <trkpt lat="49.04187" lon="1.11949">
        <ele>127.7</ele>
        <time>2018-12-09T08:31:29Z</time>
      </trkpt>
      <trkpt lat="49.04198" lon="1.11935">
        <ele>127.6</ele>
        <time>2018-12-09T08:31:33Z</time>
      </trkpt>
      <trkpt lat="49.04206" lon="1.11926">
        <ele>127.5</ele>
        <time>2018-12-09T08:31:35Z</time>
      </trkpt>
      <trkpt lat="49.04214" lon="1.11916">
        <ele>127.1</ele>
        <time>2018-12-09T08:31:38Z</time>
      </trkpt>
      <trkpt lat="49.04225" lon="1.1191">
        <ele>126.9</ele>
        <time>2018-12-09T08:31:41Z</time>
      </trkpt>
      <trkpt lat="49.04234" lon="1.11902">
        <ele>126.5</ele>
        <time>2018-12-09T08:31:44Z</time>
      </trkpt>
      <trkpt lat="49.04243" lon="1.11889">
        <ele>126.1</ele>
        <time>2018-12-09T08:31:47Z</time>
      </trkpt>
      <trkpt lat="49.0425" lon="1.11879">
        <ele>125.7</ele>
        <time>2018-12-09T08:31:49Z</time>
      </trkpt>
      <trkpt lat="49.04256" lon="1.11868">
        <ele>125.1</ele>
        <time>2018-12-09T08:31:51Z</time>
      </trkpt>
      <trkpt lat="49.0426" lon="1.11851">
        <ele>124.6</ele>
        <time>2018-12-09T08:31:54Z</time>
      </trkpt>
      <trkpt lat="49.04262" lon="1.11835">
        <ele>124.5</ele>
        <time>2018-12-09T08:31:56Z</time>
      </trkpt>
      <trkpt lat="49.04267" lon="1.11821">
        <ele>124.2</ele>
        <time>2018-12-09T08:31:58Z</time>
      </trkpt>
      <trkpt lat="49.04272" lon="1.11809">
        <ele>123.6</ele>
        <time>2018-12-09T08:32:01Z</time>
      </trkpt>
      <trkpt lat="49.0428" lon="1.118">
        <ele>123</ele>
        <time>2018-12-09T08:32:04Z</time>
      </trkpt>
      <trkpt lat="49.04287" lon="1.11787">
        <ele>122.4</ele>
        <time>2018-12-09T08:32:08Z</time>
      </trkpt>
      <trkpt lat="49.04295" lon="1.11776">
        <ele>121.8</ele>
        <time>2018-12-09T08:32:11Z</time>
      </trkpt>
      <trkpt lat="49.043" lon="1.11763">
        <ele>121.3</ele>
        <time>2018-12-09T08:32:14Z</time>
      </trkpt>
      <trkpt lat="49.04297" lon="1.11746">
        <ele>120.6</ele>
        <time>2018-12-09T08:32:17Z</time>
      </trkpt>
      <trkpt lat="49.04288" lon="1.11732">
        <ele>121.2</ele>
        <time>2018-12-09T08:32:20Z</time>
      </trkpt>
      <trkpt lat="49.04281" lon="1.11721">
        <ele>120.6</ele>
        <time>2018-12-09T08:32:23Z</time>
      </trkpt>
      <trkpt lat="49.04273" lon="1.11704">
        <ele>121</ele>
        <time>2018-12-09T08:32:26Z</time>
      </trkpt>
      <trkpt lat="49.04264" lon="1.1169">
        <ele>121.2</ele>
        <time>2018-12-09T08:32:29Z</time>
      </trkpt>
      <trkpt lat="49.04256" lon="1.11675">
        <ele>121.6</ele>
        <time>2018-12-09T08:32:32Z</time>
      </trkpt>
      <trkpt lat="49.04249" lon="1.11659">
        <ele>121.8</ele>
        <time>2018-12-09T08:32:35Z</time>
      </trkpt>
      <trkpt lat="49.04248" lon="1.11642">
        <ele>121.7</ele>
        <time>2018-12-09T08:32:38Z</time>
      </trkpt>
      <trkpt lat="49.04254" lon="1.11626">
        <ele>121.3</ele>
        <time>2018-12-09T08:32:41Z</time>
      </trkpt>
      <trkpt lat="49.04261" lon="1.11608">
        <ele>121</ele>
        <time>2018-12-09T08:32:44Z</time>
      </trkpt>
      <trkpt lat="49.04264" lon="1.11594">
        <ele>120.9</ele>
        <time>2018-12-09T08:32:46Z</time>
      </trkpt>
      <trkpt lat="49.0427" lon="1.11577">
        <ele>120.9</ele>
        <time>2018-12-09T08:32:49Z</time>
      </trkpt>
      <trkpt lat="49.04276" lon="1.11566">
        <ele>120.6</ele>
        <time>2018-12-09T08:32:51Z</time>
      </trkpt>
      <trkpt lat="49.04281" lon="1.11553">
        <ele>120.2</ele>
        <time>2018-12-09T08:32:53Z</time>
      </trkpt>
      <trkpt lat="49.04283" lon="1.11535">
        <ele>119.6</ele>
        <time>2018-12-09T08:32:56Z</time>
      </trkpt>
      <trkpt lat="49.04283" lon="1.11517">
        <ele>119.3</ele>
        <time>2018-12-09T08:32:59Z</time>
      </trkpt>
      <trkpt lat="49.04281" lon="1.11503">
        <ele>119</ele>
        <time>2018-12-09T08:33:02Z</time>
      </trkpt>
      <trkpt lat="49.04272" lon="1.11503">
        <ele>119.7</ele>
        <time>2018-12-09T08:33:06Z</time>
      </trkpt>
      <trkpt lat="49.04263" lon="1.11504">
        <ele>120.1</ele>
        <time>2018-12-09T08:33:09Z</time>
      </trkpt>
      <trkpt lat="49.04252" lon="1.11505">
        <ele>120.3</ele>
        <time>2018-12-09T08:33:12Z</time>
      </trkpt>
      <trkpt lat="49.04246" lon="1.1152">
        <ele>120.9</ele>
        <time>2018-12-09T08:33:16Z</time>
      </trkpt>
      <trkpt lat="49.04239" lon="1.1153">
        <ele>121.3</ele>
        <time>2018-12-09T08:33:19Z</time>
      </trkpt>
      <trkpt lat="49.0423" lon="1.11532">
        <ele>121.8</ele>
        <time>2018-12-09T08:33:23Z</time>
      </trkpt>
      <trkpt lat="49.04222" lon="1.11545">
        <ele>122.3</ele>
        <time>2018-12-09T08:33:27Z</time>
      </trkpt>
      <trkpt lat="49.04216" lon="1.11556">
        <ele>122.6</ele>
        <time>2018-12-09T08:33:30Z</time>
      </trkpt>
      <trkpt lat="49.0421" lon="1.1157">
        <ele>122.7</ele>
        <time>2018-12-09T08:33:33Z</time>
      </trkpt>
      <trkpt lat="49.04205" lon="1.11582">
        <ele>122.6</ele>
        <time>2018-12-09T08:33:37Z</time>
      </trkpt>
      <trkpt lat="49.04193" lon="1.11587">
        <ele>122.8</ele>
        <time>2018-12-09T08:33:42Z</time>
      </trkpt>
      <trkpt lat="49.04187" lon="1.11604">
        <ele>122.9</ele>
        <time>2018-12-09T08:33:45Z</time>
      </trkpt>
      <trkpt lat="49.04183" lon="1.11616">
        <ele>122.9</ele>
        <time>2018-12-09T08:33:47Z</time>
      </trkpt>
      <trkpt lat="49.04179" lon="1.1163">
        <ele>123</ele>
        <time>2018-12-09T08:33:49Z</time>
      </trkpt>
      <trkpt lat="49.04175" lon="1.11643">
        <ele>122.8</ele>
        <time>2018-12-09T08:33:51Z</time>
      </trkpt>
      <trkpt lat="49.04171" lon="1.11656">
        <ele>123</ele>
        <time>2018-12-09T08:33:53Z</time>
      </trkpt>
      <trkpt lat="49.04168" lon="1.11669">
        <ele>123.2</ele>
        <time>2018-12-09T08:33:55Z</time>
      </trkpt>
      <trkpt lat="49.04164" lon="1.11689">
        <ele>123.5</ele>
        <time>2018-12-09T08:33:58Z</time>
      </trkpt>
      <trkpt lat="49.0416" lon="1.11702">
        <ele>123.5</ele>
        <time>2018-12-09T08:34:00Z</time>
      </trkpt>
      <trkpt lat="49.04155" lon="1.11722">
        <ele>123.9</ele>
        <time>2018-12-09T08:34:03Z</time>
      </trkpt>
      <trkpt lat="49.04151" lon="1.1174">
        <ele>124</ele>
        <time>2018-12-09T08:34:06Z</time>
      </trkpt>
      <trkpt lat="49.04147" lon="1.11754">
        <ele>123.9</ele>
        <time>2018-12-09T08:34:09Z</time>
      </trkpt>
      <trkpt lat="49.0414" lon="1.11765">
        <ele>123.4</ele>
        <time>2018-12-09T08:34:13Z</time>
      </trkpt>
      <trkpt lat="49.04129" lon="1.11762">
        <ele>123.2</ele>
        <time>2018-12-09T08:34:19Z</time>
      </trkpt>
      <trkpt lat="49.04118" lon="1.11758">
        <ele>122.8</ele>
        <time>2018-12-09T08:34:22Z</time>
      </trkpt>
      <trkpt lat="49.04108" lon="1.11755">
        <ele>122.6</ele>
        <time>2018-12-09T08:34:24Z</time>
      </trkpt>
      <trkpt lat="49.04099" lon="1.11752">
        <ele>122.5</ele>
        <time>2018-12-09T08:34:26Z</time>
      </trkpt>
      <trkpt lat="49.04088" lon="1.11749">
        <ele>122.3</ele>
        <time>2018-12-09T08:34:28Z</time>
      </trkpt>
      <trkpt lat="49.04076" lon="1.11745">
        <ele>122.1</ele>
        <time>2018-12-09T08:34:30Z</time>
      </trkpt>
      <trkpt lat="49.04063" lon="1.11741">
        <ele>121.5</ele>
        <time>2018-12-09T08:34:33Z</time>
      </trkpt>
      <trkpt lat="49.04052" lon="1.11737">
        <ele>121.4</ele>
        <time>2018-12-09T08:34:35Z</time>
      </trkpt>
      <trkpt lat="49.04042" lon="1.11734">
        <ele>121.4</ele>
        <time>2018-12-09T08:34:37Z</time>
      </trkpt>
      <trkpt lat="49.04032" lon="1.11733">
        <ele>121.4</ele>
        <time>2018-12-09T08:34:39Z</time>
      </trkpt>
      <trkpt lat="49.04022" lon="1.11732">
        <ele>121.2</ele>
        <time>2018-12-09T08:34:41Z</time>
      </trkpt>
      <trkpt lat="49.04012" lon="1.11721">
        <ele>120.9</ele>
        <time>2018-12-09T08:34:44Z</time>
      </trkpt>
      <trkpt lat="49.04004" lon="1.11713">
        <ele>120.3</ele>
        <time>2018-12-09T08:34:46Z</time>
      </trkpt>
      <trkpt lat="49.03996" lon="1.117">
        <ele>120.1</ele>
        <time>2018-12-09T08:34:49Z</time>
      </trkpt>
      <trkpt lat="49.03997" lon="1.11685">
        <ele>120.9</ele>
        <time>2018-12-09T08:34:53Z</time>
      </trkpt>
      <trkpt lat="49.03998" lon="1.1167">
        <ele>121.3</ele>
        <time>2018-12-09T08:34:56Z</time>
      </trkpt>
      <trkpt lat="49.03999" lon="1.11655">
        <ele>121.5</ele>
        <time>2018-12-09T08:34:59Z</time>
      </trkpt>
      <trkpt lat="49.03998" lon="1.11639">
        <ele>121.9</ele>
        <time>2018-12-09T08:35:02Z</time>
      </trkpt>
      <trkpt lat="49.03992" lon="1.11621">
        <ele>122.2</ele>
        <time>2018-12-09T08:35:05Z</time>
      </trkpt>
      <trkpt lat="49.03988" lon="1.11608">
        <ele>122.3</ele>
        <time>2018-12-09T08:35:07Z</time>
      </trkpt>
      <trkpt lat="49.03983" lon="1.11592">
        <ele>122.5</ele>
        <time>2018-12-09T08:35:10Z</time>
      </trkpt>
      <trkpt lat="49.03974" lon="1.11579">
        <ele>122.3</ele>
        <time>2018-12-09T08:35:13Z</time>
      </trkpt>
      <trkpt lat="49.03966" lon="1.11569">
        <ele>122.3</ele>
        <time>2018-12-09T08:35:16Z</time>
      </trkpt>
      <trkpt lat="49.0396" lon="1.11551">
        <ele>122.2</ele>
        <time>2018-12-09T08:35:19Z</time>
      </trkpt>
      <trkpt lat="49.03958" lon="1.11532">
        <ele>122.1</ele>
        <time>2018-12-09T08:35:22Z</time>
      </trkpt>
      <trkpt lat="49.03957" lon="1.11518">
        <ele>122</ele>
        <time>2018-12-09T08:35:24Z</time>
      </trkpt>
      <trkpt lat="49.03954" lon="1.11499">
        <ele>121.9</ele>
        <time>2018-12-09T08:35:27Z</time>
      </trkpt>
      <trkpt lat="49.03945" lon="1.11485">
        <ele>121.7</ele>
        <time>2018-12-09T08:35:30Z</time>
      </trkpt>
      <trkpt lat="49.03937" lon="1.11472">
        <ele>121.8</ele>
        <time>2018-12-09T08:35:32Z</time>
      </trkpt>
      <trkpt lat="49.03931" lon="1.11456">
        <ele>121.5</ele>
        <time>2018-12-09T08:35:35Z</time>
      </trkpt>
      <trkpt lat="49.03925" lon="1.11439">
        <ele>121.1</ele>
        <time>2018-12-09T08:35:37Z</time>
      </trkpt>
      <trkpt lat="49.03922" lon="1.11426">
        <ele>121.1</ele>
        <time>2018-12-09T08:35:39Z</time>
      </trkpt>
      <trkpt lat="49.03916" lon="1.11414">
        <ele>120.8</ele>
        <time>2018-12-09T08:35:41Z</time>
      </trkpt>
      <trkpt lat="49.03911" lon="1.11401">
        <ele>120.6</ele>
        <time>2018-12-09T08:35:43Z</time>
      </trkpt>
      <trkpt lat="49.03907" lon="1.11387">
        <ele>120.4</ele>
        <time>2018-12-09T08:35:45Z</time>
      </trkpt>
      <trkpt lat="49.03904" lon="1.11373">
        <ele>120.5</ele>
        <time>2018-12-09T08:35:47Z</time>
      </trkpt>
      <trkpt lat="49.03897" lon="1.11355">
        <ele>120.2</ele>
        <time>2018-12-09T08:35:50Z</time>
      </trkpt>
      <trkpt lat="49.03891" lon="1.11342">
        <ele>119.7</ele>
        <time>2018-12-09T08:35:52Z</time>
      </trkpt>
      <trkpt lat="49.03885" lon="1.11331">
        <ele>119.2</ele>
        <time>2018-12-09T08:35:54Z</time>
      </trkpt>
      <trkpt lat="49.03876" lon="1.11321">
        <ele>118.8</ele>
        <time>2018-12-09T08:35:56Z</time>
      </trkpt>
      <trkpt lat="49.03872" lon="1.11307">
        <ele>118.3</ele>
        <time>2018-12-09T08:35:58Z</time>
      </trkpt>
      <trkpt lat="49.03875" lon="1.11288">
        <ele>118.1</ele>
        <time>2018-12-09T08:36:01Z</time>
      </trkpt>
      <trkpt lat="49.03882" lon="1.1127">
        <ele>118.4</ele>
        <time>2018-12-09T08:36:04Z</time>
      </trkpt>
      <trkpt lat="49.03886" lon="1.11252">
        <ele>118.4</ele>
        <time>2018-12-09T08:36:07Z</time>
      </trkpt>
      <trkpt lat="49.03891" lon="1.11234">
        <ele>118.9</ele>
        <time>2018-12-09T08:36:10Z</time>
      </trkpt>
      <trkpt lat="49.03894" lon="1.11221">
        <ele>118.9</ele>
        <time>2018-12-09T08:36:12Z</time>
      </trkpt>
      <trkpt lat="49.03901" lon="1.1121">
        <ele>119.1</ele>
        <time>2018-12-09T08:36:15Z</time>
      </trkpt>
      <trkpt lat="49.03912" lon="1.11212">
        <ele>119.8</ele>
        <time>2018-12-09T08:36:19Z</time>
      </trkpt>
      <trkpt lat="49.0392" lon="1.11222">
        <ele>120.2</ele>
        <time>2018-12-09T08:36:22Z</time>
      </trkpt>
      <trkpt lat="49.0393" lon="1.11223">
        <ele>120.6</ele>
        <time>2018-12-09T08:36:25Z</time>
      </trkpt>
      <trkpt lat="49.03939" lon="1.11217">
        <ele>120.9</ele>
        <time>2018-12-09T08:36:28Z</time>
      </trkpt>
      <trkpt lat="49.03949" lon="1.11212">
        <ele>121.3</ele>
        <time>2018-12-09T08:36:31Z</time>
      </trkpt>
      <trkpt lat="49.03962" lon="1.11202">
        <ele>121.6</ele>
        <time>2018-12-09T08:36:34Z</time>
      </trkpt>
      <trkpt lat="49.03969" lon="1.11189">
        <ele>121.7</ele>
        <time>2018-12-09T08:36:37Z</time>
      </trkpt>
      <trkpt lat="49.03979" lon="1.11182">
        <ele>122</ele>
        <time>2018-12-09T08:36:40Z</time>
      </trkpt>
      <trkpt lat="49.03992" lon="1.11181">
        <ele>121.9</ele>
        <time>2018-12-09T08:36:43Z</time>
      </trkpt>
      <trkpt lat="49.04002" lon="1.1118">
        <ele>121.8</ele>
        <time>2018-12-09T08:36:45Z</time>
      </trkpt>
      <trkpt lat="49.04011" lon="1.11183">
        <ele>121.7</ele>
        <time>2018-12-09T08:36:47Z</time>
      </trkpt>
      <trkpt lat="49.04023" lon="1.1119">
        <ele>121.4</ele>
        <time>2018-12-09T08:36:50Z</time>
      </trkpt>
      <trkpt lat="49.04033" lon="1.11191">
        <ele>121.4</ele>
        <time>2018-12-09T08:36:53Z</time>
      </trkpt>
      <trkpt lat="49.04042" lon="1.11203">
        <ele>121.5</ele>
        <time>2018-12-09T08:36:57Z</time>
      </trkpt>
      <trkpt lat="49.04046" lon="1.11219">
        <ele>122.1</ele>
        <time>2018-12-09T08:37:00Z</time>
      </trkpt>
      <trkpt lat="49.04053" lon="1.11232">
        <ele>122.6</ele>
        <time>2018-12-09T08:37:03Z</time>
      </trkpt>
      <trkpt lat="49.04063" lon="1.11232">
        <ele>122.9</ele>
        <time>2018-12-09T08:37:06Z</time>
      </trkpt>
      <trkpt lat="49.04072" lon="1.11223">
        <ele>123.1</ele>
        <time>2018-12-09T08:37:09Z</time>
      </trkpt>
      <trkpt lat="49.04082" lon="1.11209">
        <ele>123.1</ele>
        <time>2018-12-09T08:37:12Z</time>
      </trkpt>
      <trkpt lat="49.04088" lon="1.11193">
        <ele>122.9</ele>
        <time>2018-12-09T08:37:15Z</time>
      </trkpt>
      <trkpt lat="49.04097" lon="1.11185">
        <ele>122.3</ele>
        <time>2018-12-09T08:37:18Z</time>
      </trkpt>
      <trkpt lat="49.04109" lon="1.11184">
        <ele>122</ele>
        <time>2018-12-09T08:37:21Z</time>
      </trkpt>
      <trkpt lat="49.0412" lon="1.11185">
        <ele>121.9</ele>
        <time>2018-12-09T08:37:25Z</time>
      </trkpt>
      <trkpt lat="49.04132" lon="1.11178">
        <ele>120.9</ele>
        <time>2018-12-09T08:37:28Z</time>
      </trkpt>
      <trkpt lat="49.04142" lon="1.11176">
        <ele>120.9</ele>
        <time>2018-12-09T08:37:30Z</time>
      </trkpt>
      <trkpt lat="49.04151" lon="1.11174">
        <ele>120.2</ele>
        <time>2018-12-09T08:37:32Z</time>
      </trkpt>
      <trkpt lat="49.04161" lon="1.11168">
        <ele>120.4</ele>
        <time>2018-12-09T08:37:34Z</time>
      </trkpt>
      <trkpt lat="49.04173" lon="1.1116">
        <ele>120.4</ele>
        <time>2018-12-09T08:37:36Z</time>
      </trkpt>
      <trkpt lat="49.04183" lon="1.1116">
        <ele>120.6</ele>
        <time>2018-12-09T08:37:38Z</time>
      </trkpt>
      <trkpt lat="49.04191" lon="1.11168">
        <ele>120.4</ele>
        <time>2018-12-09T08:37:40Z</time>
      </trkpt>
      <trkpt lat="49.042" lon="1.11183">
        <ele>120.6</ele>
        <time>2018-12-09T08:37:43Z</time>
      </trkpt>
      <trkpt lat="49.04204" lon="1.11196">
        <ele>120.5</ele>
        <time>2018-12-09T08:37:45Z</time>
      </trkpt>
      <trkpt lat="49.04203" lon="1.11215">
        <ele>120.4</ele>
        <time>2018-12-09T08:37:48Z</time>
      </trkpt>
      <trkpt lat="49.04199" lon="1.11233">
        <ele>120.3</ele>
        <time>2018-12-09T08:37:51Z</time>
      </trkpt>
      <trkpt lat="49.04198" lon="1.11254">
        <ele>120.4</ele>
        <time>2018-12-09T08:37:54Z</time>
      </trkpt>
      <trkpt lat="49.04195" lon="1.11272">
        <ele>121.2</ele>
        <time>2018-12-09T08:37:57Z</time>
      </trkpt>
      <trkpt lat="49.04191" lon="1.1129">
        <ele>122</ele>
        <time>2018-12-09T08:38:00Z</time>
      </trkpt>
      <trkpt lat="49.04188" lon="1.11308">
        <ele>122.3</ele>
        <time>2018-12-09T08:38:03Z</time>
      </trkpt>
      <trkpt lat="49.04183" lon="1.1132">
        <ele>122.5</ele>
        <time>2018-12-09T08:38:05Z</time>
      </trkpt>
      <trkpt lat="49.04179" lon="1.11338">
        <ele>122.8</ele>
        <time>2018-12-09T08:38:08Z</time>
      </trkpt>
      <trkpt lat="49.04175" lon="1.11356">
        <ele>122.8</ele>
        <time>2018-12-09T08:38:11Z</time>
      </trkpt>
      <trkpt lat="49.04168" lon="1.11374">
        <ele>122.7</ele>
        <time>2018-12-09T08:38:14Z</time>
      </trkpt>
      <trkpt lat="49.04162" lon="1.11393">
        <ele>122.9</ele>
        <time>2018-12-09T08:38:17Z</time>
      </trkpt>
      <trkpt lat="49.04158" lon="1.11412">
        <ele>123.1</ele>
        <time>2018-12-09T08:38:20Z</time>
      </trkpt>
      <trkpt lat="49.04154" lon="1.11431">
        <ele>123.6</ele>
        <time>2018-12-09T08:38:23Z</time>
      </trkpt>
      <trkpt lat="49.04153" lon="1.1145">
        <ele>123.9</ele>
        <time>2018-12-09T08:38:26Z</time>
      </trkpt>
      <trkpt lat="49.04155" lon="1.1147">
        <ele>124.3</ele>
        <time>2018-12-09T08:38:29Z</time>
      </trkpt>
      <trkpt lat="49.04154" lon="1.11491">
        <ele>124.4</ele>
        <time>2018-12-09T08:38:32Z</time>
      </trkpt>
      <trkpt lat="49.04154" lon="1.11511">
        <ele>124.2</ele>
        <time>2018-12-09T08:38:35Z</time>
      </trkpt>
      <trkpt lat="49.04161" lon="1.11526">
        <ele>124</ele>
        <time>2018-12-09T08:38:38Z</time>
      </trkpt>
      <trkpt lat="49.04171" lon="1.11537">
        <ele>123.4</ele>
        <time>2018-12-09T08:38:41Z</time>
      </trkpt>
      <trkpt lat="49.04182" lon="1.11548">
        <ele>122.8</ele>
        <time>2018-12-09T08:38:44Z</time>
      </trkpt>
      <trkpt lat="49.04194" lon="1.1155">
        <ele>122.5</ele>
        <time>2018-12-09T08:38:47Z</time>
      </trkpt>
      <trkpt lat="49.042" lon="1.1154">
        <ele>122.9</ele>
        <time>2018-12-09T08:38:50Z</time>
      </trkpt>
      <trkpt lat="49.04209" lon="1.11523">
        <ele>123.4</ele>
        <time>2018-12-09T08:38:53Z</time>
      </trkpt>
      <trkpt lat="49.04218" lon="1.11511">
        <ele>123.5</ele>
        <time>2018-12-09T08:38:55Z</time>
      </trkpt>
      <trkpt lat="49.04226" lon="1.11499">
        <ele>122.5</ele>
        <time>2018-12-09T08:38:57Z</time>
      </trkpt>
      <trkpt lat="49.04235" lon="1.11488">
        <ele>121.8</ele>
        <time>2018-12-09T08:38:59Z</time>
      </trkpt>
      <trkpt lat="49.04245" lon="1.11475">
        <ele>121.5</ele>
        <time>2018-12-09T08:39:01Z</time>
      </trkpt>
      <trkpt lat="49.04256" lon="1.11463">
        <ele>120.9</ele>
        <time>2018-12-09T08:39:03Z</time>
      </trkpt>
      <trkpt lat="49.04266" lon="1.11449">
        <ele>120.1</ele>
        <time>2018-12-09T08:39:05Z</time>
      </trkpt>
      <trkpt lat="49.04277" lon="1.11435">
        <ele>119</ele>
        <time>2018-12-09T08:39:07Z</time>
      </trkpt>
      <trkpt lat="49.04288" lon="1.11425">
        <ele>118</ele>
        <time>2018-12-09T08:39:09Z</time>
      </trkpt>
      <trkpt lat="49.04293" lon="1.11412">
        <ele>116.9</ele>
        <time>2018-12-09T08:39:11Z</time>
      </trkpt>
      <trkpt lat="49.04293" lon="1.11398">
        <ele>116.1</ele>
        <time>2018-12-09T08:39:13Z</time>
      </trkpt>
      <trkpt lat="49.0429" lon="1.11381">
        <ele>115.2</ele>
        <time>2018-12-09T08:39:16Z</time>
      </trkpt>
      <trkpt lat="49.04284" lon="1.11367">
        <ele>115</ele>
        <time>2018-12-09T08:39:19Z</time>
      </trkpt>
      <trkpt lat="49.0428" lon="1.11352">
        <ele>115.5</ele>
        <time>2018-12-09T08:39:22Z</time>
      </trkpt>
      <trkpt lat="49.04276" lon="1.11336">
        <ele>116</ele>
        <time>2018-12-09T08:39:25Z</time>
      </trkpt>
      <trkpt lat="49.04273" lon="1.11319">
        <ele>116.7</ele>
        <time>2018-12-09T08:39:28Z</time>
      </trkpt>
      <trkpt lat="49.0427" lon="1.11304">
        <ele>117.2</ele>
        <time>2018-12-09T08:39:31Z</time>
      </trkpt>
      <trkpt lat="49.04266" lon="1.11288">
        <ele>117.5</ele>
        <time>2018-12-09T08:39:34Z</time>
      </trkpt>
      <trkpt lat="49.04263" lon="1.11272">
        <ele>117.5</ele>
        <time>2018-12-09T08:39:37Z</time>
      </trkpt>
      <trkpt lat="49.04259" lon="1.11257">
        <ele>117.6</ele>
        <time>2018-12-09T08:39:40Z</time>
      </trkpt>
      <trkpt lat="49.04255" lon="1.1124">
        <ele>117.9</ele>
        <time>2018-12-09T08:39:43Z</time>
      </trkpt>
      <trkpt lat="49.04252" lon="1.11223">
        <ele>118.1</ele>
        <time>2018-12-09T08:39:46Z</time>
      </trkpt>
      <trkpt lat="49.04248" lon="1.11207">
        <ele>118.2</ele>
        <time>2018-12-09T08:39:49Z</time>
      </trkpt>
      <trkpt lat="49.04244" lon="1.11191">
        <ele>118.5</ele>
        <time>2018-12-09T08:39:52Z</time>
      </trkpt>
      <trkpt lat="49.04241" lon="1.11177">
        <ele>118.6</ele>
        <time>2018-12-09T08:39:55Z</time>
      </trkpt>
      <trkpt lat="49.04238" lon="1.11162">
        <ele>118.8</ele>
        <time>2018-12-09T08:39:58Z</time>
      </trkpt>
      <trkpt lat="49.04234" lon="1.11149">
        <ele>119.1</ele>
        <time>2018-12-09T08:40:01Z</time>
      </trkpt>
      <trkpt lat="49.04241" lon="1.11134">
        <ele>119.4</ele>
        <time>2018-12-09T08:40:05Z</time>
      </trkpt>
      <trkpt lat="49.0425" lon="1.11131">
        <ele>119.2</ele>
        <time>2018-12-09T08:40:08Z</time>
      </trkpt>
      <trkpt lat="49.04261" lon="1.11136">
        <ele>118.2</ele>
        <time>2018-12-09T08:40:11Z</time>
      </trkpt>
      <trkpt lat="49.04271" lon="1.11136">
        <ele>117.9</ele>
        <time>2018-12-09T08:40:14Z</time>
      </trkpt>
      <trkpt lat="49.04281" lon="1.1114">
        <ele>117.5</ele>
        <time>2018-12-09T08:40:16Z</time>
      </trkpt>
      <trkpt lat="49.0429" lon="1.11147">
        <ele>117.3</ele>
        <time>2018-12-09T08:40:18Z</time>
      </trkpt>
      <trkpt lat="49.04298" lon="1.11154">
        <ele>116.8</ele>
        <time>2018-12-09T08:40:20Z</time>
      </trkpt>
      <trkpt lat="49.04311" lon="1.11161">
        <ele>115.9</ele>
        <time>2018-12-09T08:40:23Z</time>
      </trkpt>
      <trkpt lat="49.04318" lon="1.1117">
        <ele>114.8</ele>
        <time>2018-12-09T08:40:25Z</time>
      </trkpt>
      <trkpt lat="49.04325" lon="1.11183">
        <ele>112.3</ele>
        <time>2018-12-09T08:40:28Z</time>
      </trkpt>
      <trkpt lat="49.04335" lon="1.11177">
        <ele>108.9</ele>
        <time>2018-12-09T08:40:32Z</time>
      </trkpt>
      <trkpt lat="49.04342" lon="1.11166">
        <ele>107.8</ele>
        <time>2018-12-09T08:40:35Z</time>
      </trkpt>
      <trkpt lat="49.04348" lon="1.11151">
        <ele>106.8</ele>
        <time>2018-12-09T08:40:38Z</time>
      </trkpt>
      <trkpt lat="49.04353" lon="1.11139">
        <ele>106.3</ele>
        <time>2018-12-09T08:40:40Z</time>
      </trkpt>
      <trkpt lat="49.04358" lon="1.11118">
        <ele>105.4</ele>
        <time>2018-12-09T08:40:43Z</time>
      </trkpt>
      <trkpt lat="49.04359" lon="1.11103">
        <ele>104.5</ele>
        <time>2018-12-09T08:40:45Z</time>
      </trkpt>
      <trkpt lat="49.04361" lon="1.11087">
        <ele>103.9</ele>
        <time>2018-12-09T08:40:47Z</time>
      </trkpt>
      <trkpt lat="49.04359" lon="1.11071">
        <ele>103.5</ele>
        <time>2018-12-09T08:40:49Z</time>
      </trkpt>
      <trkpt lat="49.04359" lon="1.11054">
        <ele>103.1</ele>
        <time>2018-12-09T08:40:51Z</time>
      </trkpt>
      <trkpt lat="49.04359" lon="1.11038">
        <ele>102.7</ele>
        <time>2018-12-09T08:40:53Z</time>
      </trkpt>
      <trkpt lat="49.04357" lon="1.1102">
        <ele>102.2</ele>
        <time>2018-12-09T08:40:55Z</time>
      </trkpt>
      <trkpt lat="49.04354" lon="1.11002">
        <ele>102.1</ele>
        <time>2018-12-09T08:40:57Z</time>
      </trkpt>
      <trkpt lat="49.04349" lon="1.10986">
        <ele>101.5</ele>
        <time>2018-12-09T08:40:59Z</time>
      </trkpt>
      <trkpt lat="49.04341" lon="1.10975">
        <ele>101.1</ele>
        <time>2018-12-09T08:41:01Z</time>
      </trkpt>
      <trkpt lat="49.04332" lon="1.10966">
        <ele>101</ele>
        <time>2018-12-09T08:41:03Z</time>
      </trkpt>
      <trkpt lat="49.04325" lon="1.10956">
        <ele>100.9</ele>
        <time>2018-12-09T08:41:06Z</time>
      </trkpt>
      <trkpt lat="49.04322" lon="1.10942">
        <ele>100.3</ele>
        <time>2018-12-09T08:41:09Z</time>
      </trkpt>
      <trkpt lat="49.04333" lon="1.10944">
        <ele>99.7</ele>
        <time>2018-12-09T08:41:15Z</time>
      </trkpt>
      <trkpt lat="49.04343" lon="1.10947">
        <ele>100.8</ele>
        <time>2018-12-09T08:41:21Z</time>
      </trkpt>
      <trkpt lat="49.04351" lon="1.10941">
        <ele>102.1</ele>
        <time>2018-12-09T08:41:25Z</time>
      </trkpt>
      <trkpt lat="49.04359" lon="1.10934">
        <ele>103.4</ele>
        <time>2018-12-09T08:41:29Z</time>
      </trkpt>
      <trkpt lat="49.04367" lon="1.10925">
        <ele>105.1</ele>
        <time>2018-12-09T08:41:33Z</time>
      </trkpt>
      <trkpt lat="49.04372" lon="1.10913">
        <ele>107.2</ele>
        <time>2018-12-09T08:41:40Z</time>
      </trkpt>
      <trkpt lat="49.04379" lon="1.10902">
        <ele>109.9</ele>
        <time>2018-12-09T08:41:47Z</time>
      </trkpt>
      <trkpt lat="49.04383" lon="1.10886">
        <ele>111.9</ele>
        <time>2018-12-09T08:41:53Z</time>
      </trkpt>
      <trkpt lat="49.04389" lon="1.10873">
        <ele>112.4</ele>
        <time>2018-12-09T08:41:57Z</time>
      </trkpt>
      <trkpt lat="49.04395" lon="1.10857">
        <ele>112.6</ele>
        <time>2018-12-09T08:42:01Z</time>
      </trkpt>
      <trkpt lat="49.04402" lon="1.10844">
        <ele>111.9</ele>
        <time>2018-12-09T08:42:05Z</time>
      </trkpt>
      <trkpt lat="49.04406" lon="1.10828">
        <ele>111.3</ele>
        <time>2018-12-09T08:42:07Z</time>
      </trkpt>
      <trkpt lat="49.0441" lon="1.10815">
        <ele>111</ele>
        <time>2018-12-09T08:42:10Z</time>
      </trkpt>
      <trkpt lat="49.04413" lon="1.10802">
        <ele>111.6</ele>
        <time>2018-12-09T08:42:13Z</time>
      </trkpt>
      <trkpt lat="49.04417" lon="1.10788">
        <ele>112.2</ele>
        <time>2018-12-09T08:42:17Z</time>
      </trkpt>
      <trkpt lat="49.04419" lon="1.10774">
        <ele>112.7</ele>
        <time>2018-12-09T08:42:20Z</time>
      </trkpt>
      <trkpt lat="49.04424" lon="1.10759">
        <ele>113.1</ele>
        <time>2018-12-09T08:42:23Z</time>
      </trkpt>
      <trkpt lat="49.04429" lon="1.10746">
        <ele>113.1</ele>
        <time>2018-12-09T08:42:26Z</time>
      </trkpt>
      <trkpt lat="49.04434" lon="1.10731">
        <ele>112.9</ele>
        <time>2018-12-09T08:42:29Z</time>
      </trkpt>
      <trkpt lat="49.0444" lon="1.10717">
        <ele>113.3</ele>
        <time>2018-12-09T08:42:32Z</time>
      </trkpt>
      <trkpt lat="49.04445" lon="1.10702">
        <ele>114</ele>
        <time>2018-12-09T08:42:36Z</time>
      </trkpt>
      <trkpt lat="49.04451" lon="1.10688">
        <ele>114.2</ele>
        <time>2018-12-09T08:42:40Z</time>
      </trkpt>
      <trkpt lat="49.04455" lon="1.10676">
        <ele>114.6</ele>
        <time>2018-12-09T08:42:43Z</time>
      </trkpt>
      <trkpt lat="49.0446" lon="1.10662">
        <ele>115</ele>
        <time>2018-12-09T08:42:46Z</time>
      </trkpt>
      <trkpt lat="49.04465" lon="1.1065">
        <ele>115.4</ele>
        <time>2018-12-09T08:42:50Z</time>
      </trkpt>
      <trkpt lat="49.0447" lon="1.10638">
        <ele>115.6</ele>
        <time>2018-12-09T08:42:53Z</time>
      </trkpt>
      <trkpt lat="49.04474" lon="1.10626">
        <ele>115.7</ele>
        <time>2018-12-09T08:42:57Z</time>
      </trkpt>
      <trkpt lat="49.0448" lon="1.10614">
        <ele>115.6</ele>
        <time>2018-12-09T08:43:00Z</time>
      </trkpt>
      <trkpt lat="49.04487" lon="1.10604">
        <ele>116</ele>
        <time>2018-12-09T08:43:03Z</time>
      </trkpt>
      <trkpt lat="49.04493" lon="1.10592">
        <ele>117</ele>
        <time>2018-12-09T08:43:07Z</time>
      </trkpt>
      <trkpt lat="49.04497" lon="1.10605">
        <ele>118.3</ele>
        <time>2018-12-09T08:43:15Z</time>
      </trkpt>
      <trkpt lat="49.04498" lon="1.1062">
        <ele>118.6</ele>
        <time>2018-12-09T08:43:19Z</time>
      </trkpt>
      <trkpt lat="49.04498" lon="1.10637">
        <ele>118.8</ele>
        <time>2018-12-09T08:43:24Z</time>
      </trkpt>
      <trkpt lat="49.045" lon="1.10651">
        <ele>119.1</ele>
        <time>2018-12-09T08:43:28Z</time>
      </trkpt>
      <trkpt lat="49.04499" lon="1.10665">
        <ele>119.6</ele>
        <time>2018-12-09T08:43:32Z</time>
      </trkpt>
      <trkpt lat="49.04498" lon="1.10682">
        <ele>119.8</ele>
        <time>2018-12-09T08:43:36Z</time>
      </trkpt>
      <trkpt lat="49.04499" lon="1.10697">
        <ele>120.1</ele>
        <time>2018-12-09T08:43:40Z</time>
      </trkpt>
      <trkpt lat="49.04509" lon="1.107">
        <ele>120</ele>
        <time>2018-12-09T08:43:45Z</time>
      </trkpt>
      <trkpt lat="49.0452" lon="1.10703">
        <ele>120.8</ele>
        <time>2018-12-09T08:43:49Z</time>
      </trkpt>
      <trkpt lat="49.0453" lon="1.10702">
        <ele>121.5</ele>
        <time>2018-12-09T08:43:52Z</time>
      </trkpt>
      <trkpt lat="49.04539" lon="1.10705">
        <ele>121.9</ele>
        <time>2018-12-09T08:43:55Z</time>
      </trkpt>
      <trkpt lat="49.04548" lon="1.10712">
        <ele>122.3</ele>
        <time>2018-12-09T08:43:58Z</time>
      </trkpt>
      <trkpt lat="49.04559" lon="1.10714">
        <ele>122.7</ele>
        <time>2018-12-09T08:44:02Z</time>
      </trkpt>
      <trkpt lat="49.04571" lon="1.10712">
        <ele>123.2</ele>
        <time>2018-12-09T08:44:05Z</time>
      </trkpt>
      <trkpt lat="49.04582" lon="1.10711">
        <ele>123.4</ele>
        <time>2018-12-09T08:44:08Z</time>
      </trkpt>
      <trkpt lat="49.04591" lon="1.10709">
        <ele>123.8</ele>
        <time>2018-12-09T08:44:10Z</time>
      </trkpt>
      <trkpt lat="49.04602" lon="1.10713">
        <ele>124</ele>
        <time>2018-12-09T08:44:13Z</time>
      </trkpt>
      <trkpt lat="49.04611" lon="1.1072">
        <ele>124.5</ele>
        <time>2018-12-09T08:44:16Z</time>
      </trkpt>
      <trkpt lat="49.04618" lon="1.1073">
        <ele>124.9</ele>
        <time>2018-12-09T08:44:19Z</time>
      </trkpt>
      <trkpt lat="49.04626" lon="1.1074">
        <ele>125.3</ele>
        <time>2018-12-09T08:44:22Z</time>
      </trkpt>
      <trkpt lat="49.0463" lon="1.10755">
        <ele>125.3</ele>
        <time>2018-12-09T08:44:25Z</time>
      </trkpt>
      <trkpt lat="49.04637" lon="1.1077">
        <ele>125.6</ele>
        <time>2018-12-09T08:44:28Z</time>
      </trkpt>
      <trkpt lat="49.04646" lon="1.10769">
        <ele>125.3</ele>
        <time>2018-12-09T08:44:32Z</time>
      </trkpt>
      <trkpt lat="49.04652" lon="1.10758">
        <ele>125.4</ele>
        <time>2018-12-09T08:44:36Z</time>
      </trkpt>
      <trkpt lat="49.04661" lon="1.10749">
        <ele>125.2</ele>
        <time>2018-12-09T08:44:39Z</time>
      </trkpt>
      <trkpt lat="49.04671" lon="1.10744">
        <ele>125</ele>
        <time>2018-12-09T08:44:42Z</time>
      </trkpt>
      <trkpt lat="49.04679" lon="1.10751">
        <ele>125.7</ele>
        <time>2018-12-09T08:44:46Z</time>
      </trkpt>
      <trkpt lat="49.04689" lon="1.10758">
        <ele>126.7</ele>
        <time>2018-12-09T08:44:49Z</time>
      </trkpt>
      <trkpt lat="49.047" lon="1.10764">
        <ele>127.4</ele>
        <time>2018-12-09T08:44:52Z</time>
      </trkpt>
      <trkpt lat="49.0471" lon="1.1077">
        <ele>127.4</ele>
        <time>2018-12-09T08:44:55Z</time>
      </trkpt>
      <trkpt lat="49.04716" lon="1.10783">
        <ele>127.6</ele>
        <time>2018-12-09T08:44:58Z</time>
      </trkpt>
      <trkpt lat="49.04718" lon="1.10801">
        <ele>127.7</ele>
        <time>2018-12-09T08:45:01Z</time>
      </trkpt>
      <trkpt lat="49.04717" lon="1.10821">
        <ele>127.6</ele>
        <time>2018-12-09T08:45:04Z</time>
      </trkpt>
      <trkpt lat="49.04716" lon="1.10836">
        <ele>127.6</ele>
        <time>2018-12-09T08:45:07Z</time>
      </trkpt>
      <trkpt lat="49.04715" lon="1.1085">
        <ele>127.5</ele>
        <time>2018-12-09T08:45:09Z</time>
      </trkpt>
      <trkpt lat="49.04714" lon="1.10864">
        <ele>127.5</ele>
        <time>2018-12-09T08:45:11Z</time>
      </trkpt>
      <trkpt lat="49.04706" lon="1.1088">
        <ele>127.2</ele>
        <time>2018-12-09T08:45:14Z</time>
      </trkpt>
      <trkpt lat="49.04701" lon="1.10891">
        <ele>127</ele>
        <time>2018-12-09T08:45:16Z</time>
      </trkpt>
      <trkpt lat="49.04695" lon="1.10904">
        <ele>126.8</ele>
        <time>2018-12-09T08:45:18Z</time>
      </trkpt>
      <trkpt lat="49.04689" lon="1.1092">
        <ele>126.4</ele>
        <time>2018-12-09T08:45:21Z</time>
      </trkpt>
      <trkpt lat="49.04683" lon="1.10934">
        <ele>126.1</ele>
        <time>2018-12-09T08:45:23Z</time>
      </trkpt>
      <trkpt lat="49.04676" lon="1.10945">
        <ele>125.9</ele>
        <time>2018-12-09T08:45:25Z</time>
      </trkpt>
      <trkpt lat="49.04667" lon="1.10955">
        <ele>125.7</ele>
        <time>2018-12-09T08:45:27Z</time>
      </trkpt>
      <trkpt lat="49.04656" lon="1.10966">
        <ele>125.5</ele>
        <time>2018-12-09T08:45:30Z</time>
      </trkpt>
      <trkpt lat="49.04649" lon="1.10974">
        <ele>125.1</ele>
        <time>2018-12-09T08:45:32Z</time>
      </trkpt>
      <trkpt lat="49.04642" lon="1.10983">
        <ele>125</ele>
        <time>2018-12-09T08:45:34Z</time>
      </trkpt>
      <trkpt lat="49.04634" lon="1.10992">
        <ele>125</ele>
        <time>2018-12-09T08:45:36Z</time>
      </trkpt>
      <trkpt lat="49.04624" lon="1.11008">
        <ele>124.5</ele>
        <time>2018-12-09T08:45:39Z</time>
      </trkpt>
      <trkpt lat="49.04616" lon="1.11017">
        <ele>124.3</ele>
        <time>2018-12-09T08:45:41Z</time>
      </trkpt>
      <trkpt lat="49.04607" lon="1.11022">
        <ele>124.2</ele>
        <time>2018-12-09T08:45:43Z</time>
      </trkpt>
      <trkpt lat="49.04599" lon="1.1103">
        <ele>124.2</ele>
        <time>2018-12-09T08:45:45Z</time>
      </trkpt>
      <trkpt lat="49.04593" lon="1.1104">
        <ele>123.8</ele>
        <time>2018-12-09T08:45:47Z</time>
      </trkpt>
      <trkpt lat="49.04587" lon="1.11051">
        <ele>123.7</ele>
        <time>2018-12-09T08:45:49Z</time>
      </trkpt>
      <trkpt lat="49.04579" lon="1.11066">
        <ele>123.7</ele>
        <time>2018-12-09T08:45:52Z</time>
      </trkpt>
      <trkpt lat="49.04571" lon="1.11082">
        <ele>123.7</ele>
        <time>2018-12-09T08:45:55Z</time>
      </trkpt>
      <trkpt lat="49.04564" lon="1.11093">
        <ele>123.6</ele>
        <time>2018-12-09T08:45:57Z</time>
      </trkpt>
      <trkpt lat="49.04556" lon="1.11102">
        <ele>123.5</ele>
        <time>2018-12-09T08:45:59Z</time>
      </trkpt>
      <trkpt lat="49.04548" lon="1.11111">
        <ele>123.3</ele>
        <time>2018-12-09T08:46:01Z</time>
      </trkpt>
      <trkpt lat="49.04539" lon="1.1112">
        <ele>123.1</ele>
        <time>2018-12-09T08:46:03Z</time>
      </trkpt>
      <trkpt lat="49.0453" lon="1.11131">
        <ele>122.9</ele>
        <time>2018-12-09T08:46:05Z</time>
      </trkpt>
      <trkpt lat="49.04522" lon="1.11139">
        <ele>122.7</ele>
        <time>2018-12-09T08:46:07Z</time>
      </trkpt>
      <trkpt lat="49.04512" lon="1.1115">
        <ele>122.7</ele>
        <time>2018-12-09T08:46:10Z</time>
      </trkpt>
      <trkpt lat="49.04513" lon="1.11166">
        <ele>122.6</ele>
        <time>2018-12-09T08:46:14Z</time>
      </trkpt>
      <trkpt lat="49.04517" lon="1.1118">
        <ele>122.8</ele>
        <time>2018-12-09T08:46:17Z</time>
      </trkpt>
      <trkpt lat="49.04519" lon="1.11196">
        <ele>122.8</ele>
        <time>2018-12-09T08:46:20Z</time>
      </trkpt>
      <trkpt lat="49.04521" lon="1.11211">
        <ele>122.9</ele>
        <time>2018-12-09T08:46:23Z</time>
      </trkpt>
      <trkpt lat="49.04524" lon="1.11225">
        <ele>123.1</ele>
        <time>2018-12-09T08:46:26Z</time>
      </trkpt>
      <trkpt lat="49.04527" lon="1.1124">
        <ele>123</ele>
        <time>2018-12-09T08:46:29Z</time>
      </trkpt>
      <trkpt lat="49.0453" lon="1.11258">
        <ele>122.6</ele>
        <time>2018-12-09T08:46:32Z</time>
      </trkpt>
      <trkpt lat="49.04534" lon="1.11276">
        <ele>122.5</ele>
        <time>2018-12-09T08:46:35Z</time>
      </trkpt>
      <trkpt lat="49.0454" lon="1.11294">
        <ele>122.1</ele>
        <time>2018-12-09T08:46:38Z</time>
      </trkpt>
      <trkpt lat="49.04545" lon="1.11313">
        <ele>122.2</ele>
        <time>2018-12-09T08:46:41Z</time>
      </trkpt>
      <trkpt lat="49.0455" lon="1.11329">
        <ele>123</ele>
        <time>2018-12-09T08:46:44Z</time>
      </trkpt>
      <trkpt lat="49.04555" lon="1.11344">
        <ele>123.5</ele>
        <time>2018-12-09T08:46:47Z</time>
      </trkpt>
      <trkpt lat="49.0456" lon="1.11359">
        <ele>123.8</ele>
        <time>2018-12-09T08:46:50Z</time>
      </trkpt>
      <trkpt lat="49.04565" lon="1.11375">
        <ele>123.8</ele>
        <time>2018-12-09T08:46:53Z</time>
      </trkpt>
      <trkpt lat="49.04568" lon="1.11391">
        <ele>123.8</ele>
        <time>2018-12-09T08:46:55Z</time>
      </trkpt>
      <trkpt lat="49.04569" lon="1.11412">
        <ele>124</ele>
        <time>2018-12-09T08:46:58Z</time>
      </trkpt>
      <trkpt lat="49.04572" lon="1.11426">
        <ele>124.1</ele>
        <time>2018-12-09T08:47:00Z</time>
      </trkpt>
      <trkpt lat="49.04577" lon="1.11438">
        <ele>124.1</ele>
        <time>2018-12-09T08:47:02Z</time>
      </trkpt>
      <trkpt lat="49.04583" lon="1.11449">
        <ele>124.1</ele>
        <time>2018-12-09T08:47:04Z</time>
      </trkpt>
      <trkpt lat="49.04588" lon="1.11462">
        <ele>124.1</ele>
        <time>2018-12-09T08:47:07Z</time>
      </trkpt>
      <trkpt lat="49.04596" lon="1.11472">
        <ele>123.8</ele>
        <time>2018-12-09T08:47:09Z</time>
      </trkpt>
      <trkpt lat="49.04605" lon="1.1148">
        <ele>124</ele>
        <time>2018-12-09T08:47:11Z</time>
      </trkpt>
      <trkpt lat="49.04617" lon="1.11482">
        <ele>124</ele>
        <time>2018-12-09T08:47:14Z</time>
      </trkpt>
      <trkpt lat="49.04626" lon="1.11486">
        <ele>123.8</ele>
        <time>2018-12-09T08:47:17Z</time>
      </trkpt>
      <trkpt lat="49.04638" lon="1.11487">
        <ele>123.6</ele>
        <time>2018-12-09T08:47:20Z</time>
      </trkpt>
      <trkpt lat="49.04649" lon="1.11491">
        <ele>123.4</ele>
        <time>2018-12-09T08:47:22Z</time>
      </trkpt>
      <trkpt lat="49.04658" lon="1.11497">
        <ele>123.2</ele>
        <time>2018-12-09T08:47:24Z</time>
      </trkpt>
      <trkpt lat="49.04667" lon="1.11501">
        <ele>122.9</ele>
        <time>2018-12-09T08:47:26Z</time>
      </trkpt>
      <trkpt lat="49.0468" lon="1.11504">
        <ele>122.9</ele>
        <time>2018-12-09T08:47:28Z</time>
      </trkpt>
      <trkpt lat="49.04692" lon="1.11507">
        <ele>122.9</ele>
        <time>2018-12-09T08:47:30Z</time>
      </trkpt>
      <trkpt lat="49.04702" lon="1.11513">
        <ele>122.8</ele>
        <time>2018-12-09T08:47:32Z</time>
      </trkpt>
      <trkpt lat="49.04713" lon="1.11516">
        <ele>122.6</ele>
        <time>2018-12-09T08:47:34Z</time>
      </trkpt>
      <trkpt lat="49.04723" lon="1.11521">
        <ele>122.4</ele>
        <time>2018-12-09T08:47:36Z</time>
      </trkpt>
      <trkpt lat="49.04733" lon="1.11525">
        <ele>122.1</ele>
        <time>2018-12-09T08:47:38Z</time>
      </trkpt>
      <trkpt lat="49.04744" lon="1.11529">
        <ele>122</ele>
        <time>2018-12-09T08:47:40Z</time>
      </trkpt>
      <trkpt lat="49.04754" lon="1.11533">
        <ele>121.9</ele>
        <time>2018-12-09T08:47:42Z</time>
      </trkpt>
      <trkpt lat="49.04764" lon="1.11537">
        <ele>122.2</ele>
        <time>2018-12-09T08:47:44Z</time>
      </trkpt>
      <trkpt lat="49.04774" lon="1.11541">
        <ele>122.2</ele>
        <time>2018-12-09T08:47:46Z</time>
      </trkpt>
      <trkpt lat="49.04784" lon="1.11545">
        <ele>122.3</ele>
        <time>2018-12-09T08:47:48Z</time>
      </trkpt>
      <trkpt lat="49.04794" lon="1.11548">
        <ele>122.3</ele>
        <time>2018-12-09T08:47:50Z</time>
      </trkpt>
      <trkpt lat="49.04804" lon="1.11551">
        <ele>122.5</ele>
        <time>2018-12-09T08:47:52Z</time>
      </trkpt>
      <trkpt lat="49.04814" lon="1.11556">
        <ele>122.5</ele>
        <time>2018-12-09T08:47:54Z</time>
      </trkpt>
      <trkpt lat="49.04823" lon="1.11561">
        <ele>122.7</ele>
        <time>2018-12-09T08:47:56Z</time>
      </trkpt>
      <trkpt lat="49.04832" lon="1.11567">
        <ele>122.8</ele>
        <time>2018-12-09T08:47:58Z</time>
      </trkpt>
      <trkpt lat="49.04841" lon="1.11574">
        <ele>122.9</ele>
        <time>2018-12-09T08:48:00Z</time>
      </trkpt>
      <trkpt lat="49.04849" lon="1.1158">
        <ele>123.1</ele>
        <time>2018-12-09T08:48:02Z</time>
      </trkpt>
      <trkpt lat="49.04857" lon="1.11587">
        <ele>123.4</ele>
        <time>2018-12-09T08:48:04Z</time>
      </trkpt>
      <trkpt lat="49.04866" lon="1.11594">
        <ele>123.4</ele>
        <time>2018-12-09T08:48:06Z</time>
      </trkpt>
      <trkpt lat="49.04874" lon="1.11602">
        <ele>123.4</ele>
        <time>2018-12-09T08:48:08Z</time>
      </trkpt>
      <trkpt lat="49.04885" lon="1.11613">
        <ele>124</ele>
        <time>2018-12-09T08:48:11Z</time>
      </trkpt>
      <trkpt lat="49.04895" lon="1.11625">
        <ele>124.4</ele>
        <time>2018-12-09T08:48:14Z</time>
      </trkpt>
      <trkpt lat="49.04905" lon="1.11635">
        <ele>124.6</ele>
        <time>2018-12-09T08:48:17Z</time>
      </trkpt>
      <trkpt lat="49.04915" lon="1.11639">
        <ele>124.7</ele>
        <time>2018-12-09T08:48:20Z</time>
      </trkpt>
      <trkpt lat="49.04926" lon="1.1163">
        <ele>124.8</ele>
        <time>2018-12-09T08:48:23Z</time>
      </trkpt>
      <trkpt lat="49.04933" lon="1.11621">
        <ele>124.8</ele>
        <time>2018-12-09T08:48:25Z</time>
      </trkpt>
      <trkpt lat="49.04943" lon="1.11609">
        <ele>125</ele>
        <time>2018-12-09T08:48:28Z</time>
      </trkpt>
      <trkpt lat="49.04951" lon="1.11597">
        <ele>124.9</ele>
        <time>2018-12-09T08:48:31Z</time>
      </trkpt>
      <trkpt lat="49.04961" lon="1.11587">
        <ele>125</ele>
        <time>2018-12-09T08:48:34Z</time>
      </trkpt>
      <trkpt lat="49.04972" lon="1.11577">
        <ele>124.9</ele>
        <time>2018-12-09T08:48:37Z</time>
      </trkpt>
      <trkpt lat="49.04984" lon="1.1157">
        <ele>125.1</ele>
        <time>2018-12-09T08:48:40Z</time>
      </trkpt>
      <trkpt lat="49.04996" lon="1.11563">
        <ele>125.3</ele>
        <time>2018-12-09T08:48:43Z</time>
      </trkpt>
      <trkpt lat="49.05008" lon="1.11557">
        <ele>125.8</ele>
        <time>2018-12-09T08:48:46Z</time>
      </trkpt>
      <trkpt lat="49.05021" lon="1.1155">
        <ele>126.5</ele>
        <time>2018-12-09T08:48:49Z</time>
      </trkpt>
      <trkpt lat="49.05033" lon="1.11542">
        <ele>126.7</ele>
        <time>2018-12-09T08:48:52Z</time>
      </trkpt>
      <trkpt lat="49.05041" lon="1.11537">
        <ele>127.1</ele>
        <time>2018-12-09T08:48:54Z</time>
      </trkpt>
      <trkpt lat="49.0505" lon="1.11531">
        <ele>127.2</ele>
        <time>2018-12-09T08:48:56Z</time>
      </trkpt>
      <trkpt lat="49.05059" lon="1.11526">
        <ele>127.3</ele>
        <time>2018-12-09T08:48:58Z</time>
      </trkpt>
      <trkpt lat="49.05068" lon="1.1152">
        <ele>127.5</ele>
        <time>2018-12-09T08:49:00Z</time>
      </trkpt>
      <trkpt lat="49.05076" lon="1.11514">
        <ele>127.6</ele>
        <time>2018-12-09T08:49:02Z</time>
      </trkpt>
      <trkpt lat="49.05085" lon="1.11508">
        <ele>127.5</ele>
        <time>2018-12-09T08:49:04Z</time>
      </trkpt>
      <trkpt lat="49.05094" lon="1.11503">
        <ele>127.4</ele>
        <time>2018-12-09T08:49:06Z</time>
      </trkpt>
      <trkpt lat="49.05103" lon="1.11498">
        <ele>127.2</ele>
        <time>2018-12-09T08:49:08Z</time>
      </trkpt>
      <trkpt lat="49.05115" lon="1.11506">
        <ele>127.2</ele>
        <time>2018-12-09T08:49:11Z</time>
      </trkpt>
      <trkpt lat="49.0512" lon="1.11518">
        <ele>127.3</ele>
        <time>2018-12-09T08:49:13Z</time>
      </trkpt>
      <trkpt lat="49.05125" lon="1.11531">
        <ele>127.4</ele>
        <time>2018-12-09T08:49:15Z</time>
      </trkpt>
      <trkpt lat="49.0513" lon="1.11543">
        <ele>127.4</ele>
        <time>2018-12-09T08:49:17Z</time>
      </trkpt>
      <trkpt lat="49.05136" lon="1.11556">
        <ele>127.4</ele>
        <time>2018-12-09T08:49:19Z</time>
      </trkpt>
      <trkpt lat="49.05141" lon="1.11569">
        <ele>127.5</ele>
        <time>2018-12-09T08:49:21Z</time>
      </trkpt>
      <trkpt lat="49.05147" lon="1.11582">
        <ele>127.5</ele>
        <time>2018-12-09T08:49:23Z</time>
      </trkpt>
      <trkpt lat="49.05153" lon="1.11593">
        <ele>127.5</ele>
        <time>2018-12-09T08:49:25Z</time>
      </trkpt>
      <trkpt lat="49.05163" lon="1.11595">
        <ele>127.6</ele>
        <time>2018-12-09T08:49:27Z</time>
      </trkpt>
      <trkpt lat="49.05173" lon="1.11591">
        <ele>127.8</ele>
        <time>2018-12-09T08:49:29Z</time>
      </trkpt>
      <trkpt lat="49.05182" lon="1.11584">
        <ele>128.1</ele>
        <time>2018-12-09T08:49:31Z</time>
      </trkpt>
      <trkpt lat="49.05191" lon="1.11577">
        <ele>128.3</ele>
        <time>2018-12-09T08:49:33Z</time>
      </trkpt>
      <trkpt lat="49.052" lon="1.1157">
        <ele>128.5</ele>
        <time>2018-12-09T08:49:35Z</time>
      </trkpt>
      <trkpt lat="49.05208" lon="1.11562">
        <ele>128.7</ele>
        <time>2018-12-09T08:49:37Z</time>
      </trkpt>
      <trkpt lat="49.05217" lon="1.11555">
        <ele>128.8</ele>
        <time>2018-12-09T08:49:39Z</time>
      </trkpt>
      <trkpt lat="49.05227" lon="1.11548">
        <ele>129.5</ele>
        <time>2018-12-09T08:49:41Z</time>
      </trkpt>
      <trkpt lat="49.05235" lon="1.11541">
        <ele>129.6</ele>
        <time>2018-12-09T08:49:43Z</time>
      </trkpt>
      <trkpt lat="49.05244" lon="1.11534">
        <ele>129.7</ele>
        <time>2018-12-09T08:49:45Z</time>
      </trkpt>
      <trkpt lat="49.05252" lon="1.11527">
        <ele>129.4</ele>
        <time>2018-12-09T08:49:47Z</time>
      </trkpt>
      <trkpt lat="49.05259" lon="1.11517">
        <ele>129.1</ele>
        <time>2018-12-09T08:49:49Z</time>
      </trkpt>
      <trkpt lat="49.0527" lon="1.11506">
        <ele>129.2</ele>
        <time>2018-12-09T08:49:52Z</time>
      </trkpt>
      <trkpt lat="49.0528" lon="1.11495">
        <ele>129.2</ele>
        <time>2018-12-09T08:49:55Z</time>
      </trkpt>
      <trkpt lat="49.05291" lon="1.11484">
        <ele>129.2</ele>
        <time>2018-12-09T08:49:58Z</time>
      </trkpt>
      <trkpt lat="49.05299" lon="1.11477">
        <ele>129.8</ele>
        <time>2018-12-09T08:50:00Z</time>
      </trkpt>
      <trkpt lat="49.05307" lon="1.11469">
        <ele>130.2</ele>
        <time>2018-12-09T08:50:02Z</time>
      </trkpt>
      <trkpt lat="49.05314" lon="1.11461">
        <ele>130.1</ele>
        <time>2018-12-09T08:50:04Z</time>
      </trkpt>
      <trkpt lat="49.05322" lon="1.11452">
        <ele>130.1</ele>
        <time>2018-12-09T08:50:06Z</time>
      </trkpt>
      <trkpt lat="49.05333" lon="1.11442">
        <ele>130.2</ele>
        <time>2018-12-09T08:50:09Z</time>
      </trkpt>
      <trkpt lat="49.05344" lon="1.11433">
        <ele>130.7</ele>
        <time>2018-12-09T08:50:12Z</time>
      </trkpt>
      <trkpt lat="49.05355" lon="1.11425">
        <ele>130.8</ele>
        <time>2018-12-09T08:50:15Z</time>
      </trkpt>
      <trkpt lat="49.05367" lon="1.11417">
        <ele>131.3</ele>
        <time>2018-12-09T08:50:18Z</time>
      </trkpt>
      <trkpt lat="49.0538" lon="1.11411">
        <ele>131.2</ele>
        <time>2018-12-09T08:50:21Z</time>
      </trkpt>
      <trkpt lat="49.05392" lon="1.11406">
        <ele>131.8</ele>
        <time>2018-12-09T08:50:24Z</time>
      </trkpt>
      <trkpt lat="49.05404" lon="1.11402">
        <ele>131.7</ele>
        <time>2018-12-09T08:50:27Z</time>
      </trkpt>
      <trkpt lat="49.05416" lon="1.11397">
        <ele>131.9</ele>
        <time>2018-12-09T08:50:30Z</time>
      </trkpt>
      <trkpt lat="49.05428" lon="1.11391">
        <ele>132.2</ele>
        <time>2018-12-09T08:50:33Z</time>
      </trkpt>
      <trkpt lat="49.0544" lon="1.11384">
        <ele>132.1</ele>
        <time>2018-12-09T08:50:36Z</time>
      </trkpt>
      <trkpt lat="49.05452" lon="1.11379">
        <ele>131.5</ele>
        <time>2018-12-09T08:50:39Z</time>
      </trkpt>
      <trkpt lat="49.05465" lon="1.11375">
        <ele>131.2</ele>
        <time>2018-12-09T08:50:42Z</time>
      </trkpt>
      <trkpt lat="49.05478" lon="1.11373">
        <ele>131</ele>
        <time>2018-12-09T08:50:45Z</time>
      </trkpt>
      <trkpt lat="49.05491" lon="1.11371">
        <ele>131</ele>
        <time>2018-12-09T08:50:48Z</time>
      </trkpt>
      <trkpt lat="49.05503" lon="1.11369">
        <ele>131.2</ele>
        <time>2018-12-09T08:50:51Z</time>
      </trkpt>
      <trkpt lat="49.05515" lon="1.11367">
        <ele>131.6</ele>
        <time>2018-12-09T08:50:54Z</time>
      </trkpt>
      <trkpt lat="49.05528" lon="1.11366">
        <ele>132</ele>
        <time>2018-12-09T08:50:57Z</time>
      </trkpt>
      <trkpt lat="49.05539" lon="1.11369">
        <ele>132.2</ele>
        <time>2018-12-09T08:51:00Z</time>
      </trkpt>
      <trkpt lat="49.05549" lon="1.11367">
        <ele>132.6</ele>
        <time>2018-12-09T08:51:02Z</time>
      </trkpt>
      <trkpt lat="49.05559" lon="1.11366">
        <ele>132.7</ele>
        <time>2018-12-09T08:51:04Z</time>
      </trkpt>
      <trkpt lat="49.05569" lon="1.11364">
        <ele>133</ele>
        <time>2018-12-09T08:51:06Z</time>
      </trkpt>
      <trkpt lat="49.05579" lon="1.11362">
        <ele>133.2</ele>
        <time>2018-12-09T08:51:08Z</time>
      </trkpt>
      <trkpt lat="49.0559" lon="1.1136">
        <ele>133.2</ele>
        <time>2018-12-09T08:51:10Z</time>
      </trkpt>
      <trkpt lat="49.05601" lon="1.11358">
        <ele>133.4</ele>
        <time>2018-12-09T08:51:12Z</time>
      </trkpt>
      <trkpt lat="49.05612" lon="1.11356">
        <ele>133.3</ele>
        <time>2018-12-09T08:51:14Z</time>
      </trkpt>
      <trkpt lat="49.05624" lon="1.11353">
        <ele>132.9</ele>
        <time>2018-12-09T08:51:16Z</time>
      </trkpt>
      <trkpt lat="49.05635" lon="1.1135">
        <ele>132.8</ele>
        <time>2018-12-09T08:51:18Z</time>
      </trkpt>
      <trkpt lat="49.05646" lon="1.11347">
        <ele>132.9</ele>
        <time>2018-12-09T08:51:20Z</time>
      </trkpt>
      <trkpt lat="49.05657" lon="1.11344">
        <ele>133.1</ele>
        <time>2018-12-09T08:51:22Z</time>
      </trkpt>
      <trkpt lat="49.05667" lon="1.11341">
        <ele>133</ele>
        <time>2018-12-09T08:51:24Z</time>
      </trkpt>
      <trkpt lat="49.05677" lon="1.11338">
        <ele>132.5</ele>
        <time>2018-12-09T08:51:26Z</time>
      </trkpt>
      <trkpt lat="49.05687" lon="1.11335">
        <ele>132.7</ele>
        <time>2018-12-09T08:51:28Z</time>
      </trkpt>
      <trkpt lat="49.057" lon="1.1133">
        <ele>132.6</ele>
        <time>2018-12-09T08:51:31Z</time>
      </trkpt>
      <trkpt lat="49.05712" lon="1.11326">
        <ele>132.8</ele>
        <time>2018-12-09T08:51:34Z</time>
      </trkpt>
      <trkpt lat="49.05724" lon="1.11319">
        <ele>132.4</ele>
        <time>2018-12-09T08:51:37Z</time>
      </trkpt>
      <trkpt lat="49.05735" lon="1.1131">
        <ele>132.1</ele>
        <time>2018-12-09T08:51:40Z</time>
      </trkpt>
      <trkpt lat="49.05746" lon="1.11303">
        <ele>131.7</ele>
        <time>2018-12-09T08:51:43Z</time>
      </trkpt>
      <trkpt lat="49.05755" lon="1.11297">
        <ele>131.3</ele>
        <time>2018-12-09T08:51:46Z</time>
      </trkpt>
      <trkpt lat="49.05767" lon="1.11291">
        <ele>131</ele>
        <time>2018-12-09T08:51:50Z</time>
      </trkpt>
      <trkpt lat="49.05776" lon="1.11288">
        <ele>131.2</ele>
        <time>2018-12-09T08:51:53Z</time>
      </trkpt>
      <trkpt lat="49.05785" lon="1.11282">
        <ele>131.2</ele>
        <time>2018-12-09T08:51:56Z</time>
      </trkpt>
      <trkpt lat="49.05793" lon="1.11275">
        <ele>131</ele>
        <time>2018-12-09T08:51:59Z</time>
      </trkpt>
      <trkpt lat="49.05799" lon="1.11265">
        <ele>131.3</ele>
        <time>2018-12-09T08:52:02Z</time>
      </trkpt>
      <trkpt lat="49.05807" lon="1.11254">
        <ele>131.6</ele>
        <time>2018-12-09T08:52:07Z</time>
      </trkpt>
      <trkpt lat="49.05815" lon="1.11242">
        <ele>131.8</ele>
        <time>2018-12-09T08:52:11Z</time>
      </trkpt>
      <trkpt lat="49.05821" lon="1.11229">
        <ele>131.7</ele>
        <time>2018-12-09T08:52:14Z</time>
      </trkpt>
      <trkpt lat="49.05827" lon="1.11214">
        <ele>132.1</ele>
        <time>2018-12-09T08:52:17Z</time>
      </trkpt>
      <trkpt lat="49.05833" lon="1.11201">
        <ele>132.3</ele>
        <time>2018-12-09T08:52:20Z</time>
      </trkpt>
      <trkpt lat="49.05838" lon="1.11187">
        <ele>132.4</ele>
        <time>2018-12-09T08:52:23Z</time>
      </trkpt>
      <trkpt lat="49.05844" lon="1.11174">
        <ele>132.8</ele>
        <time>2018-12-09T08:52:26Z</time>
      </trkpt>
      <trkpt lat="49.05849" lon="1.1116">
        <ele>133.2</ele>
        <time>2018-12-09T08:52:29Z</time>
      </trkpt>
      <trkpt lat="49.05855" lon="1.11146">
        <ele>133.4</ele>
        <time>2018-12-09T08:52:32Z</time>
      </trkpt>
      <trkpt lat="49.0586" lon="1.11133">
        <ele>133.4</ele>
        <time>2018-12-09T08:52:35Z</time>
      </trkpt>
      <trkpt lat="49.05864" lon="1.1112">
        <ele>133.6</ele>
        <time>2018-12-09T08:52:38Z</time>
      </trkpt>
      <trkpt lat="49.05869" lon="1.11107">
        <ele>133.7</ele>
        <time>2018-12-09T08:52:41Z</time>
      </trkpt>
      <trkpt lat="49.05874" lon="1.11093">
        <ele>133.4</ele>
        <time>2018-12-09T08:52:44Z</time>
      </trkpt>
      <trkpt lat="49.05878" lon="1.11079">
        <ele>133.3</ele>
        <time>2018-12-09T08:52:47Z</time>
      </trkpt>
      <trkpt lat="49.05882" lon="1.11065">
        <ele>133.4</ele>
        <time>2018-12-09T08:52:50Z</time>
      </trkpt>
      <trkpt lat="49.05886" lon="1.11051">
        <ele>133.6</ele>
        <time>2018-12-09T08:52:53Z</time>
      </trkpt>
      <trkpt lat="49.05889" lon="1.11038">
        <ele>133.6</ele>
        <time>2018-12-09T08:52:56Z</time>
      </trkpt>
      <trkpt lat="49.05893" lon="1.11024">
        <ele>133.7</ele>
        <time>2018-12-09T08:52:59Z</time>
      </trkpt>
      <trkpt lat="49.05896" lon="1.11009">
        <ele>133.8</ele>
        <time>2018-12-09T08:53:02Z</time>
      </trkpt>
      <trkpt lat="49.059" lon="1.10995">
        <ele>134.1</ele>
        <time>2018-12-09T08:53:05Z</time>
      </trkpt>
      <trkpt lat="49.05905" lon="1.10982">
        <ele>134.6</ele>
        <time>2018-12-09T08:53:08Z</time>
      </trkpt>
      <trkpt lat="49.0591" lon="1.10968">
        <ele>134.6</ele>
        <time>2018-12-09T08:53:11Z</time>
      </trkpt>
      <trkpt lat="49.05916" lon="1.10956">
        <ele>135.1</ele>
        <time>2018-12-09T08:53:14Z</time>
      </trkpt>
      <trkpt lat="49.05922" lon="1.10943">
        <ele>135</ele>
        <time>2018-12-09T08:53:17Z</time>
      </trkpt>
      <trkpt lat="49.05928" lon="1.10931">
        <ele>135.1</ele>
        <time>2018-12-09T08:53:20Z</time>
      </trkpt>
      <trkpt lat="49.05935" lon="1.10919">
        <ele>135.1</ele>
        <time>2018-12-09T08:53:23Z</time>
      </trkpt>
      <trkpt lat="49.05943" lon="1.10908">
        <ele>135.2</ele>
        <time>2018-12-09T08:53:26Z</time>
      </trkpt>
      <trkpt lat="49.05954" lon="1.109">
        <ele>135.8</ele>
        <time>2018-12-09T08:53:29Z</time>
      </trkpt>
      <trkpt lat="49.05966" lon="1.10895">
        <ele>135.9</ele>
        <time>2018-12-09T08:53:32Z</time>
      </trkpt>
      <trkpt lat="49.0598" lon="1.10897">
        <ele>136</ele>
        <time>2018-12-09T08:53:35Z</time>
      </trkpt>
      <trkpt lat="49.05989" lon="1.109">
        <ele>135.7</ele>
        <time>2018-12-09T08:53:37Z</time>
      </trkpt>
      <trkpt lat="49.05998" lon="1.10903">
        <ele>135.7</ele>
        <time>2018-12-09T08:53:39Z</time>
      </trkpt>
      <trkpt lat="49.06007" lon="1.10907">
        <ele>135.9</ele>
        <time>2018-12-09T08:53:41Z</time>
      </trkpt>
      <trkpt lat="49.06017" lon="1.1091">
        <ele>135.9</ele>
        <time>2018-12-09T08:53:43Z</time>
      </trkpt>
      <trkpt lat="49.06026" lon="1.10913">
        <ele>135.8</ele>
        <time>2018-12-09T08:53:45Z</time>
      </trkpt>
      <trkpt lat="49.06036" lon="1.10915">
        <ele>135.9</ele>
        <time>2018-12-09T08:53:47Z</time>
      </trkpt>
      <trkpt lat="49.06046" lon="1.10918">
        <ele>135.7</ele>
        <time>2018-12-09T08:53:49Z</time>
      </trkpt>
      <trkpt lat="49.06055" lon="1.10919">
        <ele>135.5</ele>
        <time>2018-12-09T08:53:51Z</time>
      </trkpt>
      <trkpt lat="49.06064" lon="1.1092">
        <ele>135.8</ele>
        <time>2018-12-09T08:53:53Z</time>
      </trkpt>
      <trkpt lat="49.06077" lon="1.1092">
        <ele>136</ele>
        <time>2018-12-09T08:53:56Z</time>
      </trkpt>
      <trkpt lat="49.0609" lon="1.1092">
        <ele>136.2</ele>
        <time>2018-12-09T08:53:59Z</time>
      </trkpt>
      <trkpt lat="49.061" lon="1.10919">
        <ele>136.2</ele>
        <time>2018-12-09T08:54:01Z</time>
      </trkpt>
      <trkpt lat="49.06109" lon="1.10917">
        <ele>136.5</ele>
        <time>2018-12-09T08:54:03Z</time>
      </trkpt>
      <trkpt lat="49.06118" lon="1.10915">
        <ele>136.6</ele>
        <time>2018-12-09T08:54:05Z</time>
      </trkpt>
      <trkpt lat="49.06127" lon="1.10913">
        <ele>136.7</ele>
        <time>2018-12-09T08:54:07Z</time>
      </trkpt>
      <trkpt lat="49.06138" lon="1.10909">
        <ele>136.4</ele>
        <time>2018-12-09T08:54:09Z</time>
      </trkpt>
      <trkpt lat="49.06147" lon="1.10905">
        <ele>135.9</ele>
        <time>2018-12-09T08:54:11Z</time>
      </trkpt>
      <trkpt lat="49.06156" lon="1.109">
        <ele>135.7</ele>
        <time>2018-12-09T08:54:13Z</time>
      </trkpt>
      <trkpt lat="49.06165" lon="1.10894">
        <ele>135.8</ele>
        <time>2018-12-09T08:54:15Z</time>
      </trkpt>
      <trkpt lat="49.06174" lon="1.10889">
        <ele>135.4</ele>
        <time>2018-12-09T08:54:17Z</time>
      </trkpt>
      <trkpt lat="49.06183" lon="1.10884">
        <ele>135.3</ele>
        <time>2018-12-09T08:54:19Z</time>
      </trkpt>
      <trkpt lat="49.06191" lon="1.10878">
        <ele>135.4</ele>
        <time>2018-12-09T08:54:21Z</time>
      </trkpt>
      <trkpt lat="49.06203" lon="1.1087">
        <ele>135.2</ele>
        <time>2018-12-09T08:54:24Z</time>
      </trkpt>
      <trkpt lat="49.06215" lon="1.10862">
        <ele>135</ele>
        <time>2018-12-09T08:54:27Z</time>
      </trkpt>
      <trkpt lat="49.06227" lon="1.10853">
        <ele>134.6</ele>
        <time>2018-12-09T08:54:30Z</time>
      </trkpt>
      <trkpt lat="49.06239" lon="1.10844">
        <ele>133.8</ele>
        <time>2018-12-09T08:54:33Z</time>
      </trkpt>
      <trkpt lat="49.0625" lon="1.10834">
        <ele>133.3</ele>
        <time>2018-12-09T08:54:36Z</time>
      </trkpt>
      <trkpt lat="49.06261" lon="1.10825">
        <ele>133.5</ele>
        <time>2018-12-09T08:54:39Z</time>
      </trkpt>
      <trkpt lat="49.06273" lon="1.10815">
        <ele>133</ele>
        <time>2018-12-09T08:54:42Z</time>
      </trkpt>
      <trkpt lat="49.06284" lon="1.10806">
        <ele>132.9</ele>
        <time>2018-12-09T08:54:45Z</time>
      </trkpt>
      <trkpt lat="49.06296" lon="1.10797">
        <ele>132.3</ele>
        <time>2018-12-09T08:54:48Z</time>
      </trkpt>
      <trkpt lat="49.06308" lon="1.10787">
        <ele>132.2</ele>
        <time>2018-12-09T08:54:51Z</time>
      </trkpt>
      <trkpt lat="49.06316" lon="1.10782">
        <ele>132.2</ele>
        <time>2018-12-09T08:54:53Z</time>
      </trkpt>
      <trkpt lat="49.06327" lon="1.10773">
        <ele>131.9</ele>
        <time>2018-12-09T08:54:56Z</time>
      </trkpt>
      <trkpt lat="49.06339" lon="1.10763">
        <ele>132.1</ele>
        <time>2018-12-09T08:54:59Z</time>
      </trkpt>
      <trkpt lat="49.0635" lon="1.10753">
        <ele>131.9</ele>
        <time>2018-12-09T08:55:02Z</time>
      </trkpt>
      <trkpt lat="49.06358" lon="1.10745">
        <ele>131.6</ele>
        <time>2018-12-09T08:55:04Z</time>
      </trkpt>
      <trkpt lat="49.06368" lon="1.10734">
        <ele>131.8</ele>
        <time>2018-12-09T08:55:07Z</time>
      </trkpt>
      <trkpt lat="49.06378" lon="1.10723">
        <ele>131.8</ele>
        <time>2018-12-09T08:55:10Z</time>
      </trkpt>
      <trkpt lat="49.06388" lon="1.10713">
        <ele>131.3</ele>
        <time>2018-12-09T08:55:13Z</time>
      </trkpt>
      <trkpt lat="49.06397" lon="1.10702">
        <ele>131.1</ele>
        <time>2018-12-09T08:55:16Z</time>
      </trkpt>
      <trkpt lat="49.06406" lon="1.10693">
        <ele>131</ele>
        <time>2018-12-09T08:55:19Z</time>
      </trkpt>
      <trkpt lat="49.06414" lon="1.10684">
        <ele>131.1</ele>
        <time>2018-12-09T08:55:22Z</time>
      </trkpt>
      <trkpt lat="49.06423" lon="1.10675">
        <ele>131.1</ele>
        <time>2018-12-09T08:55:25Z</time>
      </trkpt>
      <trkpt lat="49.06433" lon="1.10667">
        <ele>131.2</ele>
        <time>2018-12-09T08:55:28Z</time>
      </trkpt>
      <trkpt lat="49.06443" lon="1.10657">
        <ele>131.2</ele>
        <time>2018-12-09T08:55:31Z</time>
      </trkpt>
      <trkpt lat="49.06453" lon="1.10647">
        <ele>131</ele>
        <time>2018-12-09T08:55:34Z</time>
      </trkpt>
      <trkpt lat="49.06462" lon="1.10637">
        <ele>131.9</ele>
        <time>2018-12-09T08:55:37Z</time>
      </trkpt>
      <trkpt lat="49.06472" lon="1.10627">
        <ele>131.8</ele>
        <time>2018-12-09T08:55:40Z</time>
      </trkpt>
      <trkpt lat="49.06482" lon="1.10616">
        <ele>131.7</ele>
        <time>2018-12-09T08:55:43Z</time>
      </trkpt>
      <trkpt lat="49.06492" lon="1.10605">
        <ele>131.8</ele>
        <time>2018-12-09T08:55:46Z</time>
      </trkpt>
      <trkpt lat="49.06503" lon="1.10594">
        <ele>131.3</ele>
        <time>2018-12-09T08:55:49Z</time>
      </trkpt>
      <trkpt lat="49.06513" lon="1.10583">
        <ele>131.2</ele>
        <time>2018-12-09T08:55:52Z</time>
      </trkpt>
      <trkpt lat="49.06524" lon="1.10572">
        <ele>130.9</ele>
        <time>2018-12-09T08:55:55Z</time>
      </trkpt>
      <trkpt lat="49.06534" lon="1.10561">
        <ele>130.9</ele>
        <time>2018-12-09T08:55:58Z</time>
      </trkpt>
      <trkpt lat="49.06544" lon="1.10551">
        <ele>130.9</ele>
        <time>2018-12-09T08:56:01Z</time>
      </trkpt>
      <trkpt lat="49.06554" lon="1.1054">
        <ele>131.1</ele>
        <time>2018-12-09T08:56:04Z</time>
      </trkpt>
      <trkpt lat="49.06563" lon="1.10531">
        <ele>131.1</ele>
        <time>2018-12-09T08:56:07Z</time>
      </trkpt>
      <trkpt lat="49.06574" lon="1.10521">
        <ele>130.8</ele>
        <time>2018-12-09T08:56:10Z</time>
      </trkpt>
      <trkpt lat="49.06584" lon="1.1051">
        <ele>131.2</ele>
        <time>2018-12-09T08:56:13Z</time>
      </trkpt>
      <trkpt lat="49.06593" lon="1.105">
        <ele>131.4</ele>
        <time>2018-12-09T08:56:16Z</time>
      </trkpt>
      <trkpt lat="49.06603" lon="1.10491">
        <ele>131.6</ele>
        <time>2018-12-09T08:56:19Z</time>
      </trkpt>
      <trkpt lat="49.06612" lon="1.10481">
        <ele>131.6</ele>
        <time>2018-12-09T08:56:22Z</time>
      </trkpt>
      <trkpt lat="49.06621" lon="1.10472">
        <ele>131.8</ele>
        <time>2018-12-09T08:56:25Z</time>
      </trkpt>
      <trkpt lat="49.0663" lon="1.10464">
        <ele>132.3</ele>
        <time>2018-12-09T08:56:28Z</time>
      </trkpt>
      <trkpt lat="49.06639" lon="1.10455">
        <ele>132.5</ele>
        <time>2018-12-09T08:56:31Z</time>
      </trkpt>
      <trkpt lat="49.06648" lon="1.10445">
        <ele>132.9</ele>
        <time>2018-12-09T08:56:34Z</time>
      </trkpt>
      <trkpt lat="49.06657" lon="1.10436">
        <ele>133</ele>
        <time>2018-12-09T08:56:37Z</time>
      </trkpt>
      <trkpt lat="49.06665" lon="1.10426">
        <ele>132.5</ele>
        <time>2018-12-09T08:56:40Z</time>
      </trkpt>
      <trkpt lat="49.06675" lon="1.10416">
        <ele>132.2</ele>
        <time>2018-12-09T08:56:43Z</time>
      </trkpt>
      <trkpt lat="49.06684" lon="1.10407">
        <ele>131.9</ele>
        <time>2018-12-09T08:56:46Z</time>
      </trkpt>
      <trkpt lat="49.06694" lon="1.10399">
        <ele>131.8</ele>
        <time>2018-12-09T08:56:49Z</time>
      </trkpt>
      <trkpt lat="49.06702" lon="1.10389">
        <ele>131.5</ele>
        <time>2018-12-09T08:56:52Z</time>
      </trkpt>
      <trkpt lat="49.06712" lon="1.1038">
        <ele>132</ele>
        <time>2018-12-09T08:56:55Z</time>
      </trkpt>
      <trkpt lat="49.06721" lon="1.1037">
        <ele>131.6</ele>
        <time>2018-12-09T08:56:58Z</time>
      </trkpt>
      <trkpt lat="49.06731" lon="1.1036">
        <ele>131</ele>
        <time>2018-12-09T08:57:01Z</time>
      </trkpt>
      <trkpt lat="49.06741" lon="1.10351">
        <ele>131.3</ele>
        <time>2018-12-09T08:57:04Z</time>
      </trkpt>
      <trkpt lat="49.06751" lon="1.1034">
        <ele>131.3</ele>
        <time>2018-12-09T08:57:07Z</time>
      </trkpt>
      <trkpt lat="49.06762" lon="1.1033">
        <ele>131.4</ele>
        <time>2018-12-09T08:57:10Z</time>
      </trkpt>
      <trkpt lat="49.06772" lon="1.1032">
        <ele>131.5</ele>
        <time>2018-12-09T08:57:13Z</time>
      </trkpt>
      <trkpt lat="49.06782" lon="1.1031">
        <ele>131.7</ele>
        <time>2018-12-09T08:57:16Z</time>
      </trkpt>
      <trkpt lat="49.06793" lon="1.103">
        <ele>131.6</ele>
        <time>2018-12-09T08:57:19Z</time>
      </trkpt>
      <trkpt lat="49.06804" lon="1.10289">
        <ele>131.5</ele>
        <time>2018-12-09T08:57:22Z</time>
      </trkpt>
      <trkpt lat="49.06815" lon="1.10278">
        <ele>131.7</ele>
        <time>2018-12-09T08:57:25Z</time>
      </trkpt>
      <trkpt lat="49.06823" lon="1.10271">
        <ele>131.7</ele>
        <time>2018-12-09T08:57:27Z</time>
      </trkpt>
      <trkpt lat="49.06834" lon="1.10261">
        <ele>131.4</ele>
        <time>2018-12-09T08:57:30Z</time>
      </trkpt>
      <trkpt lat="49.06845" lon="1.10251">
        <ele>131.3</ele>
        <time>2018-12-09T08:57:33Z</time>
      </trkpt>
      <trkpt lat="49.06854" lon="1.10245">
        <ele>131</ele>
        <time>2018-12-09T08:57:35Z</time>
      </trkpt>
      <trkpt lat="49.06865" lon="1.10235">
        <ele>131.1</ele>
        <time>2018-12-09T08:57:38Z</time>
      </trkpt>
      <trkpt lat="49.06874" lon="1.10226">
        <ele>131</ele>
        <time>2018-12-09T08:57:41Z</time>
      </trkpt>
      <trkpt lat="49.06884" lon="1.10218">
        <ele>131</ele>
        <time>2018-12-09T08:57:46Z</time>
      </trkpt>
      <trkpt lat="49.06893" lon="1.10211">
        <ele>130.9</ele>
        <time>2018-12-09T08:57:51Z</time>
      </trkpt>
      <trkpt lat="49.06903" lon="1.10204">
        <ele>131.1</ele>
        <time>2018-12-09T08:57:56Z</time>
      </trkpt>
      <trkpt lat="49.06909" lon="1.1019">
        <ele>131.5</ele>
        <time>2018-12-09T08:58:01Z</time>
      </trkpt>
      <trkpt lat="49.06911" lon="1.10173">
        <ele>131.7</ele>
        <time>2018-12-09T08:58:05Z</time>
      </trkpt>
      <trkpt lat="49.06913" lon="1.10155">
        <ele>131.5</ele>
        <time>2018-12-09T08:58:09Z</time>
      </trkpt>
      <trkpt lat="49.06918" lon="1.1014">
        <ele>131.5</ele>
        <time>2018-12-09T08:58:12Z</time>
      </trkpt>
      <trkpt lat="49.06922" lon="1.10126">
        <ele>131.4</ele>
        <time>2018-12-09T08:58:15Z</time>
      </trkpt>
      <trkpt lat="49.06927" lon="1.1011">
        <ele>131.1</ele>
        <time>2018-12-09T08:58:18Z</time>
      </trkpt>
      <trkpt lat="49.06932" lon="1.10096">
        <ele>131.1</ele>
        <time>2018-12-09T08:58:21Z</time>
      </trkpt>
      <trkpt lat="49.06937" lon="1.1008">
        <ele>131</ele>
        <time>2018-12-09T08:58:24Z</time>
      </trkpt>
      <trkpt lat="49.06943" lon="1.10064">
        <ele>130.8</ele>
        <time>2018-12-09T08:58:27Z</time>
      </trkpt>
      <trkpt lat="49.0695" lon="1.10049">
        <ele>130.7</ele>
        <time>2018-12-09T08:58:30Z</time>
      </trkpt>
      <trkpt lat="49.06959" lon="1.1004">
        <ele>130.8</ele>
        <time>2018-12-09T08:58:33Z</time>
      </trkpt>
      <trkpt lat="49.06969" lon="1.10047">
        <ele>130.9</ele>
        <time>2018-12-09T08:58:36Z</time>
      </trkpt>
      <trkpt lat="49.0698" lon="1.10058">
        <ele>130.8</ele>
        <time>2018-12-09T08:58:39Z</time>
      </trkpt>
      <trkpt lat="49.0699" lon="1.10071">
        <ele>130.7</ele>
        <time>2018-12-09T08:58:42Z</time>
      </trkpt>
      <trkpt lat="49.06998" lon="1.10079">
        <ele>130.7</ele>
        <time>2018-12-09T08:58:44Z</time>
      </trkpt>
      <trkpt lat="49.07005" lon="1.10088">
        <ele>130.8</ele>
        <time>2018-12-09T08:58:46Z</time>
      </trkpt>
      <trkpt lat="49.07013" lon="1.10097">
        <ele>130.8</ele>
        <time>2018-12-09T08:58:48Z</time>
      </trkpt>
      <trkpt lat="49.07021" lon="1.10106">
        <ele>130.8</ele>
        <time>2018-12-09T08:58:50Z</time>
      </trkpt>
      <trkpt lat="49.07029" lon="1.10115">
        <ele>130.9</ele>
        <time>2018-12-09T08:58:52Z</time>
      </trkpt>
      <trkpt lat="49.07037" lon="1.10125">
        <ele>131</ele>
        <time>2018-12-09T08:58:54Z</time>
      </trkpt>
      <trkpt lat="49.07044" lon="1.10135">
        <ele>131.1</ele>
        <time>2018-12-09T08:58:56Z</time>
      </trkpt>
      <trkpt lat="49.07052" lon="1.10145">
        <ele>131</ele>
        <time>2018-12-09T08:58:58Z</time>
      </trkpt>
      <trkpt lat="49.07059" lon="1.10156">
        <ele>131.1</ele>
        <time>2018-12-09T08:59:00Z</time>
      </trkpt>
      <trkpt lat="49.07067" lon="1.10167">
        <ele>131.2</ele>
        <time>2018-12-09T08:59:02Z</time>
      </trkpt>
      <trkpt lat="49.07073" lon="1.10179">
        <ele>131.4</ele>
        <time>2018-12-09T08:59:04Z</time>
      </trkpt>
      <trkpt lat="49.07079" lon="1.10192">
        <ele>131.3</ele>
        <time>2018-12-09T08:59:06Z</time>
      </trkpt>
      <trkpt lat="49.07085" lon="1.10206">
        <ele>131.3</ele>
        <time>2018-12-09T08:59:08Z</time>
      </trkpt>
      <trkpt lat="49.0709" lon="1.10221">
        <ele>131.3</ele>
        <time>2018-12-09T08:59:10Z</time>
      </trkpt>
      <trkpt lat="49.07095" lon="1.10236">
        <ele>131.3</ele>
        <time>2018-12-09T08:59:12Z</time>
      </trkpt>
      <trkpt lat="49.07099" lon="1.10251">
        <ele>131.3</ele>
        <time>2018-12-09T08:59:14Z</time>
      </trkpt>
      <trkpt lat="49.07103" lon="1.10267">
        <ele>131.2</ele>
        <time>2018-12-09T08:59:16Z</time>
      </trkpt>
      <trkpt lat="49.07106" lon="1.10284">
        <ele>131.1</ele>
        <time>2018-12-09T08:59:18Z</time>
      </trkpt>
      <trkpt lat="49.07109" lon="1.10301">
        <ele>131</ele>
        <time>2018-12-09T08:59:20Z</time>
      </trkpt>
      <trkpt lat="49.07111" lon="1.10318">
        <ele>131</ele>
        <time>2018-12-09T08:59:22Z</time>
      </trkpt>
      <trkpt lat="49.07113" lon="1.10335">
        <ele>131.1</ele>
        <time>2018-12-09T08:59:24Z</time>
      </trkpt>
      <trkpt lat="49.07115" lon="1.10352">
        <ele>131</ele>
        <time>2018-12-09T08:59:26Z</time>
      </trkpt>
      <trkpt lat="49.07118" lon="1.10368">
        <ele>130.9</ele>
        <time>2018-12-09T08:59:28Z</time>
      </trkpt>
      <trkpt lat="49.0712" lon="1.10384">
        <ele>130.9</ele>
        <time>2018-12-09T08:59:30Z</time>
      </trkpt>
      <trkpt lat="49.07125" lon="1.104">
        <ele>130.9</ele>
        <time>2018-12-09T08:59:32Z</time>
      </trkpt>
      <trkpt lat="49.07131" lon="1.10414">
        <ele>130.9</ele>
        <time>2018-12-09T08:59:34Z</time>
      </trkpt>
      <trkpt lat="49.07138" lon="1.10427">
        <ele>130.7</ele>
        <time>2018-12-09T08:59:36Z</time>
      </trkpt>
      <trkpt lat="49.07145" lon="1.10438">
        <ele>130.6</ele>
        <time>2018-12-09T08:59:38Z</time>
      </trkpt>
      <trkpt lat="49.07152" lon="1.10451">
        <ele>130.7</ele>
        <time>2018-12-09T08:59:40Z</time>
      </trkpt>
      <trkpt lat="49.0716" lon="1.10463">
        <ele>131</ele>
        <time>2018-12-09T08:59:42Z</time>
      </trkpt>
      <trkpt lat="49.07167" lon="1.10474">
        <ele>131.3</ele>
        <time>2018-12-09T08:59:44Z</time>
      </trkpt>
      <trkpt lat="49.07177" lon="1.10482">
        <ele>132.2</ele>
        <time>2018-12-09T08:59:47Z</time>
      </trkpt>
      <trkpt lat="49.07184" lon="1.10474">
        <ele>132.5</ele>
        <time>2018-12-09T08:59:50Z</time>
      </trkpt>
      <trkpt lat="49.07191" lon="1.10462">
        <ele>132</ele>
        <time>2018-12-09T08:59:53Z</time>
      </trkpt>
      <trkpt lat="49.07198" lon="1.1045">
        <ele>131.8</ele>
        <time>2018-12-09T08:59:56Z</time>
      </trkpt>
      <trkpt lat="49.07204" lon="1.10436">
        <ele>132</ele>
        <time>2018-12-09T08:59:59Z</time>
      </trkpt>
      <trkpt lat="49.07211" lon="1.10424">
        <ele>132.1</ele>
        <time>2018-12-09T09:00:02Z</time>
      </trkpt>
      <trkpt lat="49.07217" lon="1.10412">
        <ele>132.5</ele>
        <time>2018-12-09T09:00:05Z</time>
      </trkpt>
      <trkpt lat="49.07223" lon="1.104">
        <ele>132.8</ele>
        <time>2018-12-09T09:00:08Z</time>
      </trkpt>
      <trkpt lat="49.07229" lon="1.10388">
        <ele>133.1</ele>
        <time>2018-12-09T09:00:11Z</time>
      </trkpt>
      <trkpt lat="49.07235" lon="1.10377">
        <ele>133.4</ele>
        <time>2018-12-09T09:00:14Z</time>
      </trkpt>
      <trkpt lat="49.07242" lon="1.10365">
        <ele>133.6</ele>
        <time>2018-12-09T09:00:17Z</time>
      </trkpt>
      <trkpt lat="49.07248" lon="1.10353">
        <ele>133.7</ele>
        <time>2018-12-09T09:00:20Z</time>
      </trkpt>
      <trkpt lat="49.07254" lon="1.10341">
        <ele>133.5</ele>
        <time>2018-12-09T09:00:23Z</time>
      </trkpt>
      <trkpt lat="49.07261" lon="1.1033">
        <ele>133.5</ele>
        <time>2018-12-09T09:00:26Z</time>
      </trkpt>
      <trkpt lat="49.07267" lon="1.10319">
        <ele>134</ele>
        <time>2018-12-09T09:00:29Z</time>
      </trkpt>
      <trkpt lat="49.07274" lon="1.10305">
        <ele>134.6</ele>
        <time>2018-12-09T09:00:33Z</time>
      </trkpt>
      <trkpt lat="49.07282" lon="1.10292">
        <ele>134.6</ele>
        <time>2018-12-09T09:00:37Z</time>
      </trkpt>
      <trkpt lat="49.07288" lon="1.10281">
        <ele>134.8</ele>
        <time>2018-12-09T09:00:40Z</time>
      </trkpt>
      <trkpt lat="49.07295" lon="1.10266">
        <ele>134.8</ele>
        <time>2018-12-09T09:00:44Z</time>
      </trkpt>
      <trkpt lat="49.07301" lon="1.10255">
        <ele>134.6</ele>
        <time>2018-12-09T09:00:47Z</time>
      </trkpt>
      <trkpt lat="49.07307" lon="1.10244">
        <ele>134.5</ele>
        <time>2018-12-09T09:00:50Z</time>
      </trkpt>
      <trkpt lat="49.07314" lon="1.10233">
        <ele>134.5</ele>
        <time>2018-12-09T09:00:53Z</time>
      </trkpt>
      <trkpt lat="49.0732" lon="1.10222">
        <ele>134.6</ele>
        <time>2018-12-09T09:00:56Z</time>
      </trkpt>
      <trkpt lat="49.07325" lon="1.10211">
        <ele>134.6</ele>
        <time>2018-12-09T09:00:59Z</time>
      </trkpt>
      <trkpt lat="49.07331" lon="1.102">
        <ele>134.8</ele>
        <time>2018-12-09T09:01:02Z</time>
      </trkpt>
      <trkpt lat="49.07337" lon="1.10188">
        <ele>135</ele>
        <time>2018-12-09T09:01:05Z</time>
      </trkpt>
      <trkpt lat="49.07344" lon="1.10178">
        <ele>135.1</ele>
        <time>2018-12-09T09:01:08Z</time>
      </trkpt>
      <trkpt lat="49.0735" lon="1.10167">
        <ele>135.1</ele>
        <time>2018-12-09T09:01:11Z</time>
      </trkpt>
      <trkpt lat="49.07357" lon="1.10153">
        <ele>134.5</ele>
        <time>2018-12-09T09:01:14Z</time>
      </trkpt>
      <trkpt lat="49.07363" lon="1.10142">
        <ele>134.1</ele>
        <time>2018-12-09T09:01:17Z</time>
      </trkpt>
      <trkpt lat="49.07369" lon="1.10131">
        <ele>134.1</ele>
        <time>2018-12-09T09:01:20Z</time>
      </trkpt>
      <trkpt lat="49.07376" lon="1.1012">
        <ele>134.7</ele>
        <time>2018-12-09T09:01:23Z</time>
      </trkpt>
      <trkpt lat="49.07382" lon="1.10108">
        <ele>134.8</ele>
        <time>2018-12-09T09:01:26Z</time>
      </trkpt>
      <trkpt lat="49.07389" lon="1.10097">
        <ele>134.8</ele>
        <time>2018-12-09T09:01:29Z</time>
      </trkpt>
      <trkpt lat="49.07395" lon="1.10087">
        <ele>135.3</ele>
        <time>2018-12-09T09:01:32Z</time>
      </trkpt>
      <trkpt lat="49.07402" lon="1.10075">
        <ele>135.4</ele>
        <time>2018-12-09T09:01:35Z</time>
      </trkpt>
      <trkpt lat="49.07408" lon="1.10064">
        <ele>135.2</ele>
        <time>2018-12-09T09:01:38Z</time>
      </trkpt>
      <trkpt lat="49.07415" lon="1.10053">
        <ele>134.8</ele>
        <time>2018-12-09T09:01:41Z</time>
      </trkpt>
      <trkpt lat="49.07421" lon="1.10042">
        <ele>135.4</ele>
        <time>2018-12-09T09:01:44Z</time>
      </trkpt>
      <trkpt lat="49.07427" lon="1.10031">
        <ele>135.3</ele>
        <time>2018-12-09T09:01:47Z</time>
      </trkpt>
      <trkpt lat="49.07433" lon="1.1002">
        <ele>135.1</ele>
        <time>2018-12-09T09:01:50Z</time>
      </trkpt>
      <trkpt lat="49.07439" lon="1.10009">
        <ele>134.8</ele>
        <time>2018-12-09T09:01:53Z</time>
      </trkpt>
      <trkpt lat="49.07446" lon="1.09997">
        <ele>134.7</ele>
        <time>2018-12-09T09:01:56Z</time>
      </trkpt>
      <trkpt lat="49.07452" lon="1.09986">
        <ele>134.5</ele>
        <time>2018-12-09T09:01:59Z</time>
      </trkpt>
      <trkpt lat="49.07458" lon="1.09975">
        <ele>134.6</ele>
        <time>2018-12-09T09:02:02Z</time>
      </trkpt>
      <trkpt lat="49.07465" lon="1.09963">
        <ele>134.8</ele>
        <time>2018-12-09T09:02:05Z</time>
      </trkpt>
      <trkpt lat="49.07472" lon="1.09951">
        <ele>134.4</ele>
        <time>2018-12-09T09:02:08Z</time>
      </trkpt>
      <trkpt lat="49.07478" lon="1.0994">
        <ele>134.3</ele>
        <time>2018-12-09T09:02:11Z</time>
      </trkpt>
      <trkpt lat="49.07484" lon="1.09928">
        <ele>134.4</ele>
        <time>2018-12-09T09:02:14Z</time>
      </trkpt>
      <trkpt lat="49.07491" lon="1.09916">
        <ele>134.4</ele>
        <time>2018-12-09T09:02:17Z</time>
      </trkpt>
      <trkpt lat="49.07497" lon="1.09905">
        <ele>134.2</ele>
        <time>2018-12-09T09:02:20Z</time>
      </trkpt>
      <trkpt lat="49.07505" lon="1.09894">
        <ele>134.4</ele>
        <time>2018-12-09T09:02:23Z</time>
      </trkpt>
      <trkpt lat="49.07512" lon="1.09883">
        <ele>134.3</ele>
        <time>2018-12-09T09:02:26Z</time>
      </trkpt>
      <trkpt lat="49.0752" lon="1.09873">
        <ele>134.4</ele>
        <time>2018-12-09T09:02:29Z</time>
      </trkpt>
      <trkpt lat="49.07529" lon="1.09865">
        <ele>134.7</ele>
        <time>2018-12-09T09:02:32Z</time>
      </trkpt>
      <trkpt lat="49.07538" lon="1.09857">
        <ele>134.3</ele>
        <time>2018-12-09T09:02:35Z</time>
      </trkpt>
      <trkpt lat="49.07546" lon="1.09849">
        <ele>134.9</ele>
        <time>2018-12-09T09:02:38Z</time>
      </trkpt>
      <trkpt lat="49.07555" lon="1.09841">
        <ele>134.7</ele>
        <time>2018-12-09T09:02:41Z</time>
      </trkpt>
      <trkpt lat="49.07563" lon="1.09833">
        <ele>134.4</ele>
        <time>2018-12-09T09:02:44Z</time>
      </trkpt>
      <trkpt lat="49.07572" lon="1.09825">
        <ele>134.4</ele>
        <time>2018-12-09T09:02:47Z</time>
      </trkpt>
      <trkpt lat="49.0758" lon="1.09817">
        <ele>135.4</ele>
        <time>2018-12-09T09:02:50Z</time>
      </trkpt>
      <trkpt lat="49.07589" lon="1.09808">
        <ele>135.1</ele>
        <time>2018-12-09T09:02:53Z</time>
      </trkpt>
      <trkpt lat="49.07598" lon="1.09799">
        <ele>134.6</ele>
        <time>2018-12-09T09:02:56Z</time>
      </trkpt>
      <trkpt lat="49.07607" lon="1.0979">
        <ele>134.1</ele>
        <time>2018-12-09T09:02:59Z</time>
      </trkpt>
      <trkpt lat="49.07616" lon="1.09781">
        <ele>134.2</ele>
        <time>2018-12-09T09:03:02Z</time>
      </trkpt>
      <trkpt lat="49.07624" lon="1.09772">
        <ele>134.5</ele>
        <time>2018-12-09T09:03:05Z</time>
      </trkpt>
      <trkpt lat="49.07633" lon="1.09764">
        <ele>135.1</ele>
        <time>2018-12-09T09:03:08Z</time>
      </trkpt>
      <trkpt lat="49.07641" lon="1.09755">
        <ele>135</ele>
        <time>2018-12-09T09:03:11Z</time>
      </trkpt>
      <trkpt lat="49.07649" lon="1.09747">
        <ele>134.7</ele>
        <time>2018-12-09T09:03:14Z</time>
      </trkpt>
      <trkpt lat="49.07657" lon="1.09739">
        <ele>134.9</ele>
        <time>2018-12-09T09:03:17Z</time>
      </trkpt>
      <trkpt lat="49.07665" lon="1.0973">
        <ele>134.9</ele>
        <time>2018-12-09T09:03:20Z</time>
      </trkpt>
      <trkpt lat="49.07674" lon="1.09722">
        <ele>134.9</ele>
        <time>2018-12-09T09:03:23Z</time>
      </trkpt>
      <trkpt lat="49.07682" lon="1.09713">
        <ele>134.6</ele>
        <time>2018-12-09T09:03:26Z</time>
      </trkpt>
      <trkpt lat="49.0769" lon="1.09705">
        <ele>135</ele>
        <time>2018-12-09T09:03:29Z</time>
      </trkpt>
      <trkpt lat="49.07698" lon="1.09697">
        <ele>135.1</ele>
        <time>2018-12-09T09:03:32Z</time>
      </trkpt>
      <trkpt lat="49.07707" lon="1.09688">
        <ele>135.2</ele>
        <time>2018-12-09T09:03:35Z</time>
      </trkpt>
      <trkpt lat="49.07716" lon="1.09679">
        <ele>135.1</ele>
        <time>2018-12-09T09:03:38Z</time>
      </trkpt>
      <trkpt lat="49.07725" lon="1.09671">
        <ele>135</ele>
        <time>2018-12-09T09:03:41Z</time>
      </trkpt>
      <trkpt lat="49.07734" lon="1.09661">
        <ele>135</ele>
        <time>2018-12-09T09:03:44Z</time>
      </trkpt>
      <trkpt lat="49.07743" lon="1.09652">
        <ele>134.9</ele>
        <time>2018-12-09T09:03:47Z</time>
      </trkpt>
      <trkpt lat="49.07752" lon="1.09643">
        <ele>134.9</ele>
        <time>2018-12-09T09:03:50Z</time>
      </trkpt>
      <trkpt lat="49.0776" lon="1.09634">
        <ele>135.2</ele>
        <time>2018-12-09T09:03:53Z</time>
      </trkpt>
      <trkpt lat="49.07769" lon="1.09624">
        <ele>135.1</ele>
        <time>2018-12-09T09:03:56Z</time>
      </trkpt>
      <trkpt lat="49.07778" lon="1.09615">
        <ele>135.1</ele>
        <time>2018-12-09T09:03:59Z</time>
      </trkpt>
      <trkpt lat="49.07787" lon="1.09606">
        <ele>135.1</ele>
        <time>2018-12-09T09:04:02Z</time>
      </trkpt>
      <trkpt lat="49.07796" lon="1.09596">
        <ele>135.5</ele>
        <time>2018-12-09T09:04:05Z</time>
      </trkpt>
      <trkpt lat="49.07805" lon="1.09587">
        <ele>136.1</ele>
        <time>2018-12-09T09:04:08Z</time>
      </trkpt>
      <trkpt lat="49.07814" lon="1.09578">
        <ele>136.6</ele>
        <time>2018-12-09T09:04:11Z</time>
      </trkpt>
      <trkpt lat="49.07823" lon="1.0957">
        <ele>137</ele>
        <time>2018-12-09T09:04:14Z</time>
      </trkpt>
      <trkpt lat="49.07832" lon="1.09561">
        <ele>136.8</ele>
        <time>2018-12-09T09:04:17Z</time>
      </trkpt>
      <trkpt lat="49.07842" lon="1.09553">
        <ele>136.9</ele>
        <time>2018-12-09T09:04:20Z</time>
      </trkpt>
      <trkpt lat="49.07853" lon="1.09546">
        <ele>136.7</ele>
        <time>2018-12-09T09:04:23Z</time>
      </trkpt>
      <trkpt lat="49.07863" lon="1.09538">
        <ele>136.6</ele>
        <time>2018-12-09T09:04:26Z</time>
      </trkpt>
      <trkpt lat="49.07873" lon="1.09531">
        <ele>136.4</ele>
        <time>2018-12-09T09:04:29Z</time>
      </trkpt>
      <trkpt lat="49.07883" lon="1.09524">
        <ele>136.6</ele>
        <time>2018-12-09T09:04:32Z</time>
      </trkpt>
      <trkpt lat="49.07893" lon="1.09517">
        <ele>136.8</ele>
        <time>2018-12-09T09:04:35Z</time>
      </trkpt>
      <trkpt lat="49.07904" lon="1.0951">
        <ele>137.7</ele>
        <time>2018-12-09T09:04:38Z</time>
      </trkpt>
      <trkpt lat="49.07914" lon="1.09502">
        <ele>137.2</ele>
        <time>2018-12-09T09:04:41Z</time>
      </trkpt>
      <trkpt lat="49.07925" lon="1.09495">
        <ele>136.6</ele>
        <time>2018-12-09T09:04:44Z</time>
      </trkpt>
      <trkpt lat="49.07936" lon="1.09487">
        <ele>136.6</ele>
        <time>2018-12-09T09:04:47Z</time>
      </trkpt>
      <trkpt lat="49.07947" lon="1.0948">
        <ele>136.5</ele>
        <time>2018-12-09T09:04:50Z</time>
      </trkpt>
      <trkpt lat="49.07959" lon="1.09472">
        <ele>135.6</ele>
        <time>2018-12-09T09:04:53Z</time>
      </trkpt>
      <trkpt lat="49.0797" lon="1.09465">
        <ele>135.4</ele>
        <time>2018-12-09T09:04:56Z</time>
      </trkpt>
      <trkpt lat="49.07981" lon="1.09458">
        <ele>135.5</ele>
        <time>2018-12-09T09:04:59Z</time>
      </trkpt>
      <trkpt lat="49.07993" lon="1.09451">
        <ele>135.2</ele>
        <time>2018-12-09T09:05:02Z</time>
      </trkpt>
      <trkpt lat="49.08001" lon="1.09446">
        <ele>135</ele>
        <time>2018-12-09T09:05:04Z</time>
      </trkpt>
      <trkpt lat="49.08013" lon="1.09438">
        <ele>134.4</ele>
        <time>2018-12-09T09:05:07Z</time>
      </trkpt>
      <trkpt lat="49.08025" lon="1.09429">
        <ele>134.4</ele>
        <time>2018-12-09T09:05:10Z</time>
      </trkpt>
      <trkpt lat="49.08037" lon="1.0942">
        <ele>134.2</ele>
        <time>2018-12-09T09:05:13Z</time>
      </trkpt>
      <trkpt lat="49.08049" lon="1.09413">
        <ele>134.2</ele>
        <time>2018-12-09T09:05:16Z</time>
      </trkpt>
      <trkpt lat="49.08061" lon="1.09405">
        <ele>134.6</ele>
        <time>2018-12-09T09:05:19Z</time>
      </trkpt>
      <trkpt lat="49.08069" lon="1.094">
        <ele>134.6</ele>
        <time>2018-12-09T09:05:21Z</time>
      </trkpt>
      <trkpt lat="49.08078" lon="1.09394">
        <ele>134.5</ele>
        <time>2018-12-09T09:05:23Z</time>
      </trkpt>
      <trkpt lat="49.08086" lon="1.09388">
        <ele>134.4</ele>
        <time>2018-12-09T09:05:25Z</time>
      </trkpt>
      <trkpt lat="49.08095" lon="1.09383">
        <ele>134.1</ele>
        <time>2018-12-09T09:05:27Z</time>
      </trkpt>
      <trkpt lat="49.08108" lon="1.09377">
        <ele>134</ele>
        <time>2018-12-09T09:05:30Z</time>
      </trkpt>
      <trkpt lat="49.08116" lon="1.09373">
        <ele>133.8</ele>
        <time>2018-12-09T09:05:32Z</time>
      </trkpt>
      <trkpt lat="49.08129" lon="1.09368">
        <ele>133.4</ele>
        <time>2018-12-09T09:05:35Z</time>
      </trkpt>
      <trkpt lat="49.08142" lon="1.09363">
        <ele>132.9</ele>
        <time>2018-12-09T09:05:38Z</time>
      </trkpt>
      <trkpt lat="49.08155" lon="1.09358">
        <ele>132.6</ele>
        <time>2018-12-09T09:05:41Z</time>
      </trkpt>
      <trkpt lat="49.08164" lon="1.09355">
        <ele>132.5</ele>
        <time>2018-12-09T09:05:43Z</time>
      </trkpt>
      <trkpt lat="49.08173" lon="1.09352">
        <ele>132.4</ele>
        <time>2018-12-09T09:05:45Z</time>
      </trkpt>
      <trkpt lat="49.08182" lon="1.09349">
        <ele>132.6</ele>
        <time>2018-12-09T09:05:47Z</time>
      </trkpt>
      <trkpt lat="49.08191" lon="1.09346">
        <ele>133.1</ele>
        <time>2018-12-09T09:05:49Z</time>
      </trkpt>
      <trkpt lat="49.082" lon="1.09342">
        <ele>132.9</ele>
        <time>2018-12-09T09:05:51Z</time>
      </trkpt>
      <trkpt lat="49.08209" lon="1.09339">
        <ele>132.2</ele>
        <time>2018-12-09T09:05:53Z</time>
      </trkpt>
      <trkpt lat="49.08218" lon="1.09337">
        <ele>131.9</ele>
        <time>2018-12-09T09:05:55Z</time>
      </trkpt>
      <trkpt lat="49.08228" lon="1.09333">
        <ele>131.8</ele>
        <time>2018-12-09T09:05:57Z</time>
      </trkpt>
      <trkpt lat="49.08236" lon="1.0933">
        <ele>132</ele>
        <time>2018-12-09T09:05:59Z</time>
      </trkpt>
      <trkpt lat="49.08246" lon="1.09327">
        <ele>132.2</ele>
        <time>2018-12-09T09:06:01Z</time>
      </trkpt>
      <trkpt lat="49.08255" lon="1.09325">
        <ele>131.9</ele>
        <time>2018-12-09T09:06:03Z</time>
      </trkpt>
      <trkpt lat="49.08267" lon="1.0932">
        <ele>131.1</ele>
        <time>2018-12-09T09:06:06Z</time>
      </trkpt>
      <trkpt lat="49.0828" lon="1.09317">
        <ele>130</ele>
        <time>2018-12-09T09:06:09Z</time>
      </trkpt>
      <trkpt lat="49.0829" lon="1.09313">
        <ele>129.9</ele>
        <time>2018-12-09T09:06:12Z</time>
      </trkpt>
      <trkpt lat="49.08299" lon="1.09304">
        <ele>130.1</ele>
        <time>2018-12-09T09:06:16Z</time>
      </trkpt>
      <trkpt lat="49.08307" lon="1.09297">
        <ele>129.8</ele>
        <time>2018-12-09T09:06:20Z</time>
      </trkpt>
      <trkpt lat="49.08316" lon="1.09291">
        <ele>129.4</ele>
        <time>2018-12-09T09:06:25Z</time>
      </trkpt>
      <trkpt lat="49.08316" lon="1.09296">
        <ele>129</ele>
        <time>2018-12-09T09:06:39Z</time>
      </trkpt>
      <trkpt lat="49.08324" lon="1.09308">
        <ele>129.3</ele>
        <time>2018-12-09T09:07:52Z</time>
      </trkpt>
      <trkpt lat="49.08333" lon="1.09321">
        <ele>128.7</ele>
        <time>2018-12-09T09:07:55Z</time>
      </trkpt>
      <trkpt lat="49.08339" lon="1.09331">
        <ele>128.5</ele>
        <time>2018-12-09T09:07:57Z</time>
      </trkpt>
      <trkpt lat="49.08347" lon="1.09343">
        <ele>128.3</ele>
        <time>2018-12-09T09:07:59Z</time>
      </trkpt>
      <trkpt lat="49.08355" lon="1.09354">
        <ele>128.2</ele>
        <time>2018-12-09T09:08:01Z</time>
      </trkpt>
      <trkpt lat="49.08363" lon="1.09366">
        <ele>128</ele>
        <time>2018-12-09T09:08:03Z</time>
      </trkpt>
      <trkpt lat="49.08371" lon="1.0938">
        <ele>127.8</ele>
        <time>2018-12-09T09:08:05Z</time>
      </trkpt>
      <trkpt lat="49.08379" lon="1.09394">
        <ele>127.6</ele>
        <time>2018-12-09T09:08:07Z</time>
      </trkpt>
      <trkpt lat="49.08388" lon="1.09409">
        <ele>127.6</ele>
        <time>2018-12-09T09:08:09Z</time>
      </trkpt>
      <trkpt lat="49.08397" lon="1.09422">
        <ele>127.5</ele>
        <time>2018-12-09T09:08:11Z</time>
      </trkpt>
      <trkpt lat="49.08408" lon="1.09433">
        <ele>127.2</ele>
        <time>2018-12-09T09:08:13Z</time>
      </trkpt>
      <trkpt lat="49.08418" lon="1.09443">
        <ele>126.9</ele>
        <time>2018-12-09T09:08:15Z</time>
      </trkpt>
      <trkpt lat="49.08426" lon="1.09452">
        <ele>126.5</ele>
        <time>2018-12-09T09:08:17Z</time>
      </trkpt>
      <trkpt lat="49.08435" lon="1.09462">
        <ele>125.9</ele>
        <time>2018-12-09T09:08:19Z</time>
      </trkpt>
      <trkpt lat="49.08443" lon="1.09471">
        <ele>125.4</ele>
        <time>2018-12-09T09:08:21Z</time>
      </trkpt>
      <trkpt lat="49.08452" lon="1.09478">
        <ele>125.1</ele>
        <time>2018-12-09T09:08:23Z</time>
      </trkpt>
      <trkpt lat="49.08462" lon="1.09489">
        <ele>124.7</ele>
        <time>2018-12-09T09:08:25Z</time>
      </trkpt>
      <trkpt lat="49.08473" lon="1.095">
        <ele>123.8</ele>
        <time>2018-12-09T09:08:28Z</time>
      </trkpt>
      <trkpt lat="49.08483" lon="1.09512">
        <ele>122.8</ele>
        <time>2018-12-09T09:08:31Z</time>
      </trkpt>
      <trkpt lat="49.08495" lon="1.09515">
        <ele>121.3</ele>
        <time>2018-12-09T09:08:34Z</time>
      </trkpt>
      <trkpt lat="49.08506" lon="1.09515">
        <ele>120.1</ele>
        <time>2018-12-09T09:08:36Z</time>
      </trkpt>
      <trkpt lat="49.08517" lon="1.09514">
        <ele>118</ele>
        <time>2018-12-09T09:08:40Z</time>
      </trkpt>
      <trkpt lat="49.08525" lon="1.09511">
        <ele>117.3</ele>
        <time>2018-12-09T09:08:42Z</time>
      </trkpt>
      <trkpt lat="49.08538" lon="1.09506">
        <ele>116.4</ele>
        <time>2018-12-09T09:08:44Z</time>
      </trkpt>
      <trkpt lat="49.08548" lon="1.09504">
        <ele>115.9</ele>
        <time>2018-12-09T09:08:45Z</time>
      </trkpt>
      <trkpt lat="49.0856" lon="1.09502">
        <ele>113.7</ele>
        <time>2018-12-09T09:08:48Z</time>
      </trkpt>
      <trkpt lat="49.08572" lon="1.09498">
        <ele>112.3</ele>
        <time>2018-12-09T09:08:50Z</time>
      </trkpt>
      <trkpt lat="49.08583" lon="1.09495">
        <ele>111.2</ele>
        <time>2018-12-09T09:08:52Z</time>
      </trkpt>
      <trkpt lat="49.08595" lon="1.09495">
        <ele>110.2</ele>
        <time>2018-12-09T09:08:54Z</time>
      </trkpt>
      <trkpt lat="49.08607" lon="1.09493">
        <ele>108.7</ele>
        <time>2018-12-09T09:08:56Z</time>
      </trkpt>
      <trkpt lat="49.08618" lon="1.09495">
        <ele>106.9</ele>
        <time>2018-12-09T09:08:59Z</time>
      </trkpt>
      <trkpt lat="49.08628" lon="1.09497">
        <ele>105.5</ele>
        <time>2018-12-09T09:09:01Z</time>
      </trkpt>
      <trkpt lat="49.08639" lon="1.09502">
        <ele>104</ele>
        <time>2018-12-09T09:09:03Z</time>
      </trkpt>
      <trkpt lat="49.08647" lon="1.09509">
        <ele>102.4</ele>
        <time>2018-12-09T09:09:05Z</time>
      </trkpt>
      <trkpt lat="49.08657" lon="1.09512">
        <ele>101</ele>
        <time>2018-12-09T09:09:07Z</time>
      </trkpt>
      <trkpt lat="49.08666" lon="1.09517">
        <ele>99.8</ele>
        <time>2018-12-09T09:09:09Z</time>
      </trkpt>
      <trkpt lat="49.08676" lon="1.09522">
        <ele>98.5</ele>
        <time>2018-12-09T09:09:11Z</time>
      </trkpt>
      <trkpt lat="49.08688" lon="1.09534">
        <ele>96.8</ele>
        <time>2018-12-09T09:09:14Z</time>
      </trkpt>
      <trkpt lat="49.08702" lon="1.09533">
        <ele>95.9</ele>
        <time>2018-12-09T09:09:16Z</time>
      </trkpt>
      <trkpt lat="49.08712" lon="1.09532">
        <ele>94.9</ele>
        <time>2018-12-09T09:09:18Z</time>
      </trkpt>
      <trkpt lat="49.08724" lon="1.09532">
        <ele>93</ele>
        <time>2018-12-09T09:09:20Z</time>
      </trkpt>
      <trkpt lat="49.08736" lon="1.0953">
        <ele>91.4</ele>
        <time>2018-12-09T09:09:22Z</time>
      </trkpt>
      <trkpt lat="49.08755" lon="1.09534">
        <ele>89.5</ele>
        <time>2018-12-09T09:09:24Z</time>
      </trkpt>
      <trkpt lat="49.08765" lon="1.09535">
        <ele>88.8</ele>
        <time>2018-12-09T09:09:25Z</time>
      </trkpt>
      <trkpt lat="49.08778" lon="1.09533">
        <ele>88.2</ele>
        <time>2018-12-09T09:09:26Z</time>
      </trkpt>
      <trkpt lat="49.088" lon="1.09529">
        <ele>85.6</ele>
        <time>2018-12-09T09:09:28Z</time>
      </trkpt>
      <trkpt lat="49.08809" lon="1.09527">
        <ele>85.1</ele>
        <time>2018-12-09T09:09:29Z</time>
      </trkpt>
      <trkpt lat="49.0886" lon="1.09529">
        <ele>81</ele>
        <time>2018-12-09T09:09:35Z</time>
      </trkpt>
      <trkpt lat="49.08889" lon="1.09541">
        <ele>79.6</ele>
        <time>2018-12-09T09:09:40Z</time>
      </trkpt>
      <trkpt lat="49.08899" lon="1.09554">
        <ele>78.7</ele>
        <time>2018-12-09T09:09:43Z</time>
      </trkpt>
      <trkpt lat="49.08913" lon="1.09564">
        <ele>77.5</ele>
        <time>2018-12-09T09:09:46Z</time>
      </trkpt>
      <trkpt lat="49.08921" lon="1.09575">
        <ele>76.4</ele>
        <time>2018-12-09T09:09:48Z</time>
      </trkpt>
      <trkpt lat="49.0893" lon="1.09586">
        <ele>75.7</ele>
        <time>2018-12-09T09:09:50Z</time>
      </trkpt>
      <trkpt lat="49.08939" lon="1.09592">
        <ele>75.6</ele>
        <time>2018-12-09T09:09:51Z</time>
      </trkpt>
      <trkpt lat="49.08946" lon="1.096">
        <ele>75.3</ele>
        <time>2018-12-09T09:09:53Z</time>
      </trkpt>
      <trkpt lat="49.08958" lon="1.09606">
        <ele>74.8</ele>
        <time>2018-12-09T09:09:55Z</time>
      </trkpt>
      <trkpt lat="49.08967" lon="1.09613">
        <ele>73.6</ele>
        <time>2018-12-09T09:09:58Z</time>
      </trkpt>
      <trkpt lat="49.08978" lon="1.09619">
        <ele>73.2</ele>
        <time>2018-12-09T09:10:00Z</time>
      </trkpt>
      <trkpt lat="49.08988" lon="1.0962">
        <ele>73</ele>
        <time>2018-12-09T09:10:02Z</time>
      </trkpt>
      <trkpt lat="49.09001" lon="1.09621">
        <ele>72.5</ele>
        <time>2018-12-09T09:10:06Z</time>
      </trkpt>
      <trkpt lat="49.09013" lon="1.09621">
        <ele>72.3</ele>
        <time>2018-12-09T09:10:08Z</time>
      </trkpt>
      <trkpt lat="49.09025" lon="1.09621">
        <ele>72</ele>
        <time>2018-12-09T09:10:10Z</time>
      </trkpt>
      <trkpt lat="49.09041" lon="1.0962">
        <ele>71.8</ele>
        <time>2018-12-09T09:10:12Z</time>
      </trkpt>
      <trkpt lat="49.09052" lon="1.09619">
        <ele>71.5</ele>
        <time>2018-12-09T09:10:14Z</time>
      </trkpt>
      <trkpt lat="49.09064" lon="1.09616">
        <ele>71.2</ele>
        <time>2018-12-09T09:10:16Z</time>
      </trkpt>
      <trkpt lat="49.09073" lon="1.09614">
        <ele>71.1</ele>
        <time>2018-12-09T09:10:18Z</time>
      </trkpt>
      <trkpt lat="49.09083" lon="1.09613">
        <ele>71</ele>
        <time>2018-12-09T09:10:20Z</time>
      </trkpt>
      <trkpt lat="49.09093" lon="1.09613">
        <ele>70.8</ele>
        <time>2018-12-09T09:10:22Z</time>
      </trkpt>
      <trkpt lat="49.09103" lon="1.09612">
        <ele>70.4</ele>
        <time>2018-12-09T09:10:24Z</time>
      </trkpt>
      <trkpt lat="49.09115" lon="1.09612">
        <ele>70</ele>
        <time>2018-12-09T09:10:26Z</time>
      </trkpt>
      <trkpt lat="49.09125" lon="1.0961">
        <ele>69.5</ele>
        <time>2018-12-09T09:10:28Z</time>
      </trkpt>
      <trkpt lat="49.09135" lon="1.09609">
        <ele>68.9</ele>
        <time>2018-12-09T09:10:30Z</time>
      </trkpt>
      <trkpt lat="49.09148" lon="1.09609">
        <ele>67.5</ele>
        <time>2018-12-09T09:10:34Z</time>
      </trkpt>
      <trkpt lat="49.09157" lon="1.09602">
        <ele>67</ele>
        <time>2018-12-09T09:10:36Z</time>
      </trkpt>
      <trkpt lat="49.09168" lon="1.09598">
        <ele>66.8</ele>
        <time>2018-12-09T09:10:38Z</time>
      </trkpt>
      <trkpt lat="49.0918" lon="1.09593">
        <ele>66.6</ele>
        <time>2018-12-09T09:10:40Z</time>
      </trkpt>
      <trkpt lat="49.09193" lon="1.09589">
        <ele>66.2</ele>
        <time>2018-12-09T09:10:43Z</time>
      </trkpt>
      <trkpt lat="49.09203" lon="1.09586">
        <ele>65.9</ele>
        <time>2018-12-09T09:10:45Z</time>
      </trkpt>
      <trkpt lat="49.09216" lon="1.09583">
        <ele>65.5</ele>
        <time>2018-12-09T09:10:48Z</time>
      </trkpt>
      <trkpt lat="49.09229" lon="1.0958">
        <ele>65.1</ele>
        <time>2018-12-09T09:10:50Z</time>
      </trkpt>
      <trkpt lat="49.09239" lon="1.09576">
        <ele>64.5</ele>
        <time>2018-12-09T09:10:52Z</time>
      </trkpt>
      <trkpt lat="49.09249" lon="1.09573">
        <ele>64.2</ele>
        <time>2018-12-09T09:10:54Z</time>
      </trkpt>
      <trkpt lat="49.09262" lon="1.0957">
        <ele>63.7</ele>
        <time>2018-12-09T09:10:56Z</time>
      </trkpt>
      <trkpt lat="49.09275" lon="1.09566">
        <ele>63.3</ele>
        <time>2018-12-09T09:10:58Z</time>
      </trkpt>
      <trkpt lat="49.09286" lon="1.09563">
        <ele>63.2</ele>
        <time>2018-12-09T09:11:00Z</time>
      </trkpt>
      <trkpt lat="49.09297" lon="1.09558">
        <ele>62.8</ele>
        <time>2018-12-09T09:11:03Z</time>
      </trkpt>
      <trkpt lat="49.09307" lon="1.09555">
        <ele>62.7</ele>
        <time>2018-12-09T09:11:05Z</time>
      </trkpt>
      <trkpt lat="49.09318" lon="1.09548">
        <ele>62.3</ele>
        <time>2018-12-09T09:11:08Z</time>
      </trkpt>
      <trkpt lat="49.09329" lon="1.09544">
        <ele>61.4</ele>
        <time>2018-12-09T09:11:10Z</time>
      </trkpt>
      <trkpt lat="49.0934" lon="1.09541">
        <ele>61.2</ele>
        <time>2018-12-09T09:11:12Z</time>
      </trkpt>
      <trkpt lat="49.09352" lon="1.09536">
        <ele>61.1</ele>
        <time>2018-12-09T09:11:14Z</time>
      </trkpt>
      <trkpt lat="49.09363" lon="1.09533">
        <ele>60.7</ele>
        <time>2018-12-09T09:11:16Z</time>
      </trkpt>
      <trkpt lat="49.09373" lon="1.09529">
        <ele>60</ele>
        <time>2018-12-09T09:11:18Z</time>
      </trkpt>
      <trkpt lat="49.09385" lon="1.09523">
        <ele>58.9</ele>
        <time>2018-12-09T09:11:20Z</time>
      </trkpt>
      <trkpt lat="49.09394" lon="1.09517">
        <ele>58.7</ele>
        <time>2018-12-09T09:11:22Z</time>
      </trkpt>
      <trkpt lat="49.09405" lon="1.09513">
        <ele>57.8</ele>
        <time>2018-12-09T09:11:24Z</time>
      </trkpt>
      <trkpt lat="49.09416" lon="1.09506">
        <ele>57.2</ele>
        <time>2018-12-09T09:11:26Z</time>
      </trkpt>
      <trkpt lat="49.09425" lon="1.09497">
        <ele>56.7</ele>
        <time>2018-12-09T09:11:28Z</time>
      </trkpt>
      <trkpt lat="49.09435" lon="1.09488">
        <ele>55.9</ele>
        <time>2018-12-09T09:11:30Z</time>
      </trkpt>
      <trkpt lat="49.09447" lon="1.09484">
        <ele>54.9</ele>
        <time>2018-12-09T09:11:33Z</time>
      </trkpt>
      <trkpt lat="49.09458" lon="1.09482">
        <ele>54.2</ele>
        <time>2018-12-09T09:11:37Z</time>
      </trkpt>
      <trkpt lat="49.09468" lon="1.0948">
        <ele>53.8</ele>
        <time>2018-12-09T09:11:44Z</time>
      </trkpt>
      <trkpt lat="49.09473" lon="1.09481">
        <ele>53.4</ele>
        <time>2018-12-09T09:11:55Z</time>
      </trkpt>
      <trkpt lat="49.09485" lon="1.09489">
        <ele>53.9</ele>
        <time>2018-12-09T09:12:53Z</time>
      </trkpt>
      <trkpt lat="49.09495" lon="1.09492">
        <ele>53.2</ele>
        <time>2018-12-09T09:12:58Z</time>
      </trkpt>
      <trkpt lat="49.09506" lon="1.09496">
        <ele>52.7</ele>
        <time>2018-12-09T09:13:04Z</time>
      </trkpt>
      <trkpt lat="49.09515" lon="1.09497">
        <ele>52.6</ele>
        <time>2018-12-09T09:13:08Z</time>
      </trkpt>
      <trkpt lat="49.09526" lon="1.09498">
        <ele>52.7</ele>
        <time>2018-12-09T09:13:11Z</time>
      </trkpt>
      <trkpt lat="49.09535" lon="1.09498">
        <ele>52.6</ele>
        <time>2018-12-09T09:13:14Z</time>
      </trkpt>
      <trkpt lat="49.09545" lon="1.095">
        <ele>52.2</ele>
        <time>2018-12-09T09:13:17Z</time>
      </trkpt>
      <trkpt lat="49.09556" lon="1.09502">
        <ele>51.8</ele>
        <time>2018-12-09T09:13:21Z</time>
      </trkpt>
      <trkpt lat="49.09567" lon="1.09508">
        <ele>51.7</ele>
        <time>2018-12-09T09:13:24Z</time>
      </trkpt>
      <trkpt lat="49.09577" lon="1.09511">
        <ele>51.3</ele>
        <time>2018-12-09T09:13:27Z</time>
      </trkpt>
      <trkpt lat="49.09586" lon="1.09516">
        <ele>51</ele>
        <time>2018-12-09T09:13:29Z</time>
      </trkpt>
      <trkpt lat="49.09595" lon="1.09522">
        <ele>50.6</ele>
        <time>2018-12-09T09:13:31Z</time>
      </trkpt>
      <trkpt lat="49.09606" lon="1.09534">
        <ele>50.3</ele>
        <time>2018-12-09T09:13:34Z</time>
      </trkpt>
      <trkpt lat="49.09615" lon="1.0954">
        <ele>50</ele>
        <time>2018-12-09T09:13:36Z</time>
      </trkpt>
      <trkpt lat="49.09624" lon="1.09549">
        <ele>49.3</ele>
        <time>2018-12-09T09:13:38Z</time>
      </trkpt>
      <trkpt lat="49.09633" lon="1.09558">
        <ele>49</ele>
        <time>2018-12-09T09:13:40Z</time>
      </trkpt>
      <trkpt lat="49.09645" lon="1.09569">
        <ele>49</ele>
        <time>2018-12-09T09:13:43Z</time>
      </trkpt>
      <trkpt lat="49.09652" lon="1.09578">
        <ele>48.7</ele>
        <time>2018-12-09T09:13:45Z</time>
      </trkpt>
      <trkpt lat="49.09663" lon="1.09591">
        <ele>48.5</ele>
        <time>2018-12-09T09:13:48Z</time>
      </trkpt>
      <trkpt lat="49.0967" lon="1.09602">
        <ele>48.2</ele>
        <time>2018-12-09T09:13:50Z</time>
      </trkpt>
      <trkpt lat="49.09679" lon="1.09616">
        <ele>47.6</ele>
        <time>2018-12-09T09:13:53Z</time>
      </trkpt>
      <trkpt lat="49.09687" lon="1.09629">
        <ele>47.5</ele>
        <time>2018-12-09T09:13:56Z</time>
      </trkpt>
      <trkpt lat="49.09696" lon="1.0964">
        <ele>47.5</ele>
        <time>2018-12-09T09:13:59Z</time>
      </trkpt>
      <trkpt lat="49.09705" lon="1.09653">
        <ele>47.3</ele>
        <time>2018-12-09T09:14:01Z</time>
      </trkpt>
      <trkpt lat="49.09713" lon="1.09665">
        <ele>46.9</ele>
        <time>2018-12-09T09:14:03Z</time>
      </trkpt>
      <trkpt lat="49.0972" lon="1.09678">
        <ele>46.8</ele>
        <time>2018-12-09T09:14:05Z</time>
      </trkpt>
      <trkpt lat="49.09728" lon="1.09689">
        <ele>46.7</ele>
        <time>2018-12-09T09:14:07Z</time>
      </trkpt>
      <trkpt lat="49.09734" lon="1.09702">
        <ele>46.7</ele>
        <time>2018-12-09T09:14:09Z</time>
      </trkpt>
      <trkpt lat="49.09744" lon="1.09714">
        <ele>46.3</ele>
        <time>2018-12-09T09:14:11Z</time>
      </trkpt>
      <trkpt lat="49.09751" lon="1.09727">
        <ele>46.2</ele>
        <time>2018-12-09T09:14:13Z</time>
      </trkpt>
      <trkpt lat="49.09761" lon="1.09739">
        <ele>46.1</ele>
        <time>2018-12-09T09:14:15Z</time>
      </trkpt>
      <trkpt lat="49.09768" lon="1.09751">
        <ele>45.9</ele>
        <time>2018-12-09T09:14:17Z</time>
      </trkpt>
      <trkpt lat="49.09777" lon="1.09762">
        <ele>45.6</ele>
        <time>2018-12-09T09:14:19Z</time>
      </trkpt>
      <trkpt lat="49.09784" lon="1.09774">
        <ele>45.3</ele>
        <time>2018-12-09T09:14:21Z</time>
      </trkpt>
      <trkpt lat="49.09792" lon="1.09787">
        <ele>45.4</ele>
        <time>2018-12-09T09:14:23Z</time>
      </trkpt>
      <trkpt lat="49.09799" lon="1.098">
        <ele>45.4</ele>
        <time>2018-12-09T09:14:25Z</time>
      </trkpt>
      <trkpt lat="49.09808" lon="1.09812">
        <ele>45.1</ele>
        <time>2018-12-09T09:14:27Z</time>
      </trkpt>
      <trkpt lat="49.09818" lon="1.09825">
        <ele>44.9</ele>
        <time>2018-12-09T09:14:29Z</time>
      </trkpt>
      <trkpt lat="49.09826" lon="1.09838">
        <ele>44.8</ele>
        <time>2018-12-09T09:14:31Z</time>
      </trkpt>
      <trkpt lat="49.09833" lon="1.09851">
        <ele>44.3</ele>
        <time>2018-12-09T09:14:33Z</time>
      </trkpt>
      <trkpt lat="49.09839" lon="1.09865">
        <ele>44</ele>
        <time>2018-12-09T09:14:35Z</time>
      </trkpt>
      <trkpt lat="49.09849" lon="1.09879">
        <ele>43.6</ele>
        <time>2018-12-09T09:14:37Z</time>
      </trkpt>
      <trkpt lat="49.09859" lon="1.09893">
        <ele>43.6</ele>
        <time>2018-12-09T09:14:39Z</time>
      </trkpt>
      <trkpt lat="49.09866" lon="1.09907">
        <ele>43.4</ele>
        <time>2018-12-09T09:14:41Z</time>
      </trkpt>
      <trkpt lat="49.09874" lon="1.09921">
        <ele>43.3</ele>
        <time>2018-12-09T09:14:43Z</time>
      </trkpt>
      <trkpt lat="49.09881" lon="1.09935">
        <ele>43.1</ele>
        <time>2018-12-09T09:14:45Z</time>
      </trkpt>
      <trkpt lat="49.09888" lon="1.0995">
        <ele>43</ele>
        <time>2018-12-09T09:14:47Z</time>
      </trkpt>
      <trkpt lat="49.09895" lon="1.09963">
        <ele>42.8</ele>
        <time>2018-12-09T09:14:49Z</time>
      </trkpt>
      <trkpt lat="49.09903" lon="1.09976">
        <ele>42.9</ele>
        <time>2018-12-09T09:14:51Z</time>
      </trkpt>
      <trkpt lat="49.0991" lon="1.09989">
        <ele>42.7</ele>
        <time>2018-12-09T09:14:53Z</time>
      </trkpt>
      <trkpt lat="49.09917" lon="1.10004">
        <ele>42.4</ele>
        <time>2018-12-09T09:14:55Z</time>
      </trkpt>
      <trkpt lat="49.09924" lon="1.1002">
        <ele>42</ele>
        <time>2018-12-09T09:14:57Z</time>
      </trkpt>
      <trkpt lat="49.09933" lon="1.10035">
        <ele>41.8</ele>
        <time>2018-12-09T09:14:59Z</time>
      </trkpt>
      <trkpt lat="49.09939" lon="1.10051">
        <ele>41.6</ele>
        <time>2018-12-09T09:15:01Z</time>
      </trkpt>
      <trkpt lat="49.09946" lon="1.10066">
        <ele>41.3</ele>
        <time>2018-12-09T09:15:03Z</time>
      </trkpt>
      <trkpt lat="49.09953" lon="1.1008">
        <ele>40.8</ele>
        <time>2018-12-09T09:15:05Z</time>
      </trkpt>
      <trkpt lat="49.09962" lon="1.10093">
        <ele>40.8</ele>
        <time>2018-12-09T09:15:07Z</time>
      </trkpt>
      <trkpt lat="49.09972" lon="1.10105">
        <ele>40.7</ele>
        <time>2018-12-09T09:15:09Z</time>
      </trkpt>
      <trkpt lat="49.09982" lon="1.10116">
        <ele>40.4</ele>
        <time>2018-12-09T09:15:11Z</time>
      </trkpt>
      <trkpt lat="49.09991" lon="1.10129">
        <ele>40</ele>
        <time>2018-12-09T09:15:13Z</time>
      </trkpt>
      <trkpt lat="49.09998" lon="1.10144">
        <ele>39.7</ele>
        <time>2018-12-09T09:15:15Z</time>
      </trkpt>
      <trkpt lat="49.10003" lon="1.10159">
        <ele>39.3</ele>
        <time>2018-12-09T09:15:17Z</time>
      </trkpt>
      <trkpt lat="49.10009" lon="1.10175">
        <ele>38.9</ele>
        <time>2018-12-09T09:15:19Z</time>
      </trkpt>
      <trkpt lat="49.10016" lon="1.10189">
        <ele>38.5</ele>
        <time>2018-12-09T09:15:21Z</time>
      </trkpt>
      <trkpt lat="49.10022" lon="1.10204">
        <ele>38.2</ele>
        <time>2018-12-09T09:15:23Z</time>
      </trkpt>
      <trkpt lat="49.10027" lon="1.10219">
        <ele>38.2</ele>
        <time>2018-12-09T09:15:25Z</time>
      </trkpt>
      <trkpt lat="49.10032" lon="1.10234">
        <ele>37.9</ele>
        <time>2018-12-09T09:15:27Z</time>
      </trkpt>
      <trkpt lat="49.10038" lon="1.10249">
        <ele>37.7</ele>
        <time>2018-12-09T09:15:29Z</time>
      </trkpt>
      <trkpt lat="49.10045" lon="1.10264">
        <ele>37.3</ele>
        <time>2018-12-09T09:15:31Z</time>
      </trkpt>
      <trkpt lat="49.10051" lon="1.1028">
        <ele>36.7</ele>
        <time>2018-12-09T09:15:34Z</time>
      </trkpt>
      <trkpt lat="49.10052" lon="1.10296">
        <ele>36.2</ele>
        <time>2018-12-09T09:15:38Z</time>
      </trkpt>
      <trkpt lat="49.10059" lon="1.10307">
        <ele>35.8</ele>
        <time>2018-12-09T09:15:42Z</time>
      </trkpt>
      <trkpt lat="49.10063" lon="1.10325">
        <ele>35.2</ele>
        <time>2018-12-09T09:15:45Z</time>
      </trkpt>
      <trkpt lat="49.10065" lon="1.10345">
        <ele>35.1</ele>
        <time>2018-12-09T09:15:48Z</time>
      </trkpt>
      <trkpt lat="49.10069" lon="1.10365">
        <ele>34.6</ele>
        <time>2018-12-09T09:15:51Z</time>
      </trkpt>
      <trkpt lat="49.10077" lon="1.10378">
        <ele>34</ele>
        <time>2018-12-09T09:15:54Z</time>
      </trkpt>
      <trkpt lat="49.10085" lon="1.10389">
        <ele>33.4</ele>
        <time>2018-12-09T09:15:57Z</time>
      </trkpt>
      <trkpt lat="49.10094" lon="1.10396">
        <ele>33</ele>
        <time>2018-12-09T09:15:59Z</time>
      </trkpt>
      <trkpt lat="49.10103" lon="1.10402">
        <ele>32.7</ele>
        <time>2018-12-09T09:16:01Z</time>
      </trkpt>
      <trkpt lat="49.10112" lon="1.10406">
        <ele>32.7</ele>
        <time>2018-12-09T09:16:03Z</time>
      </trkpt>
      <trkpt lat="49.10122" lon="1.10408">
        <ele>32.7</ele>
        <time>2018-12-09T09:16:05Z</time>
      </trkpt>
      <trkpt lat="49.10133" lon="1.1041">
        <ele>32.7</ele>
        <time>2018-12-09T09:16:07Z</time>
      </trkpt>
      <trkpt lat="49.10144" lon="1.1041">
        <ele>32.7</ele>
        <time>2018-12-09T09:16:09Z</time>
      </trkpt>
      <trkpt lat="49.10154" lon="1.10409">
        <ele>32.9</ele>
        <time>2018-12-09T09:16:11Z</time>
      </trkpt>
      <trkpt lat="49.10165" lon="1.10408">
        <ele>33</ele>
        <time>2018-12-09T09:16:13Z</time>
      </trkpt>
      <trkpt lat="49.10175" lon="1.10408">
        <ele>33.2</ele>
        <time>2018-12-09T09:16:15Z</time>
      </trkpt>
      <trkpt lat="49.10186" lon="1.10407">
        <ele>33.2</ele>
        <time>2018-12-09T09:16:17Z</time>
      </trkpt>
      <trkpt lat="49.10196" lon="1.10406">
        <ele>33.2</ele>
        <time>2018-12-09T09:16:19Z</time>
      </trkpt>
      <trkpt lat="49.10206" lon="1.10405">
        <ele>33.1</ele>
        <time>2018-12-09T09:16:21Z</time>
      </trkpt>
      <trkpt lat="49.10217" lon="1.10404">
        <ele>32.9</ele>
        <time>2018-12-09T09:16:23Z</time>
      </trkpt>
      <trkpt lat="49.10227" lon="1.10403">
        <ele>32.8</ele>
        <time>2018-12-09T09:16:25Z</time>
      </trkpt>
      <trkpt lat="49.10238" lon="1.10402">
        <ele>32.9</ele>
        <time>2018-12-09T09:16:27Z</time>
      </trkpt>
      <trkpt lat="49.10248" lon="1.10401">
        <ele>33</ele>
        <time>2018-12-09T09:16:29Z</time>
      </trkpt>
      <trkpt lat="49.10259" lon="1.10401">
        <ele>32.7</ele>
        <time>2018-12-09T09:16:31Z</time>
      </trkpt>
      <trkpt lat="49.10269" lon="1.10402">
        <ele>32.5</ele>
        <time>2018-12-09T09:16:33Z</time>
      </trkpt>
      <trkpt lat="49.1028" lon="1.10406">
        <ele>32.3</ele>
        <time>2018-12-09T09:16:35Z</time>
      </trkpt>
      <trkpt lat="49.1029" lon="1.10412">
        <ele>32.3</ele>
        <time>2018-12-09T09:16:37Z</time>
      </trkpt>
      <trkpt lat="49.103" lon="1.10418">
        <ele>32.3</ele>
        <time>2018-12-09T09:16:39Z</time>
      </trkpt>
      <trkpt lat="49.1031" lon="1.10424">
        <ele>32.2</ele>
        <time>2018-12-09T09:16:41Z</time>
      </trkpt>
      <trkpt lat="49.10319" lon="1.10431">
        <ele>32.2</ele>
        <time>2018-12-09T09:16:43Z</time>
      </trkpt>
      <trkpt lat="49.10328" lon="1.10439">
        <ele>32.3</ele>
        <time>2018-12-09T09:16:45Z</time>
      </trkpt>
      <trkpt lat="49.10336" lon="1.10449">
        <ele>32.5</ele>
        <time>2018-12-09T09:16:47Z</time>
      </trkpt>
      <trkpt lat="49.10342" lon="1.1046">
        <ele>32.7</ele>
        <time>2018-12-09T09:16:49Z</time>
      </trkpt>
      <trkpt lat="49.10348" lon="1.10472">
        <ele>33</ele>
        <time>2018-12-09T09:16:51Z</time>
      </trkpt>
      <trkpt lat="49.10354" lon="1.10483">
        <ele>33.1</ele>
        <time>2018-12-09T09:16:53Z</time>
      </trkpt>
      <trkpt lat="49.1036" lon="1.10494">
        <ele>33.4</ele>
        <time>2018-12-09T09:16:55Z</time>
      </trkpt>
      <trkpt lat="49.10367" lon="1.10503">
        <ele>33.7</ele>
        <time>2018-12-09T09:16:57Z</time>
      </trkpt>
      <trkpt lat="49.10375" lon="1.1051">
        <ele>34</ele>
        <time>2018-12-09T09:16:59Z</time>
      </trkpt>
      <trkpt lat="49.10386" lon="1.10514">
        <ele>34.5</ele>
        <time>2018-12-09T09:17:02Z</time>
      </trkpt>
      <trkpt lat="49.10397" lon="1.10522">
        <ele>35.2</ele>
        <time>2018-12-09T09:17:06Z</time>
      </trkpt>
      <trkpt lat="49.10406" lon="1.10536">
        <ele>35.1</ele>
        <time>2018-12-09T09:17:09Z</time>
      </trkpt>
      <trkpt lat="49.10412" lon="1.10548">
        <ele>34.8</ele>
        <time>2018-12-09T09:17:11Z</time>
      </trkpt>
      <trkpt lat="49.10419" lon="1.10562">
        <ele>34.5</ele>
        <time>2018-12-09T09:17:13Z</time>
      </trkpt>
      <trkpt lat="49.10427" lon="1.10576">
        <ele>34.1</ele>
        <time>2018-12-09T09:17:15Z</time>
      </trkpt>
      <trkpt lat="49.10435" lon="1.10591">
        <ele>33.6</ele>
        <time>2018-12-09T09:17:17Z</time>
      </trkpt>
      <trkpt lat="49.10443" lon="1.10606">
        <ele>33.1</ele>
        <time>2018-12-09T09:17:19Z</time>
      </trkpt>
      <trkpt lat="49.10451" lon="1.10621">
        <ele>32.5</ele>
        <time>2018-12-09T09:17:21Z</time>
      </trkpt>
      <trkpt lat="49.1046" lon="1.10636">
        <ele>32.2</ele>
        <time>2018-12-09T09:17:23Z</time>
      </trkpt>
      <trkpt lat="49.10468" lon="1.10649">
        <ele>32</ele>
        <time>2018-12-09T09:17:25Z</time>
      </trkpt>
      <trkpt lat="49.10478" lon="1.1066">
        <ele>31.7</ele>
        <time>2018-12-09T09:17:27Z</time>
      </trkpt>
      <trkpt lat="49.10487" lon="1.10671">
        <ele>31.5</ele>
        <time>2018-12-09T09:17:29Z</time>
      </trkpt>
      <trkpt lat="49.10497" lon="1.10681">
        <ele>31.5</ele>
        <time>2018-12-09T09:17:31Z</time>
      </trkpt>
      <trkpt lat="49.10507" lon="1.1069">
        <ele>31.4</ele>
        <time>2018-12-09T09:17:33Z</time>
      </trkpt>
      <trkpt lat="49.10517" lon="1.10699">
        <ele>31.2</ele>
        <time>2018-12-09T09:17:35Z</time>
      </trkpt>
      <trkpt lat="49.10526" lon="1.10708">
        <ele>31.1</ele>
        <time>2018-12-09T09:17:37Z</time>
      </trkpt>
      <trkpt lat="49.10531" lon="1.1072">
        <ele>30.9</ele>
        <time>2018-12-09T09:17:39Z</time>
      </trkpt>
      <trkpt lat="49.10527" lon="1.1074">
        <ele>30.4</ele>
        <time>2018-12-09T09:17:42Z</time>
      </trkpt>
      <trkpt lat="49.10524" lon="1.10755">
        <ele>30.4</ele>
        <time>2018-12-09T09:17:44Z</time>
      </trkpt>
      <trkpt lat="49.10524" lon="1.10772">
        <ele>30.3</ele>
        <time>2018-12-09T09:17:46Z</time>
      </trkpt>
      <trkpt lat="49.10523" lon="1.10789">
        <ele>30.1</ele>
        <time>2018-12-09T09:17:48Z</time>
      </trkpt>
      <trkpt lat="49.10521" lon="1.10805">
        <ele>30</ele>
        <time>2018-12-09T09:17:50Z</time>
      </trkpt>
      <trkpt lat="49.1052" lon="1.10822">
        <ele>29.8</ele>
        <time>2018-12-09T09:17:52Z</time>
      </trkpt>
      <trkpt lat="49.10519" lon="1.10838">
        <ele>29.8</ele>
        <time>2018-12-09T09:17:54Z</time>
      </trkpt>
      <trkpt lat="49.10517" lon="1.10854">
        <ele>29.7</ele>
        <time>2018-12-09T09:17:56Z</time>
      </trkpt>
      <trkpt lat="49.10517" lon="1.1087">
        <ele>29.5</ele>
        <time>2018-12-09T09:17:58Z</time>
      </trkpt>
      <trkpt lat="49.10517" lon="1.10886">
        <ele>29.3</ele>
        <time>2018-12-09T09:18:00Z</time>
      </trkpt>
      <trkpt lat="49.10518" lon="1.10903">
        <ele>29.2</ele>
        <time>2018-12-09T09:18:02Z</time>
      </trkpt>
      <trkpt lat="49.1052" lon="1.10919">
        <ele>29</ele>
        <time>2018-12-09T09:18:04Z</time>
      </trkpt>
      <trkpt lat="49.10523" lon="1.10934">
        <ele>28.9</ele>
        <time>2018-12-09T09:18:06Z</time>
      </trkpt>
      <trkpt lat="49.10527" lon="1.10949">
        <ele>28.8</ele>
        <time>2018-12-09T09:18:08Z</time>
      </trkpt>
      <trkpt lat="49.1053" lon="1.10965">
        <ele>28.6</ele>
        <time>2018-12-09T09:18:10Z</time>
      </trkpt>
      <trkpt lat="49.10534" lon="1.1098">
        <ele>28.4</ele>
        <time>2018-12-09T09:18:12Z</time>
      </trkpt>
      <trkpt lat="49.10537" lon="1.10996">
        <ele>28.4</ele>
        <time>2018-12-09T09:18:14Z</time>
      </trkpt>
      <trkpt lat="49.10539" lon="1.11012">
        <ele>28.5</ele>
        <time>2018-12-09T09:18:16Z</time>
      </trkpt>
      <trkpt lat="49.10541" lon="1.11029">
        <ele>28.4</ele>
        <time>2018-12-09T09:18:18Z</time>
      </trkpt>
      <trkpt lat="49.10542" lon="1.11045">
        <ele>28.4</ele>
        <time>2018-12-09T09:18:20Z</time>
      </trkpt>
      <trkpt lat="49.10544" lon="1.1106">
        <ele>28.4</ele>
        <time>2018-12-09T09:18:22Z</time>
      </trkpt>
      <trkpt lat="49.10547" lon="1.11076">
        <ele>28.5</ele>
        <time>2018-12-09T09:18:24Z</time>
      </trkpt>
      <trkpt lat="49.1055" lon="1.11091">
        <ele>28.5</ele>
        <time>2018-12-09T09:18:26Z</time>
      </trkpt>
      <trkpt lat="49.10554" lon="1.11107">
        <ele>28.3</ele>
        <time>2018-12-09T09:18:28Z</time>
      </trkpt>
      <trkpt lat="49.10557" lon="1.11122">
        <ele>28.2</ele>
        <time>2018-12-09T09:18:30Z</time>
      </trkpt>
      <trkpt lat="49.1056" lon="1.11138">
        <ele>28.1</ele>
        <time>2018-12-09T09:18:32Z</time>
      </trkpt>
      <trkpt lat="49.10562" lon="1.11155">
        <ele>27.9</ele>
        <time>2018-12-09T09:18:34Z</time>
      </trkpt>
      <trkpt lat="49.10563" lon="1.11171">
        <ele>27.8</ele>
        <time>2018-12-09T09:18:36Z</time>
      </trkpt>
      <trkpt lat="49.10563" lon="1.11187">
        <ele>27.6</ele>
        <time>2018-12-09T09:18:38Z</time>
      </trkpt>
      <trkpt lat="49.10562" lon="1.11203">
        <ele>27.4</ele>
        <time>2018-12-09T09:18:40Z</time>
      </trkpt>
      <trkpt lat="49.10559" lon="1.11216">
        <ele>27.4</ele>
        <time>2018-12-09T09:18:42Z</time>
      </trkpt>
      <trkpt lat="49.10547" lon="1.11218">
        <ele>27.2</ele>
        <time>2018-12-09T09:18:45Z</time>
      </trkpt>
      <trkpt lat="49.10535" lon="1.11212">
        <ele>27.1</ele>
        <time>2018-12-09T09:18:48Z</time>
      </trkpt>
      <trkpt lat="49.10525" lon="1.1121">
        <ele>27.1</ele>
        <time>2018-12-09T09:18:50Z</time>
      </trkpt>
      <trkpt lat="49.10516" lon="1.11207">
        <ele>27.4</ele>
        <time>2018-12-09T09:18:52Z</time>
      </trkpt>
      <trkpt lat="49.10506" lon="1.11208">
        <ele>27.7</ele>
        <time>2018-12-09T09:18:54Z</time>
      </trkpt>
      <trkpt lat="49.10496" lon="1.1121">
        <ele>27.8</ele>
        <time>2018-12-09T09:18:56Z</time>
      </trkpt>
      <trkpt lat="49.10487" lon="1.11214">
        <ele>27.7</ele>
        <time>2018-12-09T09:18:58Z</time>
      </trkpt>
      <trkpt lat="49.10477" lon="1.11218">
        <ele>27.6</ele>
        <time>2018-12-09T09:19:00Z</time>
      </trkpt>
      <trkpt lat="49.10468" lon="1.11221">
        <ele>27.7</ele>
        <time>2018-12-09T09:19:02Z</time>
      </trkpt>
      <trkpt lat="49.10458" lon="1.11222">
        <ele>27.8</ele>
        <time>2018-12-09T09:19:04Z</time>
      </trkpt>
      <trkpt lat="49.10448" lon="1.1122">
        <ele>27.2</ele>
        <time>2018-12-09T09:19:06Z</time>
      </trkpt>
      <trkpt lat="49.10438" lon="1.11216">
        <ele>27.4</ele>
        <time>2018-12-09T09:19:08Z</time>
      </trkpt>
      <trkpt lat="49.10428" lon="1.11212">
        <ele>27.7</ele>
        <time>2018-12-09T09:19:10Z</time>
      </trkpt>
      <trkpt lat="49.10419" lon="1.11208">
        <ele>27.9</ele>
        <time>2018-12-09T09:19:12Z</time>
      </trkpt>
      <trkpt lat="49.10409" lon="1.11204">
        <ele>27.8</ele>
        <time>2018-12-09T09:19:14Z</time>
      </trkpt>
      <trkpt lat="49.10399" lon="1.112">
        <ele>27.7</ele>
        <time>2018-12-09T09:19:16Z</time>
      </trkpt>
      <trkpt lat="49.10389" lon="1.11197">
        <ele>27.7</ele>
        <time>2018-12-09T09:19:18Z</time>
      </trkpt>
      <trkpt lat="49.10379" lon="1.11194">
        <ele>27.7</ele>
        <time>2018-12-09T09:19:20Z</time>
      </trkpt>
      <trkpt lat="49.1037" lon="1.11196">
        <ele>27.6</ele>
        <time>2018-12-09T09:19:22Z</time>
      </trkpt>
      <trkpt lat="49.10363" lon="1.11206">
        <ele>27.5</ele>
        <time>2018-12-09T09:19:24Z</time>
      </trkpt>
      <trkpt lat="49.10359" lon="1.11219">
        <ele>27.6</ele>
        <time>2018-12-09T09:19:26Z</time>
      </trkpt>
      <trkpt lat="49.10357" lon="1.11232">
        <ele>27.8</ele>
        <time>2018-12-09T09:19:28Z</time>
      </trkpt>
      <trkpt lat="49.10354" lon="1.11246">
        <ele>27.7</ele>
        <time>2018-12-09T09:19:30Z</time>
      </trkpt>
      <trkpt lat="49.10352" lon="1.1126">
        <ele>27.9</ele>
        <time>2018-12-09T09:19:32Z</time>
      </trkpt>
      <trkpt lat="49.10348" lon="1.11279">
        <ele>28.5</ele>
        <time>2018-12-09T09:19:35Z</time>
      </trkpt>
      <trkpt lat="49.10345" lon="1.11298">
        <ele>29.2</ele>
        <time>2018-12-09T09:19:38Z</time>
      </trkpt>
      <trkpt lat="49.10341" lon="1.11318">
        <ele>29.4</ele>
        <time>2018-12-09T09:19:41Z</time>
      </trkpt>
      <trkpt lat="49.10338" lon="1.11331">
        <ele>29.7</ele>
        <time>2018-12-09T09:19:43Z</time>
      </trkpt>
      <trkpt lat="49.10334" lon="1.11343">
        <ele>29.9</ele>
        <time>2018-12-09T09:19:45Z</time>
      </trkpt>
      <trkpt lat="49.10326" lon="1.11359">
        <ele>30</ele>
        <time>2018-12-09T09:19:48Z</time>
      </trkpt>
      <trkpt lat="49.1032" lon="1.11373">
        <ele>30.4</ele>
        <time>2018-12-09T09:19:51Z</time>
      </trkpt>
      <trkpt lat="49.10324" lon="1.11385">
        <ele>31</ele>
        <time>2018-12-09T09:19:54Z</time>
      </trkpt>
      <trkpt lat="49.10322" lon="1.11403">
        <ele>31.4</ele>
        <time>2018-12-09T09:19:58Z</time>
      </trkpt>
      <trkpt lat="49.10314" lon="1.11413">
        <ele>32.2</ele>
        <time>2018-12-09T09:20:03Z</time>
      </trkpt>
      <trkpt lat="49.10305" lon="1.11412">
        <ele>33</ele>
        <time>2018-12-09T09:20:08Z</time>
      </trkpt>
      <trkpt lat="49.10299" lon="1.11414">
        <ele>33.8</ele>
        <time>2018-12-09T09:20:17Z</time>
      </trkpt>
      <trkpt lat="49.103" lon="1.11414">
        <ele>34.4</ele>
        <time>2018-12-09T09:20:21Z</time>
      </trkpt>
      <trkpt lat="49.10293" lon="1.11424">
        <ele>33.5</ele>
        <time>2018-12-09T09:24:31Z</time>
      </trkpt>
      <trkpt lat="49.1029" lon="1.1144">
        <ele>34.2</ele>
        <time>2018-12-09T09:24:36Z</time>
      </trkpt>
      <trkpt lat="49.10288" lon="1.11456">
        <ele>34.9</ele>
        <time>2018-12-09T09:24:40Z</time>
      </trkpt>
      <trkpt lat="49.10286" lon="1.11472">
        <ele>35.6</ele>
        <time>2018-12-09T09:24:44Z</time>
      </trkpt>
      <trkpt lat="49.10283" lon="1.11488">
        <ele>36.2</ele>
        <time>2018-12-09T09:24:48Z</time>
      </trkpt>
      <trkpt lat="49.10282" lon="1.11503">
        <ele>36.9</ele>
        <time>2018-12-09T09:24:52Z</time>
      </trkpt>
      <trkpt lat="49.1028" lon="1.11518">
        <ele>37.7</ele>
        <time>2018-12-09T09:24:57Z</time>
      </trkpt>
      <trkpt lat="49.10278" lon="1.11534">
        <ele>38.5</ele>
        <time>2018-12-09T09:25:02Z</time>
      </trkpt>
      <trkpt lat="49.10278" lon="1.11548">
        <ele>39.7</ele>
        <time>2018-12-09T09:25:07Z</time>
      </trkpt>
      <trkpt lat="49.10281" lon="1.11564">
        <ele>41</ele>
        <time>2018-12-09T09:25:12Z</time>
      </trkpt>
      <trkpt lat="49.10286" lon="1.11578">
        <ele>42</ele>
        <time>2018-12-09T09:25:18Z</time>
      </trkpt>
      <trkpt lat="49.1029" lon="1.11591">
        <ele>43</ele>
        <time>2018-12-09T09:25:23Z</time>
      </trkpt>
      <trkpt lat="49.10288" lon="1.11605">
        <ele>43.9</ele>
        <time>2018-12-09T09:25:28Z</time>
      </trkpt>
      <trkpt lat="49.1028" lon="1.11613">
        <ele>45.2</ele>
        <time>2018-12-09T09:25:35Z</time>
      </trkpt>
      <trkpt lat="49.1027" lon="1.11615">
        <ele>46.3</ele>
        <time>2018-12-09T09:25:41Z</time>
      </trkpt>
      <trkpt lat="49.1026" lon="1.11616">
        <ele>48</ele>
        <time>2018-12-09T09:25:47Z</time>
      </trkpt>
      <trkpt lat="49.10251" lon="1.11616">
        <ele>48.8</ele>
        <time>2018-12-09T09:25:52Z</time>
      </trkpt>
      <trkpt lat="49.10242" lon="1.1162">
        <ele>50.9</ele>
        <time>2018-12-09T09:25:57Z</time>
      </trkpt>
      <trkpt lat="49.10232" lon="1.11621">
        <ele>53.6</ele>
        <time>2018-12-09T09:26:03Z</time>
      </trkpt>
      <trkpt lat="49.10222" lon="1.1162">
        <ele>55.4</ele>
        <time>2018-12-09T09:26:09Z</time>
      </trkpt>
      <trkpt lat="49.10213" lon="1.11613">
        <ele>56.8</ele>
        <time>2018-12-09T09:26:15Z</time>
      </trkpt>
      <trkpt lat="49.10204" lon="1.11608">
        <ele>57.5</ele>
        <time>2018-12-09T09:26:20Z</time>
      </trkpt>
      <trkpt lat="49.10193" lon="1.11605">
        <ele>58.4</ele>
        <time>2018-12-09T09:26:25Z</time>
      </trkpt>
      <trkpt lat="49.10184" lon="1.11605">
        <ele>59.3</ele>
        <time>2018-12-09T09:26:29Z</time>
      </trkpt>
      <trkpt lat="49.10175" lon="1.1161">
        <ele>59.9</ele>
        <time>2018-12-09T09:26:33Z</time>
      </trkpt>
      <trkpt lat="49.10167" lon="1.11618">
        <ele>61</ele>
        <time>2018-12-09T09:26:38Z</time>
      </trkpt>
      <trkpt lat="49.10158" lon="1.11626">
        <ele>62</ele>
        <time>2018-12-09T09:26:43Z</time>
      </trkpt>
      <trkpt lat="49.10152" lon="1.11637">
        <ele>63.1</ele>
        <time>2018-12-09T09:26:49Z</time>
      </trkpt>
      <trkpt lat="49.1015" lon="1.11651">
        <ele>64.6</ele>
        <time>2018-12-09T09:26:55Z</time>
      </trkpt>
      <trkpt lat="49.10148" lon="1.11667">
        <ele>66.2</ele>
        <time>2018-12-09T09:27:02Z</time>
      </trkpt>
      <trkpt lat="49.10147" lon="1.11682">
        <ele>67.9</ele>
        <time>2018-12-09T09:27:07Z</time>
      </trkpt>
      <trkpt lat="49.10155" lon="1.11692">
        <ele>69.3</ele>
        <time>2018-12-09T09:27:13Z</time>
      </trkpt>
      <trkpt lat="49.10162" lon="1.11701">
        <ele>70.2</ele>
        <time>2018-12-09T09:27:18Z</time>
      </trkpt>
      <trkpt lat="49.10171" lon="1.1171">
        <ele>71.1</ele>
        <time>2018-12-09T09:27:24Z</time>
      </trkpt>
      <trkpt lat="49.10179" lon="1.11717">
        <ele>72.2</ele>
        <time>2018-12-09T09:27:29Z</time>
      </trkpt>
      <trkpt lat="49.10188" lon="1.11725">
        <ele>72.9</ele>
        <time>2018-12-09T09:27:34Z</time>
      </trkpt>
      <trkpt lat="49.10196" lon="1.11732">
        <ele>73</ele>
        <time>2018-12-09T09:27:38Z</time>
      </trkpt>
      <trkpt lat="49.10204" lon="1.11739">
        <ele>73.7</ele>
        <time>2018-12-09T09:27:42Z</time>
      </trkpt>
      <trkpt lat="49.10212" lon="1.11748">
        <ele>74.4</ele>
        <time>2018-12-09T09:27:46Z</time>
      </trkpt>
      <trkpt lat="49.10221" lon="1.11757">
        <ele>74.7</ele>
        <time>2018-12-09T09:27:50Z</time>
      </trkpt>
      <trkpt lat="49.10229" lon="1.11768">
        <ele>75.4</ele>
        <time>2018-12-09T09:27:54Z</time>
      </trkpt>
      <trkpt lat="49.10235" lon="1.1178">
        <ele>76.2</ele>
        <time>2018-12-09T09:27:58Z</time>
      </trkpt>
      <trkpt lat="49.10242" lon="1.11792">
        <ele>77.3</ele>
        <time>2018-12-09T09:28:02Z</time>
      </trkpt>
      <trkpt lat="49.10248" lon="1.11804">
        <ele>78.3</ele>
        <time>2018-12-09T09:28:06Z</time>
      </trkpt>
      <trkpt lat="49.10256" lon="1.11817">
        <ele>79.6</ele>
        <time>2018-12-09T09:28:10Z</time>
      </trkpt>
      <trkpt lat="49.10263" lon="1.1183">
        <ele>81</ele>
        <time>2018-12-09T09:28:14Z</time>
      </trkpt>
      <trkpt lat="49.10271" lon="1.11843">
        <ele>82.7</ele>
        <time>2018-12-09T09:28:18Z</time>
      </trkpt>
      <trkpt lat="49.10279" lon="1.11854">
        <ele>83.6</ele>
        <time>2018-12-09T09:28:22Z</time>
      </trkpt>
      <trkpt lat="49.10287" lon="1.11866">
        <ele>84.3</ele>
        <time>2018-12-09T09:28:26Z</time>
      </trkpt>
      <trkpt lat="49.10294" lon="1.11878">
        <ele>85.6</ele>
        <time>2018-12-09T09:28:30Z</time>
      </trkpt>
      <trkpt lat="49.10301" lon="1.11891">
        <ele>86.2</ele>
        <time>2018-12-09T09:28:34Z</time>
      </trkpt>
      <trkpt lat="49.10307" lon="1.11905">
        <ele>86.7</ele>
        <time>2018-12-09T09:28:38Z</time>
      </trkpt>
      <trkpt lat="49.10313" lon="1.1192">
        <ele>87.9</ele>
        <time>2018-12-09T09:28:42Z</time>
      </trkpt>
      <trkpt lat="49.10318" lon="1.11934">
        <ele>89.5</ele>
        <time>2018-12-09T09:28:46Z</time>
      </trkpt>
      <trkpt lat="49.10321" lon="1.11948">
        <ele>90.7</ele>
        <time>2018-12-09T09:28:50Z</time>
      </trkpt>
      <trkpt lat="49.10324" lon="1.11963">
        <ele>91.4</ele>
        <time>2018-12-09T09:28:54Z</time>
      </trkpt>
      <trkpt lat="49.10327" lon="1.11978">
        <ele>92</ele>
        <time>2018-12-09T09:28:58Z</time>
      </trkpt>
      <trkpt lat="49.10332" lon="1.11993">
        <ele>93</ele>
        <time>2018-12-09T09:29:02Z</time>
      </trkpt>
      <trkpt lat="49.10337" lon="1.12007">
        <ele>93.7</ele>
        <time>2018-12-09T09:29:06Z</time>
      </trkpt>
      <trkpt lat="49.10344" lon="1.12021">
        <ele>94.8</ele>
        <time>2018-12-09T09:29:10Z</time>
      </trkpt>
      <trkpt lat="49.10351" lon="1.12033">
        <ele>95.8</ele>
        <time>2018-12-09T09:29:14Z</time>
      </trkpt>
      <trkpt lat="49.10359" lon="1.12044">
        <ele>97</ele>
        <time>2018-12-09T09:29:18Z</time>
      </trkpt>
      <trkpt lat="49.10368" lon="1.12053">
        <ele>97.8</ele>
        <time>2018-12-09T09:29:22Z</time>
      </trkpt>
      <trkpt lat="49.10377" lon="1.12059">
        <ele>99.1</ele>
        <time>2018-12-09T09:29:26Z</time>
      </trkpt>
      <trkpt lat="49.10385" lon="1.12069">
        <ele>100.4</ele>
        <time>2018-12-09T09:29:31Z</time>
      </trkpt>
      <trkpt lat="49.10394" lon="1.1208">
        <ele>101.6</ele>
        <time>2018-12-09T09:29:36Z</time>
      </trkpt>
      <trkpt lat="49.10402" lon="1.12092">
        <ele>103</ele>
        <time>2018-12-09T09:29:42Z</time>
      </trkpt>
      <trkpt lat="49.10408" lon="1.12102">
        <ele>104.1</ele>
        <time>2018-12-09T09:29:46Z</time>
      </trkpt>
      <trkpt lat="49.10416" lon="1.12115">
        <ele>105.3</ele>
        <time>2018-12-09T09:29:51Z</time>
      </trkpt>
      <trkpt lat="49.10422" lon="1.12124">
        <ele>106.3</ele>
        <time>2018-12-09T09:29:55Z</time>
      </trkpt>
      <trkpt lat="49.10428" lon="1.12135">
        <ele>106.8</ele>
        <time>2018-12-09T09:29:59Z</time>
      </trkpt>
      <trkpt lat="49.10435" lon="1.12147">
        <ele>107.1</ele>
        <time>2018-12-09T09:30:03Z</time>
      </trkpt>
      <trkpt lat="49.10443" lon="1.12157">
        <ele>107.9</ele>
        <time>2018-12-09T09:30:07Z</time>
      </trkpt>
      <trkpt lat="49.10449" lon="1.12167">
        <ele>108.5</ele>
        <time>2018-12-09T09:30:11Z</time>
      </trkpt>
      <trkpt lat="49.10457" lon="1.12176">
        <ele>109.2</ele>
        <time>2018-12-09T09:30:15Z</time>
      </trkpt>
      <trkpt lat="49.10465" lon="1.12185">
        <ele>110.1</ele>
        <time>2018-12-09T09:30:19Z</time>
      </trkpt>
      <trkpt lat="49.10472" lon="1.12197">
        <ele>111.1</ele>
        <time>2018-12-09T09:30:24Z</time>
      </trkpt>
      <trkpt lat="49.10473" lon="1.12211">
        <ele>111.4</ele>
        <time>2018-12-09T09:30:27Z</time>
      </trkpt>
      <trkpt lat="49.10476" lon="1.12227">
        <ele>111.5</ele>
        <time>2018-12-09T09:30:30Z</time>
      </trkpt>
      <trkpt lat="49.1048" lon="1.1224">
        <ele>111.8</ele>
        <time>2018-12-09T09:30:33Z</time>
      </trkpt>
      <trkpt lat="49.10484" lon="1.12253">
        <ele>111.8</ele>
        <time>2018-12-09T09:30:36Z</time>
      </trkpt>
      <trkpt lat="49.10488" lon="1.12267">
        <ele>112.1</ele>
        <time>2018-12-09T09:30:39Z</time>
      </trkpt>
      <trkpt lat="49.10492" lon="1.12281">
        <ele>112.3</ele>
        <time>2018-12-09T09:30:42Z</time>
      </trkpt>
      <trkpt lat="49.10495" lon="1.12295">
        <ele>112.4</ele>
        <time>2018-12-09T09:30:45Z</time>
      </trkpt>
      <trkpt lat="49.10498" lon="1.12309">
        <ele>112.3</ele>
        <time>2018-12-09T09:30:48Z</time>
      </trkpt>
      <trkpt lat="49.10501" lon="1.12322">
        <ele>112.3</ele>
        <time>2018-12-09T09:30:51Z</time>
      </trkpt>
      <trkpt lat="49.10505" lon="1.12337">
        <ele>112.7</ele>
        <time>2018-12-09T09:30:55Z</time>
      </trkpt>
      <trkpt lat="49.10511" lon="1.12348">
        <ele>113.2</ele>
        <time>2018-12-09T09:30:59Z</time>
      </trkpt>
      <trkpt lat="49.10516" lon="1.12361">
        <ele>114</ele>
        <time>2018-12-09T09:31:03Z</time>
      </trkpt>
      <trkpt lat="49.1052" lon="1.12379">
        <ele>114.5</ele>
        <time>2018-12-09T09:31:07Z</time>
      </trkpt>
      <trkpt lat="49.10525" lon="1.12395">
        <ele>115.1</ele>
        <time>2018-12-09T09:31:11Z</time>
      </trkpt>
      <trkpt lat="49.10528" lon="1.1241">
        <ele>115.5</ele>
        <time>2018-12-09T09:31:15Z</time>
      </trkpt>
      <trkpt lat="49.10531" lon="1.12427">
        <ele>116</ele>
        <time>2018-12-09T09:31:19Z</time>
      </trkpt>
      <trkpt lat="49.10533" lon="1.12443">
        <ele>116.8</ele>
        <time>2018-12-09T09:31:23Z</time>
      </trkpt>
      <trkpt lat="49.10539" lon="1.12458">
        <ele>117.2</ele>
        <time>2018-12-09T09:31:27Z</time>
      </trkpt>
      <trkpt lat="49.10545" lon="1.12473">
        <ele>117.8</ele>
        <time>2018-12-09T09:31:31Z</time>
      </trkpt>
      <trkpt lat="49.10548" lon="1.12491">
        <ele>118.1</ele>
        <time>2018-12-09T09:31:35Z</time>
      </trkpt>
      <trkpt lat="49.10548" lon="1.12506">
        <ele>118.5</ele>
        <time>2018-12-09T09:31:38Z</time>
      </trkpt>
      <trkpt lat="49.10551" lon="1.12522">
        <ele>118.5</ele>
        <time>2018-12-09T09:31:41Z</time>
      </trkpt>
      <trkpt lat="49.10556" lon="1.12538">
        <ele>118.7</ele>
        <time>2018-12-09T09:31:44Z</time>
      </trkpt>
      <trkpt lat="49.1056" lon="1.12552">
        <ele>119.3</ele>
        <time>2018-12-09T09:31:47Z</time>
      </trkpt>
      <trkpt lat="49.10564" lon="1.12567">
        <ele>120</ele>
        <time>2018-12-09T09:31:51Z</time>
      </trkpt>
      <trkpt lat="49.10566" lon="1.12584">
        <ele>120</ele>
        <time>2018-12-09T09:31:54Z</time>
      </trkpt>
      <trkpt lat="49.10572" lon="1.12599">
        <ele>119.8</ele>
        <time>2018-12-09T09:31:58Z</time>
      </trkpt>
      <trkpt lat="49.10576" lon="1.12616">
        <ele>120</ele>
        <time>2018-12-09T09:32:04Z</time>
      </trkpt>
      <trkpt lat="49.1058" lon="1.12629">
        <ele>120</ele>
        <time>2018-12-09T09:32:07Z</time>
      </trkpt>
      <trkpt lat="49.10585" lon="1.12642">
        <ele>119.8</ele>
        <time>2018-12-09T09:32:10Z</time>
      </trkpt>
      <trkpt lat="49.10588" lon="1.12656">
        <ele>119.9</ele>
        <time>2018-12-09T09:32:13Z</time>
      </trkpt>
      <trkpt lat="49.10592" lon="1.1267">
        <ele>119.5</ele>
        <time>2018-12-09T09:32:16Z</time>
      </trkpt>
      <trkpt lat="49.10596" lon="1.12685">
        <ele>118.8</ele>
        <time>2018-12-09T09:32:20Z</time>
      </trkpt>
      <trkpt lat="49.10599" lon="1.12699">
        <ele>118.3</ele>
        <time>2018-12-09T09:32:24Z</time>
      </trkpt>
      <trkpt lat="49.10601" lon="1.12713">
        <ele>118.2</ele>
        <time>2018-12-09T09:32:27Z</time>
      </trkpt>
      <trkpt lat="49.10605" lon="1.12728">
        <ele>118.4</ele>
        <time>2018-12-09T09:32:30Z</time>
      </trkpt>
      <trkpt lat="49.10609" lon="1.12741">
        <ele>118.9</ele>
        <time>2018-12-09T09:32:33Z</time>
      </trkpt>
      <trkpt lat="49.10612" lon="1.12755">
        <ele>119.5</ele>
        <time>2018-12-09T09:32:36Z</time>
      </trkpt>
      <trkpt lat="49.10615" lon="1.12768">
        <ele>119.9</ele>
        <time>2018-12-09T09:32:39Z</time>
      </trkpt>
      <trkpt lat="49.10619" lon="1.12783">
        <ele>120.4</ele>
        <time>2018-12-09T09:32:42Z</time>
      </trkpt>
      <trkpt lat="49.10622" lon="1.12797">
        <ele>121.5</ele>
        <time>2018-12-09T09:32:45Z</time>
      </trkpt>
      <trkpt lat="49.10626" lon="1.12811">
        <ele>122.7</ele>
        <time>2018-12-09T09:32:48Z</time>
      </trkpt>
      <trkpt lat="49.10631" lon="1.12825">
        <ele>124</ele>
        <time>2018-12-09T09:32:51Z</time>
      </trkpt>
      <trkpt lat="49.10636" lon="1.12839">
        <ele>125</ele>
        <time>2018-12-09T09:32:54Z</time>
      </trkpt>
      <trkpt lat="49.1064" lon="1.12854">
        <ele>126</ele>
        <time>2018-12-09T09:32:57Z</time>
      </trkpt>
      <trkpt lat="49.10646" lon="1.12869">
        <ele>126.4</ele>
        <time>2018-12-09T09:33:00Z</time>
      </trkpt>
      <trkpt lat="49.1065" lon="1.12884">
        <ele>126.3</ele>
        <time>2018-12-09T09:33:03Z</time>
      </trkpt>
      <trkpt lat="49.10654" lon="1.12899">
        <ele>126.2</ele>
        <time>2018-12-09T09:33:06Z</time>
      </trkpt>
      <trkpt lat="49.10658" lon="1.12916">
        <ele>126</ele>
        <time>2018-12-09T09:33:09Z</time>
      </trkpt>
      <trkpt lat="49.10663" lon="1.12935">
        <ele>125.7</ele>
        <time>2018-12-09T09:33:12Z</time>
      </trkpt>
      <trkpt lat="49.10667" lon="1.12951">
        <ele>125.2</ele>
        <time>2018-12-09T09:33:15Z</time>
      </trkpt>
      <trkpt lat="49.10665" lon="1.12964">
        <ele>124.9</ele>
        <time>2018-12-09T09:33:18Z</time>
      </trkpt>
      <trkpt lat="49.10655" lon="1.12974">
        <ele>124.7</ele>
        <time>2018-12-09T09:33:22Z</time>
      </trkpt>
      <trkpt lat="49.10646" lon="1.12981">
        <ele>124.5</ele>
        <time>2018-12-09T09:33:25Z</time>
      </trkpt>
      <trkpt lat="49.10636" lon="1.12988">
        <ele>124.5</ele>
        <time>2018-12-09T09:33:28Z</time>
      </trkpt>
      <trkpt lat="49.10626" lon="1.12996">
        <ele>124.1</ele>
        <time>2018-12-09T09:33:31Z</time>
      </trkpt>
      <trkpt lat="49.10618" lon="1.13003">
        <ele>123.1</ele>
        <time>2018-12-09T09:33:33Z</time>
      </trkpt>
      <trkpt lat="49.10608" lon="1.13011">
        <ele>122</ele>
        <time>2018-12-09T09:33:35Z</time>
      </trkpt>
      <trkpt lat="49.10597" lon="1.13021">
        <ele>121.1</ele>
        <time>2018-12-09T09:33:37Z</time>
      </trkpt>
      <trkpt lat="49.10586" lon="1.13029">
        <ele>120.5</ele>
        <time>2018-12-09T09:33:39Z</time>
      </trkpt>
      <trkpt lat="49.10575" lon="1.13036">
        <ele>120.9</ele>
        <time>2018-12-09T09:33:42Z</time>
      </trkpt>
      <trkpt lat="49.10565" lon="1.13041">
        <ele>121.9</ele>
        <time>2018-12-09T09:33:45Z</time>
      </trkpt>
      <trkpt lat="49.10557" lon="1.13048">
        <ele>121.8</ele>
        <time>2018-12-09T09:33:48Z</time>
      </trkpt>
      <trkpt lat="49.10549" lon="1.13056">
        <ele>122.5</ele>
        <time>2018-12-09T09:33:51Z</time>
      </trkpt>
      <trkpt lat="49.1054" lon="1.13062">
        <ele>123.2</ele>
        <time>2018-12-09T09:33:54Z</time>
      </trkpt>
      <trkpt lat="49.10529" lon="1.13071">
        <ele>124.3</ele>
        <time>2018-12-09T09:33:58Z</time>
      </trkpt>
      <trkpt lat="49.10518" lon="1.1308">
        <ele>125.3</ele>
        <time>2018-12-09T09:34:02Z</time>
      </trkpt>
      <trkpt lat="49.1051" lon="1.13088">
        <ele>125.8</ele>
        <time>2018-12-09T09:34:05Z</time>
      </trkpt>
      <trkpt lat="49.10499" lon="1.13095">
        <ele>125.8</ele>
        <time>2018-12-09T09:34:09Z</time>
      </trkpt>
      <trkpt lat="49.10491" lon="1.13102">
        <ele>125.8</ele>
        <time>2018-12-09T09:34:12Z</time>
      </trkpt>
      <trkpt lat="49.10483" lon="1.13109">
        <ele>126.6</ele>
        <time>2018-12-09T09:34:15Z</time>
      </trkpt>
      <trkpt lat="49.10474" lon="1.13115">
        <ele>127.2</ele>
        <time>2018-12-09T09:34:18Z</time>
      </trkpt>
      <trkpt lat="49.10464" lon="1.13122">
        <ele>127.5</ele>
        <time>2018-12-09T09:34:21Z</time>
      </trkpt>
      <trkpt lat="49.10455" lon="1.1313">
        <ele>127.1</ele>
        <time>2018-12-09T09:34:24Z</time>
      </trkpt>
      <trkpt lat="49.10443" lon="1.1314">
        <ele>127</ele>
        <time>2018-12-09T09:34:27Z</time>
      </trkpt>
      <trkpt lat="49.10432" lon="1.13148">
        <ele>127.3</ele>
        <time>2018-12-09T09:34:30Z</time>
      </trkpt>
      <trkpt lat="49.10421" lon="1.13156">
        <ele>127.1</ele>
        <time>2018-12-09T09:34:33Z</time>
      </trkpt>
      <trkpt lat="49.10413" lon="1.13164">
        <ele>126.2</ele>
        <time>2018-12-09T09:34:35Z</time>
      </trkpt>
      <trkpt lat="49.10405" lon="1.1317">
        <ele>124.7</ele>
        <time>2018-12-09T09:34:37Z</time>
      </trkpt>
      <trkpt lat="49.10403" lon="1.13187">
        <ele>123.1</ele>
        <time>2018-12-09T09:34:40Z</time>
      </trkpt>
      <trkpt lat="49.10404" lon="1.13201">
        <ele>122.5</ele>
        <time>2018-12-09T09:34:42Z</time>
      </trkpt>
      <trkpt lat="49.10409" lon="1.13218">
        <ele>122.4</ele>
        <time>2018-12-09T09:34:45Z</time>
      </trkpt>
      <trkpt lat="49.10411" lon="1.13234">
        <ele>122.6</ele>
        <time>2018-12-09T09:34:48Z</time>
      </trkpt>
      <trkpt lat="49.10413" lon="1.1325">
        <ele>123.2</ele>
        <time>2018-12-09T09:34:51Z</time>
      </trkpt>
      <trkpt lat="49.10415" lon="1.13265">
        <ele>123.9</ele>
        <time>2018-12-09T09:34:54Z</time>
      </trkpt>
      <trkpt lat="49.10417" lon="1.13282">
        <ele>124.6</ele>
        <time>2018-12-09T09:34:57Z</time>
      </trkpt>
      <trkpt lat="49.1042" lon="1.13299">
        <ele>125.1</ele>
        <time>2018-12-09T09:35:00Z</time>
      </trkpt>
      <trkpt lat="49.10424" lon="1.13315">
        <ele>125.6</ele>
        <time>2018-12-09T09:35:03Z</time>
      </trkpt>
      <trkpt lat="49.10426" lon="1.13331">
        <ele>126</ele>
        <time>2018-12-09T09:35:06Z</time>
      </trkpt>
      <trkpt lat="49.10428" lon="1.13345">
        <ele>126.2</ele>
        <time>2018-12-09T09:35:09Z</time>
      </trkpt>
      <trkpt lat="49.1043" lon="1.13359">
        <ele>126.9</ele>
        <time>2018-12-09T09:35:12Z</time>
      </trkpt>
      <trkpt lat="49.10434" lon="1.13375">
        <ele>127.6</ele>
        <time>2018-12-09T09:35:16Z</time>
      </trkpt>
      <trkpt lat="49.10438" lon="1.13388">
        <ele>128.3</ele>
        <time>2018-12-09T09:35:19Z</time>
      </trkpt>
      <trkpt lat="49.10441" lon="1.13402">
        <ele>128.8</ele>
        <time>2018-12-09T09:35:22Z</time>
      </trkpt>
      <trkpt lat="49.10443" lon="1.13418">
        <ele>129.6</ele>
        <time>2018-12-09T09:35:25Z</time>
      </trkpt>
      <trkpt lat="49.10448" lon="1.13433">
        <ele>130.5</ele>
        <time>2018-12-09T09:35:29Z</time>
      </trkpt>
      <trkpt lat="49.10449" lon="1.13447">
        <ele>131</ele>
        <time>2018-12-09T09:35:32Z</time>
      </trkpt>
      <trkpt lat="49.10453" lon="1.1346">
        <ele>131.4</ele>
        <time>2018-12-09T09:35:35Z</time>
      </trkpt>
      <trkpt lat="49.10457" lon="1.13477">
        <ele>132</ele>
        <time>2018-12-09T09:35:39Z</time>
      </trkpt>
      <trkpt lat="49.10461" lon="1.13491">
        <ele>132.5</ele>
        <time>2018-12-09T09:35:42Z</time>
      </trkpt>
      <trkpt lat="49.10466" lon="1.13508">
        <ele>132.8</ele>
        <time>2018-12-09T09:35:45Z</time>
      </trkpt>
      <trkpt lat="49.1047" lon="1.13523">
        <ele>133.1</ele>
        <time>2018-12-09T09:35:48Z</time>
      </trkpt>
      <trkpt lat="49.10472" lon="1.13538">
        <ele>133.1</ele>
        <time>2018-12-09T09:35:51Z</time>
      </trkpt>
      <trkpt lat="49.10476" lon="1.13554">
        <ele>133</ele>
        <time>2018-12-09T09:35:54Z</time>
      </trkpt>
      <trkpt lat="49.10478" lon="1.1357">
        <ele>133.2</ele>
        <time>2018-12-09T09:35:57Z</time>
      </trkpt>
      <trkpt lat="49.10482" lon="1.13583">
        <ele>133.3</ele>
        <time>2018-12-09T09:36:00Z</time>
      </trkpt>
      <trkpt lat="49.10485" lon="1.136">
        <ele>134</ele>
        <time>2018-12-09T09:36:04Z</time>
      </trkpt>
      <trkpt lat="49.10482" lon="1.13617">
        <ele>134.9</ele>
        <time>2018-12-09T09:36:09Z</time>
      </trkpt>
      <trkpt lat="49.10474" lon="1.1363">
        <ele>134.9</ele>
        <time>2018-12-09T09:36:12Z</time>
      </trkpt>
      <trkpt lat="49.10467" lon="1.13645">
        <ele>134.4</ele>
        <time>2018-12-09T09:36:15Z</time>
      </trkpt>
      <trkpt lat="49.1046" lon="1.13663">
        <ele>134</ele>
        <time>2018-12-09T09:36:18Z</time>
      </trkpt>
      <trkpt lat="49.10456" lon="1.13676">
        <ele>133.9</ele>
        <time>2018-12-09T09:36:20Z</time>
      </trkpt>
      <trkpt lat="49.10451" lon="1.13693">
        <ele>133.6</ele>
        <time>2018-12-09T09:36:23Z</time>
      </trkpt>
      <trkpt lat="49.10445" lon="1.13706">
        <ele>133.4</ele>
        <time>2018-12-09T09:36:26Z</time>
      </trkpt>
      <trkpt lat="49.10447" lon="1.1372">
        <ele>133.2</ele>
        <time>2018-12-09T09:36:29Z</time>
      </trkpt>
      <trkpt lat="49.10453" lon="1.13732">
        <ele>132.9</ele>
        <time>2018-12-09T09:36:32Z</time>
      </trkpt>
      <trkpt lat="49.10459" lon="1.13745">
        <ele>132.8</ele>
        <time>2018-12-09T09:36:35Z</time>
      </trkpt>
      <trkpt lat="49.10466" lon="1.13758">
        <ele>132.7</ele>
        <time>2018-12-09T09:36:38Z</time>
      </trkpt>
      <trkpt lat="49.10474" lon="1.13772">
        <ele>132.6</ele>
        <time>2018-12-09T09:36:41Z</time>
      </trkpt>
      <trkpt lat="49.10481" lon="1.13785">
        <ele>132.6</ele>
        <time>2018-12-09T09:36:44Z</time>
      </trkpt>
      <trkpt lat="49.10488" lon="1.13798">
        <ele>132.5</ele>
        <time>2018-12-09T09:36:47Z</time>
      </trkpt>
      <trkpt lat="49.10494" lon="1.13813">
        <ele>132.6</ele>
        <time>2018-12-09T09:36:50Z</time>
      </trkpt>
      <trkpt lat="49.105" lon="1.13829">
        <ele>132.6</ele>
        <time>2018-12-09T09:36:53Z</time>
      </trkpt>
      <trkpt lat="49.10507" lon="1.13839">
        <ele>132.5</ele>
        <time>2018-12-09T09:36:55Z</time>
      </trkpt>
      <trkpt lat="49.10514" lon="1.13855">
        <ele>132.5</ele>
        <time>2018-12-09T09:36:58Z</time>
      </trkpt>
      <trkpt lat="49.10522" lon="1.13871">
        <ele>132.4</ele>
        <time>2018-12-09T09:37:01Z</time>
      </trkpt>
      <trkpt lat="49.10528" lon="1.13882">
        <ele>132</ele>
        <time>2018-12-09T09:37:03Z</time>
      </trkpt>
      <trkpt lat="49.10537" lon="1.13898">
        <ele>131.7</ele>
        <time>2018-12-09T09:37:06Z</time>
      </trkpt>
      <trkpt lat="49.10542" lon="1.1391">
        <ele>131.6</ele>
        <time>2018-12-09T09:37:08Z</time>
      </trkpt>
      <trkpt lat="49.10547" lon="1.13922">
        <ele>131.5</ele>
        <time>2018-12-09T09:37:10Z</time>
      </trkpt>
      <trkpt lat="49.10553" lon="1.13933">
        <ele>131.5</ele>
        <time>2018-12-09T09:37:12Z</time>
      </trkpt>
      <trkpt lat="49.10562" lon="1.13947">
        <ele>131.2</ele>
        <time>2018-12-09T09:37:15Z</time>
      </trkpt>
      <trkpt lat="49.1057" lon="1.13957">
        <ele>131</ele>
        <time>2018-12-09T09:37:17Z</time>
      </trkpt>
      <trkpt lat="49.10578" lon="1.13966">
        <ele>130.6</ele>
        <time>2018-12-09T09:37:19Z</time>
      </trkpt>
      <trkpt lat="49.10586" lon="1.13975">
        <ele>130.3</ele>
        <time>2018-12-09T09:37:21Z</time>
      </trkpt>
      <trkpt lat="49.10594" lon="1.13984">
        <ele>130.3</ele>
        <time>2018-12-09T09:37:23Z</time>
      </trkpt>
      <trkpt lat="49.10601" lon="1.13995">
        <ele>130.1</ele>
        <time>2018-12-09T09:37:25Z</time>
      </trkpt>
      <trkpt lat="49.10609" lon="1.14005">
        <ele>130.3</ele>
        <time>2018-12-09T09:37:27Z</time>
      </trkpt>
      <trkpt lat="49.10615" lon="1.14016">
        <ele>130.4</ele>
        <time>2018-12-09T09:37:29Z</time>
      </trkpt>
      <trkpt lat="49.10621" lon="1.14027">
        <ele>130.4</ele>
        <time>2018-12-09T09:37:31Z</time>
      </trkpt>
      <trkpt lat="49.10627" lon="1.14039">
        <ele>130.5</ele>
        <time>2018-12-09T09:37:33Z</time>
      </trkpt>
      <trkpt lat="49.10632" lon="1.14052">
        <ele>130.3</ele>
        <time>2018-12-09T09:37:35Z</time>
      </trkpt>
      <trkpt lat="49.10638" lon="1.14065">
        <ele>130.6</ele>
        <time>2018-12-09T09:37:37Z</time>
      </trkpt>
      <trkpt lat="49.10644" lon="1.14078">
        <ele>130.6</ele>
        <time>2018-12-09T09:37:39Z</time>
      </trkpt>
      <trkpt lat="49.10649" lon="1.14089">
        <ele>130.7</ele>
        <time>2018-12-09T09:37:41Z</time>
      </trkpt>
      <trkpt lat="49.10655" lon="1.141">
        <ele>130.6</ele>
        <time>2018-12-09T09:37:43Z</time>
      </trkpt>
      <trkpt lat="49.10661" lon="1.14112">
        <ele>130.8</ele>
        <time>2018-12-09T09:37:45Z</time>
      </trkpt>
      <trkpt lat="49.10668" lon="1.14123">
        <ele>131.1</ele>
        <time>2018-12-09T09:37:47Z</time>
      </trkpt>
      <trkpt lat="49.10674" lon="1.14135">
        <ele>130.9</ele>
        <time>2018-12-09T09:37:49Z</time>
      </trkpt>
      <trkpt lat="49.1068" lon="1.14147">
        <ele>130.8</ele>
        <time>2018-12-09T09:37:51Z</time>
      </trkpt>
      <trkpt lat="49.10686" lon="1.14158">
        <ele>130.9</ele>
        <time>2018-12-09T09:37:53Z</time>
      </trkpt>
      <trkpt lat="49.10692" lon="1.1417">
        <ele>131.1</ele>
        <time>2018-12-09T09:37:55Z</time>
      </trkpt>
      <trkpt lat="49.10698" lon="1.14182">
        <ele>131</ele>
        <time>2018-12-09T09:37:57Z</time>
      </trkpt>
      <trkpt lat="49.10704" lon="1.14194">
        <ele>130.8</ele>
        <time>2018-12-09T09:37:59Z</time>
      </trkpt>
      <trkpt lat="49.1071" lon="1.14206">
        <ele>130.4</ele>
        <time>2018-12-09T09:38:01Z</time>
      </trkpt>
      <trkpt lat="49.10716" lon="1.14217">
        <ele>130.6</ele>
        <time>2018-12-09T09:38:03Z</time>
      </trkpt>
      <trkpt lat="49.10722" lon="1.14229">
        <ele>130.5</ele>
        <time>2018-12-09T09:38:05Z</time>
      </trkpt>
      <trkpt lat="49.10728" lon="1.14241">
        <ele>130.5</ele>
        <time>2018-12-09T09:38:07Z</time>
      </trkpt>
      <trkpt lat="49.10734" lon="1.14253">
        <ele>130.3</ele>
        <time>2018-12-09T09:38:09Z</time>
      </trkpt>
      <trkpt lat="49.1074" lon="1.14264">
        <ele>130.3</ele>
        <time>2018-12-09T09:38:11Z</time>
      </trkpt>
      <trkpt lat="49.10746" lon="1.14276">
        <ele>130</ele>
        <time>2018-12-09T09:38:13Z</time>
      </trkpt>
      <trkpt lat="49.10752" lon="1.14287">
        <ele>130.1</ele>
        <time>2018-12-09T09:38:15Z</time>
      </trkpt>
      <trkpt lat="49.10757" lon="1.14299">
        <ele>130.1</ele>
        <time>2018-12-09T09:38:17Z</time>
      </trkpt>
      <trkpt lat="49.10764" lon="1.14312">
        <ele>129.6</ele>
        <time>2018-12-09T09:38:19Z</time>
      </trkpt>
      <trkpt lat="49.10771" lon="1.14325">
        <ele>129.3</ele>
        <time>2018-12-09T09:38:21Z</time>
      </trkpt>
      <trkpt lat="49.10778" lon="1.14337">
        <ele>129.4</ele>
        <time>2018-12-09T09:38:23Z</time>
      </trkpt>
      <trkpt lat="49.10784" lon="1.14349">
        <ele>129.4</ele>
        <time>2018-12-09T09:38:25Z</time>
      </trkpt>
      <trkpt lat="49.1079" lon="1.14361">
        <ele>129.3</ele>
        <time>2018-12-09T09:38:27Z</time>
      </trkpt>
      <trkpt lat="49.10796" lon="1.14372">
        <ele>129.2</ele>
        <time>2018-12-09T09:38:29Z</time>
      </trkpt>
      <trkpt lat="49.10802" lon="1.14384">
        <ele>128.9</ele>
        <time>2018-12-09T09:38:31Z</time>
      </trkpt>
      <trkpt lat="49.10807" lon="1.14396">
        <ele>128.8</ele>
        <time>2018-12-09T09:38:33Z</time>
      </trkpt>
      <trkpt lat="49.10814" lon="1.14407">
        <ele>128.8</ele>
        <time>2018-12-09T09:38:35Z</time>
      </trkpt>
      <trkpt lat="49.1082" lon="1.14419">
        <ele>128.7</ele>
        <time>2018-12-09T09:38:37Z</time>
      </trkpt>
      <trkpt lat="49.10826" lon="1.14431">
        <ele>128.6</ele>
        <time>2018-12-09T09:38:39Z</time>
      </trkpt>
      <trkpt lat="49.10833" lon="1.14443">
        <ele>128.6</ele>
        <time>2018-12-09T09:38:41Z</time>
      </trkpt>
      <trkpt lat="49.10839" lon="1.14456">
        <ele>128.3</ele>
        <time>2018-12-09T09:38:43Z</time>
      </trkpt>
      <trkpt lat="49.10846" lon="1.14468">
        <ele>128.3</ele>
        <time>2018-12-09T09:38:45Z</time>
      </trkpt>
      <trkpt lat="49.10852" lon="1.14481">
        <ele>128.1</ele>
        <time>2018-12-09T09:38:47Z</time>
      </trkpt>
      <trkpt lat="49.10859" lon="1.14493">
        <ele>128.1</ele>
        <time>2018-12-09T09:38:49Z</time>
      </trkpt>
      <trkpt lat="49.10865" lon="1.14506">
        <ele>127.9</ele>
        <time>2018-12-09T09:38:51Z</time>
      </trkpt>
      <trkpt lat="49.10872" lon="1.14518">
        <ele>128</ele>
        <time>2018-12-09T09:38:53Z</time>
      </trkpt>
      <trkpt lat="49.10878" lon="1.1453">
        <ele>128</ele>
        <time>2018-12-09T09:38:55Z</time>
      </trkpt>
      <trkpt lat="49.10885" lon="1.14543">
        <ele>127.7</ele>
        <time>2018-12-09T09:38:57Z</time>
      </trkpt>
      <trkpt lat="49.10891" lon="1.14555">
        <ele>127.4</ele>
        <time>2018-12-09T09:38:59Z</time>
      </trkpt>
      <trkpt lat="49.10898" lon="1.14568">
        <ele>127.2</ele>
        <time>2018-12-09T09:39:01Z</time>
      </trkpt>
      <trkpt lat="49.10904" lon="1.1458">
        <ele>127</ele>
        <time>2018-12-09T09:39:03Z</time>
      </trkpt>
      <trkpt lat="49.10911" lon="1.14593">
        <ele>126.8</ele>
        <time>2018-12-09T09:39:05Z</time>
      </trkpt>
      <trkpt lat="49.10917" lon="1.14605">
        <ele>126.8</ele>
        <time>2018-12-09T09:39:07Z</time>
      </trkpt>
      <trkpt lat="49.10924" lon="1.14618">
        <ele>126.8</ele>
        <time>2018-12-09T09:39:09Z</time>
      </trkpt>
      <trkpt lat="49.1093" lon="1.1463">
        <ele>126.7</ele>
        <time>2018-12-09T09:39:11Z</time>
      </trkpt>
      <trkpt lat="49.10936" lon="1.14642">
        <ele>126.5</ele>
        <time>2018-12-09T09:39:13Z</time>
      </trkpt>
      <trkpt lat="49.10943" lon="1.14654">
        <ele>126.4</ele>
        <time>2018-12-09T09:39:15Z</time>
      </trkpt>
      <trkpt lat="49.10949" lon="1.14666">
        <ele>126.5</ele>
        <time>2018-12-09T09:39:17Z</time>
      </trkpt>
      <trkpt lat="49.10955" lon="1.14679">
        <ele>126.5</ele>
        <time>2018-12-09T09:39:19Z</time>
      </trkpt>
      <trkpt lat="49.10962" lon="1.14691">
        <ele>126.6</ele>
        <time>2018-12-09T09:39:21Z</time>
      </trkpt>
      <trkpt lat="49.10968" lon="1.14704">
        <ele>126.5</ele>
        <time>2018-12-09T09:39:23Z</time>
      </trkpt>
      <trkpt lat="49.10974" lon="1.14717">
        <ele>126.5</ele>
        <time>2018-12-09T09:39:25Z</time>
      </trkpt>
      <trkpt lat="49.10981" lon="1.14729">
        <ele>126.5</ele>
        <time>2018-12-09T09:39:27Z</time>
      </trkpt>
      <trkpt lat="49.10987" lon="1.14742">
        <ele>126.3</ele>
        <time>2018-12-09T09:39:29Z</time>
      </trkpt>
      <trkpt lat="49.10993" lon="1.14754">
        <ele>126.4</ele>
        <time>2018-12-09T09:39:31Z</time>
      </trkpt>
      <trkpt lat="49.11" lon="1.14766">
        <ele>126.7</ele>
        <time>2018-12-09T09:39:33Z</time>
      </trkpt>
      <trkpt lat="49.11006" lon="1.1478">
        <ele>126.1</ele>
        <time>2018-12-09T09:39:35Z</time>
      </trkpt>
      <trkpt lat="49.11012" lon="1.14791">
        <ele>126</ele>
        <time>2018-12-09T09:39:37Z</time>
      </trkpt>
      <trkpt lat="49.11015" lon="1.14808">
        <ele>125.8</ele>
        <time>2018-12-09T09:39:40Z</time>
      </trkpt>
      <trkpt lat="49.11005" lon="1.14814">
        <ele>125.7</ele>
        <time>2018-12-09T09:39:43Z</time>
      </trkpt>
      <trkpt lat="49.10993" lon="1.14817">
        <ele>125.5</ele>
        <time>2018-12-09T09:39:46Z</time>
      </trkpt>
      <trkpt lat="49.1098" lon="1.14818">
        <ele>125.2</ele>
        <time>2018-12-09T09:39:49Z</time>
      </trkpt>
      <trkpt lat="49.10967" lon="1.14818">
        <ele>125.1</ele>
        <time>2018-12-09T09:39:52Z</time>
      </trkpt>
      <trkpt lat="49.10954" lon="1.14819">
        <ele>125.2</ele>
        <time>2018-12-09T09:39:55Z</time>
      </trkpt>
      <trkpt lat="49.10941" lon="1.1482">
        <ele>125.6</ele>
        <time>2018-12-09T09:39:58Z</time>
      </trkpt>
      <trkpt lat="49.10929" lon="1.14824">
        <ele>125.2</ele>
        <time>2018-12-09T09:40:01Z</time>
      </trkpt>
      <trkpt lat="49.10917" lon="1.1483">
        <ele>125.2</ele>
        <time>2018-12-09T09:40:04Z</time>
      </trkpt>
      <trkpt lat="49.10905" lon="1.14838">
        <ele>125.8</ele>
        <time>2018-12-09T09:40:07Z</time>
      </trkpt>
      <trkpt lat="49.10897" lon="1.14844">
        <ele>126.2</ele>
        <time>2018-12-09T09:40:09Z</time>
      </trkpt>
      <trkpt lat="49.10889" lon="1.14851">
        <ele>125.8</ele>
        <time>2018-12-09T09:40:11Z</time>
      </trkpt>
      <trkpt lat="49.10877" lon="1.14861">
        <ele>125.6</ele>
        <time>2018-12-09T09:40:14Z</time>
      </trkpt>
      <trkpt lat="49.10867" lon="1.14871">
        <ele>126.1</ele>
        <time>2018-12-09T09:40:17Z</time>
      </trkpt>
      <trkpt lat="49.10856" lon="1.1488">
        <ele>126.3</ele>
        <time>2018-12-09T09:40:20Z</time>
      </trkpt>
      <trkpt lat="49.10845" lon="1.14889">
        <ele>126.4</ele>
        <time>2018-12-09T09:40:23Z</time>
      </trkpt>
      <trkpt lat="49.10835" lon="1.14898">
        <ele>126.7</ele>
        <time>2018-12-09T09:40:26Z</time>
      </trkpt>
      <trkpt lat="49.10825" lon="1.14907">
        <ele>127</ele>
        <time>2018-12-09T09:40:29Z</time>
      </trkpt>
      <trkpt lat="49.10814" lon="1.14916">
        <ele>127.3</ele>
        <time>2018-12-09T09:40:32Z</time>
      </trkpt>
      <trkpt lat="49.10803" lon="1.14926">
        <ele>127.3</ele>
        <time>2018-12-09T09:40:35Z</time>
      </trkpt>
      <trkpt lat="49.10792" lon="1.14937">
        <ele>127.3</ele>
        <time>2018-12-09T09:40:38Z</time>
      </trkpt>
      <trkpt lat="49.1078" lon="1.14947">
        <ele>127.1</ele>
        <time>2018-12-09T09:40:41Z</time>
      </trkpt>
      <trkpt lat="49.10773" lon="1.14954">
        <ele>126.9</ele>
        <time>2018-12-09T09:40:43Z</time>
      </trkpt>
      <trkpt lat="49.10761" lon="1.14965">
        <ele>127</ele>
        <time>2018-12-09T09:40:46Z</time>
      </trkpt>
      <trkpt lat="49.10749" lon="1.14975">
        <ele>127.1</ele>
        <time>2018-12-09T09:40:49Z</time>
      </trkpt>
      <trkpt lat="49.10741" lon="1.14981">
        <ele>126.9</ele>
        <time>2018-12-09T09:40:51Z</time>
      </trkpt>
      <trkpt lat="49.10733" lon="1.14989">
        <ele>126.7</ele>
        <time>2018-12-09T09:40:53Z</time>
      </trkpt>
      <trkpt lat="49.10724" lon="1.14998">
        <ele>126.5</ele>
        <time>2018-12-09T09:40:55Z</time>
      </trkpt>
      <trkpt lat="49.10716" lon="1.15005">
        <ele>126.5</ele>
        <time>2018-12-09T09:40:57Z</time>
      </trkpt>
      <trkpt lat="49.10708" lon="1.15012">
        <ele>126.5</ele>
        <time>2018-12-09T09:40:59Z</time>
      </trkpt>
      <trkpt lat="49.10699" lon="1.15019">
        <ele>126.5</ele>
        <time>2018-12-09T09:41:01Z</time>
      </trkpt>
      <trkpt lat="49.10691" lon="1.15026">
        <ele>126.5</ele>
        <time>2018-12-09T09:41:03Z</time>
      </trkpt>
      <trkpt lat="49.10683" lon="1.15033">
        <ele>126.2</ele>
        <time>2018-12-09T09:41:05Z</time>
      </trkpt>
      <trkpt lat="49.10672" lon="1.15044">
        <ele>126.5</ele>
        <time>2018-12-09T09:41:08Z</time>
      </trkpt>
      <trkpt lat="49.10664" lon="1.15051">
        <ele>126.3</ele>
        <time>2018-12-09T09:41:10Z</time>
      </trkpt>
      <trkpt lat="49.10656" lon="1.15058">
        <ele>126.1</ele>
        <time>2018-12-09T09:41:12Z</time>
      </trkpt>
      <trkpt lat="49.10648" lon="1.15065">
        <ele>126</ele>
        <time>2018-12-09T09:41:14Z</time>
      </trkpt>
      <trkpt lat="49.1064" lon="1.15072">
        <ele>125.8</ele>
        <time>2018-12-09T09:41:16Z</time>
      </trkpt>
      <trkpt lat="49.10632" lon="1.15079">
        <ele>125.9</ele>
        <time>2018-12-09T09:41:18Z</time>
      </trkpt>
      <trkpt lat="49.10623" lon="1.15086">
        <ele>126.1</ele>
        <time>2018-12-09T09:41:20Z</time>
      </trkpt>
      <trkpt lat="49.10615" lon="1.15094">
        <ele>126.3</ele>
        <time>2018-12-09T09:41:22Z</time>
      </trkpt>
      <trkpt lat="49.10607" lon="1.151">
        <ele>126.3</ele>
        <time>2018-12-09T09:41:24Z</time>
      </trkpt>
      <trkpt lat="49.10599" lon="1.15107">
        <ele>126</ele>
        <time>2018-12-09T09:41:26Z</time>
      </trkpt>
      <trkpt lat="49.10591" lon="1.15114">
        <ele>126.1</ele>
        <time>2018-12-09T09:41:28Z</time>
      </trkpt>
      <trkpt lat="49.10583" lon="1.15121">
        <ele>126.1</ele>
        <time>2018-12-09T09:41:30Z</time>
      </trkpt>
      <trkpt lat="49.10575" lon="1.15129">
        <ele>126.3</ele>
        <time>2018-12-09T09:41:32Z</time>
      </trkpt>
      <trkpt lat="49.10567" lon="1.15136">
        <ele>126.4</ele>
        <time>2018-12-09T09:41:34Z</time>
      </trkpt>
      <trkpt lat="49.10559" lon="1.15143">
        <ele>126.4</ele>
        <time>2018-12-09T09:41:36Z</time>
      </trkpt>
      <trkpt lat="49.10552" lon="1.1515">
        <ele>126.5</ele>
        <time>2018-12-09T09:41:38Z</time>
      </trkpt>
      <trkpt lat="49.10544" lon="1.15158">
        <ele>126.4</ele>
        <time>2018-12-09T09:41:40Z</time>
      </trkpt>
      <trkpt lat="49.10536" lon="1.15165">
        <ele>126.5</ele>
        <time>2018-12-09T09:41:42Z</time>
      </trkpt>
      <trkpt lat="49.10528" lon="1.15173">
        <ele>126.7</ele>
        <time>2018-12-09T09:41:44Z</time>
      </trkpt>
      <trkpt lat="49.1052" lon="1.1518">
        <ele>126.9</ele>
        <time>2018-12-09T09:41:46Z</time>
      </trkpt>
      <trkpt lat="49.10508" lon="1.1519">
        <ele>127.3</ele>
        <time>2018-12-09T09:41:49Z</time>
      </trkpt>
      <trkpt lat="49.10497" lon="1.152">
        <ele>127.7</ele>
        <time>2018-12-09T09:41:52Z</time>
      </trkpt>
      <trkpt lat="49.10485" lon="1.1521">
        <ele>128</ele>
        <time>2018-12-09T09:41:55Z</time>
      </trkpt>
      <trkpt lat="49.10477" lon="1.15218">
        <ele>128.2</ele>
        <time>2018-12-09T09:41:57Z</time>
      </trkpt>
      <trkpt lat="49.10469" lon="1.15225">
        <ele>128.5</ele>
        <time>2018-12-09T09:41:59Z</time>
      </trkpt>
      <trkpt lat="49.10458" lon="1.15234">
        <ele>128</ele>
        <time>2018-12-09T09:42:02Z</time>
      </trkpt>
      <trkpt lat="49.10448" lon="1.15244">
        <ele>128</ele>
        <time>2018-12-09T09:42:05Z</time>
      </trkpt>
      <trkpt lat="49.10437" lon="1.15254">
        <ele>127.8</ele>
        <time>2018-12-09T09:42:08Z</time>
      </trkpt>
      <trkpt lat="49.10427" lon="1.15264">
        <ele>128.2</ele>
        <time>2018-12-09T09:42:11Z</time>
      </trkpt>
      <trkpt lat="49.10416" lon="1.15274">
        <ele>128.3</ele>
        <time>2018-12-09T09:42:14Z</time>
      </trkpt>
      <trkpt lat="49.10405" lon="1.15285">
        <ele>128.3</ele>
        <time>2018-12-09T09:42:17Z</time>
      </trkpt>
      <trkpt lat="49.10394" lon="1.15295">
        <ele>128.6</ele>
        <time>2018-12-09T09:42:20Z</time>
      </trkpt>
      <trkpt lat="49.10383" lon="1.15305">
        <ele>129</ele>
        <time>2018-12-09T09:42:23Z</time>
      </trkpt>
      <trkpt lat="49.10373" lon="1.15315">
        <ele>129.2</ele>
        <time>2018-12-09T09:42:26Z</time>
      </trkpt>
      <trkpt lat="49.10362" lon="1.15324">
        <ele>128.8</ele>
        <time>2018-12-09T09:42:29Z</time>
      </trkpt>
      <trkpt lat="49.1035" lon="1.15333">
        <ele>129.3</ele>
        <time>2018-12-09T09:42:32Z</time>
      </trkpt>
      <trkpt lat="49.10342" lon="1.15339">
        <ele>129.4</ele>
        <time>2018-12-09T09:42:34Z</time>
      </trkpt>
      <trkpt lat="49.10333" lon="1.15345">
        <ele>129.3</ele>
        <time>2018-12-09T09:42:36Z</time>
      </trkpt>
      <trkpt lat="49.10324" lon="1.1535">
        <ele>128.9</ele>
        <time>2018-12-09T09:42:38Z</time>
      </trkpt>
      <trkpt lat="49.10316" lon="1.15354">
        <ele>128.7</ele>
        <time>2018-12-09T09:42:40Z</time>
      </trkpt>
      <trkpt lat="49.10307" lon="1.15359">
        <ele>128.6</ele>
        <time>2018-12-09T09:42:42Z</time>
      </trkpt>
      <trkpt lat="49.10294" lon="1.15364">
        <ele>128.7</ele>
        <time>2018-12-09T09:42:45Z</time>
      </trkpt>
      <trkpt lat="49.10281" lon="1.15366">
        <ele>128.6</ele>
        <time>2018-12-09T09:42:48Z</time>
      </trkpt>
      <trkpt lat="49.10269" lon="1.15363">
        <ele>128</ele>
        <time>2018-12-09T09:42:51Z</time>
      </trkpt>
      <trkpt lat="49.10258" lon="1.15358">
        <ele>127.5</ele>
        <time>2018-12-09T09:42:54Z</time>
      </trkpt>
      <trkpt lat="49.10246" lon="1.15354">
        <ele>127.2</ele>
        <time>2018-12-09T09:42:57Z</time>
      </trkpt>
      <trkpt lat="49.10234" lon="1.15348">
        <ele>127.5</ele>
        <time>2018-12-09T09:43:00Z</time>
      </trkpt>
      <trkpt lat="49.10222" lon="1.15341">
        <ele>128</ele>
        <time>2018-12-09T09:43:03Z</time>
      </trkpt>
      <trkpt lat="49.10211" lon="1.15335">
        <ele>127.9</ele>
        <time>2018-12-09T09:43:06Z</time>
      </trkpt>
      <trkpt lat="49.10199" lon="1.15329">
        <ele>127.7</ele>
        <time>2018-12-09T09:43:09Z</time>
      </trkpt>
      <trkpt lat="49.10188" lon="1.15322">
        <ele>127.2</ele>
        <time>2018-12-09T09:43:12Z</time>
      </trkpt>
      <trkpt lat="49.10177" lon="1.15315">
        <ele>126.9</ele>
        <time>2018-12-09T09:43:15Z</time>
      </trkpt>
      <trkpt lat="49.10165" lon="1.15308">
        <ele>127.2</ele>
        <time>2018-12-09T09:43:18Z</time>
      </trkpt>
      <trkpt lat="49.10154" lon="1.15301">
        <ele>127.3</ele>
        <time>2018-12-09T09:43:21Z</time>
      </trkpt>
      <trkpt lat="49.10143" lon="1.15295">
        <ele>127.3</ele>
        <time>2018-12-09T09:43:24Z</time>
      </trkpt>
      <trkpt lat="49.10132" lon="1.15288">
        <ele>127.5</ele>
        <time>2018-12-09T09:43:27Z</time>
      </trkpt>
      <trkpt lat="49.1012" lon="1.15281">
        <ele>127.7</ele>
        <time>2018-12-09T09:43:30Z</time>
      </trkpt>
      <trkpt lat="49.10108" lon="1.15274">
        <ele>128</ele>
        <time>2018-12-09T09:43:33Z</time>
      </trkpt>
      <trkpt lat="49.10099" lon="1.15269">
        <ele>128</ele>
        <time>2018-12-09T09:43:35Z</time>
      </trkpt>
      <trkpt lat="49.10086" lon="1.15261">
        <ele>127.7</ele>
        <time>2018-12-09T09:43:38Z</time>
      </trkpt>
      <trkpt lat="49.10077" lon="1.15256">
        <ele>128.1</ele>
        <time>2018-12-09T09:43:40Z</time>
      </trkpt>
      <trkpt lat="49.10068" lon="1.15251">
        <ele>128.4</ele>
        <time>2018-12-09T09:43:42Z</time>
      </trkpt>
      <trkpt lat="49.10059" lon="1.15246">
        <ele>128.5</ele>
        <time>2018-12-09T09:43:44Z</time>
      </trkpt>
      <trkpt lat="49.1005" lon="1.15241">
        <ele>128.2</ele>
        <time>2018-12-09T09:43:46Z</time>
      </trkpt>
      <trkpt lat="49.10038" lon="1.15233">
        <ele>127.4</ele>
        <time>2018-12-09T09:43:49Z</time>
      </trkpt>
      <trkpt lat="49.10029" lon="1.15228">
        <ele>127.1</ele>
        <time>2018-12-09T09:43:51Z</time>
      </trkpt>
      <trkpt lat="49.1002" lon="1.15222">
        <ele>127.2</ele>
        <time>2018-12-09T09:43:53Z</time>
      </trkpt>
      <trkpt lat="49.1001" lon="1.15217">
        <ele>127.1</ele>
        <time>2018-12-09T09:43:55Z</time>
      </trkpt>
      <trkpt lat="49.1" lon="1.15211">
        <ele>126.8</ele>
        <time>2018-12-09T09:43:57Z</time>
      </trkpt>
      <trkpt lat="49.0999" lon="1.15205">
        <ele>126.9</ele>
        <time>2018-12-09T09:43:59Z</time>
      </trkpt>
      <trkpt lat="49.0998" lon="1.152">
        <ele>127.3</ele>
        <time>2018-12-09T09:44:01Z</time>
      </trkpt>
      <trkpt lat="49.09971" lon="1.15195">
        <ele>127.5</ele>
        <time>2018-12-09T09:44:03Z</time>
      </trkpt>
      <trkpt lat="49.09962" lon="1.1519">
        <ele>127.6</ele>
        <time>2018-12-09T09:44:05Z</time>
      </trkpt>
      <trkpt lat="49.09953" lon="1.15185">
        <ele>127.6</ele>
        <time>2018-12-09T09:44:07Z</time>
      </trkpt>
      <trkpt lat="49.09945" lon="1.15179">
        <ele>127.2</ele>
        <time>2018-12-09T09:44:09Z</time>
      </trkpt>
      <trkpt lat="49.09933" lon="1.15172">
        <ele>127</ele>
        <time>2018-12-09T09:44:12Z</time>
      </trkpt>
      <trkpt lat="49.09925" lon="1.15163">
        <ele>127.3</ele>
        <time>2018-12-09T09:44:15Z</time>
      </trkpt>
      <trkpt lat="49.09926" lon="1.15147">
        <ele>127.6</ele>
        <time>2018-12-09T09:44:18Z</time>
      </trkpt>
      <trkpt lat="49.09932" lon="1.15129">
        <ele>128</ele>
        <time>2018-12-09T09:44:21Z</time>
      </trkpt>
      <trkpt lat="49.09935" lon="1.15115">
        <ele>128.3</ele>
        <time>2018-12-09T09:44:23Z</time>
      </trkpt>
      <trkpt lat="49.09938" lon="1.15102">
        <ele>128.4</ele>
        <time>2018-12-09T09:44:25Z</time>
      </trkpt>
      <trkpt lat="49.09944" lon="1.15085">
        <ele>128.5</ele>
        <time>2018-12-09T09:44:28Z</time>
      </trkpt>
      <trkpt lat="49.09952" lon="1.15072">
        <ele>128.5</ele>
        <time>2018-12-09T09:44:31Z</time>
      </trkpt>
      <trkpt lat="49.09961" lon="1.15061">
        <ele>128.8</ele>
        <time>2018-12-09T09:44:34Z</time>
      </trkpt>
      <trkpt lat="49.09971" lon="1.15051">
        <ele>129</ele>
        <time>2018-12-09T09:44:37Z</time>
      </trkpt>
      <trkpt lat="49.09983" lon="1.15045">
        <ele>129.4</ele>
        <time>2018-12-09T09:44:40Z</time>
      </trkpt>
      <trkpt lat="49.09994" lon="1.15037">
        <ele>129.4</ele>
        <time>2018-12-09T09:44:43Z</time>
      </trkpt>
      <trkpt lat="49.10005" lon="1.1503">
        <ele>129.6</ele>
        <time>2018-12-09T09:44:46Z</time>
      </trkpt>
      <trkpt lat="49.10016" lon="1.15022">
        <ele>129.7</ele>
        <time>2018-12-09T09:44:49Z</time>
      </trkpt>
      <trkpt lat="49.10027" lon="1.15015">
        <ele>129.8</ele>
        <time>2018-12-09T09:44:52Z</time>
      </trkpt>
      <trkpt lat="49.10039" lon="1.15007">
        <ele>129.6</ele>
        <time>2018-12-09T09:44:55Z</time>
      </trkpt>
      <trkpt lat="49.10051" lon="1.14999">
        <ele>129.8</ele>
        <time>2018-12-09T09:44:58Z</time>
      </trkpt>
      <trkpt lat="49.10063" lon="1.14991">
        <ele>130.4</ele>
        <time>2018-12-09T09:45:01Z</time>
      </trkpt>
      <trkpt lat="49.10076" lon="1.14985">
        <ele>130.6</ele>
        <time>2018-12-09T09:45:04Z</time>
      </trkpt>
      <trkpt lat="49.10088" lon="1.14979">
        <ele>130.7</ele>
        <time>2018-12-09T09:45:07Z</time>
      </trkpt>
      <trkpt lat="49.10101" lon="1.14973">
        <ele>131.1</ele>
        <time>2018-12-09T09:45:10Z</time>
      </trkpt>
      <trkpt lat="49.10109" lon="1.1497">
        <ele>131.2</ele>
        <time>2018-12-09T09:45:12Z</time>
      </trkpt>
      <trkpt lat="49.10123" lon="1.14967">
        <ele>131</ele>
        <time>2018-12-09T09:45:15Z</time>
      </trkpt>
      <trkpt lat="49.10135" lon="1.14962">
        <ele>130.9</ele>
        <time>2018-12-09T09:45:18Z</time>
      </trkpt>
      <trkpt lat="49.10146" lon="1.14951">
        <ele>131</ele>
        <time>2018-12-09T09:45:21Z</time>
      </trkpt>
      <trkpt lat="49.10155" lon="1.14936">
        <ele>130.6</ele>
        <time>2018-12-09T09:45:24Z</time>
      </trkpt>
      <trkpt lat="49.10164" lon="1.1492">
        <ele>130.5</ele>
        <time>2018-12-09T09:45:27Z</time>
      </trkpt>
      <trkpt lat="49.10172" lon="1.14905">
        <ele>130.4</ele>
        <time>2018-12-09T09:45:30Z</time>
      </trkpt>
      <trkpt lat="49.1018" lon="1.14889">
        <ele>130.3</ele>
        <time>2018-12-09T09:45:33Z</time>
      </trkpt>
      <trkpt lat="49.10189" lon="1.14874">
        <ele>130.5</ele>
        <time>2018-12-09T09:45:36Z</time>
      </trkpt>
      <trkpt lat="49.10197" lon="1.1486">
        <ele>130.7</ele>
        <time>2018-12-09T09:45:39Z</time>
      </trkpt>
      <trkpt lat="49.10207" lon="1.14846">
        <ele>130.7</ele>
        <time>2018-12-09T09:45:42Z</time>
      </trkpt>
      <trkpt lat="49.10216" lon="1.14833">
        <ele>131</ele>
        <time>2018-12-09T09:45:45Z</time>
      </trkpt>
      <trkpt lat="49.10226" lon="1.1482">
        <ele>130.7</ele>
        <time>2018-12-09T09:45:48Z</time>
      </trkpt>
      <trkpt lat="49.10236" lon="1.14808">
        <ele>131</ele>
        <time>2018-12-09T09:45:51Z</time>
      </trkpt>
      <trkpt lat="49.10246" lon="1.14796">
        <ele>131</ele>
        <time>2018-12-09T09:45:54Z</time>
      </trkpt>
      <trkpt lat="49.10256" lon="1.14784">
        <ele>131.6</ele>
        <time>2018-12-09T09:45:57Z</time>
      </trkpt>
      <trkpt lat="49.10265" lon="1.14772">
        <ele>132.1</ele>
        <time>2018-12-09T09:46:00Z</time>
      </trkpt>
      <trkpt lat="49.10275" lon="1.14761">
        <ele>131.8</ele>
        <time>2018-12-09T09:46:03Z</time>
      </trkpt>
      <trkpt lat="49.10283" lon="1.1475">
        <ele>131.4</ele>
        <time>2018-12-09T09:46:06Z</time>
      </trkpt>
      <trkpt lat="49.10292" lon="1.14739">
        <ele>130.9</ele>
        <time>2018-12-09T09:46:09Z</time>
      </trkpt>
      <trkpt lat="49.103" lon="1.14728">
        <ele>131.1</ele>
        <time>2018-12-09T09:46:12Z</time>
      </trkpt>
      <trkpt lat="49.10309" lon="1.14716">
        <ele>131.3</ele>
        <time>2018-12-09T09:46:15Z</time>
      </trkpt>
      <trkpt lat="49.10318" lon="1.14704">
        <ele>131.2</ele>
        <time>2018-12-09T09:46:18Z</time>
      </trkpt>
      <trkpt lat="49.10327" lon="1.14692">
        <ele>131</ele>
        <time>2018-12-09T09:46:21Z</time>
      </trkpt>
      <trkpt lat="49.10336" lon="1.1468">
        <ele>131.1</ele>
        <time>2018-12-09T09:46:24Z</time>
      </trkpt>
      <trkpt lat="49.10344" lon="1.14668">
        <ele>131</ele>
        <time>2018-12-09T09:46:27Z</time>
      </trkpt>
      <trkpt lat="49.10353" lon="1.14655">
        <ele>131.1</ele>
        <time>2018-12-09T09:46:30Z</time>
      </trkpt>
      <trkpt lat="49.10361" lon="1.14644">
        <ele>131.4</ele>
        <time>2018-12-09T09:46:33Z</time>
      </trkpt>
      <trkpt lat="49.10366" lon="1.14631">
        <ele>131.4</ele>
        <time>2018-12-09T09:46:36Z</time>
      </trkpt>
      <trkpt lat="49.10361" lon="1.14618">
        <ele>131.4</ele>
        <time>2018-12-09T09:46:39Z</time>
      </trkpt>
      <trkpt lat="49.10351" lon="1.14607">
        <ele>131.6</ele>
        <time>2018-12-09T09:46:42Z</time>
      </trkpt>
      <trkpt lat="49.10344" lon="1.14596">
        <ele>131.3</ele>
        <time>2018-12-09T09:46:45Z</time>
      </trkpt>
      <trkpt lat="49.10341" lon="1.14582">
        <ele>131.4</ele>
        <time>2018-12-09T09:46:48Z</time>
      </trkpt>
      <trkpt lat="49.10343" lon="1.14568">
        <ele>131.8</ele>
        <time>2018-12-09T09:46:51Z</time>
      </trkpt>
      <trkpt lat="49.10346" lon="1.14553">
        <ele>132</ele>
        <time>2018-12-09T09:46:54Z</time>
      </trkpt>
      <trkpt lat="49.10348" lon="1.14537">
        <ele>131.9</ele>
        <time>2018-12-09T09:46:57Z</time>
      </trkpt>
      <trkpt lat="49.10347" lon="1.14518">
        <ele>131.8</ele>
        <time>2018-12-09T09:47:01Z</time>
      </trkpt>
      <trkpt lat="49.10345" lon="1.14498">
        <ele>131.6</ele>
        <time>2018-12-09T09:47:04Z</time>
      </trkpt>
      <trkpt lat="49.10344" lon="1.1448">
        <ele>131.3</ele>
        <time>2018-12-09T09:47:07Z</time>
      </trkpt>
      <trkpt lat="49.10341" lon="1.14466">
        <ele>131.2</ele>
        <time>2018-12-09T09:47:09Z</time>
      </trkpt>
      <trkpt lat="49.1034" lon="1.14444">
        <ele>130.9</ele>
        <time>2018-12-09T09:47:12Z</time>
      </trkpt>
      <trkpt lat="49.10338" lon="1.14427">
        <ele>130.9</ele>
        <time>2018-12-09T09:47:15Z</time>
      </trkpt>
      <trkpt lat="49.10336" lon="1.14411">
        <ele>130.9</ele>
        <time>2018-12-09T09:47:17Z</time>
      </trkpt>
      <trkpt lat="49.10333" lon="1.14394">
        <ele>130.9</ele>
        <time>2018-12-09T09:47:19Z</time>
      </trkpt>
      <trkpt lat="49.1033" lon="1.14373">
        <ele>131.1</ele>
        <time>2018-12-09T09:47:21Z</time>
      </trkpt>
      <trkpt lat="49.10326" lon="1.14356">
        <ele>131.1</ele>
        <time>2018-12-09T09:47:23Z</time>
      </trkpt>
      <trkpt lat="49.10321" lon="1.14341">
        <ele>131</ele>
        <time>2018-12-09T09:47:25Z</time>
      </trkpt>
      <trkpt lat="49.10316" lon="1.14327">
        <ele>131.2</ele>
        <time>2018-12-09T09:47:27Z</time>
      </trkpt>
      <trkpt lat="49.10311" lon="1.14314">
        <ele>131.2</ele>
        <time>2018-12-09T09:47:29Z</time>
      </trkpt>
      <trkpt lat="49.10305" lon="1.14302">
        <ele>131.1</ele>
        <time>2018-12-09T09:47:31Z</time>
      </trkpt>
      <trkpt lat="49.10298" lon="1.1429">
        <ele>131.1</ele>
        <time>2018-12-09T09:47:33Z</time>
      </trkpt>
      <trkpt lat="49.10292" lon="1.14279">
        <ele>130.9</ele>
        <time>2018-12-09T09:47:35Z</time>
      </trkpt>
      <trkpt lat="49.10287" lon="1.14268">
        <ele>131.2</ele>
        <time>2018-12-09T09:47:37Z</time>
      </trkpt>
      <trkpt lat="49.1028" lon="1.14257">
        <ele>130.8</ele>
        <time>2018-12-09T09:47:39Z</time>
      </trkpt>
      <trkpt lat="49.10273" lon="1.14249">
        <ele>130.5</ele>
        <time>2018-12-09T09:47:41Z</time>
      </trkpt>
      <trkpt lat="49.10266" lon="1.1424">
        <ele>130.6</ele>
        <time>2018-12-09T09:47:43Z</time>
      </trkpt>
      <trkpt lat="49.10256" lon="1.14226">
        <ele>130.8</ele>
        <time>2018-12-09T09:47:46Z</time>
      </trkpt>
      <trkpt lat="49.10251" lon="1.14213">
        <ele>131</ele>
        <time>2018-12-09T09:47:48Z</time>
      </trkpt>
      <trkpt lat="49.10246" lon="1.14201">
        <ele>131.2</ele>
        <time>2018-12-09T09:47:50Z</time>
      </trkpt>
      <trkpt lat="49.10239" lon="1.14185">
        <ele>131.6</ele>
        <time>2018-12-09T09:47:53Z</time>
      </trkpt>
      <trkpt lat="49.10233" lon="1.1417">
        <ele>131.9</ele>
        <time>2018-12-09T09:47:56Z</time>
      </trkpt>
      <trkpt lat="49.10237" lon="1.14153">
        <ele>131.4</ele>
        <time>2018-12-09T09:48:00Z</time>
      </trkpt>
      <trkpt lat="49.10245" lon="1.14137">
        <ele>131.1</ele>
        <time>2018-12-09T09:48:03Z</time>
      </trkpt>
      <trkpt lat="49.10252" lon="1.14124">
        <ele>130.7</ele>
        <time>2018-12-09T09:48:05Z</time>
      </trkpt>
      <trkpt lat="49.10259" lon="1.14111">
        <ele>130.1</ele>
        <time>2018-12-09T09:48:07Z</time>
      </trkpt>
      <trkpt lat="49.10267" lon="1.14097">
        <ele>129.5</ele>
        <time>2018-12-09T09:48:09Z</time>
      </trkpt>
      <trkpt lat="49.10275" lon="1.14084">
        <ele>129.1</ele>
        <time>2018-12-09T09:48:11Z</time>
      </trkpt>
      <trkpt lat="49.10283" lon="1.1407">
        <ele>128.7</ele>
        <time>2018-12-09T09:48:13Z</time>
      </trkpt>
      <trkpt lat="49.10291" lon="1.14056">
        <ele>128.3</ele>
        <time>2018-12-09T09:48:15Z</time>
      </trkpt>
      <trkpt lat="49.103" lon="1.14042">
        <ele>127.9</ele>
        <time>2018-12-09T09:48:17Z</time>
      </trkpt>
      <trkpt lat="49.10307" lon="1.14028">
        <ele>127.3</ele>
        <time>2018-12-09T09:48:19Z</time>
      </trkpt>
      <trkpt lat="49.10313" lon="1.14013">
        <ele>126.9</ele>
        <time>2018-12-09T09:48:21Z</time>
      </trkpt>
      <trkpt lat="49.10321" lon="1.14002">
        <ele>126.7</ele>
        <time>2018-12-09T09:48:23Z</time>
      </trkpt>
      <trkpt lat="49.10327" lon="1.13991">
        <ele>126.4</ele>
        <time>2018-12-09T09:48:25Z</time>
      </trkpt>
      <trkpt lat="49.10332" lon="1.13977">
        <ele>126.5</ele>
        <time>2018-12-09T09:48:28Z</time>
      </trkpt>
      <trkpt lat="49.10327" lon="1.13965">
        <ele>126.2</ele>
        <time>2018-12-09T09:48:31Z</time>
      </trkpt>
      <trkpt lat="49.10319" lon="1.1395">
        <ele>124.8</ele>
        <time>2018-12-09T09:48:34Z</time>
      </trkpt>
      <trkpt lat="49.1031" lon="1.13939">
        <ele>123.7</ele>
        <time>2018-12-09T09:48:36Z</time>
      </trkpt>
      <trkpt lat="49.10302" lon="1.1393">
        <ele>123.3</ele>
        <time>2018-12-09T09:48:38Z</time>
      </trkpt>
      <trkpt lat="49.10294" lon="1.13917">
        <ele>123</ele>
        <time>2018-12-09T09:48:40Z</time>
      </trkpt>
      <trkpt lat="49.10286" lon="1.13909">
        <ele>122.3</ele>
        <time>2018-12-09T09:48:42Z</time>
      </trkpt>
      <trkpt lat="49.10276" lon="1.139">
        <ele>121.9</ele>
        <time>2018-12-09T09:48:44Z</time>
      </trkpt>
      <trkpt lat="49.10267" lon="1.13891">
        <ele>122.2</ele>
        <time>2018-12-09T09:48:46Z</time>
      </trkpt>
      <trkpt lat="49.10258" lon="1.13878">
        <ele>121.9</ele>
        <time>2018-12-09T09:48:49Z</time>
      </trkpt>
      <trkpt lat="49.10251" lon="1.13869">
        <ele>121.7</ele>
        <time>2018-12-09T09:48:51Z</time>
      </trkpt>
      <trkpt lat="49.10242" lon="1.1386">
        <ele>121.5</ele>
        <time>2018-12-09T09:48:53Z</time>
      </trkpt>
      <trkpt lat="49.10233" lon="1.13853">
        <ele>121.1</ele>
        <time>2018-12-09T09:48:55Z</time>
      </trkpt>
      <trkpt lat="49.10225" lon="1.13846">
        <ele>120.4</ele>
        <time>2018-12-09T09:48:57Z</time>
      </trkpt>
      <trkpt lat="49.10217" lon="1.13838">
        <ele>119.4</ele>
        <time>2018-12-09T09:48:59Z</time>
      </trkpt>
      <trkpt lat="49.10204" lon="1.13833">
        <ele>118.7</ele>
        <time>2018-12-09T09:49:01Z</time>
      </trkpt>
      <trkpt lat="49.10192" lon="1.13823">
        <ele>117.7</ele>
        <time>2018-12-09T09:49:03Z</time>
      </trkpt>
      <trkpt lat="49.10183" lon="1.13818">
        <ele>116.7</ele>
        <time>2018-12-09T09:49:05Z</time>
      </trkpt>
      <trkpt lat="49.10173" lon="1.13812">
        <ele>115.4</ele>
        <time>2018-12-09T09:49:07Z</time>
      </trkpt>
      <trkpt lat="49.10159" lon="1.1381">
        <ele>113.3</ele>
        <time>2018-12-09T09:49:10Z</time>
      </trkpt>
      <trkpt lat="49.10148" lon="1.13804">
        <ele>111.4</ele>
        <time>2018-12-09T09:49:12Z</time>
      </trkpt>
      <trkpt lat="49.10137" lon="1.138">
        <ele>109.2</ele>
        <time>2018-12-09T09:49:14Z</time>
      </trkpt>
      <trkpt lat="49.10127" lon="1.13806">
        <ele>105.8</ele>
        <time>2018-12-09T09:49:17Z</time>
      </trkpt>
      <trkpt lat="49.10118" lon="1.13813">
        <ele>102.8</ele>
        <time>2018-12-09T09:49:19Z</time>
      </trkpt>
      <trkpt lat="49.10107" lon="1.13817">
        <ele>99.8</ele>
        <time>2018-12-09T09:49:21Z</time>
      </trkpt>
      <trkpt lat="49.10097" lon="1.13823">
        <ele>96.8</ele>
        <time>2018-12-09T09:49:23Z</time>
      </trkpt>
      <trkpt lat="49.10084" lon="1.13831">
        <ele>93.1</ele>
        <time>2018-12-09T09:49:25Z</time>
      </trkpt>
      <trkpt lat="49.10067" lon="1.13838">
        <ele>87.1</ele>
        <time>2018-12-09T09:49:28Z</time>
      </trkpt>
      <trkpt lat="49.10058" lon="1.13846">
        <ele>84.8</ele>
        <time>2018-12-09T09:49:29Z</time>
      </trkpt>
      <trkpt lat="49.10043" lon="1.13853">
        <ele>80.6</ele>
        <time>2018-12-09T09:49:31Z</time>
      </trkpt>
      <trkpt lat="49.10027" lon="1.13863">
        <ele>75.9</ele>
        <time>2018-12-09T09:49:33Z</time>
      </trkpt>
      <trkpt lat="49.10019" lon="1.13873">
        <ele>73.3</ele>
        <time>2018-12-09T09:49:34Z</time>
      </trkpt>
      <trkpt lat="49.10003" lon="1.13887">
        <ele>69.2</ele>
        <time>2018-12-09T09:49:36Z</time>
      </trkpt>
      <trkpt lat="49.09996" lon="1.13895">
        <ele>67.2</ele>
        <time>2018-12-09T09:49:37Z</time>
      </trkpt>
      <trkpt lat="49.09981" lon="1.13912">
        <ele>63.6</ele>
        <time>2018-12-09T09:49:39Z</time>
      </trkpt>
      <trkpt lat="49.09974" lon="1.13921">
        <ele>62</ele>
        <time>2018-12-09T09:49:40Z</time>
      </trkpt>
      <trkpt lat="49.0996" lon="1.13937">
        <ele>58.6</ele>
        <time>2018-12-09T09:49:42Z</time>
      </trkpt>
      <trkpt lat="49.09948" lon="1.13951">
        <ele>54.4</ele>
        <time>2018-12-09T09:49:44Z</time>
      </trkpt>
      <trkpt lat="49.09938" lon="1.13959">
        <ele>52.5</ele>
        <time>2018-12-09T09:49:45Z</time>
      </trkpt>
      <trkpt lat="49.0993" lon="1.13966">
        <ele>50.8</ele>
        <time>2018-12-09T09:49:46Z</time>
      </trkpt>
      <trkpt lat="49.0992" lon="1.13975">
        <ele>49.4</ele>
        <time>2018-12-09T09:49:47Z</time>
      </trkpt>
      <trkpt lat="49.0991" lon="1.13983">
        <ele>47.8</ele>
        <time>2018-12-09T09:49:48Z</time>
      </trkpt>
      <trkpt lat="49.099" lon="1.13989">
        <ele>46.4</ele>
        <time>2018-12-09T09:49:49Z</time>
      </trkpt>
      <trkpt lat="49.0989" lon="1.13994">
        <ele>45.1</ele>
        <time>2018-12-09T09:49:50Z</time>
      </trkpt>
      <trkpt lat="49.09876" lon="1.14004">
        <ele>42.9</ele>
        <time>2018-12-09T09:49:52Z</time>
      </trkpt>
      <trkpt lat="49.09867" lon="1.14012">
        <ele>41.9</ele>
        <time>2018-12-09T09:49:53Z</time>
      </trkpt>
      <trkpt lat="49.09854" lon="1.14018">
        <ele>39.8</ele>
        <time>2018-12-09T09:49:55Z</time>
      </trkpt>
      <trkpt lat="49.09846" lon="1.14025">
        <ele>38.7</ele>
        <time>2018-12-09T09:49:56Z</time>
      </trkpt>
      <trkpt lat="49.09835" lon="1.14035">
        <ele>36.6</ele>
        <time>2018-12-09T09:49:58Z</time>
      </trkpt>
      <trkpt lat="49.09825" lon="1.14044">
        <ele>35</ele>
        <time>2018-12-09T09:50:00Z</time>
      </trkpt>
      <trkpt lat="49.09813" lon="1.14056">
        <ele>33.9</ele>
        <time>2018-12-09T09:50:02Z</time>
      </trkpt>
      <trkpt lat="49.09803" lon="1.14064">
        <ele>33.1</ele>
        <time>2018-12-09T09:50:04Z</time>
      </trkpt>
      <trkpt lat="49.09793" lon="1.14063">
        <ele>32.6</ele>
        <time>2018-12-09T09:50:06Z</time>
      </trkpt>
      <trkpt lat="49.09784" lon="1.14059">
        <ele>32.2</ele>
        <time>2018-12-09T09:50:08Z</time>
      </trkpt>
      <trkpt lat="49.09772" lon="1.14061">
        <ele>31.6</ele>
        <time>2018-12-09T09:50:11Z</time>
      </trkpt>
      <trkpt lat="49.09762" lon="1.14061">
        <ele>31.3</ele>
        <time>2018-12-09T09:50:13Z</time>
      </trkpt>
      <trkpt lat="49.09749" lon="1.14058">
        <ele>31.1</ele>
        <time>2018-12-09T09:50:16Z</time>
      </trkpt>
      <trkpt lat="49.09738" lon="1.14054">
        <ele>31.1</ele>
        <time>2018-12-09T09:50:19Z</time>
      </trkpt>
      <trkpt lat="49.09727" lon="1.14045">
        <ele>30.7</ele>
        <time>2018-12-09T09:50:22Z</time>
      </trkpt>
      <trkpt lat="49.09718" lon="1.14035">
        <ele>29.8</ele>
        <time>2018-12-09T09:50:25Z</time>
      </trkpt>
      <trkpt lat="49.0971" lon="1.14026">
        <ele>29.4</ele>
        <time>2018-12-09T09:50:28Z</time>
      </trkpt>
      <trkpt lat="49.097" lon="1.14025">
        <ele>29</ele>
        <time>2018-12-09T09:50:32Z</time>
      </trkpt>
      <trkpt lat="49.09689" lon="1.14029">
        <ele>28.9</ele>
        <time>2018-12-09T09:50:36Z</time>
      </trkpt>
      <trkpt lat="49.0968" lon="1.14034">
        <ele>29.3</ele>
        <time>2018-12-09T09:50:39Z</time>
      </trkpt>
      <trkpt lat="49.0967" lon="1.14038">
        <ele>29.7</ele>
        <time>2018-12-09T09:50:42Z</time>
      </trkpt>
      <trkpt lat="49.09659" lon="1.14043">
        <ele>29.8</ele>
        <time>2018-12-09T09:50:45Z</time>
      </trkpt>
      <trkpt lat="49.09649" lon="1.14048">
        <ele>30.3</ele>
        <time>2018-12-09T09:50:48Z</time>
      </trkpt>
      <trkpt lat="49.09639" lon="1.14052">
        <ele>31.2</ele>
        <time>2018-12-09T09:50:51Z</time>
      </trkpt>
      <trkpt lat="49.09629" lon="1.14057">
        <ele>31.8</ele>
        <time>2018-12-09T09:50:54Z</time>
      </trkpt>
      <trkpt lat="49.0962" lon="1.14061">
        <ele>31.7</ele>
        <time>2018-12-09T09:50:57Z</time>
      </trkpt>
      <trkpt lat="49.09611" lon="1.14065">
        <ele>31.4</ele>
        <time>2018-12-09T09:51:00Z</time>
      </trkpt>
      <trkpt lat="49.09602" lon="1.14069">
        <ele>31.4</ele>
        <time>2018-12-09T09:51:03Z</time>
      </trkpt>
      <trkpt lat="49.09592" lon="1.14074">
        <ele>31.8</ele>
        <time>2018-12-09T09:51:06Z</time>
      </trkpt>
      <trkpt lat="49.09581" lon="1.14078">
        <ele>31.7</ele>
        <time>2018-12-09T09:51:09Z</time>
      </trkpt>
      <trkpt lat="49.09571" lon="1.14082">
        <ele>31.8</ele>
        <time>2018-12-09T09:51:12Z</time>
      </trkpt>
      <trkpt lat="49.0956" lon="1.14087">
        <ele>31.7</ele>
        <time>2018-12-09T09:51:15Z</time>
      </trkpt>
      <trkpt lat="49.0955" lon="1.14091">
        <ele>31.9</ele>
        <time>2018-12-09T09:51:18Z</time>
      </trkpt>
      <trkpt lat="49.09539" lon="1.14095">
        <ele>32.1</ele>
        <time>2018-12-09T09:51:21Z</time>
      </trkpt>
      <trkpt lat="49.09529" lon="1.141">
        <ele>32.4</ele>
        <time>2018-12-09T09:51:24Z</time>
      </trkpt>
      <trkpt lat="49.09519" lon="1.14104">
        <ele>32.4</ele>
        <time>2018-12-09T09:51:27Z</time>
      </trkpt>
      <trkpt lat="49.09507" lon="1.14108">
        <ele>32.2</ele>
        <time>2018-12-09T09:51:30Z</time>
      </trkpt>
      <trkpt lat="49.09495" lon="1.14112">
        <ele>32.2</ele>
        <time>2018-12-09T09:51:33Z</time>
      </trkpt>
      <trkpt lat="49.09483" lon="1.14116">
        <ele>32.3</ele>
        <time>2018-12-09T09:51:36Z</time>
      </trkpt>
      <trkpt lat="49.09471" lon="1.14121">
        <ele>32.2</ele>
        <time>2018-12-09T09:51:39Z</time>
      </trkpt>
      <trkpt lat="49.09459" lon="1.14126">
        <ele>32.2</ele>
        <time>2018-12-09T09:51:42Z</time>
      </trkpt>
      <trkpt lat="49.09446" lon="1.14131">
        <ele>32.1</ele>
        <time>2018-12-09T09:51:45Z</time>
      </trkpt>
      <trkpt lat="49.09435" lon="1.14136">
        <ele>32.2</ele>
        <time>2018-12-09T09:51:48Z</time>
      </trkpt>
      <trkpt lat="49.09423" lon="1.1414">
        <ele>32.4</ele>
        <time>2018-12-09T09:51:51Z</time>
      </trkpt>
      <trkpt lat="49.09411" lon="1.14145">
        <ele>32.5</ele>
        <time>2018-12-09T09:51:54Z</time>
      </trkpt>
      <trkpt lat="49.094" lon="1.1415">
        <ele>32.7</ele>
        <time>2018-12-09T09:51:57Z</time>
      </trkpt>
      <trkpt lat="49.09388" lon="1.14155">
        <ele>32.9</ele>
        <time>2018-12-09T09:52:00Z</time>
      </trkpt>
      <trkpt lat="49.09377" lon="1.14159">
        <ele>33.1</ele>
        <time>2018-12-09T09:52:03Z</time>
      </trkpt>
      <trkpt lat="49.09366" lon="1.14163">
        <ele>33.1</ele>
        <time>2018-12-09T09:52:06Z</time>
      </trkpt>
      <trkpt lat="49.09356" lon="1.14167">
        <ele>33.5</ele>
        <time>2018-12-09T09:52:09Z</time>
      </trkpt>
      <trkpt lat="49.09345" lon="1.14171">
        <ele>33.9</ele>
        <time>2018-12-09T09:52:12Z</time>
      </trkpt>
      <trkpt lat="49.09334" lon="1.14175">
        <ele>34.5</ele>
        <time>2018-12-09T09:52:15Z</time>
      </trkpt>
      <trkpt lat="49.09324" lon="1.1418">
        <ele>35.1</ele>
        <time>2018-12-09T09:52:18Z</time>
      </trkpt>
      <trkpt lat="49.09313" lon="1.14184">
        <ele>35.4</ele>
        <time>2018-12-09T09:52:21Z</time>
      </trkpt>
      <trkpt lat="49.09302" lon="1.14188">
        <ele>35.5</ele>
        <time>2018-12-09T09:52:24Z</time>
      </trkpt>
      <trkpt lat="49.09291" lon="1.14192">
        <ele>35.4</ele>
        <time>2018-12-09T09:52:27Z</time>
      </trkpt>
      <trkpt lat="49.0928" lon="1.14196">
        <ele>35.7</ele>
        <time>2018-12-09T09:52:30Z</time>
      </trkpt>
      <trkpt lat="49.09269" lon="1.14199">
        <ele>36.1</ele>
        <time>2018-12-09T09:52:33Z</time>
      </trkpt>
      <trkpt lat="49.09258" lon="1.14203">
        <ele>36.5</ele>
        <time>2018-12-09T09:52:36Z</time>
      </trkpt>
      <trkpt lat="49.09247" lon="1.14206">
        <ele>36.9</ele>
        <time>2018-12-09T09:52:39Z</time>
      </trkpt>
      <trkpt lat="49.09236" lon="1.14208">
        <ele>37.3</ele>
        <time>2018-12-09T09:52:42Z</time>
      </trkpt>
      <trkpt lat="49.09226" lon="1.14211">
        <ele>37.5</ele>
        <time>2018-12-09T09:52:45Z</time>
      </trkpt>
      <trkpt lat="49.09216" lon="1.14212">
        <ele>38</ele>
        <time>2018-12-09T09:52:48Z</time>
      </trkpt>
      <trkpt lat="49.09205" lon="1.14213">
        <ele>38.7</ele>
        <time>2018-12-09T09:52:51Z</time>
      </trkpt>
      <trkpt lat="49.09195" lon="1.14215">
        <ele>39.5</ele>
        <time>2018-12-09T09:52:54Z</time>
      </trkpt>
      <trkpt lat="49.09185" lon="1.14213">
        <ele>39.8</ele>
        <time>2018-12-09T09:52:57Z</time>
      </trkpt>
      <trkpt lat="49.09174" lon="1.14208">
        <ele>39.8</ele>
        <time>2018-12-09T09:53:00Z</time>
      </trkpt>
      <trkpt lat="49.09163" lon="1.14202">
        <ele>39.3</ele>
        <time>2018-12-09T09:53:03Z</time>
      </trkpt>
      <trkpt lat="49.09154" lon="1.14207">
        <ele>38.7</ele>
        <time>2018-12-09T09:53:06Z</time>
      </trkpt>
      <trkpt lat="49.0915" lon="1.1422">
        <ele>39.1</ele>
        <time>2018-12-09T09:53:09Z</time>
      </trkpt>
      <trkpt lat="49.09147" lon="1.14237">
        <ele>39.7</ele>
        <time>2018-12-09T09:53:13Z</time>
      </trkpt>
      <trkpt lat="49.09145" lon="1.14252">
        <ele>40.8</ele>
        <time>2018-12-09T09:53:17Z</time>
      </trkpt>
      <trkpt lat="49.09142" lon="1.14269">
        <ele>41.7</ele>
        <time>2018-12-09T09:53:21Z</time>
      </trkpt>
      <trkpt lat="49.0914" lon="1.14284">
        <ele>42.4</ele>
        <time>2018-12-09T09:53:25Z</time>
      </trkpt>
      <trkpt lat="49.09137" lon="1.14298">
        <ele>43.7</ele>
        <time>2018-12-09T09:53:29Z</time>
      </trkpt>
      <trkpt lat="49.0914" lon="1.14312">
        <ele>44.9</ele>
        <time>2018-12-09T09:53:33Z</time>
      </trkpt>
      <trkpt lat="49.09142" lon="1.14326">
        <ele>45.9</ele>
        <time>2018-12-09T09:53:37Z</time>
      </trkpt>
      <trkpt lat="49.09143" lon="1.14342">
        <ele>47.6</ele>
        <time>2018-12-09T09:53:42Z</time>
      </trkpt>
      <trkpt lat="49.09146" lon="1.14357">
        <ele>48.9</ele>
        <time>2018-12-09T09:53:47Z</time>
      </trkpt>
      <trkpt lat="49.09149" lon="1.14372">
        <ele>49.7</ele>
        <time>2018-12-09T09:53:52Z</time>
      </trkpt>
      <trkpt lat="49.09152" lon="1.14386">
        <ele>50.6</ele>
        <time>2018-12-09T09:53:57Z</time>
      </trkpt>
      <trkpt lat="49.09155" lon="1.14399">
        <ele>51.6</ele>
        <time>2018-12-09T09:54:02Z</time>
      </trkpt>
      <trkpt lat="49.09159" lon="1.14412">
        <ele>53.8</ele>
        <time>2018-12-09T09:54:07Z</time>
      </trkpt>
      <trkpt lat="49.09164" lon="1.14426">
        <ele>55.8</ele>
        <time>2018-12-09T09:54:13Z</time>
      </trkpt>
      <trkpt lat="49.0917" lon="1.14438">
        <ele>56.9</ele>
        <time>2018-12-09T09:54:19Z</time>
      </trkpt>
      <trkpt lat="49.09175" lon="1.14452">
        <ele>58.4</ele>
        <time>2018-12-09T09:54:25Z</time>
      </trkpt>
      <trkpt lat="49.09178" lon="1.14467">
        <ele>60.5</ele>
        <time>2018-12-09T09:54:31Z</time>
      </trkpt>
      <trkpt lat="49.09176" lon="1.14481">
        <ele>62</ele>
        <time>2018-12-09T09:54:38Z</time>
      </trkpt>
      <trkpt lat="49.0917" lon="1.14494">
        <ele>64.5</ele>
        <time>2018-12-09T09:54:45Z</time>
      </trkpt>
      <trkpt lat="49.09167" lon="1.14509">
        <ele>65.9</ele>
        <time>2018-12-09T09:54:51Z</time>
      </trkpt>
      <trkpt lat="49.09168" lon="1.14524">
        <ele>67.7</ele>
        <time>2018-12-09T09:54:57Z</time>
      </trkpt>
      <trkpt lat="49.09172" lon="1.14538">
        <ele>69.6</ele>
        <time>2018-12-09T09:55:03Z</time>
      </trkpt>
      <trkpt lat="49.09175" lon="1.14552">
        <ele>71.3</ele>
        <time>2018-12-09T09:55:09Z</time>
      </trkpt>
      <trkpt lat="49.09175" lon="1.14567">
        <ele>72.7</ele>
        <time>2018-12-09T09:55:16Z</time>
      </trkpt>
      <trkpt lat="49.0917" lon="1.1458">
        <ele>73.6</ele>
        <time>2018-12-09T09:55:22Z</time>
      </trkpt>
      <trkpt lat="49.09162" lon="1.1459">
        <ele>74.6</ele>
        <time>2018-12-09T09:55:28Z</time>
      </trkpt>
      <trkpt lat="49.09156" lon="1.14601">
        <ele>76.2</ele>
        <time>2018-12-09T09:55:34Z</time>
      </trkpt>
      <trkpt lat="49.09152" lon="1.14615">
        <ele>77.5</ele>
        <time>2018-12-09T09:55:40Z</time>
      </trkpt>
      <trkpt lat="49.09149" lon="1.14629">
        <ele>78.9</ele>
        <time>2018-12-09T09:55:46Z</time>
      </trkpt>
      <trkpt lat="49.09146" lon="1.14643">
        <ele>79.7</ele>
        <time>2018-12-09T09:55:52Z</time>
      </trkpt>
      <trkpt lat="49.09142" lon="1.14656">
        <ele>81.2</ele>
        <time>2018-12-09T09:55:58Z</time>
      </trkpt>
      <trkpt lat="49.0914" lon="1.1467">
        <ele>83.3</ele>
        <time>2018-12-09T09:56:04Z</time>
      </trkpt>
      <trkpt lat="49.09146" lon="1.1468">
        <ele>85.5</ele>
        <time>2018-12-09T09:56:11Z</time>
      </trkpt>
      <trkpt lat="49.09156" lon="1.14677">
        <ele>86.5</ele>
        <time>2018-12-09T09:56:16Z</time>
      </trkpt>
      <trkpt lat="49.09165" lon="1.14674">
        <ele>87.1</ele>
        <time>2018-12-09T09:56:21Z</time>
      </trkpt>
      <trkpt lat="49.09174" lon="1.14671">
        <ele>87.2</ele>
        <time>2018-12-09T09:56:26Z</time>
      </trkpt>
      <trkpt lat="49.09183" lon="1.1467">
        <ele>87.6</ele>
        <time>2018-12-09T09:56:31Z</time>
      </trkpt>
      <trkpt lat="49.09194" lon="1.14671">
        <ele>88.6</ele>
        <time>2018-12-09T09:56:36Z</time>
      </trkpt>
      <trkpt lat="49.09205" lon="1.14674">
        <ele>89.3</ele>
        <time>2018-12-09T09:56:41Z</time>
      </trkpt>
      <trkpt lat="49.09215" lon="1.1468">
        <ele>89.3</ele>
        <time>2018-12-09T09:56:46Z</time>
      </trkpt>
      <trkpt lat="49.09223" lon="1.14687">
        <ele>91.3</ele>
        <time>2018-12-09T09:56:50Z</time>
      </trkpt>
      <trkpt lat="49.09231" lon="1.14694">
        <ele>92.6</ele>
        <time>2018-12-09T09:56:54Z</time>
      </trkpt>
      <trkpt lat="49.09239" lon="1.14703">
        <ele>94.1</ele>
        <time>2018-12-09T09:56:59Z</time>
      </trkpt>
      <trkpt lat="49.09247" lon="1.14712">
        <ele>95.7</ele>
        <time>2018-12-09T09:57:04Z</time>
      </trkpt>
      <trkpt lat="49.09255" lon="1.14723">
        <ele>96.8</ele>
        <time>2018-12-09T09:57:09Z</time>
      </trkpt>
      <trkpt lat="49.09261" lon="1.14735">
        <ele>98.6</ele>
        <time>2018-12-09T09:57:14Z</time>
      </trkpt>
      <trkpt lat="49.09268" lon="1.14746">
        <ele>100</ele>
        <time>2018-12-09T09:57:19Z</time>
      </trkpt>
      <trkpt lat="49.09275" lon="1.14756">
        <ele>100.8</ele>
        <time>2018-12-09T09:57:24Z</time>
      </trkpt>
      <trkpt lat="49.09282" lon="1.14766">
        <ele>102.2</ele>
        <time>2018-12-09T09:57:29Z</time>
      </trkpt>
      <trkpt lat="49.0929" lon="1.14775">
        <ele>103.1</ele>
        <time>2018-12-09T09:57:34Z</time>
      </trkpt>
      <trkpt lat="49.09299" lon="1.14785">
        <ele>104</ele>
        <time>2018-12-09T09:57:39Z</time>
      </trkpt>
      <trkpt lat="49.09306" lon="1.14795">
        <ele>105.1</ele>
        <time>2018-12-09T09:57:44Z</time>
      </trkpt>
      <trkpt lat="49.09312" lon="1.14809">
        <ele>107.2</ele>
        <time>2018-12-09T09:57:49Z</time>
      </trkpt>
      <trkpt lat="49.09318" lon="1.14823">
        <ele>109.4</ele>
        <time>2018-12-09T09:57:54Z</time>
      </trkpt>
      <trkpt lat="49.09324" lon="1.14837">
        <ele>111.5</ele>
        <time>2018-12-09T09:57:59Z</time>
      </trkpt>
      <trkpt lat="49.09329" lon="1.14848">
        <ele>112.3</ele>
        <time>2018-12-09T09:58:03Z</time>
      </trkpt>
      <trkpt lat="49.09336" lon="1.1486">
        <ele>112.7</ele>
        <time>2018-12-09T09:58:07Z</time>
      </trkpt>
      <trkpt lat="49.09343" lon="1.14869">
        <ele>113.5</ele>
        <time>2018-12-09T09:58:11Z</time>
      </trkpt>
      <trkpt lat="49.0935" lon="1.1488">
        <ele>114.8</ele>
        <time>2018-12-09T09:58:16Z</time>
      </trkpt>
      <trkpt lat="49.09357" lon="1.1489">
        <ele>115.8</ele>
        <time>2018-12-09T09:58:21Z</time>
      </trkpt>
      <trkpt lat="49.09364" lon="1.14899">
        <ele>117</ele>
        <time>2018-12-09T09:58:26Z</time>
      </trkpt>
      <trkpt lat="49.09374" lon="1.14904">
        <ele>118.9</ele>
        <time>2018-12-09T09:58:31Z</time>
      </trkpt>
      <trkpt lat="49.09384" lon="1.14906">
        <ele>120.5</ele>
        <time>2018-12-09T09:58:36Z</time>
      </trkpt>
      <trkpt lat="49.09394" lon="1.1491">
        <ele>121.5</ele>
        <time>2018-12-09T09:58:41Z</time>
      </trkpt>
      <trkpt lat="49.09404" lon="1.14915">
        <ele>122.6</ele>
        <time>2018-12-09T09:58:46Z</time>
      </trkpt>
      <trkpt lat="49.09414" lon="1.14916">
        <ele>124</ele>
        <time>2018-12-09T09:58:50Z</time>
      </trkpt>
      <trkpt lat="49.09424" lon="1.14916">
        <ele>124.9</ele>
        <time>2018-12-09T09:58:54Z</time>
      </trkpt>
      <trkpt lat="49.09433" lon="1.14916">
        <ele>125.7</ele>
        <time>2018-12-09T09:58:58Z</time>
      </trkpt>
      <trkpt lat="49.09443" lon="1.14916">
        <ele>126.5</ele>
        <time>2018-12-09T09:59:02Z</time>
      </trkpt>
      <trkpt lat="49.09455" lon="1.14917">
        <ele>127.9</ele>
        <time>2018-12-09T09:59:07Z</time>
      </trkpt>
      <trkpt lat="49.09465" lon="1.14916">
        <ele>128.5</ele>
        <time>2018-12-09T09:59:11Z</time>
      </trkpt>
      <trkpt lat="49.09474" lon="1.14917">
        <ele>129.1</ele>
        <time>2018-12-09T09:59:15Z</time>
      </trkpt>
      <trkpt lat="49.09484" lon="1.14916">
        <ele>129.5</ele>
        <time>2018-12-09T09:59:19Z</time>
      </trkpt>
      <trkpt lat="49.09498" lon="1.14914">
        <ele>130.5</ele>
        <time>2018-12-09T09:59:23Z</time>
      </trkpt>
      <trkpt lat="49.09507" lon="1.14915">
        <ele>130.8</ele>
        <time>2018-12-09T09:59:26Z</time>
      </trkpt>
      <trkpt lat="49.09517" lon="1.14915">
        <ele>131.3</ele>
        <time>2018-12-09T09:59:29Z</time>
      </trkpt>
      <trkpt lat="49.09527" lon="1.14913">
        <ele>131.4</ele>
        <time>2018-12-09T09:59:32Z</time>
      </trkpt>
      <trkpt lat="49.09538" lon="1.14911">
        <ele>131.8</ele>
        <time>2018-12-09T09:59:36Z</time>
      </trkpt>
      <trkpt lat="49.09547" lon="1.14917">
        <ele>132.1</ele>
        <time>2018-12-09T09:59:40Z</time>
      </trkpt>
      <trkpt lat="49.09548" lon="1.14925">
        <ele>131.7</ele>
        <time>2018-12-09T09:59:50Z</time>
      </trkpt>
      <trkpt lat="49.09542" lon="1.14934">
        <ele>131.8</ele>
        <time>2018-12-09T10:01:09Z</time>
      </trkpt>
      <trkpt lat="49.09535" lon="1.14944">
        <ele>131.5</ele>
        <time>2018-12-09T10:01:12Z</time>
      </trkpt>
      <trkpt lat="49.09528" lon="1.14955">
        <ele>131.4</ele>
        <time>2018-12-09T10:01:15Z</time>
      </trkpt>
      <trkpt lat="49.09521" lon="1.14965">
        <ele>131.3</ele>
        <time>2018-12-09T10:01:17Z</time>
      </trkpt>
      <trkpt lat="49.09513" lon="1.14977">
        <ele>130.7</ele>
        <time>2018-12-09T10:01:20Z</time>
      </trkpt>
      <trkpt lat="49.09506" lon="1.14988">
        <ele>130.5</ele>
        <time>2018-12-09T10:01:23Z</time>
      </trkpt>
      <trkpt lat="49.095" lon="1.14999">
        <ele>130.4</ele>
        <time>2018-12-09T10:01:25Z</time>
      </trkpt>
      <trkpt lat="49.09495" lon="1.15013">
        <ele>130.1</ele>
        <time>2018-12-09T10:01:27Z</time>
      </trkpt>
      <trkpt lat="49.09488" lon="1.15023">
        <ele>130.1</ele>
        <time>2018-12-09T10:01:29Z</time>
      </trkpt>
      <trkpt lat="49.09483" lon="1.15035">
        <ele>129.8</ele>
        <time>2018-12-09T10:01:31Z</time>
      </trkpt>
      <trkpt lat="49.0948" lon="1.1505">
        <ele>129.6</ele>
        <time>2018-12-09T10:01:34Z</time>
      </trkpt>
      <trkpt lat="49.09471" lon="1.15068">
        <ele>129.2</ele>
        <time>2018-12-09T10:01:36Z</time>
      </trkpt>
      <trkpt lat="49.09466" lon="1.15082">
        <ele>128.8</ele>
        <time>2018-12-09T10:01:38Z</time>
      </trkpt>
      <trkpt lat="49.0946" lon="1.15104">
        <ele>128.9</ele>
        <time>2018-12-09T10:01:41Z</time>
      </trkpt>
      <trkpt lat="49.09458" lon="1.15117">
        <ele>129</ele>
        <time>2018-12-09T10:01:43Z</time>
      </trkpt>
      <trkpt lat="49.09457" lon="1.15136">
        <ele>129.5</ele>
        <time>2018-12-09T10:01:46Z</time>
      </trkpt>
      <trkpt lat="49.09452" lon="1.15156">
        <ele>129.7</ele>
        <time>2018-12-09T10:01:49Z</time>
      </trkpt>
      <trkpt lat="49.09451" lon="1.1517">
        <ele>129.9</ele>
        <time>2018-12-09T10:01:52Z</time>
      </trkpt>
      <trkpt lat="49.0945" lon="1.15186">
        <ele>129.9</ele>
        <time>2018-12-09T10:01:55Z</time>
      </trkpt>
      <trkpt lat="49.09447" lon="1.152">
        <ele>129.9</ele>
        <time>2018-12-09T10:01:57Z</time>
      </trkpt>
      <trkpt lat="49.09447" lon="1.15217">
        <ele>129.8</ele>
        <time>2018-12-09T10:02:00Z</time>
      </trkpt>
      <trkpt lat="49.09446" lon="1.15234">
        <ele>129.7</ele>
        <time>2018-12-09T10:02:03Z</time>
      </trkpt>
      <trkpt lat="49.09445" lon="1.15254">
        <ele>129.8</ele>
        <time>2018-12-09T10:02:06Z</time>
      </trkpt>
      <trkpt lat="49.09438" lon="1.1527">
        <ele>129.6</ele>
        <time>2018-12-09T10:02:08Z</time>
      </trkpt>
      <trkpt lat="49.09435" lon="1.15283">
        <ele>129.9</ele>
        <time>2018-12-09T10:02:10Z</time>
      </trkpt>
      <trkpt lat="49.09431" lon="1.15296">
        <ele>129.8</ele>
        <time>2018-12-09T10:02:12Z</time>
      </trkpt>
      <trkpt lat="49.09423" lon="1.15306">
        <ele>129.6</ele>
        <time>2018-12-09T10:02:15Z</time>
      </trkpt>
      <trkpt lat="49.09414" lon="1.15314">
        <ele>129.9</ele>
        <time>2018-12-09T10:02:18Z</time>
      </trkpt>
      <trkpt lat="49.09403" lon="1.15323">
        <ele>129.8</ele>
        <time>2018-12-09T10:02:21Z</time>
      </trkpt>
      <trkpt lat="49.09394" lon="1.15333">
        <ele>129.9</ele>
        <time>2018-12-09T10:02:24Z</time>
      </trkpt>
      <trkpt lat="49.09386" lon="1.15342">
        <ele>130.1</ele>
        <time>2018-12-09T10:02:27Z</time>
      </trkpt>
      <trkpt lat="49.09375" lon="1.15353">
        <ele>129.8</ele>
        <time>2018-12-09T10:02:30Z</time>
      </trkpt>
      <trkpt lat="49.09365" lon="1.15361">
        <ele>128.8</ele>
        <time>2018-12-09T10:02:33Z</time>
      </trkpt>
      <trkpt lat="49.09352" lon="1.15371">
        <ele>128.5</ele>
        <time>2018-12-09T10:02:35Z</time>
      </trkpt>
      <trkpt lat="49.09342" lon="1.15383">
        <ele>128</ele>
        <time>2018-12-09T10:02:37Z</time>
      </trkpt>
      <trkpt lat="49.09334" lon="1.15394">
        <ele>127.6</ele>
        <time>2018-12-09T10:02:39Z</time>
      </trkpt>
      <trkpt lat="49.09327" lon="1.1541">
        <ele>127.3</ele>
        <time>2018-12-09T10:02:42Z</time>
      </trkpt>
      <trkpt lat="49.0932" lon="1.15422">
        <ele>127.1</ele>
        <time>2018-12-09T10:02:44Z</time>
      </trkpt>
      <trkpt lat="49.09315" lon="1.15435">
        <ele>126.8</ele>
        <time>2018-12-09T10:02:47Z</time>
      </trkpt>
      <trkpt lat="49.09307" lon="1.15449">
        <ele>126.4</ele>
        <time>2018-12-09T10:02:50Z</time>
      </trkpt>
      <trkpt lat="49.093" lon="1.15462">
        <ele>126.2</ele>
        <time>2018-12-09T10:02:52Z</time>
      </trkpt>
      <trkpt lat="49.09294" lon="1.15476">
        <ele>125.9</ele>
        <time>2018-12-09T10:02:54Z</time>
      </trkpt>
      <trkpt lat="49.09288" lon="1.15489">
        <ele>125.6</ele>
        <time>2018-12-09T10:02:56Z</time>
      </trkpt>
      <trkpt lat="49.09281" lon="1.15502">
        <ele>125.2</ele>
        <time>2018-12-09T10:02:58Z</time>
      </trkpt>
      <trkpt lat="49.09275" lon="1.15512">
        <ele>124.9</ele>
        <time>2018-12-09T10:03:00Z</time>
      </trkpt>
      <trkpt lat="49.09265" lon="1.15518">
        <ele>125.1</ele>
        <time>2018-12-09T10:03:03Z</time>
      </trkpt>
      <trkpt lat="49.09253" lon="1.15521">
        <ele>125</ele>
        <time>2018-12-09T10:03:06Z</time>
      </trkpt>
      <trkpt lat="49.09243" lon="1.15526">
        <ele>125.1</ele>
        <time>2018-12-09T10:03:08Z</time>
      </trkpt>
      <trkpt lat="49.09232" lon="1.15532">
        <ele>125.1</ele>
        <time>2018-12-09T10:03:10Z</time>
      </trkpt>
      <trkpt lat="49.0922" lon="1.15538">
        <ele>125.1</ele>
        <time>2018-12-09T10:03:12Z</time>
      </trkpt>
      <trkpt lat="49.0921" lon="1.15542">
        <ele>124.8</ele>
        <time>2018-12-09T10:03:14Z</time>
      </trkpt>
      <trkpt lat="49.09198" lon="1.15548">
        <ele>125.2</ele>
        <time>2018-12-09T10:03:16Z</time>
      </trkpt>
      <trkpt lat="49.09187" lon="1.15552">
        <ele>125</ele>
        <time>2018-12-09T10:03:18Z</time>
      </trkpt>
      <trkpt lat="49.09176" lon="1.15556">
        <ele>124.9</ele>
        <time>2018-12-09T10:03:20Z</time>
      </trkpt>
      <trkpt lat="49.09165" lon="1.15559">
        <ele>124.9</ele>
        <time>2018-12-09T10:03:22Z</time>
      </trkpt>
      <trkpt lat="49.09153" lon="1.15564">
        <ele>124.5</ele>
        <time>2018-12-09T10:03:24Z</time>
      </trkpt>
      <trkpt lat="49.09143" lon="1.15566">
        <ele>124.3</ele>
        <time>2018-12-09T10:03:26Z</time>
      </trkpt>
      <trkpt lat="49.09133" lon="1.15569">
        <ele>124</ele>
        <time>2018-12-09T10:03:28Z</time>
      </trkpt>
      <trkpt lat="49.09123" lon="1.15572">
        <ele>123.6</ele>
        <time>2018-12-09T10:03:30Z</time>
      </trkpt>
      <trkpt lat="49.0911" lon="1.15576">
        <ele>123.2</ele>
        <time>2018-12-09T10:03:33Z</time>
      </trkpt>
      <trkpt lat="49.09098" lon="1.15579">
        <ele>123.1</ele>
        <time>2018-12-09T10:03:36Z</time>
      </trkpt>
      <trkpt lat="49.09088" lon="1.15583">
        <ele>122.9</ele>
        <time>2018-12-09T10:03:38Z</time>
      </trkpt>
      <trkpt lat="49.09077" lon="1.15584">
        <ele>122.6</ele>
        <time>2018-12-09T10:03:40Z</time>
      </trkpt>
      <trkpt lat="49.09066" lon="1.15587">
        <ele>121.9</ele>
        <time>2018-12-09T10:03:42Z</time>
      </trkpt>
      <trkpt lat="49.09054" lon="1.15593">
        <ele>120.9</ele>
        <time>2018-12-09T10:03:44Z</time>
      </trkpt>
      <trkpt lat="49.09043" lon="1.15598">
        <ele>121.3</ele>
        <time>2018-12-09T10:03:46Z</time>
      </trkpt>
      <trkpt lat="49.09031" lon="1.15603">
        <ele>122.2</ele>
        <time>2018-12-09T10:03:48Z</time>
      </trkpt>
      <trkpt lat="49.09022" lon="1.15606">
        <ele>122.7</ele>
        <time>2018-12-09T10:03:50Z</time>
      </trkpt>
      <trkpt lat="49.09011" lon="1.1561">
        <ele>123.9</ele>
        <time>2018-12-09T10:03:53Z</time>
      </trkpt>
      <trkpt lat="49.08998" lon="1.15615">
        <ele>124.4</ele>
        <time>2018-12-09T10:03:55Z</time>
      </trkpt>
      <trkpt lat="49.08985" lon="1.15618">
        <ele>125.5</ele>
        <time>2018-12-09T10:03:58Z</time>
      </trkpt>
      <trkpt lat="49.08975" lon="1.1562">
        <ele>125.6</ele>
        <time>2018-12-09T10:04:01Z</time>
      </trkpt>
      <trkpt lat="49.08965" lon="1.15625">
        <ele>125.7</ele>
        <time>2018-12-09T10:04:03Z</time>
      </trkpt>
      <trkpt lat="49.08953" lon="1.15628">
        <ele>126.2</ele>
        <time>2018-12-09T10:04:06Z</time>
      </trkpt>
      <trkpt lat="49.08942" lon="1.15632">
        <ele>125.7</ele>
        <time>2018-12-09T10:04:08Z</time>
      </trkpt>
      <trkpt lat="49.08933" lon="1.15636">
        <ele>125.8</ele>
        <time>2018-12-09T10:04:10Z</time>
      </trkpt>
      <trkpt lat="49.0892" lon="1.1564">
        <ele>125.8</ele>
        <time>2018-12-09T10:04:13Z</time>
      </trkpt>
      <trkpt lat="49.08911" lon="1.15642">
        <ele>125.6</ele>
        <time>2018-12-09T10:04:15Z</time>
      </trkpt>
      <trkpt lat="49.08902" lon="1.15644">
        <ele>125.8</ele>
        <time>2018-12-09T10:04:17Z</time>
      </trkpt>
      <trkpt lat="49.08889" lon="1.15648">
        <ele>126.4</ele>
        <time>2018-12-09T10:04:20Z</time>
      </trkpt>
      <trkpt lat="49.08878" lon="1.1565">
        <ele>126.6</ele>
        <time>2018-12-09T10:04:23Z</time>
      </trkpt>
      <trkpt lat="49.08865" lon="1.15653">
        <ele>126.9</ele>
        <time>2018-12-09T10:04:26Z</time>
      </trkpt>
      <trkpt lat="49.08852" lon="1.15657">
        <ele>127.1</ele>
        <time>2018-12-09T10:04:29Z</time>
      </trkpt>
      <trkpt lat="49.0884" lon="1.1566">
        <ele>127.2</ele>
        <time>2018-12-09T10:04:32Z</time>
      </trkpt>
      <trkpt lat="49.08831" lon="1.15662">
        <ele>126.9</ele>
        <time>2018-12-09T10:04:34Z</time>
      </trkpt>
      <trkpt lat="49.0882" lon="1.15666">
        <ele>127</ele>
        <time>2018-12-09T10:04:36Z</time>
      </trkpt>
      <trkpt lat="49.08811" lon="1.15669">
        <ele>126.8</ele>
        <time>2018-12-09T10:04:38Z</time>
      </trkpt>
      <trkpt lat="49.088" lon="1.15673">
        <ele>126.2</ele>
        <time>2018-12-09T10:04:40Z</time>
      </trkpt>
      <trkpt lat="49.0879" lon="1.15675">
        <ele>126</ele>
        <time>2018-12-09T10:04:42Z</time>
      </trkpt>
      <trkpt lat="49.08779" lon="1.15678">
        <ele>125.6</ele>
        <time>2018-12-09T10:04:44Z</time>
      </trkpt>
      <trkpt lat="49.08768" lon="1.15681">
        <ele>124.7</ele>
        <time>2018-12-09T10:04:47Z</time>
      </trkpt>
      <trkpt lat="49.08757" lon="1.15686">
        <ele>124.3</ele>
        <time>2018-12-09T10:04:49Z</time>
      </trkpt>
      <trkpt lat="49.08746" lon="1.15691">
        <ele>123.8</ele>
        <time>2018-12-09T10:04:51Z</time>
      </trkpt>
      <trkpt lat="49.08735" lon="1.15694">
        <ele>124</ele>
        <time>2018-12-09T10:04:54Z</time>
      </trkpt>
      <trkpt lat="49.08721" lon="1.15699">
        <ele>125</ele>
        <time>2018-12-09T10:04:57Z</time>
      </trkpt>
      <trkpt lat="49.08707" lon="1.15702">
        <ele>125</ele>
        <time>2018-12-09T10:05:00Z</time>
      </trkpt>
      <trkpt lat="49.08695" lon="1.15704">
        <ele>124.9</ele>
        <time>2018-12-09T10:05:03Z</time>
      </trkpt>
      <trkpt lat="49.08685" lon="1.15707">
        <ele>124.3</ele>
        <time>2018-12-09T10:05:05Z</time>
      </trkpt>
      <trkpt lat="49.08672" lon="1.1571">
        <ele>123.6</ele>
        <time>2018-12-09T10:05:08Z</time>
      </trkpt>
      <trkpt lat="49.08659" lon="1.15718">
        <ele>123.1</ele>
        <time>2018-12-09T10:05:10Z</time>
      </trkpt>
      <trkpt lat="49.08649" lon="1.1572">
        <ele>123</ele>
        <time>2018-12-09T10:05:12Z</time>
      </trkpt>
      <trkpt lat="49.08637" lon="1.15722">
        <ele>122.5</ele>
        <time>2018-12-09T10:05:15Z</time>
      </trkpt>
      <trkpt lat="49.08627" lon="1.15732">
        <ele>122.2</ele>
        <time>2018-12-09T10:05:17Z</time>
      </trkpt>
      <trkpt lat="49.08618" lon="1.15744">
        <ele>121.7</ele>
        <time>2018-12-09T10:05:20Z</time>
      </trkpt>
      <trkpt lat="49.08611" lon="1.15755">
        <ele>121.2</ele>
        <time>2018-12-09T10:05:22Z</time>
      </trkpt>
      <trkpt lat="49.08604" lon="1.15768">
        <ele>120.5</ele>
        <time>2018-12-09T10:05:25Z</time>
      </trkpt>
      <trkpt lat="49.08597" lon="1.15779">
        <ele>120.1</ele>
        <time>2018-12-09T10:05:27Z</time>
      </trkpt>
      <trkpt lat="49.08586" lon="1.15793">
        <ele>119.6</ele>
        <time>2018-12-09T10:05:29Z</time>
      </trkpt>
      <trkpt lat="49.08578" lon="1.15806">
        <ele>119.3</ele>
        <time>2018-12-09T10:05:31Z</time>
      </trkpt>
      <trkpt lat="49.08569" lon="1.15823">
        <ele>119.2</ele>
        <time>2018-12-09T10:05:34Z</time>
      </trkpt>
      <trkpt lat="49.08561" lon="1.15839">
        <ele>118.9</ele>
        <time>2018-12-09T10:05:37Z</time>
      </trkpt>
      <trkpt lat="49.08553" lon="1.15852">
        <ele>118.4</ele>
        <time>2018-12-09T10:05:39Z</time>
      </trkpt>
      <trkpt lat="49.08546" lon="1.15861">
        <ele>117.6</ele>
        <time>2018-12-09T10:05:41Z</time>
      </trkpt>
      <trkpt lat="49.08537" lon="1.15867">
        <ele>116.9</ele>
        <time>2018-12-09T10:05:43Z</time>
      </trkpt>
      <trkpt lat="49.08527" lon="1.15876">
        <ele>115.2</ele>
        <time>2018-12-09T10:05:46Z</time>
      </trkpt>
      <trkpt lat="49.08519" lon="1.15889">
        <ele>113.4</ele>
        <time>2018-12-09T10:05:49Z</time>
      </trkpt>
      <trkpt lat="49.08511" lon="1.15903">
        <ele>111.3</ele>
        <time>2018-12-09T10:05:52Z</time>
      </trkpt>
      <trkpt lat="49.08505" lon="1.15914">
        <ele>109.9</ele>
        <time>2018-12-09T10:05:54Z</time>
      </trkpt>
      <trkpt lat="49.08499" lon="1.15929">
        <ele>108</ele>
        <time>2018-12-09T10:05:57Z</time>
      </trkpt>
      <trkpt lat="49.08494" lon="1.15946">
        <ele>105.6</ele>
        <time>2018-12-09T10:06:00Z</time>
      </trkpt>
      <trkpt lat="49.08488" lon="1.15958">
        <ele>103.8</ele>
        <time>2018-12-09T10:06:02Z</time>
      </trkpt>
      <trkpt lat="49.08482" lon="1.15971">
        <ele>101.8</ele>
        <time>2018-12-09T10:06:04Z</time>
      </trkpt>
      <trkpt lat="49.08477" lon="1.15982">
        <ele>99.4</ele>
        <time>2018-12-09T10:06:06Z</time>
      </trkpt>
      <trkpt lat="49.0847" lon="1.16001">
        <ele>95.8</ele>
        <time>2018-12-09T10:06:09Z</time>
      </trkpt>
      <trkpt lat="49.0846" lon="1.16016">
        <ele>93.5</ele>
        <time>2018-12-09T10:06:11Z</time>
      </trkpt>
      <trkpt lat="49.08453" lon="1.16029">
        <ele>91.2</ele>
        <time>2018-12-09T10:06:13Z</time>
      </trkpt>
      <trkpt lat="49.08448" lon="1.1604">
        <ele>89</ele>
        <time>2018-12-09T10:06:15Z</time>
      </trkpt>
      <trkpt lat="49.08441" lon="1.16054">
        <ele>85.2</ele>
        <time>2018-12-09T10:06:18Z</time>
      </trkpt>
      <trkpt lat="49.08436" lon="1.16066">
        <ele>82.2</ele>
        <time>2018-12-09T10:06:20Z</time>
      </trkpt>
      <trkpt lat="49.08428" lon="1.16079">
        <ele>79.7</ele>
        <time>2018-12-09T10:06:22Z</time>
      </trkpt>
      <trkpt lat="49.08422" lon="1.16091">
        <ele>77.4</ele>
        <time>2018-12-09T10:06:24Z</time>
      </trkpt>
      <trkpt lat="49.08416" lon="1.16105">
        <ele>73.1</ele>
        <time>2018-12-09T10:06:28Z</time>
      </trkpt>
      <trkpt lat="49.08407" lon="1.16112">
        <ele>71.7</ele>
        <time>2018-12-09T10:06:30Z</time>
      </trkpt>
      <trkpt lat="49.08398" lon="1.16111">
        <ele>69.7</ele>
        <time>2018-12-09T10:06:33Z</time>
      </trkpt>
      <trkpt lat="49.08386" lon="1.16112">
        <ele>68.2</ele>
        <time>2018-12-09T10:06:36Z</time>
      </trkpt>
      <trkpt lat="49.08373" lon="1.16114">
        <ele>67.4</ele>
        <time>2018-12-09T10:06:38Z</time>
      </trkpt>
      <trkpt lat="49.08361" lon="1.16116">
        <ele>66.5</ele>
        <time>2018-12-09T10:06:41Z</time>
      </trkpt>
      <trkpt lat="49.08351" lon="1.16116">
        <ele>65.9</ele>
        <time>2018-12-09T10:06:44Z</time>
      </trkpt>
      <trkpt lat="49.08341" lon="1.16113">
        <ele>65.3</ele>
        <time>2018-12-09T10:06:47Z</time>
      </trkpt>
      <trkpt lat="49.08331" lon="1.16109">
        <ele>64.9</ele>
        <time>2018-12-09T10:06:50Z</time>
      </trkpt>
      <trkpt lat="49.0832" lon="1.16101">
        <ele>64.4</ele>
        <time>2018-12-09T10:06:54Z</time>
      </trkpt>
      <trkpt lat="49.08311" lon="1.16096">
        <ele>63.9</ele>
        <time>2018-12-09T10:06:57Z</time>
      </trkpt>
      <trkpt lat="49.083" lon="1.16088">
        <ele>62.9</ele>
        <time>2018-12-09T10:07:01Z</time>
      </trkpt>
      <trkpt lat="49.08288" lon="1.16082">
        <ele>62.1</ele>
        <time>2018-12-09T10:07:05Z</time>
      </trkpt>
      <trkpt lat="49.08277" lon="1.16077">
        <ele>61.5</ele>
        <time>2018-12-09T10:07:09Z</time>
      </trkpt>
      <trkpt lat="49.08268" lon="1.16074">
        <ele>61.1</ele>
        <time>2018-12-09T10:07:12Z</time>
      </trkpt>
      <trkpt lat="49.08259" lon="1.16071">
        <ele>60.9</ele>
        <time>2018-12-09T10:07:15Z</time>
      </trkpt>
      <trkpt lat="49.0825" lon="1.16066">
        <ele>61</ele>
        <time>2018-12-09T10:07:18Z</time>
      </trkpt>
      <trkpt lat="49.08241" lon="1.16063">
        <ele>60.4</ele>
        <time>2018-12-09T10:07:21Z</time>
      </trkpt>
      <trkpt lat="49.08232" lon="1.16057">
        <ele>60.1</ele>
        <time>2018-12-09T10:07:24Z</time>
      </trkpt>
      <trkpt lat="49.08223" lon="1.16048">
        <ele>59.2</ele>
        <time>2018-12-09T10:07:27Z</time>
      </trkpt>
      <trkpt lat="49.08215" lon="1.16038">
        <ele>57.6</ele>
        <time>2018-12-09T10:07:30Z</time>
      </trkpt>
      <trkpt lat="49.08206" lon="1.16027">
        <ele>56.6</ele>
        <time>2018-12-09T10:07:33Z</time>
      </trkpt>
      <trkpt lat="49.08196" lon="1.16014">
        <ele>55.2</ele>
        <time>2018-12-09T10:07:36Z</time>
      </trkpt>
      <trkpt lat="49.08188" lon="1.15998">
        <ele>54.3</ele>
        <time>2018-12-09T10:07:39Z</time>
      </trkpt>
      <trkpt lat="49.08181" lon="1.15984">
        <ele>54.7</ele>
        <time>2018-12-09T10:07:42Z</time>
      </trkpt>
      <trkpt lat="49.08174" lon="1.15971">
        <ele>54</ele>
        <time>2018-12-09T10:07:45Z</time>
      </trkpt>
      <trkpt lat="49.08167" lon="1.15958">
        <ele>53.4</ele>
        <time>2018-12-09T10:07:48Z</time>
      </trkpt>
      <trkpt lat="49.08159" lon="1.15942">
        <ele>52.8</ele>
        <time>2018-12-09T10:07:51Z</time>
      </trkpt>
      <trkpt lat="49.08153" lon="1.15932">
        <ele>52.5</ele>
        <time>2018-12-09T10:07:53Z</time>
      </trkpt>
      <trkpt lat="49.08147" lon="1.15922">
        <ele>52.4</ele>
        <time>2018-12-09T10:07:55Z</time>
      </trkpt>
      <trkpt lat="49.08139" lon="1.15913">
        <ele>52.3</ele>
        <time>2018-12-09T10:07:57Z</time>
      </trkpt>
      <trkpt lat="49.08131" lon="1.15909">
        <ele>51.8</ele>
        <time>2018-12-09T10:07:59Z</time>
      </trkpt>
      <trkpt lat="49.08121" lon="1.15908">
        <ele>51</ele>
        <time>2018-12-09T10:08:01Z</time>
      </trkpt>
      <trkpt lat="49.08111" lon="1.15907">
        <ele>50.8</ele>
        <time>2018-12-09T10:08:03Z</time>
      </trkpt>
      <trkpt lat="49.081" lon="1.159">
        <ele>50.1</ele>
        <time>2018-12-09T10:08:05Z</time>
      </trkpt>
      <trkpt lat="49.0809" lon="1.15891">
        <ele>49.5</ele>
        <time>2018-12-09T10:08:07Z</time>
      </trkpt>
      <trkpt lat="49.0808" lon="1.15881">
        <ele>49.1</ele>
        <time>2018-12-09T10:08:09Z</time>
      </trkpt>
      <trkpt lat="49.0807" lon="1.1587">
        <ele>48.4</ele>
        <time>2018-12-09T10:08:11Z</time>
      </trkpt>
      <trkpt lat="49.08058" lon="1.15861">
        <ele>47.4</ele>
        <time>2018-12-09T10:08:13Z</time>
      </trkpt>
      <trkpt lat="49.08047" lon="1.15853">
        <ele>46.2</ele>
        <time>2018-12-09T10:08:15Z</time>
      </trkpt>
      <trkpt lat="49.08034" lon="1.15844">
        <ele>45.5</ele>
        <time>2018-12-09T10:08:17Z</time>
      </trkpt>
      <trkpt lat="49.08022" lon="1.15835">
        <ele>44.6</ele>
        <time>2018-12-09T10:08:19Z</time>
      </trkpt>
      <trkpt lat="49.0801" lon="1.15826">
        <ele>43.9</ele>
        <time>2018-12-09T10:08:21Z</time>
      </trkpt>
      <trkpt lat="49.08003" lon="1.15818">
        <ele>43.1</ele>
        <time>2018-12-09T10:08:23Z</time>
      </trkpt>
      <trkpt lat="49.08" lon="1.15802">
        <ele>42.3</ele>
        <time>2018-12-09T10:08:26Z</time>
      </trkpt>
      <trkpt lat="49.08004" lon="1.15789">
        <ele>41.7</ele>
        <time>2018-12-09T10:08:28Z</time>
      </trkpt>
      <trkpt lat="49.08008" lon="1.15776">
        <ele>41.5</ele>
        <time>2018-12-09T10:08:30Z</time>
      </trkpt>
      <trkpt lat="49.08012" lon="1.15764">
        <ele>40.9</ele>
        <time>2018-12-09T10:08:32Z</time>
      </trkpt>
      <trkpt lat="49.08016" lon="1.15751">
        <ele>40.4</ele>
        <time>2018-12-09T10:08:34Z</time>
      </trkpt>
      <trkpt lat="49.08019" lon="1.15738">
        <ele>39.8</ele>
        <time>2018-12-09T10:08:36Z</time>
      </trkpt>
      <trkpt lat="49.08023" lon="1.15724">
        <ele>39.7</ele>
        <time>2018-12-09T10:08:38Z</time>
      </trkpt>
      <trkpt lat="49.08027" lon="1.1571">
        <ele>39.6</ele>
        <time>2018-12-09T10:08:40Z</time>
      </trkpt>
      <trkpt lat="49.08031" lon="1.15696">
        <ele>39</ele>
        <time>2018-12-09T10:08:42Z</time>
      </trkpt>
      <trkpt lat="49.08035" lon="1.15683">
        <ele>38.5</ele>
        <time>2018-12-09T10:08:44Z</time>
      </trkpt>
      <trkpt lat="49.08039" lon="1.15669">
        <ele>38.1</ele>
        <time>2018-12-09T10:08:46Z</time>
      </trkpt>
      <trkpt lat="49.08042" lon="1.15656">
        <ele>37.5</ele>
        <time>2018-12-09T10:08:48Z</time>
      </trkpt>
      <trkpt lat="49.08046" lon="1.15642">
        <ele>37.1</ele>
        <time>2018-12-09T10:08:50Z</time>
      </trkpt>
      <trkpt lat="49.08049" lon="1.15628">
        <ele>36.7</ele>
        <time>2018-12-09T10:08:52Z</time>
      </trkpt>
      <trkpt lat="49.08053" lon="1.15614">
        <ele>36.1</ele>
        <time>2018-12-09T10:08:54Z</time>
      </trkpt>
      <trkpt lat="49.08056" lon="1.15601">
        <ele>35.3</ele>
        <time>2018-12-09T10:08:56Z</time>
      </trkpt>
      <trkpt lat="49.08058" lon="1.15586">
        <ele>34.9</ele>
        <time>2018-12-09T10:08:58Z</time>
      </trkpt>
      <trkpt lat="49.0806" lon="1.1557">
        <ele>34.9</ele>
        <time>2018-12-09T10:09:01Z</time>
      </trkpt>
      <trkpt lat="49.08051" lon="1.15576">
        <ele>34.3</ele>
        <time>2018-12-09T10:09:06Z</time>
      </trkpt>
      <trkpt lat="49.08046" lon="1.15592">
        <ele>33.5</ele>
        <time>2018-12-09T10:09:09Z</time>
      </trkpt>
      <trkpt lat="49.08043" lon="1.15609">
        <ele>33.4</ele>
        <time>2018-12-09T10:09:12Z</time>
      </trkpt>
      <trkpt lat="49.08038" lon="1.15624">
        <ele>33.3</ele>
        <time>2018-12-09T10:09:15Z</time>
      </trkpt>
      <trkpt lat="49.08031" lon="1.15636">
        <ele>34</ele>
        <time>2018-12-09T10:09:18Z</time>
      </trkpt>
      <trkpt lat="49.08019" lon="1.15641">
        <ele>34</ele>
        <time>2018-12-09T10:09:21Z</time>
      </trkpt>
      <trkpt lat="49.08007" lon="1.1564">
        <ele>33.5</ele>
        <time>2018-12-09T10:09:24Z</time>
      </trkpt>
      <trkpt lat="49.07994" lon="1.15634">
        <ele>33.5</ele>
        <time>2018-12-09T10:09:27Z</time>
      </trkpt>
      <trkpt lat="49.07983" lon="1.15625">
        <ele>33.5</ele>
        <time>2018-12-09T10:09:30Z</time>
      </trkpt>
      <trkpt lat="49.07975" lon="1.15617">
        <ele>33.3</ele>
        <time>2018-12-09T10:09:32Z</time>
      </trkpt>
      <trkpt lat="49.07969" lon="1.15607">
        <ele>33</ele>
        <time>2018-12-09T10:09:34Z</time>
      </trkpt>
      <trkpt lat="49.0796" lon="1.15592">
        <ele>32.8</ele>
        <time>2018-12-09T10:09:37Z</time>
      </trkpt>
      <trkpt lat="49.07952" lon="1.15578">
        <ele>32.8</ele>
        <time>2018-12-09T10:09:40Z</time>
      </trkpt>
      <trkpt lat="49.07944" lon="1.15563">
        <ele>32.7</ele>
        <time>2018-12-09T10:09:43Z</time>
      </trkpt>
      <trkpt lat="49.07937" lon="1.15549">
        <ele>32.5</ele>
        <time>2018-12-09T10:09:46Z</time>
      </trkpt>
      <trkpt lat="49.07928" lon="1.15534">
        <ele>32.1</ele>
        <time>2018-12-09T10:09:49Z</time>
      </trkpt>
      <trkpt lat="49.07919" lon="1.15521">
        <ele>32.3</ele>
        <time>2018-12-09T10:09:52Z</time>
      </trkpt>
      <trkpt lat="49.07913" lon="1.15507">
        <ele>32.4</ele>
        <time>2018-12-09T10:09:55Z</time>
      </trkpt>
      <trkpt lat="49.07904" lon="1.15499">
        <ele>32.9</ele>
        <time>2018-12-09T10:09:58Z</time>
      </trkpt>
      <trkpt lat="49.07895" lon="1.15505">
        <ele>33.3</ele>
        <time>2018-12-09T10:10:01Z</time>
      </trkpt>
      <trkpt lat="49.07885" lon="1.15517">
        <ele>33.2</ele>
        <time>2018-12-09T10:10:04Z</time>
      </trkpt>
      <trkpt lat="49.07876" lon="1.15528">
        <ele>33.3</ele>
        <time>2018-12-09T10:10:07Z</time>
      </trkpt>
      <trkpt lat="49.07866" lon="1.15539">
        <ele>33.5</ele>
        <time>2018-12-09T10:10:10Z</time>
      </trkpt>
      <trkpt lat="49.07855" lon="1.15549">
        <ele>33.8</ele>
        <time>2018-12-09T10:10:13Z</time>
      </trkpt>
      <trkpt lat="49.07846" lon="1.15556">
        <ele>34.1</ele>
        <time>2018-12-09T10:10:16Z</time>
      </trkpt>
      <trkpt lat="49.07838" lon="1.1557">
        <ele>34.4</ele>
        <time>2018-12-09T10:10:20Z</time>
      </trkpt>
      <trkpt lat="49.0783" lon="1.15581">
        <ele>34.5</ele>
        <time>2018-12-09T10:10:23Z</time>
      </trkpt>
      <trkpt lat="49.07821" lon="1.15592">
        <ele>34.6</ele>
        <time>2018-12-09T10:10:26Z</time>
      </trkpt>
      <trkpt lat="49.0781" lon="1.15603">
        <ele>34.4</ele>
        <time>2018-12-09T10:10:29Z</time>
      </trkpt>
      <trkpt lat="49.078" lon="1.15614">
        <ele>34.3</ele>
        <time>2018-12-09T10:10:32Z</time>
      </trkpt>
      <trkpt lat="49.0779" lon="1.15627">
        <ele>34.7</ele>
        <time>2018-12-09T10:10:35Z</time>
      </trkpt>
      <trkpt lat="49.07782" lon="1.15641">
        <ele>34.7</ele>
        <time>2018-12-09T10:10:38Z</time>
      </trkpt>
      <trkpt lat="49.07772" lon="1.15656">
        <ele>34.6</ele>
        <time>2018-12-09T10:10:41Z</time>
      </trkpt>
      <trkpt lat="49.07765" lon="1.15665">
        <ele>34.6</ele>
        <time>2018-12-09T10:10:43Z</time>
      </trkpt>
      <trkpt lat="49.07758" lon="1.15675">
        <ele>34.7</ele>
        <time>2018-12-09T10:10:45Z</time>
      </trkpt>
      <trkpt lat="49.0775" lon="1.15684">
        <ele>34.5</ele>
        <time>2018-12-09T10:10:47Z</time>
      </trkpt>
      <trkpt lat="49.07742" lon="1.15693">
        <ele>34.2</ele>
        <time>2018-12-09T10:10:49Z</time>
      </trkpt>
      <trkpt lat="49.07735" lon="1.15702">
        <ele>33.9</ele>
        <time>2018-12-09T10:10:51Z</time>
      </trkpt>
      <trkpt lat="49.07728" lon="1.15711">
        <ele>33.9</ele>
        <time>2018-12-09T10:10:53Z</time>
      </trkpt>
      <trkpt lat="49.0772" lon="1.15719">
        <ele>33.8</ele>
        <time>2018-12-09T10:10:55Z</time>
      </trkpt>
      <trkpt lat="49.07712" lon="1.15728">
        <ele>33.7</ele>
        <time>2018-12-09T10:10:57Z</time>
      </trkpt>
      <trkpt lat="49.07705" lon="1.15736">
        <ele>34</ele>
        <time>2018-12-09T10:10:59Z</time>
      </trkpt>
      <trkpt lat="49.07697" lon="1.15746">
        <ele>34</ele>
        <time>2018-12-09T10:11:01Z</time>
      </trkpt>
      <trkpt lat="49.0769" lon="1.15754">
        <ele>34.1</ele>
        <time>2018-12-09T10:11:03Z</time>
      </trkpt>
      <trkpt lat="49.07679" lon="1.15766">
        <ele>34.4</ele>
        <time>2018-12-09T10:11:06Z</time>
      </trkpt>
      <trkpt lat="49.07668" lon="1.1578">
        <ele>34.6</ele>
        <time>2018-12-09T10:11:09Z</time>
      </trkpt>
      <trkpt lat="49.0766" lon="1.15789">
        <ele>34.6</ele>
        <time>2018-12-09T10:11:11Z</time>
      </trkpt>
      <trkpt lat="49.07652" lon="1.15798">
        <ele>34.4</ele>
        <time>2018-12-09T10:11:13Z</time>
      </trkpt>
      <trkpt lat="49.07644" lon="1.15807">
        <ele>34.1</ele>
        <time>2018-12-09T10:11:15Z</time>
      </trkpt>
      <trkpt lat="49.07637" lon="1.15817">
        <ele>34.2</ele>
        <time>2018-12-09T10:11:17Z</time>
      </trkpt>
      <trkpt lat="49.07629" lon="1.15826">
        <ele>34.2</ele>
        <time>2018-12-09T10:11:19Z</time>
      </trkpt>
      <trkpt lat="49.07621" lon="1.15836">
        <ele>34.3</ele>
        <time>2018-12-09T10:11:21Z</time>
      </trkpt>
      <trkpt lat="49.07612" lon="1.15846">
        <ele>34.4</ele>
        <time>2018-12-09T10:11:23Z</time>
      </trkpt>
      <trkpt lat="49.07605" lon="1.15855">
        <ele>34.5</ele>
        <time>2018-12-09T10:11:25Z</time>
      </trkpt>
      <trkpt lat="49.07598" lon="1.15864">
        <ele>34.6</ele>
        <time>2018-12-09T10:11:27Z</time>
      </trkpt>
      <trkpt lat="49.07588" lon="1.15876">
        <ele>34.5</ele>
        <time>2018-12-09T10:11:30Z</time>
      </trkpt>
      <trkpt lat="49.07579" lon="1.15874">
        <ele>34.8</ele>
        <time>2018-12-09T10:11:33Z</time>
      </trkpt>
      <trkpt lat="49.07571" lon="1.15861">
        <ele>35.1</ele>
        <time>2018-12-09T10:11:36Z</time>
      </trkpt>
      <trkpt lat="49.07565" lon="1.1585">
        <ele>35.2</ele>
        <time>2018-12-09T10:11:38Z</time>
      </trkpt>
      <trkpt lat="49.07559" lon="1.15839">
        <ele>35</ele>
        <time>2018-12-09T10:11:40Z</time>
      </trkpt>
      <trkpt lat="49.07553" lon="1.15828">
        <ele>34.7</ele>
        <time>2018-12-09T10:11:42Z</time>
      </trkpt>
      <trkpt lat="49.07546" lon="1.15818">
        <ele>34.4</ele>
        <time>2018-12-09T10:11:44Z</time>
      </trkpt>
      <trkpt lat="49.07539" lon="1.15807">
        <ele>34.3</ele>
        <time>2018-12-09T10:11:46Z</time>
      </trkpt>
      <trkpt lat="49.07533" lon="1.15797">
        <ele>34.3</ele>
        <time>2018-12-09T10:11:48Z</time>
      </trkpt>
      <trkpt lat="49.07527" lon="1.15785">
        <ele>34.6</ele>
        <time>2018-12-09T10:11:50Z</time>
      </trkpt>
      <trkpt lat="49.07521" lon="1.15774">
        <ele>34.8</ele>
        <time>2018-12-09T10:11:52Z</time>
      </trkpt>
      <trkpt lat="49.07515" lon="1.15763">
        <ele>34.4</ele>
        <time>2018-12-09T10:11:54Z</time>
      </trkpt>
      <trkpt lat="49.07508" lon="1.15753">
        <ele>34.4</ele>
        <time>2018-12-09T10:11:56Z</time>
      </trkpt>
      <trkpt lat="49.075" lon="1.15746">
        <ele>34.7</ele>
        <time>2018-12-09T10:12:00Z</time>
      </trkpt>
      <trkpt lat="49.07492" lon="1.15758">
        <ele>35.1</ele>
        <time>2018-12-09T10:12:10Z</time>
      </trkpt>
      <trkpt lat="49.07487" lon="1.15773">
        <ele>35.2</ele>
        <time>2018-12-09T10:12:13Z</time>
      </trkpt>
      <trkpt lat="49.07481" lon="1.15788">
        <ele>35.3</ele>
        <time>2018-12-09T10:12:16Z</time>
      </trkpt>
      <trkpt lat="49.07474" lon="1.15805">
        <ele>35.3</ele>
        <time>2018-12-09T10:12:19Z</time>
      </trkpt>
      <trkpt lat="49.07467" lon="1.15822">
        <ele>35.6</ele>
        <time>2018-12-09T10:12:22Z</time>
      </trkpt>
      <trkpt lat="49.07462" lon="1.15835">
        <ele>35.7</ele>
        <time>2018-12-09T10:12:24Z</time>
      </trkpt>
      <trkpt lat="49.07455" lon="1.15851">
        <ele>35.8</ele>
        <time>2018-12-09T10:12:27Z</time>
      </trkpt>
      <trkpt lat="49.07446" lon="1.15865">
        <ele>35.9</ele>
        <time>2018-12-09T10:12:30Z</time>
      </trkpt>
      <trkpt lat="49.07437" lon="1.15877">
        <ele>36</ele>
        <time>2018-12-09T10:12:33Z</time>
      </trkpt>
      <trkpt lat="49.07427" lon="1.15889">
        <ele>35.9</ele>
        <time>2018-12-09T10:12:36Z</time>
      </trkpt>
      <trkpt lat="49.07419" lon="1.15897">
        <ele>35.8</ele>
        <time>2018-12-09T10:12:38Z</time>
      </trkpt>
      <trkpt lat="49.07412" lon="1.15907">
        <ele>35.5</ele>
        <time>2018-12-09T10:12:40Z</time>
      </trkpt>
      <trkpt lat="49.07405" lon="1.15917">
        <ele>35.4</ele>
        <time>2018-12-09T10:12:42Z</time>
      </trkpt>
      <trkpt lat="49.07398" lon="1.15926">
        <ele>35.4</ele>
        <time>2018-12-09T10:12:44Z</time>
      </trkpt>
      <trkpt lat="49.07388" lon="1.15939">
        <ele>35.5</ele>
        <time>2018-12-09T10:12:47Z</time>
      </trkpt>
      <trkpt lat="49.07378" lon="1.15952">
        <ele>35.3</ele>
        <time>2018-12-09T10:12:50Z</time>
      </trkpt>
      <trkpt lat="49.0737" lon="1.15962">
        <ele>35.3</ele>
        <time>2018-12-09T10:12:52Z</time>
      </trkpt>
      <trkpt lat="49.07363" lon="1.15971">
        <ele>35.3</ele>
        <time>2018-12-09T10:12:54Z</time>
      </trkpt>
      <trkpt lat="49.07357" lon="1.15981">
        <ele>35.2</ele>
        <time>2018-12-09T10:12:56Z</time>
      </trkpt>
      <trkpt lat="49.0735" lon="1.1599">
        <ele>35.1</ele>
        <time>2018-12-09T10:12:58Z</time>
      </trkpt>
      <trkpt lat="49.07343" lon="1.15999">
        <ele>34.7</ele>
        <time>2018-12-09T10:13:00Z</time>
      </trkpt>
      <trkpt lat="49.07336" lon="1.16009">
        <ele>34.5</ele>
        <time>2018-12-09T10:13:02Z</time>
      </trkpt>
      <trkpt lat="49.07329" lon="1.16018">
        <ele>34.5</ele>
        <time>2018-12-09T10:13:04Z</time>
      </trkpt>
      <trkpt lat="49.07322" lon="1.16027">
        <ele>34.5</ele>
        <time>2018-12-09T10:13:06Z</time>
      </trkpt>
      <trkpt lat="49.07315" lon="1.16036">
        <ele>34.5</ele>
        <time>2018-12-09T10:13:08Z</time>
      </trkpt>
      <trkpt lat="49.07308" lon="1.16045">
        <ele>34.8</ele>
        <time>2018-12-09T10:13:10Z</time>
      </trkpt>
      <trkpt lat="49.07301" lon="1.16054">
        <ele>34.6</ele>
        <time>2018-12-09T10:13:12Z</time>
      </trkpt>
      <trkpt lat="49.07294" lon="1.16064">
        <ele>34.7</ele>
        <time>2018-12-09T10:13:14Z</time>
      </trkpt>
      <trkpt lat="49.07286" lon="1.16074">
        <ele>34.8</ele>
        <time>2018-12-09T10:13:16Z</time>
      </trkpt>
      <trkpt lat="49.0728" lon="1.16083">
        <ele>34.8</ele>
        <time>2018-12-09T10:13:18Z</time>
      </trkpt>
      <trkpt lat="49.0727" lon="1.16096">
        <ele>34.7</ele>
        <time>2018-12-09T10:13:21Z</time>
      </trkpt>
      <trkpt lat="49.07263" lon="1.16106">
        <ele>34.7</ele>
        <time>2018-12-09T10:13:23Z</time>
      </trkpt>
      <trkpt lat="49.07255" lon="1.16115">
        <ele>34.4</ele>
        <time>2018-12-09T10:13:25Z</time>
      </trkpt>
      <trkpt lat="49.07248" lon="1.16125">
        <ele>34.8</ele>
        <time>2018-12-09T10:13:27Z</time>
      </trkpt>
      <trkpt lat="49.0724" lon="1.16134">
        <ele>34.8</ele>
        <time>2018-12-09T10:13:29Z</time>
      </trkpt>
      <trkpt lat="49.07233" lon="1.16144">
        <ele>35</ele>
        <time>2018-12-09T10:13:31Z</time>
      </trkpt>
      <trkpt lat="49.07226" lon="1.16154">
        <ele>34.8</ele>
        <time>2018-12-09T10:13:33Z</time>
      </trkpt>
      <trkpt lat="49.07217" lon="1.16164">
        <ele>34.7</ele>
        <time>2018-12-09T10:13:35Z</time>
      </trkpt>
      <trkpt lat="49.07209" lon="1.16174">
        <ele>34.6</ele>
        <time>2018-12-09T10:13:37Z</time>
      </trkpt>
      <trkpt lat="49.07202" lon="1.16184">
        <ele>34.8</ele>
        <time>2018-12-09T10:13:39Z</time>
      </trkpt>
      <trkpt lat="49.07195" lon="1.16194">
        <ele>34.9</ele>
        <time>2018-12-09T10:13:41Z</time>
      </trkpt>
      <trkpt lat="49.07188" lon="1.16205">
        <ele>35</ele>
        <time>2018-12-09T10:13:43Z</time>
      </trkpt>
      <trkpt lat="49.0718" lon="1.16215">
        <ele>34.7</ele>
        <time>2018-12-09T10:13:45Z</time>
      </trkpt>
      <trkpt lat="49.07172" lon="1.16224">
        <ele>34.8</ele>
        <time>2018-12-09T10:13:47Z</time>
      </trkpt>
      <trkpt lat="49.07164" lon="1.16234">
        <ele>34.9</ele>
        <time>2018-12-09T10:13:49Z</time>
      </trkpt>
      <trkpt lat="49.07157" lon="1.16243">
        <ele>35</ele>
        <time>2018-12-09T10:13:51Z</time>
      </trkpt>
      <trkpt lat="49.07149" lon="1.16253">
        <ele>35</ele>
        <time>2018-12-09T10:13:53Z</time>
      </trkpt>
      <trkpt lat="49.07141" lon="1.16263">
        <ele>35.1</ele>
        <time>2018-12-09T10:13:55Z</time>
      </trkpt>
      <trkpt lat="49.07134" lon="1.16273">
        <ele>35.2</ele>
        <time>2018-12-09T10:13:57Z</time>
      </trkpt>
      <trkpt lat="49.07126" lon="1.16284">
        <ele>35.4</ele>
        <time>2018-12-09T10:13:59Z</time>
      </trkpt>
      <trkpt lat="49.07118" lon="1.16294">
        <ele>35.5</ele>
        <time>2018-12-09T10:14:01Z</time>
      </trkpt>
      <trkpt lat="49.0711" lon="1.16304">
        <ele>35.7</ele>
        <time>2018-12-09T10:14:03Z</time>
      </trkpt>
      <trkpt lat="49.07102" lon="1.16314">
        <ele>35.6</ele>
        <time>2018-12-09T10:14:05Z</time>
      </trkpt>
      <trkpt lat="49.07094" lon="1.16323">
        <ele>35.5</ele>
        <time>2018-12-09T10:14:07Z</time>
      </trkpt>
      <trkpt lat="49.07086" lon="1.16333">
        <ele>35.3</ele>
        <time>2018-12-09T10:14:09Z</time>
      </trkpt>
      <trkpt lat="49.07079" lon="1.16343">
        <ele>35.3</ele>
        <time>2018-12-09T10:14:11Z</time>
      </trkpt>
      <trkpt lat="49.07072" lon="1.16353">
        <ele>35.3</ele>
        <time>2018-12-09T10:14:13Z</time>
      </trkpt>
      <trkpt lat="49.07064" lon="1.16363">
        <ele>35</ele>
        <time>2018-12-09T10:14:15Z</time>
      </trkpt>
      <trkpt lat="49.07056" lon="1.16374">
        <ele>34.8</ele>
        <time>2018-12-09T10:14:17Z</time>
      </trkpt>
      <trkpt lat="49.07049" lon="1.16383">
        <ele>34.6</ele>
        <time>2018-12-09T10:14:19Z</time>
      </trkpt>
      <trkpt lat="49.07042" lon="1.16393">
        <ele>34.3</ele>
        <time>2018-12-09T10:14:21Z</time>
      </trkpt>
      <trkpt lat="49.07034" lon="1.16402">
        <ele>34.1</ele>
        <time>2018-12-09T10:14:23Z</time>
      </trkpt>
      <trkpt lat="49.07027" lon="1.16412">
        <ele>33.9</ele>
        <time>2018-12-09T10:14:25Z</time>
      </trkpt>
      <trkpt lat="49.0702" lon="1.16423">
        <ele>33.8</ele>
        <time>2018-12-09T10:14:27Z</time>
      </trkpt>
      <trkpt lat="49.07012" lon="1.16433">
        <ele>33.8</ele>
        <time>2018-12-09T10:14:29Z</time>
      </trkpt>
      <trkpt lat="49.07004" lon="1.16442">
        <ele>34.1</ele>
        <time>2018-12-09T10:14:31Z</time>
      </trkpt>
      <trkpt lat="49.06996" lon="1.16451">
        <ele>34</ele>
        <time>2018-12-09T10:14:33Z</time>
      </trkpt>
      <trkpt lat="49.06989" lon="1.16461">
        <ele>33.9</ele>
        <time>2018-12-09T10:14:35Z</time>
      </trkpt>
      <trkpt lat="49.06981" lon="1.16471">
        <ele>33.8</ele>
        <time>2018-12-09T10:14:37Z</time>
      </trkpt>
      <trkpt lat="49.06975" lon="1.16481">
        <ele>33.8</ele>
        <time>2018-12-09T10:14:39Z</time>
      </trkpt>
      <trkpt lat="49.06968" lon="1.16491">
        <ele>34</ele>
        <time>2018-12-09T10:14:41Z</time>
      </trkpt>
      <trkpt lat="49.06961" lon="1.16501">
        <ele>34.2</ele>
        <time>2018-12-09T10:14:43Z</time>
      </trkpt>
      <trkpt lat="49.06951" lon="1.16513">
        <ele>34.8</ele>
        <time>2018-12-09T10:14:46Z</time>
      </trkpt>
      <trkpt lat="49.06943" lon="1.16523">
        <ele>35</ele>
        <time>2018-12-09T10:14:48Z</time>
      </trkpt>
      <trkpt lat="49.06935" lon="1.16533">
        <ele>35.2</ele>
        <time>2018-12-09T10:14:50Z</time>
      </trkpt>
      <trkpt lat="49.06928" lon="1.16543">
        <ele>35</ele>
        <time>2018-12-09T10:14:52Z</time>
      </trkpt>
      <trkpt lat="49.06921" lon="1.16553">
        <ele>35.1</ele>
        <time>2018-12-09T10:14:54Z</time>
      </trkpt>
      <trkpt lat="49.06913" lon="1.16562">
        <ele>35.1</ele>
        <time>2018-12-09T10:14:56Z</time>
      </trkpt>
      <trkpt lat="49.06906" lon="1.16573">
        <ele>35.1</ele>
        <time>2018-12-09T10:14:58Z</time>
      </trkpt>
      <trkpt lat="49.06899" lon="1.16584">
        <ele>34.9</ele>
        <time>2018-12-09T10:15:00Z</time>
      </trkpt>
      <trkpt lat="49.06892" lon="1.16594">
        <ele>35.1</ele>
        <time>2018-12-09T10:15:02Z</time>
      </trkpt>
      <trkpt lat="49.06885" lon="1.16603">
        <ele>35.3</ele>
        <time>2018-12-09T10:15:04Z</time>
      </trkpt>
      <trkpt lat="49.06878" lon="1.16612">
        <ele>35.6</ele>
        <time>2018-12-09T10:15:06Z</time>
      </trkpt>
      <trkpt lat="49.06871" lon="1.16622">
        <ele>35.8</ele>
        <time>2018-12-09T10:15:08Z</time>
      </trkpt>
      <trkpt lat="49.06863" lon="1.16632">
        <ele>35.9</ele>
        <time>2018-12-09T10:15:10Z</time>
      </trkpt>
      <trkpt lat="49.06856" lon="1.16642">
        <ele>35.9</ele>
        <time>2018-12-09T10:15:12Z</time>
      </trkpt>
      <trkpt lat="49.06849" lon="1.16651">
        <ele>36</ele>
        <time>2018-12-09T10:15:14Z</time>
      </trkpt>
      <trkpt lat="49.06842" lon="1.16661">
        <ele>35.8</ele>
        <time>2018-12-09T10:15:16Z</time>
      </trkpt>
      <trkpt lat="49.06835" lon="1.16671">
        <ele>35.8</ele>
        <time>2018-12-09T10:15:18Z</time>
      </trkpt>
      <trkpt lat="49.06828" lon="1.16681">
        <ele>35.8</ele>
        <time>2018-12-09T10:15:20Z</time>
      </trkpt>
      <trkpt lat="49.06821" lon="1.16691">
        <ele>36.2</ele>
        <time>2018-12-09T10:15:22Z</time>
      </trkpt>
      <trkpt lat="49.06814" lon="1.16702">
        <ele>36</ele>
        <time>2018-12-09T10:15:24Z</time>
      </trkpt>
      <trkpt lat="49.06807" lon="1.16712">
        <ele>36.1</ele>
        <time>2018-12-09T10:15:26Z</time>
      </trkpt>
      <trkpt lat="49.06799" lon="1.16722">
        <ele>35.9</ele>
        <time>2018-12-09T10:15:28Z</time>
      </trkpt>
      <trkpt lat="49.06791" lon="1.16731">
        <ele>35.7</ele>
        <time>2018-12-09T10:15:30Z</time>
      </trkpt>
      <trkpt lat="49.06783" lon="1.16741">
        <ele>35.7</ele>
        <time>2018-12-09T10:15:32Z</time>
      </trkpt>
      <trkpt lat="49.06775" lon="1.16751">
        <ele>35.8</ele>
        <time>2018-12-09T10:15:34Z</time>
      </trkpt>
      <trkpt lat="49.06768" lon="1.16761">
        <ele>35.5</ele>
        <time>2018-12-09T10:15:36Z</time>
      </trkpt>
      <trkpt lat="49.0676" lon="1.16772">
        <ele>35.6</ele>
        <time>2018-12-09T10:15:38Z</time>
      </trkpt>
      <trkpt lat="49.06752" lon="1.16783">
        <ele>35.6</ele>
        <time>2018-12-09T10:15:40Z</time>
      </trkpt>
      <trkpt lat="49.06745" lon="1.16792">
        <ele>35.5</ele>
        <time>2018-12-09T10:15:42Z</time>
      </trkpt>
      <trkpt lat="49.06737" lon="1.16802">
        <ele>35.4</ele>
        <time>2018-12-09T10:15:44Z</time>
      </trkpt>
      <trkpt lat="49.06729" lon="1.16812">
        <ele>35.3</ele>
        <time>2018-12-09T10:15:46Z</time>
      </trkpt>
      <trkpt lat="49.06721" lon="1.16822">
        <ele>35.3</ele>
        <time>2018-12-09T10:15:48Z</time>
      </trkpt>
      <trkpt lat="49.06713" lon="1.16831">
        <ele>35.1</ele>
        <time>2018-12-09T10:15:50Z</time>
      </trkpt>
      <trkpt lat="49.06706" lon="1.16841">
        <ele>34.6</ele>
        <time>2018-12-09T10:15:52Z</time>
      </trkpt>
      <trkpt lat="49.06699" lon="1.16851">
        <ele>34.7</ele>
        <time>2018-12-09T10:15:54Z</time>
      </trkpt>
      <trkpt lat="49.06693" lon="1.16863">
        <ele>34.4</ele>
        <time>2018-12-09T10:15:56Z</time>
      </trkpt>
      <trkpt lat="49.06688" lon="1.16875">
        <ele>34.5</ele>
        <time>2018-12-09T10:15:58Z</time>
      </trkpt>
      <trkpt lat="49.06684" lon="1.16892">
        <ele>34.6</ele>
        <time>2018-12-09T10:16:01Z</time>
      </trkpt>
      <trkpt lat="49.06682" lon="1.16906">
        <ele>34.3</ele>
        <time>2018-12-09T10:16:04Z</time>
      </trkpt>
      <trkpt lat="49.06674" lon="1.16913">
        <ele>35.5</ele>
        <time>2018-12-09T10:16:12Z</time>
      </trkpt>
      <trkpt lat="49.06669" lon="1.16901">
        <ele>35.9</ele>
        <time>2018-12-09T10:16:18Z</time>
      </trkpt>
      <trkpt lat="49.06664" lon="1.16887">
        <ele>36.1</ele>
        <time>2018-12-09T10:16:22Z</time>
      </trkpt>
      <trkpt lat="49.06659" lon="1.16876">
        <ele>36.3</ele>
        <time>2018-12-09T10:16:25Z</time>
      </trkpt>
      <trkpt lat="49.06654" lon="1.16863">
        <ele>36.3</ele>
        <time>2018-12-09T10:16:28Z</time>
      </trkpt>
      <trkpt lat="49.06648" lon="1.16848">
        <ele>36.1</ele>
        <time>2018-12-09T10:16:31Z</time>
      </trkpt>
      <trkpt lat="49.06643" lon="1.16834">
        <ele>35.9</ele>
        <time>2018-12-09T10:16:34Z</time>
      </trkpt>
      <trkpt lat="49.06637" lon="1.1682">
        <ele>35.7</ele>
        <time>2018-12-09T10:16:37Z</time>
      </trkpt>
      <trkpt lat="49.06631" lon="1.16806">
        <ele>35.6</ele>
        <time>2018-12-09T10:16:40Z</time>
      </trkpt>
      <trkpt lat="49.06625" lon="1.16792">
        <ele>35.3</ele>
        <time>2018-12-09T10:16:43Z</time>
      </trkpt>
      <trkpt lat="49.06619" lon="1.16778">
        <ele>35</ele>
        <time>2018-12-09T10:16:46Z</time>
      </trkpt>
      <trkpt lat="49.06613" lon="1.16763">
        <ele>34.9</ele>
        <time>2018-12-09T10:16:49Z</time>
      </trkpt>
      <trkpt lat="49.06607" lon="1.16747">
        <ele>34.6</ele>
        <time>2018-12-09T10:16:52Z</time>
      </trkpt>
      <trkpt lat="49.06601" lon="1.16733">
        <ele>34.7</ele>
        <time>2018-12-09T10:16:55Z</time>
      </trkpt>
      <trkpt lat="49.06595" lon="1.16718">
        <ele>34.6</ele>
        <time>2018-12-09T10:16:58Z</time>
      </trkpt>
      <trkpt lat="49.06589" lon="1.16702">
        <ele>34.5</ele>
        <time>2018-12-09T10:17:01Z</time>
      </trkpt>
      <trkpt lat="49.06582" lon="1.16686">
        <ele>34.6</ele>
        <time>2018-12-09T10:17:04Z</time>
      </trkpt>
      <trkpt lat="49.06575" lon="1.16669">
        <ele>34.6</ele>
        <time>2018-12-09T10:17:07Z</time>
      </trkpt>
      <trkpt lat="49.06569" lon="1.16653">
        <ele>34.7</ele>
        <time>2018-12-09T10:17:10Z</time>
      </trkpt>
      <trkpt lat="49.06562" lon="1.16637">
        <ele>34.7</ele>
        <time>2018-12-09T10:17:13Z</time>
      </trkpt>
      <trkpt lat="49.06555" lon="1.16621">
        <ele>34.6</ele>
        <time>2018-12-09T10:17:16Z</time>
      </trkpt>
      <trkpt lat="49.06548" lon="1.16605">
        <ele>34.4</ele>
        <time>2018-12-09T10:17:19Z</time>
      </trkpt>
      <trkpt lat="49.06541" lon="1.16588">
        <ele>34.4</ele>
        <time>2018-12-09T10:17:22Z</time>
      </trkpt>
      <trkpt lat="49.06535" lon="1.16572">
        <ele>34.5</ele>
        <time>2018-12-09T10:17:25Z</time>
      </trkpt>
      <trkpt lat="49.06528" lon="1.16555">
        <ele>34.5</ele>
        <time>2018-12-09T10:17:28Z</time>
      </trkpt>
      <trkpt lat="49.06523" lon="1.16543">
        <ele>34.4</ele>
        <time>2018-12-09T10:17:30Z</time>
      </trkpt>
      <trkpt lat="49.06518" lon="1.16531">
        <ele>34.4</ele>
        <time>2018-12-09T10:17:32Z</time>
      </trkpt>
      <trkpt lat="49.06513" lon="1.1652">
        <ele>34.4</ele>
        <time>2018-12-09T10:17:34Z</time>
      </trkpt>
      <trkpt lat="49.06508" lon="1.16508">
        <ele>34.5</ele>
        <time>2018-12-09T10:17:36Z</time>
      </trkpt>
      <trkpt lat="49.06503" lon="1.16496">
        <ele>34.5</ele>
        <time>2018-12-09T10:17:38Z</time>
      </trkpt>
      <trkpt lat="49.06498" lon="1.16484">
        <ele>34.6</ele>
        <time>2018-12-09T10:17:40Z</time>
      </trkpt>
      <trkpt lat="49.06493" lon="1.16473">
        <ele>34.7</ele>
        <time>2018-12-09T10:17:42Z</time>
      </trkpt>
      <trkpt lat="49.06488" lon="1.16461">
        <ele>34.8</ele>
        <time>2018-12-09T10:17:44Z</time>
      </trkpt>
      <trkpt lat="49.06483" lon="1.16449">
        <ele>34.9</ele>
        <time>2018-12-09T10:17:46Z</time>
      </trkpt>
      <trkpt lat="49.06478" lon="1.16436">
        <ele>35</ele>
        <time>2018-12-09T10:17:48Z</time>
      </trkpt>
      <trkpt lat="49.06473" lon="1.16424">
        <ele>35</ele>
        <time>2018-12-09T10:17:50Z</time>
      </trkpt>
      <trkpt lat="49.06468" lon="1.16411">
        <ele>34.9</ele>
        <time>2018-12-09T10:17:52Z</time>
      </trkpt>
      <trkpt lat="49.06463" lon="1.16399">
        <ele>34.9</ele>
        <time>2018-12-09T10:17:54Z</time>
      </trkpt>
      <trkpt lat="49.06459" lon="1.16387">
        <ele>35</ele>
        <time>2018-12-09T10:17:56Z</time>
      </trkpt>
      <trkpt lat="49.06454" lon="1.16374">
        <ele>35.1</ele>
        <time>2018-12-09T10:17:58Z</time>
      </trkpt>
      <trkpt lat="49.06449" lon="1.16362">
        <ele>35.3</ele>
        <time>2018-12-09T10:18:00Z</time>
      </trkpt>
      <trkpt lat="49.06444" lon="1.1635">
        <ele>35.5</ele>
        <time>2018-12-09T10:18:02Z</time>
      </trkpt>
      <trkpt lat="49.06439" lon="1.16338">
        <ele>36</ele>
        <time>2018-12-09T10:18:04Z</time>
      </trkpt>
      <trkpt lat="49.06434" lon="1.16326">
        <ele>36.3</ele>
        <time>2018-12-09T10:18:06Z</time>
      </trkpt>
      <trkpt lat="49.06426" lon="1.1631">
        <ele>36.7</ele>
        <time>2018-12-09T10:18:09Z</time>
      </trkpt>
      <trkpt lat="49.06416" lon="1.16297">
        <ele>37.1</ele>
        <time>2018-12-09T10:18:12Z</time>
      </trkpt>
      <trkpt lat="49.06404" lon="1.1629">
        <ele>37.5</ele>
        <time>2018-12-09T10:18:15Z</time>
      </trkpt>
      <trkpt lat="49.06392" lon="1.16284">
        <ele>38.5</ele>
        <time>2018-12-09T10:18:18Z</time>
      </trkpt>
      <trkpt lat="49.06379" lon="1.1628">
        <ele>39.6</ele>
        <time>2018-12-09T10:18:21Z</time>
      </trkpt>
      <trkpt lat="49.06366" lon="1.16277">
        <ele>40.4</ele>
        <time>2018-12-09T10:18:24Z</time>
      </trkpt>
      <trkpt lat="49.06357" lon="1.16276">
        <ele>40.6</ele>
        <time>2018-12-09T10:18:26Z</time>
      </trkpt>
      <trkpt lat="49.06343" lon="1.16276">
        <ele>40.9</ele>
        <time>2018-12-09T10:18:29Z</time>
      </trkpt>
      <trkpt lat="49.06334" lon="1.16276">
        <ele>40.9</ele>
        <time>2018-12-09T10:18:31Z</time>
      </trkpt>
      <trkpt lat="49.06324" lon="1.16278">
        <ele>41</ele>
        <time>2018-12-09T10:18:33Z</time>
      </trkpt>
      <trkpt lat="49.06315" lon="1.16279">
        <ele>41</ele>
        <time>2018-12-09T10:18:35Z</time>
      </trkpt>
      <trkpt lat="49.06305" lon="1.16281">
        <ele>41.4</ele>
        <time>2018-12-09T10:18:37Z</time>
      </trkpt>
      <trkpt lat="49.06296" lon="1.16283">
        <ele>41.9</ele>
        <time>2018-12-09T10:18:39Z</time>
      </trkpt>
      <trkpt lat="49.06284" lon="1.16285">
        <ele>42.1</ele>
        <time>2018-12-09T10:18:42Z</time>
      </trkpt>
      <trkpt lat="49.06271" lon="1.16287">
        <ele>42.5</ele>
        <time>2018-12-09T10:18:45Z</time>
      </trkpt>
      <trkpt lat="49.06258" lon="1.1629">
        <ele>43.1</ele>
        <time>2018-12-09T10:18:48Z</time>
      </trkpt>
      <trkpt lat="49.06249" lon="1.16291">
        <ele>43.7</ele>
        <time>2018-12-09T10:18:50Z</time>
      </trkpt>
      <trkpt lat="49.0624" lon="1.16293">
        <ele>44.1</ele>
        <time>2018-12-09T10:18:52Z</time>
      </trkpt>
      <trkpt lat="49.06226" lon="1.16294">
        <ele>44.2</ele>
        <time>2018-12-09T10:18:55Z</time>
      </trkpt>
      <trkpt lat="49.06217" lon="1.16296">
        <ele>44.5</ele>
        <time>2018-12-09T10:18:57Z</time>
      </trkpt>
      <trkpt lat="49.06207" lon="1.16297">
        <ele>44.7</ele>
        <time>2018-12-09T10:18:59Z</time>
      </trkpt>
      <trkpt lat="49.06197" lon="1.16299">
        <ele>44.7</ele>
        <time>2018-12-09T10:19:01Z</time>
      </trkpt>
      <trkpt lat="49.06188" lon="1.16301">
        <ele>44.8</ele>
        <time>2018-12-09T10:19:03Z</time>
      </trkpt>
      <trkpt lat="49.06178" lon="1.16303">
        <ele>44.7</ele>
        <time>2018-12-09T10:19:05Z</time>
      </trkpt>
      <trkpt lat="49.06168" lon="1.16304">
        <ele>44.6</ele>
        <time>2018-12-09T10:19:07Z</time>
      </trkpt>
      <trkpt lat="49.06157" lon="1.16305">
        <ele>44.3</ele>
        <time>2018-12-09T10:19:09Z</time>
      </trkpt>
      <trkpt lat="49.06146" lon="1.16306">
        <ele>44.3</ele>
        <time>2018-12-09T10:19:11Z</time>
      </trkpt>
      <trkpt lat="49.06135" lon="1.16307">
        <ele>44</ele>
        <time>2018-12-09T10:19:13Z</time>
      </trkpt>
      <trkpt lat="49.06124" lon="1.16309">
        <ele>44</ele>
        <time>2018-12-09T10:19:15Z</time>
      </trkpt>
      <trkpt lat="49.06112" lon="1.1631">
        <ele>44.2</ele>
        <time>2018-12-09T10:19:17Z</time>
      </trkpt>
      <trkpt lat="49.06099" lon="1.16311">
        <ele>43.9</ele>
        <time>2018-12-09T10:19:19Z</time>
      </trkpt>
      <trkpt lat="49.06087" lon="1.1631">
        <ele>43.8</ele>
        <time>2018-12-09T10:19:21Z</time>
      </trkpt>
      <trkpt lat="49.06074" lon="1.16307">
        <ele>43.5</ele>
        <time>2018-12-09T10:19:23Z</time>
      </trkpt>
      <trkpt lat="49.06061" lon="1.16304">
        <ele>43.1</ele>
        <time>2018-12-09T10:19:25Z</time>
      </trkpt>
      <trkpt lat="49.06048" lon="1.163">
        <ele>42.8</ele>
        <time>2018-12-09T10:19:27Z</time>
      </trkpt>
      <trkpt lat="49.06035" lon="1.16296">
        <ele>42</ele>
        <time>2018-12-09T10:19:29Z</time>
      </trkpt>
      <trkpt lat="49.06022" lon="1.16291">
        <ele>40.9</ele>
        <time>2018-12-09T10:19:31Z</time>
      </trkpt>
      <trkpt lat="49.06009" lon="1.16285">
        <ele>40.5</ele>
        <time>2018-12-09T10:19:33Z</time>
      </trkpt>
      <trkpt lat="49.05994" lon="1.1628">
        <ele>40.6</ele>
        <time>2018-12-09T10:19:35Z</time>
      </trkpt>
      <trkpt lat="49.05979" lon="1.16274">
        <ele>40.9</ele>
        <time>2018-12-09T10:19:37Z</time>
      </trkpt>
      <trkpt lat="49.05964" lon="1.16267">
        <ele>41.4</ele>
        <time>2018-12-09T10:19:39Z</time>
      </trkpt>
      <trkpt lat="49.05948" lon="1.16262">
        <ele>41.3</ele>
        <time>2018-12-09T10:19:41Z</time>
      </trkpt>
      <trkpt lat="49.05934" lon="1.16256">
        <ele>41.1</ele>
        <time>2018-12-09T10:19:43Z</time>
      </trkpt>
      <trkpt lat="49.05919" lon="1.1625">
        <ele>40.9</ele>
        <time>2018-12-09T10:19:45Z</time>
      </trkpt>
      <trkpt lat="49.05903" lon="1.16246">
        <ele>40.5</ele>
        <time>2018-12-09T10:19:47Z</time>
      </trkpt>
      <trkpt lat="49.05887" lon="1.16242">
        <ele>40.1</ele>
        <time>2018-12-09T10:19:49Z</time>
      </trkpt>
      <trkpt lat="49.05871" lon="1.16239">
        <ele>39.9</ele>
        <time>2018-12-09T10:19:51Z</time>
      </trkpt>
      <trkpt lat="49.05856" lon="1.16236">
        <ele>39.6</ele>
        <time>2018-12-09T10:19:53Z</time>
      </trkpt>
      <trkpt lat="49.05841" lon="1.1623">
        <ele>39.2</ele>
        <time>2018-12-09T10:19:55Z</time>
      </trkpt>
      <trkpt lat="49.05826" lon="1.16224">
        <ele>38.9</ele>
        <time>2018-12-09T10:19:57Z</time>
      </trkpt>
      <trkpt lat="49.05811" lon="1.16216">
        <ele>38.8</ele>
        <time>2018-12-09T10:19:59Z</time>
      </trkpt>
      <trkpt lat="49.05796" lon="1.16206">
        <ele>38.6</ele>
        <time>2018-12-09T10:20:01Z</time>
      </trkpt>
      <trkpt lat="49.05782" lon="1.16194">
        <ele>38.2</ele>
        <time>2018-12-09T10:20:03Z</time>
      </trkpt>
      <trkpt lat="49.0577" lon="1.16179">
        <ele>38.3</ele>
        <time>2018-12-09T10:20:05Z</time>
      </trkpt>
      <trkpt lat="49.0576" lon="1.16164">
        <ele>38.5</ele>
        <time>2018-12-09T10:20:07Z</time>
      </trkpt>
      <trkpt lat="49.0575" lon="1.16149">
        <ele>38.6</ele>
        <time>2018-12-09T10:20:09Z</time>
      </trkpt>
      <trkpt lat="49.05741" lon="1.16134">
        <ele>38.6</ele>
        <time>2018-12-09T10:20:11Z</time>
      </trkpt>
      <trkpt lat="49.05732" lon="1.16121">
        <ele>38.7</ele>
        <time>2018-12-09T10:20:13Z</time>
      </trkpt>
      <trkpt lat="49.05722" lon="1.16106">
        <ele>38.7</ele>
        <time>2018-12-09T10:20:15Z</time>
      </trkpt>
      <trkpt lat="49.05711" lon="1.16092">
        <ele>38.7</ele>
        <time>2018-12-09T10:20:17Z</time>
      </trkpt>
      <trkpt lat="49.05701" lon="1.16077">
        <ele>38.6</ele>
        <time>2018-12-09T10:20:19Z</time>
      </trkpt>
      <trkpt lat="49.05691" lon="1.16063">
        <ele>38.5</ele>
        <time>2018-12-09T10:20:21Z</time>
      </trkpt>
      <trkpt lat="49.05681" lon="1.16048">
        <ele>38.6</ele>
        <time>2018-12-09T10:20:23Z</time>
      </trkpt>
      <trkpt lat="49.0567" lon="1.16034">
        <ele>38.8</ele>
        <time>2018-12-09T10:20:25Z</time>
      </trkpt>
      <trkpt lat="49.05659" lon="1.16019">
        <ele>39.1</ele>
        <time>2018-12-09T10:20:27Z</time>
      </trkpt>
      <trkpt lat="49.05648" lon="1.16006">
        <ele>39.3</ele>
        <time>2018-12-09T10:20:29Z</time>
      </trkpt>
      <trkpt lat="49.05637" lon="1.15992">
        <ele>39.4</ele>
        <time>2018-12-09T10:20:31Z</time>
      </trkpt>
      <trkpt lat="49.05626" lon="1.15978">
        <ele>39.4</ele>
        <time>2018-12-09T10:20:33Z</time>
      </trkpt>
      <trkpt lat="49.05614" lon="1.15964">
        <ele>39.6</ele>
        <time>2018-12-09T10:20:35Z</time>
      </trkpt>
      <trkpt lat="49.05603" lon="1.1595">
        <ele>39.7</ele>
        <time>2018-12-09T10:20:37Z</time>
      </trkpt>
      <trkpt lat="49.05591" lon="1.15937">
        <ele>39.8</ele>
        <time>2018-12-09T10:20:39Z</time>
      </trkpt>
      <trkpt lat="49.0558" lon="1.15924">
        <ele>39.9</ele>
        <time>2018-12-09T10:20:41Z</time>
      </trkpt>
      <trkpt lat="49.05568" lon="1.15911">
        <ele>40</ele>
        <time>2018-12-09T10:20:43Z</time>
      </trkpt>
      <trkpt lat="49.05557" lon="1.15897">
        <ele>39.7</ele>
        <time>2018-12-09T10:20:45Z</time>
      </trkpt>
      <trkpt lat="49.05545" lon="1.15884">
        <ele>39.6</ele>
        <time>2018-12-09T10:20:47Z</time>
      </trkpt>
      <trkpt lat="49.05533" lon="1.15872">
        <ele>39.2</ele>
        <time>2018-12-09T10:20:49Z</time>
      </trkpt>
      <trkpt lat="49.0552" lon="1.1586">
        <ele>39.4</ele>
        <time>2018-12-09T10:20:51Z</time>
      </trkpt>
      <trkpt lat="49.05508" lon="1.15848">
        <ele>39.2</ele>
        <time>2018-12-09T10:20:53Z</time>
      </trkpt>
      <trkpt lat="49.05496" lon="1.15835">
        <ele>39.5</ele>
        <time>2018-12-09T10:20:55Z</time>
      </trkpt>
      <trkpt lat="49.05484" lon="1.15824">
        <ele>39.6</ele>
        <time>2018-12-09T10:20:57Z</time>
      </trkpt>
      <trkpt lat="49.05473" lon="1.15813">
        <ele>39.9</ele>
        <time>2018-12-09T10:20:59Z</time>
      </trkpt>
      <trkpt lat="49.05463" lon="1.15802">
        <ele>40.2</ele>
        <time>2018-12-09T10:21:01Z</time>
      </trkpt>
      <trkpt lat="49.05452" lon="1.15792">
        <ele>40.5</ele>
        <time>2018-12-09T10:21:03Z</time>
      </trkpt>
      <trkpt lat="49.05441" lon="1.15782">
        <ele>40.8</ele>
        <time>2018-12-09T10:21:05Z</time>
      </trkpt>
      <trkpt lat="49.05429" lon="1.15772">
        <ele>41.1</ele>
        <time>2018-12-09T10:21:07Z</time>
      </trkpt>
      <trkpt lat="49.05417" lon="1.15762">
        <ele>41</ele>
        <time>2018-12-09T10:21:09Z</time>
      </trkpt>
      <trkpt lat="49.05404" lon="1.15754">
        <ele>41</ele>
        <time>2018-12-09T10:21:11Z</time>
      </trkpt>
      <trkpt lat="49.0539" lon="1.15746">
        <ele>41</ele>
        <time>2018-12-09T10:21:13Z</time>
      </trkpt>
      <trkpt lat="49.05376" lon="1.1574">
        <ele>41</ele>
        <time>2018-12-09T10:21:15Z</time>
      </trkpt>
      <trkpt lat="49.05362" lon="1.15734">
        <ele>41.1</ele>
        <time>2018-12-09T10:21:17Z</time>
      </trkpt>
      <trkpt lat="49.05348" lon="1.1573">
        <ele>41.2</ele>
        <time>2018-12-09T10:21:19Z</time>
      </trkpt>
      <trkpt lat="49.05335" lon="1.15726">
        <ele>41.4</ele>
        <time>2018-12-09T10:21:21Z</time>
      </trkpt>
      <trkpt lat="49.05321" lon="1.15721">
        <ele>41.5</ele>
        <time>2018-12-09T10:21:23Z</time>
      </trkpt>
      <trkpt lat="49.05308" lon="1.15718">
        <ele>41.8</ele>
        <time>2018-12-09T10:21:25Z</time>
      </trkpt>
      <trkpt lat="49.05295" lon="1.15714">
        <ele>41.9</ele>
        <time>2018-12-09T10:21:27Z</time>
      </trkpt>
      <trkpt lat="49.05283" lon="1.15711">
        <ele>42</ele>
        <time>2018-12-09T10:21:29Z</time>
      </trkpt>
      <trkpt lat="49.0527" lon="1.15708">
        <ele>42.4</ele>
        <time>2018-12-09T10:21:31Z</time>
      </trkpt>
      <trkpt lat="49.05258" lon="1.15706">
        <ele>42.5</ele>
        <time>2018-12-09T10:21:33Z</time>
      </trkpt>
      <trkpt lat="49.05245" lon="1.15703">
        <ele>42.4</ele>
        <time>2018-12-09T10:21:35Z</time>
      </trkpt>
      <trkpt lat="49.05232" lon="1.15701">
        <ele>42.4</ele>
        <time>2018-12-09T10:21:37Z</time>
      </trkpt>
      <trkpt lat="49.05219" lon="1.157">
        <ele>42.5</ele>
        <time>2018-12-09T10:21:39Z</time>
      </trkpt>
      <trkpt lat="49.05206" lon="1.15699">
        <ele>42.5</ele>
        <time>2018-12-09T10:21:41Z</time>
      </trkpt>
      <trkpt lat="49.05193" lon="1.15698">
        <ele>42.3</ele>
        <time>2018-12-09T10:21:43Z</time>
      </trkpt>
      <trkpt lat="49.05181" lon="1.15697">
        <ele>42.3</ele>
        <time>2018-12-09T10:21:45Z</time>
      </trkpt>
      <trkpt lat="49.05169" lon="1.15698">
        <ele>42.1</ele>
        <time>2018-12-09T10:21:47Z</time>
      </trkpt>
      <trkpt lat="49.05156" lon="1.15697">
        <ele>41.8</ele>
        <time>2018-12-09T10:21:49Z</time>
      </trkpt>
      <trkpt lat="49.05143" lon="1.15698">
        <ele>41.4</ele>
        <time>2018-12-09T10:21:51Z</time>
      </trkpt>
      <trkpt lat="49.0513" lon="1.15699">
        <ele>41.2</ele>
        <time>2018-12-09T10:21:53Z</time>
      </trkpt>
      <trkpt lat="49.05115" lon="1.15701">
        <ele>40.9</ele>
        <time>2018-12-09T10:21:55Z</time>
      </trkpt>
      <trkpt lat="49.05101" lon="1.15701">
        <ele>40.7</ele>
        <time>2018-12-09T10:21:57Z</time>
      </trkpt>
      <trkpt lat="49.05087" lon="1.15701">
        <ele>40.5</ele>
        <time>2018-12-09T10:21:59Z</time>
      </trkpt>
      <trkpt lat="49.05074" lon="1.15702">
        <ele>40.3</ele>
        <time>2018-12-09T10:22:01Z</time>
      </trkpt>
      <trkpt lat="49.05062" lon="1.15702">
        <ele>40</ele>
        <time>2018-12-09T10:22:03Z</time>
      </trkpt>
      <trkpt lat="49.0505" lon="1.15702">
        <ele>39.8</ele>
        <time>2018-12-09T10:22:05Z</time>
      </trkpt>
      <trkpt lat="49.05039" lon="1.15704">
        <ele>39.7</ele>
        <time>2018-12-09T10:22:07Z</time>
      </trkpt>
      <trkpt lat="49.05027" lon="1.15704">
        <ele>39.8</ele>
        <time>2018-12-09T10:22:09Z</time>
      </trkpt>
      <trkpt lat="49.05015" lon="1.15704">
        <ele>39.7</ele>
        <time>2018-12-09T10:22:11Z</time>
      </trkpt>
      <trkpt lat="49.05003" lon="1.15703">
        <ele>40</ele>
        <time>2018-12-09T10:22:13Z</time>
      </trkpt>
      <trkpt lat="49.04992" lon="1.15703">
        <ele>39.9</ele>
        <time>2018-12-09T10:22:15Z</time>
      </trkpt>
      <trkpt lat="49.0498" lon="1.15704">
        <ele>39.6</ele>
        <time>2018-12-09T10:22:17Z</time>
      </trkpt>
      <trkpt lat="49.04968" lon="1.15704">
        <ele>39.7</ele>
        <time>2018-12-09T10:22:19Z</time>
      </trkpt>
      <trkpt lat="49.04956" lon="1.15705">
        <ele>39.6</ele>
        <time>2018-12-09T10:22:21Z</time>
      </trkpt>
      <trkpt lat="49.04945" lon="1.15705">
        <ele>39.3</ele>
        <time>2018-12-09T10:22:23Z</time>
      </trkpt>
      <trkpt lat="49.04933" lon="1.15706">
        <ele>39.5</ele>
        <time>2018-12-09T10:22:25Z</time>
      </trkpt>
      <trkpt lat="49.04922" lon="1.15706">
        <ele>39.6</ele>
        <time>2018-12-09T10:22:27Z</time>
      </trkpt>
      <trkpt lat="49.04911" lon="1.15707">
        <ele>39.8</ele>
        <time>2018-12-09T10:22:29Z</time>
      </trkpt>
      <trkpt lat="49.04899" lon="1.15708">
        <ele>40.3</ele>
        <time>2018-12-09T10:22:31Z</time>
      </trkpt>
      <trkpt lat="49.04888" lon="1.15708">
        <ele>40.3</ele>
        <time>2018-12-09T10:22:33Z</time>
      </trkpt>
      <trkpt lat="49.04876" lon="1.15708">
        <ele>41</ele>
        <time>2018-12-09T10:22:35Z</time>
      </trkpt>
      <trkpt lat="49.04865" lon="1.15709">
        <ele>41</ele>
        <time>2018-12-09T10:22:37Z</time>
      </trkpt>
      <trkpt lat="49.04853" lon="1.15709">
        <ele>41.1</ele>
        <time>2018-12-09T10:22:39Z</time>
      </trkpt>
      <trkpt lat="49.04841" lon="1.15709">
        <ele>41.3</ele>
        <time>2018-12-09T10:22:41Z</time>
      </trkpt>
      <trkpt lat="49.0483" lon="1.15709">
        <ele>41.9</ele>
        <time>2018-12-09T10:22:43Z</time>
      </trkpt>
      <trkpt lat="49.04818" lon="1.15706">
        <ele>42.3</ele>
        <time>2018-12-09T10:22:46Z</time>
      </trkpt>
      <trkpt lat="49.0481" lon="1.15698">
        <ele>42.6</ele>
        <time>2018-12-09T10:22:49Z</time>
      </trkpt>
      <trkpt lat="49.04796" lon="1.15693">
        <ele>42.6</ele>
        <time>2018-12-09T10:22:52Z</time>
      </trkpt>
      <trkpt lat="49.04786" lon="1.15692">
        <ele>42.5</ele>
        <time>2018-12-09T10:22:54Z</time>
      </trkpt>
      <trkpt lat="49.04776" lon="1.15691">
        <ele>42.3</ele>
        <time>2018-12-09T10:22:56Z</time>
      </trkpt>
      <trkpt lat="49.04765" lon="1.1569">
        <ele>42.3</ele>
        <time>2018-12-09T10:22:58Z</time>
      </trkpt>
      <trkpt lat="49.04754" lon="1.15689">
        <ele>42.7</ele>
        <time>2018-12-09T10:23:00Z</time>
      </trkpt>
      <trkpt lat="49.04742" lon="1.15688">
        <ele>42.7</ele>
        <time>2018-12-09T10:23:02Z</time>
      </trkpt>
      <trkpt lat="49.04731" lon="1.15687">
        <ele>42.5</ele>
        <time>2018-12-09T10:23:04Z</time>
      </trkpt>
      <trkpt lat="49.0472" lon="1.15687">
        <ele>42.1</ele>
        <time>2018-12-09T10:23:06Z</time>
      </trkpt>
      <trkpt lat="49.04708" lon="1.15686">
        <ele>41.5</ele>
        <time>2018-12-09T10:23:08Z</time>
      </trkpt>
      <trkpt lat="49.04697" lon="1.15685">
        <ele>41.5</ele>
        <time>2018-12-09T10:23:10Z</time>
      </trkpt>
      <trkpt lat="49.04686" lon="1.15685">
        <ele>41.8</ele>
        <time>2018-12-09T10:23:12Z</time>
      </trkpt>
      <trkpt lat="49.04674" lon="1.15684">
        <ele>41.9</ele>
        <time>2018-12-09T10:23:14Z</time>
      </trkpt>
      <trkpt lat="49.04663" lon="1.15683">
        <ele>41.7</ele>
        <time>2018-12-09T10:23:16Z</time>
      </trkpt>
      <trkpt lat="49.04652" lon="1.15682">
        <ele>41.8</ele>
        <time>2018-12-09T10:23:18Z</time>
      </trkpt>
      <trkpt lat="49.0464" lon="1.15682">
        <ele>41.7</ele>
        <time>2018-12-09T10:23:20Z</time>
      </trkpt>
      <trkpt lat="49.04628" lon="1.15682">
        <ele>41.6</ele>
        <time>2018-12-09T10:23:22Z</time>
      </trkpt>
      <trkpt lat="49.04617" lon="1.15684">
        <ele>41.7</ele>
        <time>2018-12-09T10:23:24Z</time>
      </trkpt>
      <trkpt lat="49.04605" lon="1.15686">
        <ele>41.6</ele>
        <time>2018-12-09T10:23:26Z</time>
      </trkpt>
      <trkpt lat="49.04595" lon="1.15687">
        <ele>41.6</ele>
        <time>2018-12-09T10:23:28Z</time>
      </trkpt>
      <trkpt lat="49.04585" lon="1.15689">
        <ele>41.5</ele>
        <time>2018-12-09T10:23:30Z</time>
      </trkpt>
      <trkpt lat="49.04576" lon="1.15696">
        <ele>41.3</ele>
        <time>2018-12-09T10:23:32Z</time>
      </trkpt>
      <trkpt lat="49.04564" lon="1.15702">
        <ele>41.2</ele>
        <time>2018-12-09T10:23:35Z</time>
      </trkpt>
      <trkpt lat="49.04557" lon="1.15705">
        <ele>41.5</ele>
        <time>2018-12-09T10:23:37Z</time>
      </trkpt>
    </trkseg>
  </trk>
</gpx>